<?xml version='1.0' encoding='UTF-8'?><gpx version="1.1" creator="JPX - https://github.com/jenetics/jpx" xmlns="http://www.topografix.com/GPX/1/1"><trk><trkseg><trkpt lat="40.5975089" lon="15.0063699"><ele>58.0</ele><time>2026-04-13T14:51:53.873Z</time></trkpt><trkpt lat="40.5975252" lon="15.0065444"><ele>58.0</ele><time>2026-04-13T14:51:55.872Z</time></trkpt><trkpt lat="40.5975309" lon="15.0066985"><ele>58.0</ele><time>2026-04-13T14:51:57.872Z</time></trkpt><trkpt lat="40.5975559" lon="15.0068639"><ele>58.0</ele><time>2026-04-13T14:51:59.874Z</time></trkpt><trkpt lat="40.5975738" lon="15.0069586"><ele>57.83333333333333</ele><time>2026-04-13T14:52:00.872Z</time></trkpt><trkpt lat="40.597593" lon="15.0070538"><ele>57.666666666666664</ele><time>2026-04-13T14:52:01.872Z</time></trkpt><trkpt lat="40.5976119" lon="15.0071479"><ele>57.5</ele><time>2026-04-13T14:52:02.872Z</time></trkpt><trkpt lat="40.5976289" lon="15.0072442"><ele>57.33333333333333</ele><time>2026-04-13T14:52:03.873Z</time></trkpt><trkpt lat="40.5976493" lon="15.0073444"><ele>57.166666666666664</ele><time>2026-04-13T14:52:04.873Z</time></trkpt><trkpt lat="40.5976674" lon="15.0074436"><ele>57.0</ele><time>2026-04-13T14:52:05.872Z</time></trkpt><trkpt lat="40.5976847" lon="15.0075451"><ele>56.833333333333336</ele><time>2026-04-13T14:52:06.873Z</time></trkpt><trkpt lat="40.5977062" lon="15.0076415"><ele>56.66666666666667</ele><time>2026-04-13T14:52:07.872Z</time></trkpt><trkpt lat="40.5977285" lon="15.0077448"><ele>56.5</ele><time>2026-04-13T14:52:08.873Z</time></trkpt><trkpt lat="40.5977566" lon="15.0078525"><ele>56.333333333333336</ele><time>2026-04-13T14:52:09.874Z</time></trkpt><trkpt lat="40.5977811" lon="15.0079685"><ele>56.16666666666667</ele><time>2026-04-13T14:52:10.872Z</time></trkpt><trkpt lat="40.5978014" lon="15.0080887"><ele>56.0</ele><time>2026-04-13T14:52:11.875Z</time></trkpt><trkpt lat="40.5978289" lon="15.0082104"><ele>56.4</ele><time>2026-04-13T14:52:12.872Z</time></trkpt><trkpt lat="40.5978488" lon="15.0083326"><ele>56.8</ele><time>2026-04-13T14:52:13.874Z</time></trkpt><trkpt lat="40.5978627" lon="15.0084559"><ele>57.199999999999996</ele><time>2026-04-13T14:52:14.873Z</time></trkpt><trkpt lat="40.5978877" lon="15.0085812"><ele>57.599999999999994</ele><time>2026-04-13T14:52:15.873Z</time></trkpt><trkpt lat="40.5979127" lon="15.0087068"><ele>58.0</ele><time>2026-04-13T14:52:16.873Z</time></trkpt><trkpt lat="40.5979401" lon="15.0088324"><ele>58.0</ele><time>2026-04-13T14:52:17.873Z</time></trkpt><trkpt lat="40.5979673" lon="15.0089592"><ele>58.0</ele><time>2026-04-13T14:52:18.872Z</time></trkpt><trkpt lat="40.5979955" lon="15.0090888"><ele>58.0</ele><time>2026-04-13T14:52:19.874Z</time></trkpt><trkpt lat="40.5980201" lon="15.0092149"><ele>58.0</ele><time>2026-04-13T14:52:20.873Z</time></trkpt><trkpt lat="40.5980429" lon="15.0093347"><ele>58.0</ele><time>2026-04-13T14:52:21.873Z</time></trkpt><trkpt lat="40.5980663" lon="15.0094513"><ele>57.99999999999999</ele><time>2026-04-13T14:52:22.875Z</time></trkpt><trkpt lat="40.5980825" lon="15.0095563"><ele>58.0</ele><time>2026-04-13T14:52:23.873Z</time></trkpt><trkpt lat="40.5980985" lon="15.0096406"><ele>58.0</ele><time>2026-04-13T14:52:24.875Z</time></trkpt><trkpt lat="40.5981082" lon="15.009727"><ele>58.0</ele><time>2026-04-13T14:52:26.872Z</time></trkpt><trkpt lat="40.5981717" lon="15.0097283"><ele>57.99999999999999</ele><time>2026-04-13T14:52:58.872Z</time></trkpt><trkpt lat="40.5982683" lon="15.0097033"><ele>58.0</ele><time>2026-04-13T14:52:59.873Z</time></trkpt><trkpt lat="40.598375" lon="15.0096617"><ele>58.0</ele><time>2026-04-13T14:53:00.875Z</time></trkpt><trkpt lat="40.5984883" lon="15.00961"><ele>58.0</ele><time>2026-04-13T14:53:01.874Z</time></trkpt><trkpt lat="40.5986033" lon="15.009565"><ele>58.0</ele><time>2026-04-13T14:53:02.874Z</time></trkpt><trkpt lat="40.598715" lon="15.009535"><ele>58.0</ele><time>2026-04-13T14:53:03.873Z</time></trkpt><trkpt lat="40.59882" lon="15.0095267"><ele>58.33333333333333</ele><time>2026-04-13T14:53:04.874Z</time></trkpt><trkpt lat="40.5989083" lon="15.0095433"><ele>58.666666666666664</ele><time>2026-04-13T14:53:05.873Z</time></trkpt><trkpt lat="40.5989833" lon="15.0095783"><ele>59.0</ele><time>2026-04-13T14:53:06.873Z</time></trkpt><trkpt lat="40.5990517" lon="15.0096183"><ele>59.33333333333333</ele><time>2026-04-13T14:53:07.873Z</time></trkpt><trkpt lat="40.599115" lon="15.0096483"><ele>59.666666666666664</ele><time>2026-04-13T14:53:08.874Z</time></trkpt><trkpt lat="40.59923" lon="15.009645"><ele>60.0</ele><time>2026-04-13T14:53:10.873Z</time></trkpt><trkpt lat="40.5992833" lon="15.009555"><ele>60.0</ele><time>2026-04-13T14:53:11.874Z</time></trkpt><trkpt lat="40.599325" lon="15.0094517"><ele>60.0</ele><time>2026-04-13T14:53:12.873Z</time></trkpt><trkpt lat="40.5993583" lon="15.009335"><ele>60.0</ele><time>2026-04-13T14:53:13.873Z</time></trkpt><trkpt lat="40.59939" lon="15.00922"><ele>60.0</ele><time>2026-04-13T14:53:14.874Z</time></trkpt><trkpt lat="40.599415" lon="15.0091017"><ele>60.0</ele><time>2026-04-13T14:53:15.873Z</time></trkpt><trkpt lat="40.599445" lon="15.0089867"><ele>60.2</ele><time>2026-04-13T14:53:16.872Z</time></trkpt><trkpt lat="40.5994733" lon="15.0088683"><ele>60.4</ele><time>2026-04-13T14:53:17.873Z</time></trkpt><trkpt lat="40.5994967" lon="15.0087517"><ele>60.599999999999994</ele><time>2026-04-13T14:53:18.873Z</time></trkpt><trkpt lat="40.5995133" lon="15.0086283"><ele>60.8</ele><time>2026-04-13T14:53:19.876Z</time></trkpt><trkpt lat="40.5995267" lon="15.0085033"><ele>61.0</ele><time>2026-04-13T14:53:20.873Z</time></trkpt><trkpt lat="40.5995367" lon="15.008375"><ele>62.0</ele><time>2026-04-13T14:53:21.874Z</time></trkpt><trkpt lat="40.599545" lon="15.0082433"><ele>62.99999999999999</ele><time>2026-04-13T14:53:22.878Z</time></trkpt><trkpt lat="40.5995517" lon="15.0081117"><ele>63.99999999999999</ele><time>2026-04-13T14:53:23.873Z</time></trkpt><trkpt lat="40.599555" lon="15.00798"><ele>65.0</ele><time>2026-04-13T14:53:24.876Z</time></trkpt><trkpt lat="40.599555" lon="15.0078467"><ele>66.0</ele><time>2026-04-13T14:53:25.875Z</time></trkpt><trkpt lat="40.5995533" lon="15.00771"><ele>66.0</ele><time>2026-04-13T14:53:26.874Z</time></trkpt><trkpt lat="40.59955" lon="15.0075717"><ele>66.0</ele><time>2026-04-13T14:53:27.874Z</time></trkpt><trkpt lat="40.5995467" lon="15.0074333"><ele>66.0</ele><time>2026-04-13T14:53:28.874Z</time></trkpt><trkpt lat="40.5995467" lon="15.007295"><ele>66.0</ele><time>2026-04-13T14:53:29.879Z</time></trkpt><trkpt lat="40.5995433" lon="15.00716"><ele>66.0</ele><time>2026-04-13T14:53:30.875Z</time></trkpt><trkpt lat="40.5995383" lon="15.00702"><ele>66.0</ele><time>2026-04-13T14:53:31.875Z</time></trkpt><trkpt lat="40.5995317" lon="15.0068817"><ele>66.0</ele><time>2026-04-13T14:53:32.875Z</time></trkpt><trkpt lat="40.5995267" lon="15.006745"><ele>66.0</ele><time>2026-04-13T14:53:33.873Z</time></trkpt><trkpt lat="40.5995183" lon="15.0066067"><ele>66.0</ele><time>2026-04-13T14:53:34.874Z</time></trkpt><trkpt lat="40.5995183" lon="15.006465"><ele>66.0</ele><time>2026-04-13T14:53:35.874Z</time></trkpt><trkpt lat="40.5995167" lon="15.0063233"><ele>66.0</ele><time>2026-04-13T14:53:36.874Z</time></trkpt><trkpt lat="40.599515" lon="15.006185"><ele>66.0</ele><time>2026-04-13T14:53:37.875Z</time></trkpt><trkpt lat="40.5995117" lon="15.00605"><ele>66.0</ele><time>2026-04-13T14:53:38.875Z</time></trkpt><trkpt lat="40.599505" lon="15.0059167"><ele>66.0</ele><time>2026-04-13T14:53:39.873Z</time></trkpt><trkpt lat="40.5995" lon="15.0057833"><ele>66.0</ele><time>2026-04-13T14:53:40.873Z</time></trkpt><trkpt lat="40.5994933" lon="15.0056483"><ele>65.2</ele><time>2026-04-13T14:53:41.875Z</time></trkpt><trkpt lat="40.5994883" lon="15.0055133"><ele>64.39999999999999</ele><time>2026-04-13T14:53:42.873Z</time></trkpt><trkpt lat="40.5994817" lon="15.0053783"><ele>63.6</ele><time>2026-04-13T14:53:43.874Z</time></trkpt><trkpt lat="40.5994767" lon="15.005245"><ele>62.8</ele><time>2026-04-13T14:53:44.874Z</time></trkpt><trkpt lat="40.5994733" lon="15.00511"><ele>62.0</ele><time>2026-04-13T14:53:45.873Z</time></trkpt><trkpt lat="40.59947" lon="15.004975"><ele>61.400000000000006</ele><time>2026-04-13T14:53:46.873Z</time></trkpt><trkpt lat="40.5994667" lon="15.0048417"><ele>60.800000000000004</ele><time>2026-04-13T14:53:47.873Z</time></trkpt><trkpt lat="40.59946" lon="15.0047083"><ele>60.2</ele><time>2026-04-13T14:53:48.874Z</time></trkpt><trkpt lat="40.5994567" lon="15.00457"><ele>59.6</ele><time>2026-04-13T14:53:49.873Z</time></trkpt><trkpt lat="40.5994533" lon="15.00443"><ele>59.0</ele><time>2026-04-13T14:53:50.873Z</time></trkpt><trkpt lat="40.5994517" lon="15.0042967"><ele>59.2</ele><time>2026-04-13T14:53:51.874Z</time></trkpt><trkpt lat="40.599445" lon="15.0041617"><ele>59.400000000000006</ele><time>2026-04-13T14:53:52.872Z</time></trkpt><trkpt lat="40.5994417" lon="15.004025"><ele>59.6</ele><time>2026-04-13T14:53:53.877Z</time></trkpt><trkpt lat="40.5994383" lon="15.0038933"><ele>59.8</ele><time>2026-04-13T14:53:54.874Z</time></trkpt><trkpt lat="40.5994417" lon="15.0037617"><ele>60.0</ele><time>2026-04-13T14:53:55.876Z</time></trkpt><trkpt lat="40.5994383" lon="15.00363"><ele>60.0</ele><time>2026-04-13T14:53:56.875Z</time></trkpt><trkpt lat="40.599435" lon="15.0035"><ele>60.0</ele><time>2026-04-13T14:53:57.874Z</time></trkpt><trkpt lat="40.5994283" lon="15.00337"><ele>60.0</ele><time>2026-04-13T14:53:58.875Z</time></trkpt><trkpt lat="40.5994233" lon="15.0032367"><ele>60.0</ele><time>2026-04-13T14:53:59.874Z</time></trkpt><trkpt lat="40.59942" lon="15.0031017"><ele>60.0</ele><time>2026-04-13T14:54:00.875Z</time></trkpt><trkpt lat="40.5994167" lon="15.0029667"><ele>60.2</ele><time>2026-04-13T14:54:01.875Z</time></trkpt><trkpt lat="40.5994117" lon="15.0028317"><ele>60.4</ele><time>2026-04-13T14:54:02.874Z</time></trkpt><trkpt lat="40.5994033" lon="15.002695"><ele>60.599999999999994</ele><time>2026-04-13T14:54:03.873Z</time></trkpt><trkpt lat="40.5994" lon="15.002555"><ele>60.8</ele><time>2026-04-13T14:54:04.873Z</time></trkpt><trkpt lat="40.5993917" lon="15.0024117"><ele>61.0</ele><time>2026-04-13T14:54:05.875Z</time></trkpt><trkpt lat="40.5993817" lon="15.002265"><ele>61.4</ele><time>2026-04-13T14:54:06.873Z</time></trkpt><trkpt lat="40.5993733" lon="15.0021233"><ele>61.8</ele><time>2026-04-13T14:54:07.874Z</time></trkpt><trkpt lat="40.5993617" lon="15.00198"><ele>62.199999999999996</ele><time>2026-04-13T14:54:08.873Z</time></trkpt><trkpt lat="40.5993433" lon="15.0018367"><ele>62.599999999999994</ele><time>2026-04-13T14:54:09.873Z</time></trkpt><trkpt lat="40.5993233" lon="15.001695"><ele>63.0</ele><time>2026-04-13T14:54:10.873Z</time></trkpt><trkpt lat="40.5993017" lon="15.0015517"><ele>63.2</ele><time>2026-04-13T14:54:11.875Z</time></trkpt><trkpt lat="40.5992783" lon="15.0014083"><ele>63.4</ele><time>2026-04-13T14:54:12.875Z</time></trkpt><trkpt lat="40.5992567" lon="15.00127"><ele>63.60000000000001</ele><time>2026-04-13T14:54:13.875Z</time></trkpt><trkpt lat="40.5992267" lon="15.001135"><ele>63.800000000000004</ele><time>2026-04-13T14:54:14.877Z</time></trkpt><trkpt lat="40.5991967" lon="15.0009967"><ele>64.0</ele><time>2026-04-13T14:54:15.875Z</time></trkpt><trkpt lat="40.5991683" lon="15.000865"><ele>64.16666666666666</ele><time>2026-04-13T14:54:16.873Z</time></trkpt><trkpt lat="40.599145" lon="15.000735"><ele>64.33333333333333</ele><time>2026-04-13T14:54:17.874Z</time></trkpt><trkpt lat="40.5991383" lon="15.0006167"><ele>64.5</ele><time>2026-04-13T14:54:18.876Z</time></trkpt><trkpt lat="40.5991467" lon="15.0005117"><ele>64.66666666666667</ele><time>2026-04-13T14:54:19.877Z</time></trkpt><trkpt lat="40.599165" lon="15.00043"><ele>64.83333333333334</ele><time>2026-04-13T14:54:20.875Z</time></trkpt><trkpt lat="40.5992267" lon="15.0003433"><ele>65.0</ele><time>2026-04-13T14:54:22.876Z</time></trkpt><trkpt lat="40.5993333" lon="15.00031"><ele>65.0</ele><time>2026-04-13T14:54:24.876Z</time></trkpt><trkpt lat="40.5994117" lon="15.0003183"><ele>65.0</ele><time>2026-04-13T14:54:25.876Z</time></trkpt><trkpt lat="40.5994917" lon="15.0003333"><ele>65.0</ele><time>2026-04-13T14:54:26.875Z</time></trkpt><trkpt lat="40.59959" lon="15.000395"><ele>65.0</ele><time>2026-04-13T14:54:27.875Z</time></trkpt><trkpt lat="40.599695" lon="15.0004533"><ele>65.0</ele><time>2026-04-13T14:54:28.875Z</time></trkpt><trkpt lat="40.5998" lon="15.0005133"><ele>65.5</ele><time>2026-04-13T14:54:29.875Z</time></trkpt><trkpt lat="40.599905" lon="15.0005767"><ele>66.0</ele><time>2026-04-13T14:54:30.875Z</time></trkpt><trkpt lat="40.6000167" lon="15.0006383"><ele>66.5</ele><time>2026-04-13T14:54:31.875Z</time></trkpt><trkpt lat="40.6001217" lon="15.0006967"><ele>67.0</ele><time>2026-04-13T14:54:32.875Z</time></trkpt><trkpt lat="40.60023" lon="15.0007517"><ele>67.0</ele><time>2026-04-13T14:54:33.873Z</time></trkpt><trkpt lat="40.6003367" lon="15.0008083"><ele>67.0</ele><time>2026-04-13T14:54:34.877Z</time></trkpt><trkpt lat="40.6004433" lon="15.0008683"><ele>67.0</ele><time>2026-04-13T14:54:35.875Z</time></trkpt><trkpt lat="40.6005517" lon="15.0009283"><ele>67.0</ele><time>2026-04-13T14:54:36.875Z</time></trkpt><trkpt lat="40.6006583" lon="15.0009833"><ele>67.25</ele><time>2026-04-13T14:54:37.874Z</time></trkpt><trkpt lat="40.6007667" lon="15.0010367"><ele>67.5</ele><time>2026-04-13T14:54:38.873Z</time></trkpt><trkpt lat="40.6008733" lon="15.00109"><ele>67.75</ele><time>2026-04-13T14:54:39.873Z</time></trkpt><trkpt lat="40.60098" lon="15.0011433"><ele>68.0</ele><time>2026-04-13T14:54:40.874Z</time></trkpt><trkpt lat="40.6010867" lon="15.0012"><ele>68.25</ele><time>2026-04-13T14:54:41.873Z</time></trkpt><trkpt lat="40.6011917" lon="15.0012567"><ele>68.5</ele><time>2026-04-13T14:54:42.874Z</time></trkpt><trkpt lat="40.6012983" lon="15.001305"><ele>68.75</ele><time>2026-04-13T14:54:43.875Z</time></trkpt><trkpt lat="40.6014067" lon="15.0013483"><ele>69.0</ele><time>2026-04-13T14:54:44.873Z</time></trkpt><trkpt lat="40.601515" lon="15.001395"><ele>69.0</ele><time>2026-04-13T14:54:45.873Z</time></trkpt><trkpt lat="40.6016233" lon="15.0014383"><ele>69.0</ele><time>2026-04-13T14:54:46.873Z</time></trkpt><trkpt lat="40.6017367" lon="15.001475"><ele>69.0</ele><time>2026-04-13T14:54:47.875Z</time></trkpt><trkpt lat="40.60185" lon="15.001505"><ele>69.0</ele><time>2026-04-13T14:54:48.873Z</time></trkpt><trkpt lat="40.6019633" lon="15.00153"><ele>69.75</ele><time>2026-04-13T14:54:49.873Z</time></trkpt><trkpt lat="40.6020767" lon="15.0015483"><ele>70.5</ele><time>2026-04-13T14:54:50.873Z</time></trkpt><trkpt lat="40.6021917" lon="15.001565"><ele>71.25</ele><time>2026-04-13T14:54:51.873Z</time></trkpt><trkpt lat="40.6023083" lon="15.0015783"><ele>72.0</ele><time>2026-04-13T14:54:52.873Z</time></trkpt><trkpt lat="40.6024233" lon="15.0015917"><ele>72.0</ele><time>2026-04-13T14:54:53.875Z</time></trkpt><trkpt lat="40.6025333" lon="15.0016067"><ele>72.0</ele><time>2026-04-13T14:54:54.873Z</time></trkpt><trkpt lat="40.6026333" lon="15.001625"><ele>72.0</ele><time>2026-04-13T14:54:55.876Z</time></trkpt><trkpt lat="40.6027183" lon="15.0016467"><ele>72.0</ele><time>2026-04-13T14:54:56.874Z</time></trkpt><trkpt lat="40.6027983" lon="15.001675"><ele>72.0</ele><time>2026-04-13T14:54:57.875Z</time></trkpt><trkpt lat="40.60286" lon="15.0017233"><ele>72.8</ele><time>2026-04-13T14:54:58.874Z</time></trkpt><trkpt lat="40.6029117" lon="15.0017933"><ele>73.6</ele><time>2026-04-13T14:54:59.875Z</time></trkpt><trkpt lat="40.6029567" lon="15.0018683"><ele>74.39999999999999</ele><time>2026-04-13T14:55:00.876Z</time></trkpt><trkpt lat="40.6030517" lon="15.0019567"><ele>75.2</ele><time>2026-04-13T14:55:02.875Z</time></trkpt><trkpt lat="40.6031583" lon="15.0019"><ele>76.0</ele><time>2026-04-13T14:55:04.874Z</time></trkpt><trkpt lat="40.6032083" lon="15.0018267"><ele>76.0</ele><time>2026-04-13T14:55:05.873Z</time></trkpt><trkpt lat="40.6032517" lon="15.0017383"><ele>76.0</ele><time>2026-04-13T14:55:06.874Z</time></trkpt><trkpt lat="40.603285" lon="15.0016233"><ele>76.0</ele><time>2026-04-13T14:55:07.873Z</time></trkpt><trkpt lat="40.60332" lon="15.0015167"><ele>76.0</ele><time>2026-04-13T14:55:08.873Z</time></trkpt><trkpt lat="40.6033533" lon="15.0014033"><ele>76.0</ele><time>2026-04-13T14:55:09.874Z</time></trkpt><trkpt lat="40.6033867" lon="15.0012933"><ele>76.0</ele><time>2026-04-13T14:55:10.873Z</time></trkpt><trkpt lat="40.6034217" lon="15.0011833"><ele>75.8</ele><time>2026-04-13T14:55:11.873Z</time></trkpt><trkpt lat="40.6034533" lon="15.00107"><ele>75.6</ele><time>2026-04-13T14:55:12.876Z</time></trkpt><trkpt lat="40.6034833" lon="15.0009517"><ele>75.4</ele><time>2026-04-13T14:55:13.877Z</time></trkpt><trkpt lat="40.603515" lon="15.0008367"><ele>75.2</ele><time>2026-04-13T14:55:14.874Z</time></trkpt><trkpt lat="40.6035483" lon="15.0007233"><ele>75.0</ele><time>2026-04-13T14:55:15.874Z</time></trkpt><trkpt lat="40.6035817" lon="15.00061"><ele>74.66666666666667</ele><time>2026-04-13T14:55:16.875Z</time></trkpt><trkpt lat="40.6036083" lon="15.00049"><ele>74.33333333333333</ele><time>2026-04-13T14:55:17.874Z</time></trkpt><trkpt lat="40.6036367" lon="15.0003733"><ele>74.0</ele><time>2026-04-13T14:55:18.874Z</time></trkpt><trkpt lat="40.6036683" lon="15.0002633"><ele>73.66666666666666</ele><time>2026-04-13T14:55:19.874Z</time></trkpt><trkpt lat="40.6037067" lon="15.0001617"><ele>73.33333333333333</ele><time>2026-04-13T14:55:20.873Z</time></trkpt><trkpt lat="40.60374" lon="15.0000633"><ele>73.0</ele><time>2026-04-13T14:55:21.873Z</time></trkpt><trkpt lat="40.6037733" lon="14.9999617"><ele>74.16666666666666</ele><time>2026-04-13T14:55:22.873Z</time></trkpt><trkpt lat="40.6038017" lon="14.999855"><ele>75.33333333333333</ele><time>2026-04-13T14:55:23.874Z</time></trkpt><trkpt lat="40.6038317" lon="14.9997467"><ele>76.5</ele><time>2026-04-13T14:55:24.875Z</time></trkpt><trkpt lat="40.603865" lon="14.99964"><ele>77.66666666666667</ele><time>2026-04-13T14:55:25.875Z</time></trkpt><trkpt lat="40.6039" lon="14.9995317"><ele>78.83333333333334</ele><time>2026-04-13T14:55:26.873Z</time></trkpt><trkpt lat="40.6039283" lon="14.9994267"><ele>80.0</ele><time>2026-04-13T14:55:27.874Z</time></trkpt><trkpt lat="40.60396" lon="14.999325"><ele>80.0</ele><time>2026-04-13T14:55:28.873Z</time></trkpt><trkpt lat="40.6039933" lon="14.9992267"><ele>80.0</ele><time>2026-04-13T14:55:29.876Z</time></trkpt><trkpt lat="40.604025" lon="14.9991267"><ele>80.0</ele><time>2026-04-13T14:55:30.873Z</time></trkpt><trkpt lat="40.6040517" lon="14.9990217"><ele>80.0</ele><time>2026-04-13T14:55:31.873Z</time></trkpt><trkpt lat="40.604085" lon="14.9989167"><ele>80.0</ele><time>2026-04-13T14:55:32.874Z</time></trkpt><trkpt lat="40.604115" lon="14.9988133"><ele>80.0</ele><time>2026-04-13T14:55:33.873Z</time></trkpt><trkpt lat="40.6041483" lon="14.998715"><ele>80.0</ele><time>2026-04-13T14:55:34.873Z</time></trkpt><trkpt lat="40.6041833" lon="14.998615"><ele>80.0</ele><time>2026-04-13T14:55:35.873Z</time></trkpt><trkpt lat="40.6042217" lon="14.9985217"><ele>80.0</ele><time>2026-04-13T14:55:36.874Z</time></trkpt><trkpt lat="40.6042533" lon="14.9984183"><ele>80.0</ele><time>2026-04-13T14:55:37.873Z</time></trkpt><trkpt lat="40.6042867" lon="14.99832"><ele>80.0</ele><time>2026-04-13T14:55:38.874Z</time></trkpt><trkpt lat="40.6043267" lon="14.9982333"><ele>80.0</ele><time>2026-04-13T14:55:39.873Z</time></trkpt><trkpt lat="40.60435" lon="14.9981317"><ele>79.33333333333334</ele><time>2026-04-13T14:55:40.874Z</time></trkpt><trkpt lat="40.604375" lon="14.998025"><ele>78.66666666666667</ele><time>2026-04-13T14:55:41.873Z</time></trkpt><trkpt lat="40.604405" lon="14.997925"><ele>78.0</ele><time>2026-04-13T14:55:42.873Z</time></trkpt><trkpt lat="40.604435" lon="14.997825"><ele>77.33333333333333</ele><time>2026-04-13T14:55:43.875Z</time></trkpt><trkpt lat="40.604465" lon="14.99772"><ele>76.66666666666666</ele><time>2026-04-13T14:55:44.875Z</time></trkpt><trkpt lat="40.6044967" lon="14.9976117"><ele>76.0</ele><time>2026-04-13T14:55:45.873Z</time></trkpt><trkpt lat="40.6045333" lon="14.9975"><ele>75.83333333333333</ele><time>2026-04-13T14:55:46.873Z</time></trkpt><trkpt lat="40.6045717" lon="14.9973933"><ele>75.66666666666666</ele><time>2026-04-13T14:55:47.875Z</time></trkpt><trkpt lat="40.6046033" lon="14.99729"><ele>75.5</ele><time>2026-04-13T14:55:48.875Z</time></trkpt><trkpt lat="40.60464" lon="14.9972033"><ele>75.33333333333333</ele><time>2026-04-13T14:55:49.875Z</time></trkpt><trkpt lat="40.604675" lon="14.9971167"><ele>75.16666666666667</ele><time>2026-04-13T14:55:50.875Z</time></trkpt><trkpt lat="40.6047467" lon="14.9969983"><ele>75.0</ele><time>2026-04-13T14:55:52.875Z</time></trkpt><trkpt lat="40.6048133" lon="14.997015"><ele>75.0</ele><time>2026-04-13T14:55:53.873Z</time></trkpt><trkpt lat="40.6049283" lon="14.99712"><ele>75.0</ele><time>2026-04-13T14:55:55.874Z</time></trkpt><trkpt lat="40.6049833" lon="14.9972133"><ele>75.0</ele><time>2026-04-13T14:55:56.877Z</time></trkpt><trkpt lat="40.6050383" lon="14.99731"><ele>75.0</ele><time>2026-04-13T14:55:57.875Z</time></trkpt><trkpt lat="40.6050983" lon="14.9974"><ele>75.0</ele><time>2026-04-13T14:55:58.875Z</time></trkpt><trkpt lat="40.6051617" lon="14.9974917"><ele>75.2</ele><time>2026-04-13T14:55:59.873Z</time></trkpt><trkpt lat="40.6052267" lon="14.9975917"><ele>75.4</ele><time>2026-04-13T14:56:00.876Z</time></trkpt><trkpt lat="40.6052917" lon="14.9977017"><ele>75.6</ele><time>2026-04-13T14:56:01.875Z</time></trkpt><trkpt lat="40.605355" lon="14.9978033"><ele>75.8</ele><time>2026-04-13T14:56:02.875Z</time></trkpt><trkpt lat="40.60542" lon="14.9978967"><ele>76.0</ele><time>2026-04-13T14:56:03.874Z</time></trkpt><trkpt lat="40.6054867" lon="14.9979967"><ele>76.39999999999999</ele><time>2026-04-13T14:56:04.874Z</time></trkpt><trkpt lat="40.60555" lon="14.9980983"><ele>76.8</ele><time>2026-04-13T14:56:05.878Z</time></trkpt><trkpt lat="40.605615" lon="14.9982"><ele>77.19999999999999</ele><time>2026-04-13T14:56:06.872Z</time></trkpt><trkpt lat="40.60568" lon="14.9983017"><ele>77.6</ele><time>2026-04-13T14:56:07.875Z</time></trkpt><trkpt lat="40.6057467" lon="14.9984"><ele>78.0</ele><time>2026-04-13T14:56:08.875Z</time></trkpt><trkpt lat="40.6058167" lon="14.9984967"><ele>78.4</ele><time>2026-04-13T14:56:09.874Z</time></trkpt><trkpt lat="40.6058817" lon="14.998595"><ele>78.8</ele><time>2026-04-13T14:56:10.874Z</time></trkpt><trkpt lat="40.60595" lon="14.9986933"><ele>79.2</ele><time>2026-04-13T14:56:11.874Z</time></trkpt><trkpt lat="40.6060133" lon="14.9987917"><ele>79.6</ele><time>2026-04-13T14:56:12.874Z</time></trkpt><trkpt lat="40.606075" lon="14.998885"><ele>80.0</ele><time>2026-04-13T14:56:13.874Z</time></trkpt><trkpt lat="40.6061383" lon="14.998975"><ele>80.16666666666667</ele><time>2026-04-13T14:56:14.874Z</time></trkpt><trkpt lat="40.6062017" lon="14.999065"><ele>80.33333333333334</ele><time>2026-04-13T14:56:15.875Z</time></trkpt><trkpt lat="40.6062633" lon="14.9991567"><ele>80.5</ele><time>2026-04-13T14:56:16.876Z</time></trkpt><trkpt lat="40.6063283" lon="14.99925"><ele>80.66666666666667</ele><time>2026-04-13T14:56:17.874Z</time></trkpt><trkpt lat="40.60639" lon="14.99933"><ele>80.83333333333333</ele><time>2026-04-13T14:56:18.875Z</time></trkpt><trkpt lat="40.6064517" lon="14.9993983"><ele>81.0</ele><time>2026-04-13T14:56:19.874Z</time></trkpt><trkpt lat="40.6065133" lon="14.9994483"><ele>81.0</ele><time>2026-04-13T14:56:20.875Z</time></trkpt><trkpt lat="40.6066067" lon="14.9994567"><ele>81.0</ele><time>2026-04-13T14:56:22.876Z</time></trkpt><trkpt lat="40.6066767" lon="14.9994117"><ele>81.0</ele><time>2026-04-13T14:56:23.875Z</time></trkpt><trkpt lat="40.6067583" lon="14.99934"><ele>81.0</ele><time>2026-04-13T14:56:24.876Z</time></trkpt><trkpt lat="40.6068483" lon="14.9992583"><ele>81.0</ele><time>2026-04-13T14:56:25.875Z</time></trkpt><trkpt lat="40.606935" lon="14.999175"><ele>81.0</ele><time>2026-04-13T14:56:26.875Z</time></trkpt><trkpt lat="40.6070217" lon="14.9990833"><ele>81.0</ele><time>2026-04-13T14:56:27.876Z</time></trkpt><trkpt lat="40.6071067" lon="14.998995"><ele>81.0</ele><time>2026-04-13T14:56:28.877Z</time></trkpt><trkpt lat="40.6071917" lon="14.9989"><ele>81.0</ele><time>2026-04-13T14:56:29.876Z</time></trkpt><trkpt lat="40.6072733" lon="14.9987983"><ele>81.0</ele><time>2026-04-13T14:56:30.876Z</time></trkpt><trkpt lat="40.6073567" lon="14.9986967"><ele>81.0</ele><time>2026-04-13T14:56:31.873Z</time></trkpt><trkpt lat="40.60744" lon="14.9986017"><ele>81.0</ele><time>2026-04-13T14:56:32.873Z</time></trkpt><trkpt lat="40.607525" lon="14.9985117"><ele>81.0</ele><time>2026-04-13T14:56:33.874Z</time></trkpt><trkpt lat="40.6076167" lon="14.99843"><ele>81.0</ele><time>2026-04-13T14:56:34.874Z</time></trkpt><trkpt lat="40.6077067" lon="14.9983533"><ele>81.0</ele><time>2026-04-13T14:56:35.874Z</time></trkpt><trkpt lat="40.6077967" lon="14.998275"><ele>81.4</ele><time>2026-04-13T14:56:36.874Z</time></trkpt><trkpt lat="40.607885" lon="14.9981967"><ele>81.8</ele><time>2026-04-13T14:56:37.88Z</time></trkpt><trkpt lat="40.6079717" lon="14.998115"><ele>82.2</ele><time>2026-04-13T14:56:38.874Z</time></trkpt><trkpt lat="40.6080583" lon="14.99804"><ele>82.60000000000001</ele><time>2026-04-13T14:56:39.874Z</time></trkpt><trkpt lat="40.6081483" lon="14.9979717"><ele>83.0</ele><time>2026-04-13T14:56:40.875Z</time></trkpt><trkpt lat="40.6082367" lon="14.9979033"><ele>83.0</ele><time>2026-04-13T14:56:41.874Z</time></trkpt><trkpt lat="40.6083233" lon="14.9978283"><ele>83.0</ele><time>2026-04-13T14:56:42.877Z</time></trkpt><trkpt lat="40.6084067" lon="14.9977517"><ele>83.0</ele><time>2026-04-13T14:56:43.876Z</time></trkpt><trkpt lat="40.6084917" lon="14.9976767"><ele>83.0</ele><time>2026-04-13T14:56:44.876Z</time></trkpt><trkpt lat="40.6085767" lon="14.9976083"><ele>83.0</ele><time>2026-04-13T14:56:45.875Z</time></trkpt><trkpt lat="40.6086717" lon="14.9975483"><ele>82.80000000000001</ele><time>2026-04-13T14:56:46.876Z</time></trkpt><trkpt lat="40.608765" lon="14.9974867"><ele>82.6</ele><time>2026-04-13T14:56:47.874Z</time></trkpt><trkpt lat="40.6088617" lon="14.9974217"><ele>82.4</ele><time>2026-04-13T14:56:48.874Z</time></trkpt><trkpt lat="40.60896" lon="14.9973533"><ele>82.19999999999999</ele><time>2026-04-13T14:56:49.874Z</time></trkpt><trkpt lat="40.609055" lon="14.9972867"><ele>82.0</ele><time>2026-04-13T14:56:50.874Z</time></trkpt><trkpt lat="40.6091417" lon="14.9972317"><ele>82.0</ele><time>2026-04-13T14:56:51.875Z</time></trkpt><trkpt lat="40.6092233" lon="14.9971883"><ele>82.0</ele><time>2026-04-13T14:56:52.874Z</time></trkpt><trkpt lat="40.6093017" lon="14.99715"><ele>82.0</ele><time>2026-04-13T14:56:53.874Z</time></trkpt><trkpt lat="40.6093767" lon="14.9971067"><ele>82.0</ele><time>2026-04-13T14:56:54.876Z</time></trkpt><trkpt lat="40.6094583" lon="14.9970583"><ele>82.0</ele><time>2026-04-13T14:56:55.875Z</time></trkpt><trkpt lat="40.60954" lon="14.9970133"><ele>82.0</ele><time>2026-04-13T14:56:56.879Z</time></trkpt><trkpt lat="40.6096217" lon="14.9969683"><ele>83.0</ele><time>2026-04-13T14:56:57.875Z</time></trkpt><trkpt lat="40.6097083" lon="14.9969233"><ele>84.0</ele><time>2026-04-13T14:56:58.874Z</time></trkpt><trkpt lat="40.6097933" lon="14.996875"><ele>85.0</ele><time>2026-04-13T14:56:59.875Z</time></trkpt><trkpt lat="40.6098817" lon="14.996825"><ele>86.0</ele><time>2026-04-13T14:57:00.874Z</time></trkpt><trkpt lat="40.6099717" lon="14.9967667"><ele>87.0</ele><time>2026-04-13T14:57:01.875Z</time></trkpt><trkpt lat="40.6100583" lon="14.9967033"><ele>86.0</ele><time>2026-04-13T14:57:02.875Z</time></trkpt><trkpt lat="40.6101483" lon="14.9966417"><ele>85.0</ele><time>2026-04-13T14:57:03.874Z</time></trkpt><trkpt lat="40.6102367" lon="14.99658"><ele>84.0</ele><time>2026-04-13T14:57:04.874Z</time></trkpt><trkpt lat="40.610325" lon="14.9965217"><ele>83.0</ele><time>2026-04-13T14:57:05.874Z</time></trkpt><trkpt lat="40.610415" lon="14.9964583"><ele>82.0</ele><time>2026-04-13T14:57:06.876Z</time></trkpt><trkpt lat="40.610505" lon="14.9963917"><ele>84.0</ele><time>2026-04-13T14:57:07.876Z</time></trkpt><trkpt lat="40.6105967" lon="14.9963233"><ele>86.0</ele><time>2026-04-13T14:57:08.876Z</time></trkpt><trkpt lat="40.610685" lon="14.9962467"><ele>88.0</ele><time>2026-04-13T14:57:09.874Z</time></trkpt><trkpt lat="40.6107767" lon="14.9961767"><ele>90.0</ele><time>2026-04-13T14:57:10.875Z</time></trkpt><trkpt lat="40.61087" lon="14.99611"><ele>92.0</ele><time>2026-04-13T14:57:11.875Z</time></trkpt><trkpt lat="40.6109633" lon="14.9960417"><ele>92.0</ele><time>2026-04-13T14:57:12.874Z</time></trkpt><trkpt lat="40.6110633" lon="14.9959817"><ele>92.0</ele><time>2026-04-13T14:57:13.875Z</time></trkpt><trkpt lat="40.611165" lon="14.99592"><ele>92.0</ele><time>2026-04-13T14:57:14.874Z</time></trkpt><trkpt lat="40.611265" lon="14.9958467"><ele>92.0</ele><time>2026-04-13T14:57:15.875Z</time></trkpt><trkpt lat="40.6113583" lon="14.9957667"><ele>92.0</ele><time>2026-04-13T14:57:16.875Z</time></trkpt><trkpt lat="40.6114483" lon="14.9956833"><ele>93.8</ele><time>2026-04-13T14:57:17.874Z</time></trkpt><trkpt lat="40.6115417" lon="14.9955967"><ele>95.6</ele><time>2026-04-13T14:57:18.875Z</time></trkpt><trkpt lat="40.6116333" lon="14.99552"><ele>97.39999999999999</ele><time>2026-04-13T14:57:19.874Z</time></trkpt><trkpt lat="40.611725" lon="14.9954533"><ele>99.19999999999999</ele><time>2026-04-13T14:57:20.874Z</time></trkpt><trkpt lat="40.6118183" lon="14.9953883"><ele>101.0</ele><time>2026-04-13T14:57:21.875Z</time></trkpt><trkpt lat="40.611915" lon="14.9953233"><ele>102.4</ele><time>2026-04-13T14:57:22.875Z</time></trkpt><trkpt lat="40.6120067" lon="14.9952433"><ele>103.8</ele><time>2026-04-13T14:57:23.874Z</time></trkpt><trkpt lat="40.612095" lon="14.9951567"><ele>105.20000000000002</ele><time>2026-04-13T14:57:24.874Z</time></trkpt><trkpt lat="40.612175" lon="14.9950667"><ele>106.60000000000001</ele><time>2026-04-13T14:57:25.874Z</time></trkpt><trkpt lat="40.6122467" lon="14.9949717"><ele>108.0</ele><time>2026-04-13T14:57:26.875Z</time></trkpt><trkpt lat="40.6123083" lon="14.9948817"><ele>108.0</ele><time>2026-04-13T14:57:27.873Z</time></trkpt><trkpt lat="40.6123717" lon="14.9947983"><ele>108.0</ele><time>2026-04-13T14:57:28.875Z</time></trkpt><trkpt lat="40.6124967" lon="14.9946567"><ele>108.0</ele><time>2026-04-13T14:57:30.875Z</time></trkpt><trkpt lat="40.6125633" lon="14.994585"><ele>108.0</ele><time>2026-04-13T14:57:31.872Z</time></trkpt><trkpt lat="40.61278" lon="14.9943533"><ele>108.33333333333334</ele><time>2026-04-13T14:57:34.875Z</time></trkpt><trkpt lat="40.612855" lon="14.9942767"><ele>108.66666666666667</ele><time>2026-04-13T14:57:35.874Z</time></trkpt><trkpt lat="40.6129333" lon="14.9942017"><ele>109.0</ele><time>2026-04-13T14:57:36.874Z</time></trkpt><trkpt lat="40.6131667" lon="14.9939567"><ele>109.0</ele><time>2026-04-13T14:57:39.874Z</time></trkpt><trkpt lat="40.6132433" lon="14.993865"><ele>109.0</ele><time>2026-04-13T14:57:40.875Z</time></trkpt><trkpt lat="40.6133267" lon="14.99378"><ele>109.0</ele><time>2026-04-13T14:57:41.878Z</time></trkpt><trkpt lat="40.6134067" lon="14.993685"><ele>109.0</ele><time>2026-04-13T14:57:42.873Z</time></trkpt><trkpt lat="40.6134867" lon="14.99359"><ele>109.0</ele><time>2026-04-13T14:57:43.876Z</time></trkpt><trkpt lat="40.6135667" lon="14.9934983"><ele>109.0</ele><time>2026-04-13T14:57:44.873Z</time></trkpt><trkpt lat="40.6136517" lon="14.9934117"><ele>109.0</ele><time>2026-04-13T14:57:45.874Z</time></trkpt><trkpt lat="40.6137433" lon="14.9933333"><ele>109.0</ele><time>2026-04-13T14:57:46.876Z</time></trkpt><trkpt lat="40.613825" lon="14.9932583"><ele>109.0</ele><time>2026-04-13T14:57:47.874Z</time></trkpt><trkpt lat="40.61389" lon="14.9932083"><ele>109.0</ele><time>2026-04-13T14:57:48.874Z</time></trkpt><trkpt lat="40.6139533" lon="14.9931783"><ele>111.16666666666667</ele><time>2026-04-13T14:57:50.875Z</time></trkpt><trkpt lat="40.6139533" lon="14.9932783"><ele>113.33333333333334</ele><time>2026-04-13T14:57:52.874Z</time></trkpt><trkpt lat="40.6139" lon="14.9934"><ele>115.5</ele><time>2026-04-13T14:57:54.875Z</time></trkpt><trkpt lat="40.613865" lon="14.9934767"><ele>117.66666666666666</ele><time>2026-04-13T14:57:55.874Z</time></trkpt><trkpt lat="40.6138267" lon="14.9935617"><ele>119.83333333333333</ele><time>2026-04-13T14:57:56.874Z</time></trkpt><trkpt lat="40.61379" lon="14.993655"><ele>122.0</ele><time>2026-04-13T14:57:57.874Z</time></trkpt><trkpt lat="40.6137567" lon="14.99375"><ele>122.0</ele><time>2026-04-13T14:57:58.875Z</time></trkpt><trkpt lat="40.61373" lon="14.9938667"><ele>121.99999999999999</ele><time>2026-04-13T14:57:59.875Z</time></trkpt><trkpt lat="40.6137033" lon="14.993985"><ele>121.99999999999999</ele><time>2026-04-13T14:58:00.875Z</time></trkpt><trkpt lat="40.6136783" lon="14.994095"><ele>122.0</ele><time>2026-04-13T14:58:01.875Z</time></trkpt><trkpt lat="40.6136617" lon="14.99421"><ele>122.0</ele><time>2026-04-13T14:58:02.875Z</time></trkpt><trkpt lat="40.6136467" lon="14.9943267"><ele>122.0</ele><time>2026-04-13T14:58:03.874Z</time></trkpt><trkpt lat="40.6136333" lon="14.9944433"><ele>121.99999999999999</ele><time>2026-04-13T14:58:04.875Z</time></trkpt><trkpt lat="40.6136283" lon="14.994565"><ele>121.99999999999999</ele><time>2026-04-13T14:58:05.874Z</time></trkpt><trkpt lat="40.6136217" lon="14.9946883"><ele>122.0</ele><time>2026-04-13T14:58:06.875Z</time></trkpt><trkpt lat="40.6136067" lon="14.994815"><ele>122.0</ele><time>2026-04-13T14:58:07.875Z</time></trkpt><trkpt lat="40.6135983" lon="14.9949417"><ele>124.6</ele><time>2026-04-13T14:58:08.875Z</time></trkpt><trkpt lat="40.6135783" lon="14.9950617"><ele>127.19999999999999</ele><time>2026-04-13T14:58:09.874Z</time></trkpt><trkpt lat="40.61357" lon="14.99519"><ele>129.8</ele><time>2026-04-13T14:58:10.874Z</time></trkpt><trkpt lat="40.6135633" lon="14.995325"><ele>132.4</ele><time>2026-04-13T14:58:11.875Z</time></trkpt><trkpt lat="40.61355" lon="14.995455"><ele>135.0</ele><time>2026-04-13T14:58:12.874Z</time></trkpt><trkpt lat="40.613535" lon="14.9955867"><ele>135.0</ele><time>2026-04-13T14:58:13.874Z</time></trkpt><trkpt lat="40.6135117" lon="14.9957117"><ele>135.0</ele><time>2026-04-13T14:58:14.874Z</time></trkpt><trkpt lat="40.6134783" lon="14.9958283"><ele>135.0</ele><time>2026-04-13T14:58:15.875Z</time></trkpt><trkpt lat="40.61344" lon="14.9959567"><ele>135.0</ele><time>2026-04-13T14:58:16.874Z</time></trkpt><trkpt lat="40.613395" lon="14.99609"><ele>135.0</ele><time>2026-04-13T14:58:17.874Z</time></trkpt><trkpt lat="40.6133417" lon="14.996225"><ele>136.6</ele><time>2026-04-13T14:58:18.875Z</time></trkpt><trkpt lat="40.61329" lon="14.996355"><ele>138.2</ele><time>2026-04-13T14:58:19.874Z</time></trkpt><trkpt lat="40.6132333" lon="14.9964817"><ele>139.8</ele><time>2026-04-13T14:58:20.875Z</time></trkpt><trkpt lat="40.6131783" lon="14.9966033"><ele>141.4</ele><time>2026-04-13T14:58:21.875Z</time></trkpt><trkpt lat="40.6131267" lon="14.99672"><ele>143.0</ele><time>2026-04-13T14:58:22.874Z</time></trkpt><trkpt lat="40.6130817" lon="14.9968333"><ele>144.8</ele><time>2026-04-13T14:58:23.876Z</time></trkpt><trkpt lat="40.6130383" lon="14.99695"><ele>146.60000000000002</ele><time>2026-04-13T14:58:24.877Z</time></trkpt><trkpt lat="40.6129917" lon="14.9970567"><ele>148.39999999999998</ele><time>2026-04-13T14:58:25.875Z</time></trkpt><trkpt lat="40.6129517" lon="14.9971467"><ele>150.2</ele><time>2026-04-13T14:58:26.875Z</time></trkpt><trkpt lat="40.6129033" lon="14.9972633"><ele>152.0</ele><time>2026-04-13T14:58:28.876Z</time></trkpt><trkpt lat="40.6129483" lon="14.9973633"><ele>152.0</ele><time>2026-04-13T14:58:32.873Z</time></trkpt><trkpt lat="40.6130467" lon="14.9974633"><ele>152.0</ele><time>2026-04-13T14:58:34.875Z</time></trkpt><trkpt lat="40.6131283" lon="14.9975117"><ele>152.0</ele><time>2026-04-13T14:58:35.873Z</time></trkpt><trkpt lat="40.6132133" lon="14.9975617"><ele>152.0</ele><time>2026-04-13T14:58:36.876Z</time></trkpt><trkpt lat="40.6132833" lon="14.997605"><ele>152.0</ele><time>2026-04-13T14:58:37.876Z</time></trkpt><trkpt lat="40.613345" lon="14.9976283"><ele>152.0</ele><time>2026-04-13T14:58:38.873Z</time></trkpt><trkpt lat="40.6133967" lon="14.997695"><ele>153.4</ele><time>2026-04-13T14:58:40.874Z</time></trkpt><trkpt lat="40.6133567" lon="14.997815"><ele>154.79999999999998</ele><time>2026-04-13T14:58:42.877Z</time></trkpt><trkpt lat="40.6133233" lon="14.9979167"><ele>156.2</ele><time>2026-04-13T14:58:43.876Z</time></trkpt><trkpt lat="40.6132883" lon="14.9980417"><ele>157.6</ele><time>2026-04-13T14:58:44.873Z</time></trkpt><trkpt lat="40.6132633" lon="14.9981783"><ele>159.0</ele><time>2026-04-13T14:58:45.873Z</time></trkpt><trkpt lat="40.613245" lon="14.998315"><ele>160.4</ele><time>2026-04-13T14:58:46.875Z</time></trkpt><trkpt lat="40.6132167" lon="14.9984483"><ele>161.8</ele><time>2026-04-13T14:58:47.875Z</time></trkpt><trkpt lat="40.6131817" lon="14.998575"><ele>163.20000000000002</ele><time>2026-04-13T14:58:48.874Z</time></trkpt><trkpt lat="40.61314" lon="14.99869"><ele>164.60000000000002</ele><time>2026-04-13T14:58:49.874Z</time></trkpt><trkpt lat="40.6130983" lon="14.9987933"><ele>166.0</ele><time>2026-04-13T14:58:50.876Z</time></trkpt><trkpt lat="40.6130583" lon="14.998895"><ele>166.0</ele><time>2026-04-13T14:58:51.875Z</time></trkpt><trkpt lat="40.613015" lon="14.9989917"><ele>166.0</ele><time>2026-04-13T14:58:52.876Z</time></trkpt><trkpt lat="40.61298" lon="14.9990833"><ele>166.0</ele><time>2026-04-13T14:58:53.874Z</time></trkpt><trkpt lat="40.61295" lon="14.9991567"><ele>166.0</ele><time>2026-04-13T14:58:54.874Z</time></trkpt><trkpt lat="40.612845" lon="14.99924"><ele>166.0</ele><time>2026-04-13T14:58:56.877Z</time></trkpt><trkpt lat="40.6127617" lon="14.9993167"><ele>163.83333333333334</ele><time>2026-04-13T14:58:58.877Z</time></trkpt><trkpt lat="40.6127183" lon="14.99944"><ele>161.66666666666669</ele><time>2026-04-13T14:59:00.875Z</time></trkpt><trkpt lat="40.6127033" lon="14.9995333"><ele>159.5</ele><time>2026-04-13T14:59:01.873Z</time></trkpt><trkpt lat="40.61269" lon="14.9996483"><ele>157.33333333333334</ele><time>2026-04-13T14:59:02.874Z</time></trkpt><trkpt lat="40.612675" lon="14.9997567"><ele>155.16666666666666</ele><time>2026-04-13T14:59:03.875Z</time></trkpt><trkpt lat="40.6126517" lon="14.9998433"><ele>153.0</ele><time>2026-04-13T14:59:04.874Z</time></trkpt><trkpt lat="40.612545" lon="14.9998717"><ele>153.0</ele><time>2026-04-13T14:59:06.876Z</time></trkpt><trkpt lat="40.61248" lon="14.9998533"><ele>153.0</ele><time>2026-04-13T14:59:07.878Z</time></trkpt><trkpt lat="40.6124183" lon="14.99983"><ele>153.0</ele><time>2026-04-13T14:59:08.874Z</time></trkpt><trkpt lat="40.6123333" lon="14.9998333"><ele>153.0</ele><time>2026-04-13T14:59:10.874Z</time></trkpt><trkpt lat="40.6122867" lon="14.9999417"><ele>153.0</ele><time>2026-04-13T14:59:12.875Z</time></trkpt><trkpt lat="40.6122517" lon="15.0000283"><ele>153.0</ele><time>2026-04-13T14:59:13.873Z</time></trkpt><trkpt lat="40.6122167" lon="15.0001133"><ele>153.0</ele><time>2026-04-13T14:59:14.875Z</time></trkpt><trkpt lat="40.61219" lon="15.000215"><ele>153.0</ele><time>2026-04-13T14:59:15.876Z</time></trkpt><trkpt lat="40.6121683" lon="15.0003283"><ele>153.0</ele><time>2026-04-13T14:59:16.873Z</time></trkpt><trkpt lat="40.6121483" lon="15.00045"><ele>153.0</ele><time>2026-04-13T14:59:17.873Z</time></trkpt><trkpt lat="40.612125" lon="15.0005817"><ele>153.0</ele><time>2026-04-13T14:59:18.874Z</time></trkpt><trkpt lat="40.61211" lon="15.0007183"><ele>153.8</ele><time>2026-04-13T14:59:19.874Z</time></trkpt><trkpt lat="40.6120883" lon="15.0008633"><ele>154.60000000000002</ele><time>2026-04-13T14:59:20.876Z</time></trkpt><trkpt lat="40.6120717" lon="15.0009967"><ele>155.39999999999998</ele><time>2026-04-13T14:59:21.875Z</time></trkpt><trkpt lat="40.612055" lon="15.0011217"><ele>156.2</ele><time>2026-04-13T14:59:22.875Z</time></trkpt><trkpt lat="40.612035" lon="15.001225"><ele>157.0</ele><time>2026-04-13T14:59:23.874Z</time></trkpt><trkpt lat="40.6120267" lon="15.001315"><ele>157.0</ele><time>2026-04-13T14:59:24.876Z</time></trkpt><trkpt lat="40.6120617" lon="15.00145"><ele>157.0</ele><time>2026-04-13T14:59:26.875Z</time></trkpt><trkpt lat="40.61218" lon="15.0014983"><ele>157.0</ele><time>2026-04-13T14:59:28.875Z</time></trkpt><trkpt lat="40.61225" lon="15.0015133"><ele>157.0</ele><time>2026-04-13T14:59:29.876Z</time></trkpt><trkpt lat="40.61232" lon="15.0015333"><ele>157.0</ele><time>2026-04-13T14:59:30.876Z</time></trkpt><trkpt lat="40.6124217" lon="15.0015717"><ele>157.0</ele><time>2026-04-13T14:59:32.873Z</time></trkpt><trkpt lat="40.61247" lon="15.0016533"><ele>157.0</ele><time>2026-04-13T14:59:34.874Z</time></trkpt><trkpt lat="40.6124483" lon="15.001795"><ele>157.0</ele><time>2026-04-13T14:59:36.874Z</time></trkpt><trkpt lat="40.6124317" lon="15.00188"><ele>157.0</ele><time>2026-04-13T14:59:37.874Z</time></trkpt><trkpt lat="40.6124133" lon="15.0019667"><ele>157.0</ele><time>2026-04-13T14:59:38.875Z</time></trkpt><trkpt lat="40.6123933" lon="15.0020567"><ele>157.0</ele><time>2026-04-13T14:59:39.875Z</time></trkpt><trkpt lat="40.612385" lon="15.00214"><ele>157.0</ele><time>2026-04-13T14:59:40.873Z</time></trkpt><trkpt lat="40.6123833" lon="15.0022733"><ele>157.0</ele><time>2026-04-13T14:59:42.876Z</time></trkpt><trkpt lat="40.6123733" lon="15.0024017"><ele>157.0</ele><time>2026-04-13T14:59:44.874Z</time></trkpt><trkpt lat="40.6123317" lon="15.002495"><ele>157.0</ele><time>2026-04-13T14:59:46.876Z</time></trkpt><trkpt lat="40.61231" lon="15.0026133"><ele>157.0</ele><time>2026-04-13T14:59:48.874Z</time></trkpt><trkpt lat="40.6123133" lon="15.0027017"><ele>157.0</ele><time>2026-04-13T14:59:50.876Z</time></trkpt><trkpt lat="40.6123683" lon="15.00275"><ele>156.79999999999998</ele><time>2026-04-13T14:59:52.875Z</time></trkpt><trkpt lat="40.61242" lon="15.0028483"><ele>156.6</ele><time>2026-04-13T14:59:54.873Z</time></trkpt><trkpt lat="40.61243" lon="15.0030267"><ele>156.39999999999998</ele><time>2026-04-13T14:59:56.875Z</time></trkpt><trkpt lat="40.612415" lon="15.003145"><ele>156.2</ele><time>2026-04-13T14:59:57.875Z</time></trkpt><trkpt lat="40.612395" lon="15.0032733"><ele>156.0</ele><time>2026-04-13T14:59:58.874Z</time></trkpt><trkpt lat="40.612375" lon="15.0034"><ele>156.0</ele><time>2026-04-13T14:59:59.874Z</time></trkpt><trkpt lat="40.612355" lon="15.0035267"><ele>156.0</ele><time>2026-04-13T15:00:00.874Z</time></trkpt><trkpt lat="40.6123383" lon="15.003655"><ele>156.0</ele><time>2026-04-13T15:00:01.874Z</time></trkpt><trkpt lat="40.612325" lon="15.0037783"><ele>156.0</ele><time>2026-04-13T15:00:02.875Z</time></trkpt><trkpt lat="40.61231" lon="15.0039033"><ele>156.0</ele><time>2026-04-13T15:00:03.874Z</time></trkpt><trkpt lat="40.612295" lon="15.0040283"><ele>156.0</ele><time>2026-04-13T15:00:04.875Z</time></trkpt><trkpt lat="40.61228" lon="15.0041533"><ele>156.0</ele><time>2026-04-13T15:00:05.876Z</time></trkpt><trkpt lat="40.612265" lon="15.00428"><ele>156.0</ele><time>2026-04-13T15:00:06.875Z</time></trkpt><trkpt lat="40.6122567" lon="15.0044067"><ele>156.0</ele><time>2026-04-13T15:00:07.876Z</time></trkpt><trkpt lat="40.6122417" lon="15.004525"><ele>156.0</ele><time>2026-04-13T15:00:08.875Z</time></trkpt><trkpt lat="40.6122183" lon="15.0046467"><ele>156.33333333333334</ele><time>2026-04-13T15:00:09.874Z</time></trkpt><trkpt lat="40.612195" lon="15.0047617"><ele>156.66666666666666</ele><time>2026-04-13T15:00:10.876Z</time></trkpt><trkpt lat="40.6121767" lon="15.00487"><ele>157.0</ele><time>2026-04-13T15:00:11.876Z</time></trkpt><trkpt lat="40.6121633" lon="15.004975"><ele>157.33333333333331</ele><time>2026-04-13T15:00:12.873Z</time></trkpt><trkpt lat="40.6121567" lon="15.0050833"><ele>157.66666666666666</ele><time>2026-04-13T15:00:13.874Z</time></trkpt><trkpt lat="40.6121533" lon="15.005195"><ele>158.0</ele><time>2026-04-13T15:00:14.874Z</time></trkpt><trkpt lat="40.6121517" lon="15.0053117"><ele>158.0</ele><time>2026-04-13T15:00:15.876Z</time></trkpt><trkpt lat="40.6121533" lon="15.005425"><ele>158.0</ele><time>2026-04-13T15:00:16.877Z</time></trkpt><trkpt lat="40.612145" lon="15.00554"><ele>158.0</ele><time>2026-04-13T15:00:17.873Z</time></trkpt><trkpt lat="40.6121283" lon="15.0056633"><ele>158.0</ele><time>2026-04-13T15:00:18.876Z</time></trkpt><trkpt lat="40.6121083" lon="15.0057783"><ele>158.0</ele><time>2026-04-13T15:00:19.873Z</time></trkpt><trkpt lat="40.61209" lon="15.00589"><ele>158.0</ele><time>2026-04-13T15:00:20.876Z</time></trkpt><trkpt lat="40.612075" lon="15.0059733"><ele>157.66666666666666</ele><time>2026-04-13T15:00:21.874Z</time></trkpt><trkpt lat="40.6120717" lon="15.00608"><ele>157.33333333333331</ele><time>2026-04-13T15:00:23.876Z</time></trkpt><trkpt lat="40.6121033" lon="15.006155"><ele>157.0</ele><time>2026-04-13T15:00:25.875Z</time></trkpt><trkpt lat="40.6121267" lon="15.00625"><ele>156.66666666666666</ele><time>2026-04-13T15:00:27.874Z</time></trkpt><trkpt lat="40.6121633" lon="15.006345"><ele>156.33333333333334</ele><time>2026-04-13T15:00:29.873Z</time></trkpt><trkpt lat="40.612215" lon="15.0064533"><ele>156.0</ele><time>2026-04-13T15:00:32.875Z</time></trkpt><trkpt lat="40.6122717" lon="15.006575"><ele>156.0</ele><time>2026-04-13T15:00:34.873Z</time></trkpt><trkpt lat="40.6123183" lon="15.0066317"><ele>156.0</ele><time>2026-04-13T15:00:36.874Z</time></trkpt><trkpt lat="40.6123983" lon="15.00664"><ele>156.0</ele><time>2026-04-13T15:00:40.876Z</time></trkpt><trkpt lat="40.6123783" lon="15.0068033"><ele>156.0</ele><time>2026-04-13T15:00:43.876Z</time></trkpt><trkpt lat="40.6123633" lon="15.0069067"><ele>156.0</ele><time>2026-04-13T15:00:44.876Z</time></trkpt><trkpt lat="40.612345" lon="15.00703"><ele>156.0</ele><time>2026-04-13T15:00:45.877Z</time></trkpt><trkpt lat="40.6123167" lon="15.0071683"><ele>156.2</ele><time>2026-04-13T15:00:46.875Z</time></trkpt><trkpt lat="40.6122817" lon="15.0073067"><ele>156.39999999999998</ele><time>2026-04-13T15:00:47.875Z</time></trkpt><trkpt lat="40.6122467" lon="15.007445"><ele>156.6</ele><time>2026-04-13T15:00:48.876Z</time></trkpt><trkpt lat="40.6122033" lon="15.0075783"><ele>156.79999999999998</ele><time>2026-04-13T15:00:49.875Z</time></trkpt><trkpt lat="40.6121683" lon="15.007715"><ele>157.0</ele><time>2026-04-13T15:00:50.876Z</time></trkpt><trkpt lat="40.61213" lon="15.007855"><ele>157.2</ele><time>2026-04-13T15:00:51.873Z</time></trkpt><trkpt lat="40.6120917" lon="15.007995"><ele>157.39999999999998</ele><time>2026-04-13T15:00:52.875Z</time></trkpt><trkpt lat="40.6120517" lon="15.0081333"><ele>157.60000000000002</ele><time>2026-04-13T15:00:53.875Z</time></trkpt><trkpt lat="40.6120167" lon="15.0082717"><ele>157.8</ele><time>2026-04-13T15:00:54.876Z</time></trkpt><trkpt lat="40.611985" lon="15.0084133"><ele>158.0</ele><time>2026-04-13T15:00:55.875Z</time></trkpt><trkpt lat="40.611945" lon="15.0085517"><ele>154.8</ele><time>2026-04-13T15:00:56.876Z</time></trkpt><trkpt lat="40.6119133" lon="15.0086933"><ele>151.60000000000002</ele><time>2026-04-13T15:00:57.877Z</time></trkpt><trkpt lat="40.6118783" lon="15.00883"><ele>148.39999999999998</ele><time>2026-04-13T15:00:58.874Z</time></trkpt><trkpt lat="40.6118467" lon="15.00897"><ele>145.2</ele><time>2026-04-13T15:00:59.874Z</time></trkpt><trkpt lat="40.611815" lon="15.009105"><ele>142.0</ele><time>2026-04-13T15:01:00.873Z</time></trkpt><trkpt lat="40.6117817" lon="15.0092383"><ele>141.79999999999998</ele><time>2026-04-13T15:01:01.873Z</time></trkpt><trkpt lat="40.61175" lon="15.0093717"><ele>141.6</ele><time>2026-04-13T15:01:02.875Z</time></trkpt><trkpt lat="40.6117167" lon="15.0095"><ele>141.39999999999998</ele><time>2026-04-13T15:01:03.873Z</time></trkpt><trkpt lat="40.6116817" lon="15.009625"><ele>141.2</ele><time>2026-04-13T15:01:04.874Z</time></trkpt><trkpt lat="40.611645" lon="15.00975"><ele>141.0</ele><time>2026-04-13T15:01:05.874Z</time></trkpt><trkpt lat="40.6116083" lon="15.009875"><ele>141.6</ele><time>2026-04-13T15:01:06.873Z</time></trkpt><trkpt lat="40.6115783" lon="15.01"><ele>142.2</ele><time>2026-04-13T15:01:07.874Z</time></trkpt><trkpt lat="40.6115517" lon="15.010125"><ele>142.8</ele><time>2026-04-13T15:01:08.875Z</time></trkpt><trkpt lat="40.6115367" lon="15.0102583"><ele>143.4</ele><time>2026-04-13T15:01:09.876Z</time></trkpt><trkpt lat="40.611525" lon="15.010385"><ele>144.0</ele><time>2026-04-13T15:01:10.873Z</time></trkpt><trkpt lat="40.61151" lon="15.0105283"><ele>144.0</ele><time>2026-04-13T15:01:11.873Z</time></trkpt><trkpt lat="40.6114967" lon="15.0106667"><ele>144.0</ele><time>2026-04-13T15:01:12.877Z</time></trkpt><trkpt lat="40.611495" lon="15.0108067"><ele>144.0</ele><time>2026-04-13T15:01:13.874Z</time></trkpt><trkpt lat="40.6114867" lon="15.0109567"><ele>144.0</ele><time>2026-04-13T15:01:14.876Z</time></trkpt><trkpt lat="40.6114733" lon="15.011105"><ele>144.0</ele><time>2026-04-13T15:01:15.873Z</time></trkpt><trkpt lat="40.611455" lon="15.0112517"><ele>144.0</ele><time>2026-04-13T15:01:16.876Z</time></trkpt><trkpt lat="40.6114383" lon="15.0113983"><ele>144.0</ele><time>2026-04-13T15:01:17.874Z</time></trkpt><trkpt lat="40.6114283" lon="15.011545"><ele>144.0</ele><time>2026-04-13T15:01:18.875Z</time></trkpt><trkpt lat="40.6114167" lon="15.0116933"><ele>144.0</ele><time>2026-04-13T15:01:19.874Z</time></trkpt><trkpt lat="40.6114017" lon="15.0118417"><ele>144.0</ele><time>2026-04-13T15:01:20.875Z</time></trkpt><trkpt lat="40.6113817" lon="15.0119917"><ele>144.0</ele><time>2026-04-13T15:01:21.876Z</time></trkpt><trkpt lat="40.6113617" lon="15.0121383"><ele>144.0</ele><time>2026-04-13T15:01:22.874Z</time></trkpt><trkpt lat="40.6113417" lon="15.01229"><ele>144.0</ele><time>2026-04-13T15:01:23.875Z</time></trkpt><trkpt lat="40.611315" lon="15.0124417"><ele>145.5</ele><time>2026-04-13T15:01:24.878Z</time></trkpt><trkpt lat="40.6112917" lon="15.0125883"><ele>147.0</ele><time>2026-04-13T15:01:25.875Z</time></trkpt><trkpt lat="40.6112533" lon="15.01274"><ele>148.5</ele><time>2026-04-13T15:01:26.876Z</time></trkpt><trkpt lat="40.6112217" lon="15.0128817"><ele>150.0</ele><time>2026-04-13T15:01:27.875Z</time></trkpt><trkpt lat="40.6111917" lon="15.013025"><ele>150.0</ele><time>2026-04-13T15:01:28.873Z</time></trkpt><trkpt lat="40.611165" lon="15.01317"><ele>150.0</ele><time>2026-04-13T15:01:29.878Z</time></trkpt><trkpt lat="40.6111383" lon="15.0133183"><ele>150.0</ele><time>2026-04-13T15:01:30.875Z</time></trkpt><trkpt lat="40.6111083" lon="15.0134617"><ele>150.0</ele><time>2026-04-13T15:01:31.874Z</time></trkpt><trkpt lat="40.6110817" lon="15.0136067"><ele>148.2</ele><time>2026-04-13T15:01:32.874Z</time></trkpt><trkpt lat="40.6110533" lon="15.0137483"><ele>146.4</ele><time>2026-04-13T15:01:33.874Z</time></trkpt><trkpt lat="40.6110233" lon="15.01389"><ele>144.6</ele><time>2026-04-13T15:01:34.874Z</time></trkpt><trkpt lat="40.6109917" lon="15.0140317"><ele>142.8</ele><time>2026-04-13T15:01:35.875Z</time></trkpt><trkpt lat="40.610955" lon="15.0141733"><ele>141.0</ele><time>2026-04-13T15:01:36.875Z</time></trkpt><trkpt lat="40.6109167" lon="15.0143117"><ele>141.0</ele><time>2026-04-13T15:01:37.875Z</time></trkpt><trkpt lat="40.6108767" lon="15.0144483"><ele>141.0</ele><time>2026-04-13T15:01:38.874Z</time></trkpt><trkpt lat="40.6108367" lon="15.0145767"><ele>141.0</ele><time>2026-04-13T15:01:39.874Z</time></trkpt><trkpt lat="40.6107933" lon="15.0147033"><ele>141.0</ele><time>2026-04-13T15:01:40.874Z</time></trkpt><trkpt lat="40.6107533" lon="15.01484"><ele>141.0</ele><time>2026-04-13T15:01:41.875Z</time></trkpt><trkpt lat="40.61071" lon="15.0149767"><ele>141.0</ele><time>2026-04-13T15:01:42.875Z</time></trkpt><trkpt lat="40.610665" lon="15.015115"><ele>141.0</ele><time>2026-04-13T15:01:43.876Z</time></trkpt><trkpt lat="40.610625" lon="15.0152517"><ele>141.0</ele><time>2026-04-13T15:01:44.877Z</time></trkpt><trkpt lat="40.61059" lon="15.0153883"><ele>141.0</ele><time>2026-04-13T15:01:45.875Z</time></trkpt><trkpt lat="40.6105617" lon="15.0155183"><ele>141.0</ele><time>2026-04-13T15:01:46.876Z</time></trkpt><trkpt lat="40.6105333" lon="15.0156483"><ele>141.0</ele><time>2026-04-13T15:01:47.873Z</time></trkpt><trkpt lat="40.6105017" lon="15.01578"><ele>141.0</ele><time>2026-04-13T15:01:48.875Z</time></trkpt><trkpt lat="40.61047" lon="15.0159083"><ele>141.0</ele><time>2026-04-13T15:01:49.874Z</time></trkpt><trkpt lat="40.6104417" lon="15.0160233"><ele>141.0</ele><time>2026-04-13T15:01:50.875Z</time></trkpt><trkpt lat="40.610425" lon="15.016135"><ele>141.0</ele><time>2026-04-13T15:01:51.877Z</time></trkpt><trkpt lat="40.6104067" lon="15.0162333"><ele>141.16666666666666</ele><time>2026-04-13T15:01:52.875Z</time></trkpt><trkpt lat="40.6103833" lon="15.0163283"><ele>141.33333333333334</ele><time>2026-04-13T15:01:53.874Z</time></trkpt><trkpt lat="40.6103567" lon="15.01642"><ele>141.5</ele><time>2026-04-13T15:01:54.876Z</time></trkpt><trkpt lat="40.610325" lon="15.01651"><ele>141.66666666666669</ele><time>2026-04-13T15:01:55.876Z</time></trkpt><trkpt lat="40.6103017" lon="15.016605"><ele>141.83333333333334</ele><time>2026-04-13T15:01:56.875Z</time></trkpt><trkpt lat="40.6102833" lon="15.0167083"><ele>142.0</ele><time>2026-04-13T15:01:57.876Z</time></trkpt><trkpt lat="40.6102633" lon="15.016825"><ele>143.2</ele><time>2026-04-13T15:01:58.873Z</time></trkpt><trkpt lat="40.6102417" lon="15.01695"><ele>144.39999999999998</ele><time>2026-04-13T15:01:59.874Z</time></trkpt><trkpt lat="40.6102167" lon="15.0170867"><ele>145.60000000000002</ele><time>2026-04-13T15:02:00.875Z</time></trkpt><trkpt lat="40.61019" lon="15.0172333"><ele>146.8</ele><time>2026-04-13T15:02:01.873Z</time></trkpt><trkpt lat="40.6101717" lon="15.0173783"><ele>148.0</ele><time>2026-04-13T15:02:02.874Z</time></trkpt><trkpt lat="40.6101683" lon="15.0175283"><ele>148.0</ele><time>2026-04-13T15:02:03.873Z</time></trkpt><trkpt lat="40.6101783" lon="15.0176783"><ele>148.0</ele><time>2026-04-13T15:02:04.873Z</time></trkpt><trkpt lat="40.6101833" lon="15.0178233"><ele>148.0</ele><time>2026-04-13T15:02:05.875Z</time></trkpt><trkpt lat="40.6101717" lon="15.017975"><ele>148.0</ele><time>2026-04-13T15:02:06.874Z</time></trkpt><trkpt lat="40.61016" lon="15.018125"><ele>148.0</ele><time>2026-04-13T15:02:07.873Z</time></trkpt><trkpt lat="40.6101467" lon="15.0182767"><ele>148.0</ele><time>2026-04-13T15:02:08.873Z</time></trkpt><trkpt lat="40.6101333" lon="15.01842"><ele>148.0</ele><time>2026-04-13T15:02:09.875Z</time></trkpt><trkpt lat="40.6101233" lon="15.0185633"><ele>148.0</ele><time>2026-04-13T15:02:10.873Z</time></trkpt><trkpt lat="40.6101167" lon="15.018715"><ele>148.0</ele><time>2026-04-13T15:02:11.876Z</time></trkpt><trkpt lat="40.610105" lon="15.01886"><ele>148.0</ele><time>2026-04-13T15:02:12.873Z</time></trkpt><trkpt lat="40.61009" lon="15.0190133"><ele>148.0</ele><time>2026-04-13T15:02:13.875Z</time></trkpt><trkpt lat="40.6100833" lon="15.0191533"><ele>148.0</ele><time>2026-04-13T15:02:14.874Z</time></trkpt><trkpt lat="40.610075" lon="15.0192917"><ele>148.0</ele><time>2026-04-13T15:02:15.874Z</time></trkpt><trkpt lat="40.6100683" lon="15.0194317"><ele>148.6</ele><time>2026-04-13T15:02:16.873Z</time></trkpt><trkpt lat="40.6100583" lon="15.0195683"><ele>149.20000000000002</ele><time>2026-04-13T15:02:17.873Z</time></trkpt><trkpt lat="40.6100467" lon="15.019705"><ele>149.8</ele><time>2026-04-13T15:02:18.876Z</time></trkpt><trkpt lat="40.610035" lon="15.019845"><ele>150.4</ele><time>2026-04-13T15:02:19.875Z</time></trkpt><trkpt lat="40.610025" lon="15.0199767"><ele>151.0</ele><time>2026-04-13T15:02:20.875Z</time></trkpt><trkpt lat="40.610015" lon="15.020115"><ele>151.4</ele><time>2026-04-13T15:02:21.875Z</time></trkpt><trkpt lat="40.61" lon="15.0202433"><ele>151.8</ele><time>2026-04-13T15:02:22.875Z</time></trkpt><trkpt lat="40.6099917" lon="15.0203817"><ele>152.20000000000002</ele><time>2026-04-13T15:02:23.875Z</time></trkpt><trkpt lat="40.60998" lon="15.0205133"><ele>152.6</ele><time>2026-04-13T15:02:24.875Z</time></trkpt><trkpt lat="40.6099667" lon="15.0206467"><ele>153.0</ele><time>2026-04-13T15:02:25.876Z</time></trkpt><trkpt lat="40.609955" lon="15.020785"><ele>153.4</ele><time>2026-04-13T15:02:26.875Z</time></trkpt><trkpt lat="40.6099417" lon="15.0209267"><ele>153.8</ele><time>2026-04-13T15:02:27.875Z</time></trkpt><trkpt lat="40.60993" lon="15.0210717"><ele>154.2</ele><time>2026-04-13T15:02:28.873Z</time></trkpt><trkpt lat="40.6099217" lon="15.0212167"><ele>154.6</ele><time>2026-04-13T15:02:29.873Z</time></trkpt><trkpt lat="40.609915" lon="15.0213667"><ele>155.0</ele><time>2026-04-13T15:02:30.876Z</time></trkpt><trkpt lat="40.6099033" lon="15.0215167"><ele>155.4</ele><time>2026-04-13T15:02:31.876Z</time></trkpt><trkpt lat="40.6098867" lon="15.0216583"><ele>155.8</ele><time>2026-04-13T15:02:32.874Z</time></trkpt><trkpt lat="40.6098667" lon="15.0217783"><ele>156.2</ele><time>2026-04-13T15:02:33.873Z</time></trkpt><trkpt lat="40.6098533" lon="15.0218767"><ele>156.6</ele><time>2026-04-13T15:02:34.873Z</time></trkpt><trkpt lat="40.6098367" lon="15.021975"><ele>157.0</ele><time>2026-04-13T15:02:36.872Z</time></trkpt><trkpt lat="40.609905" lon="15.0218833"><ele>157.0</ele><time>2026-04-13T15:02:43.875Z</time></trkpt><trkpt lat="40.6100083" lon="15.021875"><ele>157.0</ele><time>2026-04-13T15:02:45.876Z</time></trkpt><trkpt lat="40.6100767" lon="15.0218567"><ele>157.0</ele><time>2026-04-13T15:02:46.876Z</time></trkpt><trkpt lat="40.6101467" lon="15.0218467"><ele>157.0</ele><time>2026-04-13T15:02:47.873Z</time></trkpt><trkpt lat="40.6102317" lon="15.0218367"><ele>157.0</ele><time>2026-04-13T15:02:48.874Z</time></trkpt><trkpt lat="40.610315" lon="15.021835"><ele>157.0</ele><time>2026-04-13T15:02:49.874Z</time></trkpt><trkpt lat="40.6103967" lon="15.0218317"><ele>159.16666666666669</ele><time>2026-04-13T15:02:50.873Z</time></trkpt><trkpt lat="40.6104717" lon="15.0218217"><ele>161.33333333333334</ele><time>2026-04-13T15:02:51.874Z</time></trkpt><trkpt lat="40.61054" lon="15.0218117"><ele>163.5</ele><time>2026-04-13T15:02:52.873Z</time></trkpt><trkpt lat="40.6106133" lon="15.0218033"><ele>165.66666666666666</ele><time>2026-04-13T15:02:53.876Z</time></trkpt><trkpt lat="40.6106967" lon="15.0217833"><ele>167.83333333333331</ele><time>2026-04-13T15:02:54.878Z</time></trkpt><trkpt lat="40.6107783" lon="15.0217633"><ele>170.0</ele><time>2026-04-13T15:02:55.876Z</time></trkpt><trkpt lat="40.6108617" lon="15.0217467"><ele>170.0</ele><time>2026-04-13T15:02:56.875Z</time></trkpt><trkpt lat="40.6109433" lon="15.02174"><ele>170.0</ele><time>2026-04-13T15:02:57.873Z</time></trkpt><trkpt lat="40.6110267" lon="15.02174"><ele>170.0</ele><time>2026-04-13T15:02:58.873Z</time></trkpt><trkpt lat="40.61111" lon="15.0217283"><ele>170.0</ele><time>2026-04-13T15:02:59.873Z</time></trkpt><trkpt lat="40.6111883" lon="15.0217183"><ele>170.0</ele><time>2026-04-13T15:03:00.874Z</time></trkpt><trkpt lat="40.61126" lon="15.0217017"><ele>170.0</ele><time>2026-04-13T15:03:01.875Z</time></trkpt><trkpt lat="40.6113233" lon="15.0216767"><ele>173.16666666666666</ele><time>2026-04-13T15:03:02.875Z</time></trkpt><trkpt lat="40.611435" lon="15.0216483"><ele>176.33333333333331</ele><time>2026-04-13T15:03:04.875Z</time></trkpt><trkpt lat="40.61153" lon="15.021665"><ele>179.5</ele><time>2026-04-13T15:03:06.875Z</time></trkpt><trkpt lat="40.6115983" lon="15.0216133"><ele>182.66666666666666</ele><time>2026-04-13T15:03:09.873Z</time></trkpt><trkpt lat="40.611605" lon="15.0215167"><ele>185.83333333333334</ele><time>2026-04-13T15:03:10.873Z</time></trkpt><trkpt lat="40.6116233" lon="15.0214267"><ele>189.0</ele><time>2026-04-13T15:03:11.873Z</time></trkpt><trkpt lat="40.6116267" lon="15.0212983"><ele>189.2</ele><time>2026-04-13T15:03:12.876Z</time></trkpt><trkpt lat="40.6116317" lon="15.02117"><ele>189.39999999999998</ele><time>2026-04-13T15:03:13.876Z</time></trkpt><trkpt lat="40.61164" lon="15.02104"><ele>189.6</ele><time>2026-04-13T15:03:14.875Z</time></trkpt><trkpt lat="40.6116483" lon="15.0209033"><ele>189.8</ele><time>2026-04-13T15:03:15.875Z</time></trkpt><trkpt lat="40.6116683" lon="15.0207667"><ele>190.0</ele><time>2026-04-13T15:03:16.875Z</time></trkpt><trkpt lat="40.61169" lon="15.0206167"><ele>189.25</ele><time>2026-04-13T15:03:17.873Z</time></trkpt><trkpt lat="40.611715" lon="15.02047"><ele>188.5</ele><time>2026-04-13T15:03:18.874Z</time></trkpt><trkpt lat="40.6117417" lon="15.0203217"><ele>187.75</ele><time>2026-04-13T15:03:19.873Z</time></trkpt><trkpt lat="40.6117667" lon="15.020175"><ele>187.0</ele><time>2026-04-13T15:03:20.873Z</time></trkpt><trkpt lat="40.611795" lon="15.0200283"><ele>185.6</ele><time>2026-04-13T15:03:21.873Z</time></trkpt><trkpt lat="40.6118333" lon="15.019885"><ele>184.2</ele><time>2026-04-13T15:03:22.874Z</time></trkpt><trkpt lat="40.611875" lon="15.0197467"><ele>182.8</ele><time>2026-04-13T15:03:23.874Z</time></trkpt><trkpt lat="40.6119217" lon="15.0196183"><ele>181.4</ele><time>2026-04-13T15:03:24.876Z</time></trkpt><trkpt lat="40.6119817" lon="15.0195017"><ele>180.0</ele><time>2026-04-13T15:03:25.878Z</time></trkpt><trkpt lat="40.6120467" lon="15.019395"><ele>183.16666666666666</ele><time>2026-04-13T15:03:26.875Z</time></trkpt><trkpt lat="40.6121117" lon="15.0193117"><ele>186.33333333333331</ele><time>2026-04-13T15:03:27.875Z</time></trkpt><trkpt lat="40.61218" lon="15.0192533"><ele>189.5</ele><time>2026-04-13T15:03:28.873Z</time></trkpt><trkpt lat="40.6122483" lon="15.0192083"><ele>192.66666666666666</ele><time>2026-04-13T15:03:29.872Z</time></trkpt><trkpt lat="40.612325" lon="15.0191933"><ele>195.83333333333331</ele><time>2026-04-13T15:03:30.872Z</time></trkpt><trkpt lat="40.6124033" lon="15.0191867"><ele>199.0</ele><time>2026-04-13T15:03:31.873Z</time></trkpt><trkpt lat="40.6124883" lon="15.0192133"><ele>199.0</ele><time>2026-04-13T15:03:32.873Z</time></trkpt><trkpt lat="40.6125667" lon="15.0192683"><ele>199.0</ele><time>2026-04-13T15:03:33.873Z</time></trkpt><trkpt lat="40.6126417" lon="15.0193467"><ele>199.0</ele><time>2026-04-13T15:03:34.874Z</time></trkpt><trkpt lat="40.61271" lon="15.0194417"><ele>199.0</ele><time>2026-04-13T15:03:35.875Z</time></trkpt><trkpt lat="40.6127867" lon="15.019565"><ele>199.0</ele><time>2026-04-13T15:03:36.874Z</time></trkpt><trkpt lat="40.6128617" lon="15.019675"><ele>201.49999999999997</ele><time>2026-04-13T15:03:37.876Z</time></trkpt><trkpt lat="40.61292" lon="15.0197733"><ele>204.0</ele><time>2026-04-13T15:03:38.875Z</time></trkpt><trkpt lat="40.6129733" lon="15.0198567"><ele>206.5</ele><time>2026-04-13T15:03:39.874Z</time></trkpt><trkpt lat="40.6130317" lon="15.019925"><ele>209.0</ele><time>2026-04-13T15:03:40.874Z</time></trkpt><trkpt lat="40.61309" lon="15.01997"><ele>211.49999999999997</ele><time>2026-04-13T15:03:41.877Z</time></trkpt><trkpt lat="40.6132033" lon="15.0200133"><ele>214.0</ele><time>2026-04-13T15:03:43.874Z</time></trkpt><trkpt lat="40.6132667" lon="15.01996"><ele>214.5</ele><time>2026-04-13T15:03:44.875Z</time></trkpt><trkpt lat="40.6133383" lon="15.019855"><ele>215.0</ele><time>2026-04-13T15:03:45.872Z</time></trkpt><trkpt lat="40.6133617" lon="15.0197067"><ele>215.5</ele><time>2026-04-13T15:03:46.875Z</time></trkpt><trkpt lat="40.6133733" lon="15.0195117"><ele>216.0</ele><time>2026-04-13T15:03:47.875Z</time></trkpt><trkpt lat="40.6133883" lon="15.0193433"><ele>216.0</ele><time>2026-04-13T15:03:48.873Z</time></trkpt><trkpt lat="40.6134017" lon="15.019165"><ele>216.0</ele><time>2026-04-13T15:03:49.872Z</time></trkpt><trkpt lat="40.6134017" lon="15.0189783"><ele>216.0</ele><time>2026-04-13T15:03:50.872Z</time></trkpt><trkpt lat="40.6134033" lon="15.0188033"><ele>216.0</ele><time>2026-04-13T15:03:51.872Z</time></trkpt><trkpt lat="40.6134083" lon="15.01862"><ele>215.25</ele><time>2026-04-13T15:03:52.872Z</time></trkpt><trkpt lat="40.6134167" lon="15.0184517"><ele>214.5</ele><time>2026-04-13T15:03:53.874Z</time></trkpt><trkpt lat="40.6134267" lon="15.0182833"><ele>213.75</ele><time>2026-04-13T15:03:54.873Z</time></trkpt><trkpt lat="40.613435" lon="15.0181167"><ele>213.0</ele><time>2026-04-13T15:03:55.872Z</time></trkpt><trkpt lat="40.6134417" lon="15.017945"><ele>212.5</ele><time>2026-04-13T15:03:56.872Z</time></trkpt><trkpt lat="40.61345" lon="15.017775"><ele>212.0</ele><time>2026-04-13T15:03:57.873Z</time></trkpt><trkpt lat="40.61346" lon="15.0176083"><ele>211.5</ele><time>2026-04-13T15:03:58.874Z</time></trkpt><trkpt lat="40.6134683" lon="15.0174383"><ele>211.0</ele><time>2026-04-13T15:03:59.875Z</time></trkpt><trkpt lat="40.613475" lon="15.0172683"><ele>212.25</ele><time>2026-04-13T15:04:00.873Z</time></trkpt><trkpt lat="40.6134817" lon="15.0170983"><ele>213.5</ele><time>2026-04-13T15:04:01.873Z</time></trkpt><trkpt lat="40.6134917" lon="15.016945"><ele>214.75</ele><time>2026-04-13T15:04:02.873Z</time></trkpt><trkpt lat="40.61349" lon="15.0167967"><ele>216.0</ele><time>2026-04-13T15:04:03.872Z</time></trkpt><trkpt lat="40.61349" lon="15.01667"><ele>216.4</ele><time>2026-04-13T15:04:04.872Z</time></trkpt><trkpt lat="40.6134933" lon="15.0165717"><ele>216.8</ele><time>2026-04-13T15:04:05.872Z</time></trkpt><trkpt lat="40.613525" lon="15.0164267"><ele>217.20000000000002</ele><time>2026-04-13T15:04:07.875Z</time></trkpt><trkpt lat="40.61361" lon="15.0163433"><ele>217.60000000000002</ele><time>2026-04-13T15:04:09.872Z</time></trkpt><trkpt lat="40.6137117" lon="15.016405"><ele>218.0</ele><time>2026-04-13T15:04:11.874Z</time></trkpt><trkpt lat="40.6137517" lon="15.0165083"><ele>223.8</ele><time>2026-04-13T15:04:12.874Z</time></trkpt><trkpt lat="40.6137867" lon="15.016625"><ele>229.60000000000002</ele><time>2026-04-13T15:04:13.874Z</time></trkpt><trkpt lat="40.6138217" lon="15.01675"><ele>235.39999999999998</ele><time>2026-04-13T15:04:14.875Z</time></trkpt><trkpt lat="40.613855" lon="15.0168833"><ele>241.2</ele><time>2026-04-13T15:04:15.874Z</time></trkpt><trkpt lat="40.6138967" lon="15.0170233"><ele>247.0</ele><time>2026-04-13T15:04:16.874Z</time></trkpt><trkpt lat="40.6139417" lon="15.0171683"><ele>247.0</ele><time>2026-04-13T15:04:17.875Z</time></trkpt><trkpt lat="40.6139817" lon="15.0173117"><ele>247.0</ele><time>2026-04-13T15:04:18.876Z</time></trkpt><trkpt lat="40.61403" lon="15.0174617"><ele>247.0</ele><time>2026-04-13T15:04:19.875Z</time></trkpt><trkpt lat="40.6140767" lon="15.0176283"><ele>247.0</ele><time>2026-04-13T15:04:20.878Z</time></trkpt><trkpt lat="40.614125" lon="15.0177917"><ele>245.75</ele><time>2026-04-13T15:04:21.874Z</time></trkpt><trkpt lat="40.6141867" lon="15.017945"><ele>244.5</ele><time>2026-04-13T15:04:22.872Z</time></trkpt><trkpt lat="40.6142517" lon="15.0180917"><ele>243.25</ele><time>2026-04-13T15:04:23.873Z</time></trkpt><trkpt lat="40.61431" lon="15.0182433"><ele>242.0</ele><time>2026-04-13T15:04:24.876Z</time></trkpt><trkpt lat="40.6143583" lon="15.0184"><ele>240.75</ele><time>2026-04-13T15:04:25.874Z</time></trkpt><trkpt lat="40.6143933" lon="15.018565"><ele>239.5</ele><time>2026-04-13T15:04:26.874Z</time></trkpt><trkpt lat="40.6144283" lon="15.0187283"><ele>238.25</ele><time>2026-04-13T15:04:27.875Z</time></trkpt><trkpt lat="40.6144667" lon="15.01888"><ele>237.0</ele><time>2026-04-13T15:04:28.875Z</time></trkpt><trkpt lat="40.6145133" lon="15.01902"><ele>243.25</ele><time>2026-04-13T15:04:29.872Z</time></trkpt><trkpt lat="40.6145617" lon="15.0191667"><ele>249.5</ele><time>2026-04-13T15:04:30.875Z</time></trkpt><trkpt lat="40.6146183" lon="15.0193217"><ele>255.75</ele><time>2026-04-13T15:04:31.873Z</time></trkpt><trkpt lat="40.6146767" lon="15.01948"><ele>262.0</ele><time>2026-04-13T15:04:32.874Z</time></trkpt><trkpt lat="40.61474" lon="15.0196417"><ele>262.0</ele><time>2026-04-13T15:04:33.874Z</time></trkpt><trkpt lat="40.6148067" lon="15.0198133"><ele>262.0</ele><time>2026-04-13T15:04:34.872Z</time></trkpt><trkpt lat="40.6148683" lon="15.0199867"><ele>262.0</ele><time>2026-04-13T15:04:35.875Z</time></trkpt><trkpt lat="40.6149317" lon="15.0201633"><ele>262.0</ele><time>2026-04-13T15:04:36.874Z</time></trkpt><trkpt lat="40.6149917" lon="15.0203383"><ele>260.75</ele><time>2026-04-13T15:04:37.875Z</time></trkpt><trkpt lat="40.6150517" lon="15.0205133"><ele>259.5</ele><time>2026-04-13T15:04:38.874Z</time></trkpt><trkpt lat="40.61511" lon="15.0206833"><ele>258.25</ele><time>2026-04-13T15:04:39.872Z</time></trkpt><trkpt lat="40.6151733" lon="15.02085"><ele>257.0</ele><time>2026-04-13T15:04:40.872Z</time></trkpt><trkpt lat="40.6152417" lon="15.0210083"><ele>255.5</ele><time>2026-04-13T15:04:41.874Z</time></trkpt><trkpt lat="40.6153067" lon="15.0211517"><ele>254.0</ele><time>2026-04-13T15:04:42.875Z</time></trkpt><trkpt lat="40.6153683" lon="15.0212867"><ele>252.5</ele><time>2026-04-13T15:04:43.875Z</time></trkpt><trkpt lat="40.615435" lon="15.0214133"><ele>251.0</ele><time>2026-04-13T15:04:44.875Z</time></trkpt><trkpt lat="40.6154833" lon="15.0215167"><ele>254.50000000000003</ele><time>2026-04-13T15:04:45.874Z</time></trkpt><trkpt lat="40.61553" lon="15.0216"><ele>258.0</ele><time>2026-04-13T15:04:46.875Z</time></trkpt><trkpt lat="40.61562" lon="15.02167"><ele>261.5</ele><time>2026-04-13T15:04:48.872Z</time></trkpt><trkpt lat="40.61566" lon="15.0215983"><ele>265.0</ele><time>2026-04-13T15:04:49.873Z</time></trkpt><trkpt lat="40.6156883" lon="15.0215183"><ele>268.5</ele><time>2026-04-13T15:04:50.873Z</time></trkpt><trkpt lat="40.6157267" lon="15.0214117"><ele>272.0</ele><time>2026-04-13T15:04:52.873Z</time></trkpt><trkpt lat="40.615675" lon="15.02135"><ele>273.33333333333337</ele><time>2026-04-13T15:04:56.873Z</time></trkpt><trkpt lat="40.6156433" lon="15.0212517"><ele>274.6666666666667</ele><time>2026-04-13T15:04:58.873Z</time></trkpt><trkpt lat="40.6156133" lon="15.0211617"><ele>276.0</ele><time>2026-04-13T15:04:59.876Z</time></trkpt><trkpt lat="40.6155917" lon="15.0210417"><ele>277.3333333333333</ele><time>2026-04-13T15:05:00.872Z</time></trkpt><trkpt lat="40.61556" lon="15.02093"><ele>278.66666666666663</ele><time>2026-04-13T15:05:01.876Z</time></trkpt><trkpt lat="40.6155383" lon="15.020805"><ele>280.0</ele><time>2026-04-13T15:05:02.873Z</time></trkpt><trkpt lat="40.6155383" lon="15.02067"><ele>282.0</ele><time>2026-04-13T15:05:03.874Z</time></trkpt><trkpt lat="40.6155333" lon="15.0205317"><ele>284.0</ele><time>2026-04-13T15:05:04.873Z</time></trkpt><trkpt lat="40.6155267" lon="15.0203833"><ele>286.0</ele><time>2026-04-13T15:05:05.873Z</time></trkpt><trkpt lat="40.6155117" lon="15.0202267"><ele>288.0</ele><time>2026-04-13T15:05:06.873Z</time></trkpt><trkpt lat="40.6154933" lon="15.0200667"><ele>289.0</ele><time>2026-04-13T15:05:07.875Z</time></trkpt><trkpt lat="40.6154867" lon="15.01991"><ele>290.0</ele><time>2026-04-13T15:05:08.873Z</time></trkpt><trkpt lat="40.6154817" lon="15.0197517"><ele>291.0</ele><time>2026-04-13T15:05:09.873Z</time></trkpt><trkpt lat="40.6154767" lon="15.01959"><ele>292.0</ele><time>2026-04-13T15:05:10.874Z</time></trkpt><trkpt lat="40.6154733" lon="15.0194317"><ele>292.0</ele><time>2026-04-13T15:05:11.874Z</time></trkpt><trkpt lat="40.6154733" lon="15.0192717"><ele>292.0</ele><time>2026-04-13T15:05:12.875Z</time></trkpt><trkpt lat="40.61548" lon="15.01911"><ele>292.0</ele><time>2026-04-13T15:05:13.874Z</time></trkpt><trkpt lat="40.6154917" lon="15.01895"><ele>292.0</ele><time>2026-04-13T15:05:14.875Z</time></trkpt><trkpt lat="40.615515" lon="15.018785"><ele>292.75</ele><time>2026-04-13T15:05:15.873Z</time></trkpt><trkpt lat="40.615545" lon="15.018625"><ele>293.5</ele><time>2026-04-13T15:05:16.875Z</time></trkpt><trkpt lat="40.6155683" lon="15.018475"><ele>294.25</ele><time>2026-04-13T15:05:17.872Z</time></trkpt><trkpt lat="40.6155933" lon="15.0183283"><ele>295.0</ele><time>2026-04-13T15:05:18.873Z</time></trkpt><trkpt lat="40.6156283" lon="15.0181933"><ele>296.0</ele><time>2026-04-13T15:05:19.872Z</time></trkpt><trkpt lat="40.61568" lon="15.0180767"><ele>297.0</ele><time>2026-04-13T15:05:20.873Z</time></trkpt><trkpt lat="40.6157417" lon="15.01796"><ele>298.0</ele><time>2026-04-13T15:05:21.873Z</time></trkpt><trkpt lat="40.615815" lon="15.017865"><ele>299.0</ele><time>2026-04-13T15:05:22.873Z</time></trkpt><trkpt lat="40.6158667" lon="15.0177717"><ele>300.0</ele><time>2026-04-13T15:05:23.873Z</time></trkpt><trkpt lat="40.6159017" lon="15.017675"><ele>300.0</ele><time>2026-04-13T15:05:24.874Z</time></trkpt><trkpt lat="40.6159067" lon="15.01756"><ele>300.0</ele><time>2026-04-13T15:05:25.872Z</time></trkpt><trkpt lat="40.6159" lon="15.0174267"><ele>300.0</ele><time>2026-04-13T15:05:26.872Z</time></trkpt><trkpt lat="40.6158817" lon="15.0172717"><ele>300.0</ele><time>2026-04-13T15:05:27.872Z</time></trkpt><trkpt lat="40.615855" lon="15.0171083"><ele>300.0</ele><time>2026-04-13T15:05:28.877Z</time></trkpt><trkpt lat="40.61583" lon="15.0169367"><ele>301.0</ele><time>2026-04-13T15:05:29.872Z</time></trkpt><trkpt lat="40.6158083" lon="15.01676"><ele>302.0</ele><time>2026-04-13T15:05:30.874Z</time></trkpt><trkpt lat="40.6157967" lon="15.0165833"><ele>303.0</ele><time>2026-04-13T15:05:31.875Z</time></trkpt><trkpt lat="40.61579" lon="15.016415"><ele>304.0</ele><time>2026-04-13T15:05:32.874Z</time></trkpt><trkpt lat="40.6157867" lon="15.0162717"><ele>304.2</ele><time>2026-04-13T15:05:33.875Z</time></trkpt><trkpt lat="40.61579" lon="15.0161467"><ele>304.4</ele><time>2026-04-13T15:05:34.873Z</time></trkpt><trkpt lat="40.6157967" lon="15.01604"><ele>304.6</ele><time>2026-04-13T15:05:35.873Z</time></trkpt><trkpt lat="40.6158117" lon="15.01594"><ele>304.8</ele><time>2026-04-13T15:05:36.875Z</time></trkpt><trkpt lat="40.6158867" lon="15.0158467"><ele>305.0</ele><time>2026-04-13T15:05:38.873Z</time></trkpt><trkpt lat="40.6160067" lon="15.0158917"><ele>305.0</ele><time>2026-04-13T15:05:40.874Z</time></trkpt><trkpt lat="40.6160667" lon="15.0159517"><ele>305.0</ele><time>2026-04-13T15:05:41.875Z</time></trkpt><trkpt lat="40.6161217" lon="15.0160467"><ele>305.0</ele><time>2026-04-13T15:05:42.875Z</time></trkpt><trkpt lat="40.6161667" lon="15.0161783"><ele>305.0</ele><time>2026-04-13T15:05:43.874Z</time></trkpt><trkpt lat="40.6162017" lon="15.0163167"><ele>305.0</ele><time>2026-04-13T15:05:44.877Z</time></trkpt><trkpt lat="40.6162333" lon="15.0164533"><ele>307.5</ele><time>2026-04-13T15:05:45.875Z</time></trkpt><trkpt lat="40.6162667" lon="15.016555"><ele>310.0</ele><time>2026-04-13T15:05:46.874Z</time></trkpt><trkpt lat="40.6163033" lon="15.016625"><ele>312.5</ele><time>2026-04-13T15:05:47.873Z</time></trkpt><trkpt lat="40.6164217" lon="15.016645"><ele>315.0</ele><time>2026-04-13T15:05:49.874Z</time></trkpt><trkpt lat="40.616495" lon="15.0166167"><ele>317.5</ele><time>2026-04-13T15:05:50.872Z</time></trkpt><trkpt lat="40.6165817" lon="15.01658"><ele>320.0</ele><time>2026-04-13T15:05:51.872Z</time></trkpt><trkpt lat="40.6166717" lon="15.01653"><ele>320.0</ele><time>2026-04-13T15:05:52.872Z</time></trkpt><trkpt lat="40.61676" lon="15.0164883"><ele>320.0</ele><time>2026-04-13T15:05:53.873Z</time></trkpt><trkpt lat="40.61684" lon="15.0164683"><ele>320.0</ele><time>2026-04-13T15:05:54.877Z</time></trkpt><trkpt lat="40.6169133" lon="15.0164633"><ele>320.0</ele><time>2026-04-13T15:05:55.877Z</time></trkpt><trkpt lat="40.6169867" lon="15.01648"><ele>320.0</ele><time>2026-04-13T15:05:56.875Z</time></trkpt><trkpt lat="40.6170567" lon="15.0164983"><ele>320.0</ele><time>2026-04-13T15:05:57.875Z</time></trkpt><trkpt lat="40.6171333" lon="15.0165267"><ele>320.0</ele><time>2026-04-13T15:05:58.875Z</time></trkpt><trkpt lat="40.617215" lon="15.0165633"><ele>320.0</ele><time>2026-04-13T15:05:59.875Z</time></trkpt><trkpt lat="40.6172983" lon="15.0165883"><ele>320.0</ele><time>2026-04-13T15:06:00.874Z</time></trkpt><trkpt lat="40.6173883" lon="15.0165883"><ele>320.0</ele><time>2026-04-13T15:06:01.873Z</time></trkpt><trkpt lat="40.61748" lon="15.0165733"><ele>320.0</ele><time>2026-04-13T15:06:02.872Z</time></trkpt><trkpt lat="40.617585" lon="15.0165617"><ele>320.0</ele><time>2026-04-13T15:06:03.872Z</time></trkpt><trkpt lat="40.617715" lon="15.0165483"><ele>320.0</ele><time>2026-04-13T15:06:04.876Z</time></trkpt><trkpt lat="40.6178367" lon="15.016545"><ele>320.0</ele><time>2026-04-13T15:06:05.874Z</time></trkpt><trkpt lat="40.6179417" lon="15.016555"><ele>320.0</ele><time>2026-04-13T15:06:06.875Z</time></trkpt><trkpt lat="40.6180267" lon="15.0165683"><ele>320.0</ele><time>2026-04-13T15:06:07.876Z</time></trkpt><trkpt lat="40.6180933" lon="15.0165767"><ele>321.1666666666667</ele><time>2026-04-13T15:06:08.875Z</time></trkpt><trkpt lat="40.6182033" lon="15.0165917"><ele>322.33333333333337</ele><time>2026-04-13T15:06:10.872Z</time></trkpt><trkpt lat="40.6182683" lon="15.0166217"><ele>323.5</ele><time>2026-04-13T15:06:12.876Z</time></trkpt><trkpt lat="40.6183033" lon="15.0166967"><ele>324.6666666666667</ele><time>2026-04-13T15:06:14.875Z</time></trkpt><trkpt lat="40.6183183" lon="15.0167783"><ele>325.8333333333333</ele><time>2026-04-13T15:06:15.874Z</time></trkpt><trkpt lat="40.6183433" lon="15.0168933"><ele>327.0</ele><time>2026-04-13T15:06:16.872Z</time></trkpt><trkpt lat="40.61838" lon="15.01702"><ele>327.0</ele><time>2026-04-13T15:06:17.873Z</time></trkpt><trkpt lat="40.61842" lon="15.0171433"><ele>327.0</ele><time>2026-04-13T15:06:18.876Z</time></trkpt><trkpt lat="40.6184583" lon="15.0172717"><ele>327.0</ele><time>2026-04-13T15:06:19.874Z</time></trkpt><trkpt lat="40.6185" lon="15.0173967"><ele>327.0</ele><time>2026-04-13T15:06:20.875Z</time></trkpt><trkpt lat="40.6185283" lon="15.0175067"><ele>327.0</ele><time>2026-04-13T15:06:21.874Z</time></trkpt><trkpt lat="40.6185567" lon="15.0176"><ele>326.6666666666667</ele><time>2026-04-13T15:06:22.875Z</time></trkpt><trkpt lat="40.61859" lon="15.0177"><ele>326.3333333333333</ele><time>2026-04-13T15:06:23.874Z</time></trkpt><trkpt lat="40.6186233" lon="15.0178"><ele>326.0</ele><time>2026-04-13T15:06:24.874Z</time></trkpt><trkpt lat="40.618675" lon="15.0179"><ele>325.66666666666663</ele><time>2026-04-13T15:06:25.873Z</time></trkpt><trkpt lat="40.61873" lon="15.018"><ele>325.3333333333333</ele><time>2026-04-13T15:06:26.877Z</time></trkpt><trkpt lat="40.61879" lon="15.0180983"><ele>325.0</ele><time>2026-04-13T15:06:27.874Z</time></trkpt><trkpt lat="40.6188333" lon="15.0181967"><ele>328.3333333333333</ele><time>2026-04-13T15:06:28.875Z</time></trkpt><trkpt lat="40.6188783" lon="15.018295"><ele>331.66666666666663</ele><time>2026-04-13T15:06:29.875Z</time></trkpt><trkpt lat="40.6189217" lon="15.0183967"><ele>335.0</ele><time>2026-04-13T15:06:30.875Z</time></trkpt><trkpt lat="40.6189617" lon="15.0184833"><ele>338.3333333333333</ele><time>2026-04-13T15:06:31.876Z</time></trkpt><trkpt lat="40.6190067" lon="15.0185567"><ele>341.6666666666667</ele><time>2026-04-13T15:06:32.872Z</time></trkpt><trkpt lat="40.6190533" lon="15.018635"><ele>345.0</ele><time>2026-04-13T15:06:33.873Z</time></trkpt><trkpt lat="40.6191" lon="15.018705"><ele>345.0</ele><time>2026-04-13T15:06:34.873Z</time></trkpt><trkpt lat="40.6191383" lon="15.0187933"><ele>345.0</ele><time>2026-04-13T15:06:35.872Z</time></trkpt><trkpt lat="40.619165" lon="15.0188833"><ele>345.0</ele><time>2026-04-13T15:06:36.873Z</time></trkpt><trkpt lat="40.6192033" lon="15.019035"><ele>345.0</ele><time>2026-04-13T15:06:38.872Z</time></trkpt><trkpt lat="40.6192333" lon="15.0191083"><ele>345.0</ele><time>2026-04-13T15:06:39.873Z</time></trkpt><trkpt lat="40.6192717" lon="15.0191933"><ele>345.0</ele><time>2026-04-13T15:06:40.872Z</time></trkpt><trkpt lat="40.61931" lon="15.0192833"><ele>343.8333333333333</ele><time>2026-04-13T15:06:41.874Z</time></trkpt><trkpt lat="40.6193533" lon="15.01937"><ele>342.6666666666667</ele><time>2026-04-13T15:06:42.874Z</time></trkpt><trkpt lat="40.619385" lon="15.0194583"><ele>341.5</ele><time>2026-04-13T15:06:43.874Z</time></trkpt><trkpt lat="40.61942" lon="15.0195483"><ele>340.33333333333337</ele><time>2026-04-13T15:06:44.874Z</time></trkpt><trkpt lat="40.619455" lon="15.019645"><ele>339.1666666666667</ele><time>2026-04-13T15:06:45.875Z</time></trkpt><trkpt lat="40.6194867" lon="15.0197433"><ele>338.0</ele><time>2026-04-13T15:06:46.874Z</time></trkpt><trkpt lat="40.6195183" lon="15.019845"><ele>341.83333333333337</ele><time>2026-04-13T15:06:47.872Z</time></trkpt><trkpt lat="40.61955" lon="15.0199433"><ele>345.6666666666667</ele><time>2026-04-13T15:06:48.875Z</time></trkpt><trkpt lat="40.61958" lon="15.0200333"><ele>349.5</ele><time>2026-04-13T15:06:49.874Z</time></trkpt><trkpt lat="40.61961" lon="15.0201217"><ele>353.3333333333333</ele><time>2026-04-13T15:06:50.872Z</time></trkpt><trkpt lat="40.6196417" lon="15.02021"><ele>357.16666666666663</ele><time>2026-04-13T15:06:51.872Z</time></trkpt><trkpt lat="40.6196717" lon="15.0203017"><ele>361.0</ele><time>2026-04-13T15:06:52.873Z</time></trkpt><trkpt lat="40.619705" lon="15.0203983"><ele>361.0</ele><time>2026-04-13T15:06:53.872Z</time></trkpt><trkpt lat="40.61974" lon="15.0204967"><ele>361.0</ele><time>2026-04-13T15:06:54.875Z</time></trkpt><trkpt lat="40.6197783" lon="15.0205883"><ele>361.0</ele><time>2026-04-13T15:06:55.875Z</time></trkpt><trkpt lat="40.6198117" lon="15.0206867"><ele>361.0</ele><time>2026-04-13T15:06:56.875Z</time></trkpt><trkpt lat="40.619845" lon="15.0207733"><ele>361.0</ele><time>2026-04-13T15:06:57.875Z</time></trkpt><trkpt lat="40.619885" lon="15.0208517"><ele>361.0</ele><time>2026-04-13T15:06:58.876Z</time></trkpt><trkpt lat="40.619935" lon="15.0209283"><ele>359.16666666666663</ele><time>2026-04-13T15:06:59.876Z</time></trkpt><trkpt lat="40.6199917" lon="15.0210083"><ele>357.3333333333333</ele><time>2026-04-13T15:07:00.874Z</time></trkpt><trkpt lat="40.6200533" lon="15.0210867"><ele>355.5</ele><time>2026-04-13T15:07:01.876Z</time></trkpt><trkpt lat="40.6201083" lon="15.0211617"><ele>353.6666666666667</ele><time>2026-04-13T15:07:02.874Z</time></trkpt><trkpt lat="40.6201567" lon="15.021225"><ele>351.83333333333337</ele><time>2026-04-13T15:07:03.874Z</time></trkpt><trkpt lat="40.62023" lon="15.0213433"><ele>350.0</ele><time>2026-04-13T15:07:05.874Z</time></trkpt><trkpt lat="40.6203117" lon="15.0214333"><ele>353.0</ele><time>2026-04-13T15:07:07.876Z</time></trkpt><trkpt lat="40.620395" lon="15.0215583"><ele>356.0</ele><time>2026-04-13T15:07:09.875Z</time></trkpt><trkpt lat="40.62044" lon="15.0216167"><ele>359.0</ele><time>2026-04-13T15:07:10.873Z</time></trkpt><trkpt lat="40.6205283" lon="15.0217083"><ele>362.0</ele><time>2026-04-13T15:07:12.876Z</time></trkpt><trkpt lat="40.6206183" lon="15.021785"><ele>365.0</ele><time>2026-04-13T15:07:14.875Z</time></trkpt><trkpt lat="40.6207" lon="15.0218383"><ele>365.0</ele><time>2026-04-13T15:07:16.874Z</time></trkpt><trkpt lat="40.6207833" lon="15.0219"><ele>365.0</ele><time>2026-04-13T15:07:18.873Z</time></trkpt><trkpt lat="40.620855" lon="15.0219517"><ele>365.0</ele><time>2026-04-13T15:07:20.872Z</time></trkpt><trkpt lat="40.620925" lon="15.0219417"><ele>365.0</ele><time>2026-04-13T15:07:22.873Z</time></trkpt><trkpt lat="40.6209933" lon="15.0219233"><ele>365.0</ele><time>2026-04-13T15:07:24.876Z</time></trkpt><trkpt lat="40.6210717" lon="15.021885"><ele>365.0</ele><time>2026-04-13T15:07:26.875Z</time></trkpt><trkpt lat="40.6211767" lon="15.0218383"><ele>367.1666666666667</ele><time>2026-04-13T15:07:28.878Z</time></trkpt><trkpt lat="40.6212633" lon="15.0218083"><ele>369.33333333333337</ele><time>2026-04-13T15:07:30.876Z</time></trkpt><trkpt lat="40.621345" lon="15.0217983"><ele>371.5</ele><time>2026-04-13T15:07:32.874Z</time></trkpt><trkpt lat="40.6214183" lon="15.02182"><ele>373.6666666666667</ele><time>2026-04-13T15:07:34.872Z</time></trkpt><trkpt lat="40.621475" lon="15.0218933"><ele>375.8333333333333</ele><time>2026-04-13T15:07:36.873Z</time></trkpt><trkpt lat="40.6215" lon="15.0219933"><ele>378.0</ele><time>2026-04-13T15:07:38.876Z</time></trkpt><trkpt lat="40.6215233" lon="15.02208"><ele>378.0</ele><time>2026-04-13T15:07:39.873Z</time></trkpt><trkpt lat="40.621555" lon="15.0221717"><ele>378.0</ele><time>2026-04-13T15:07:40.876Z</time></trkpt><trkpt lat="40.6215767" lon="15.0222567"><ele>378.0</ele><time>2026-04-13T15:07:41.876Z</time></trkpt><trkpt lat="40.6216567" lon="15.0222867"><ele>378.0</ele><time>2026-04-13T15:07:50.874Z</time></trkpt><trkpt lat="40.621765" lon="15.02221"><ele>378.0</ele><time>2026-04-13T15:07:52.874Z</time></trkpt><trkpt lat="40.6218667" lon="15.0221483"><ele>378.0</ele><time>2026-04-13T15:07:54.873Z</time></trkpt><trkpt lat="40.62196" lon="15.0221683"><ele>378.0</ele><time>2026-04-13T15:07:56.874Z</time></trkpt><trkpt lat="40.6220183" lon="15.0222217"><ele>378.0</ele><time>2026-04-13T15:07:57.875Z</time></trkpt><trkpt lat="40.6220733" lon="15.0223117"><ele>378.0</ele><time>2026-04-13T15:07:58.872Z</time></trkpt><trkpt lat="40.6221167" lon="15.0224117"><ele>378.0</ele><time>2026-04-13T15:07:59.872Z</time></trkpt><trkpt lat="40.6221533" lon="15.0225367"><ele>378.0</ele><time>2026-04-13T15:08:00.873Z</time></trkpt><trkpt lat="40.622205" lon="15.0226767"><ele>380.5</ele><time>2026-04-13T15:08:01.876Z</time></trkpt><trkpt lat="40.6222667" lon="15.0228167"><ele>383.0</ele><time>2026-04-13T15:08:02.876Z</time></trkpt><trkpt lat="40.6223217" lon="15.0229567"><ele>385.5</ele><time>2026-04-13T15:08:03.874Z</time></trkpt><trkpt lat="40.6223683" lon="15.0230933"><ele>388.0</ele><time>2026-04-13T15:08:04.875Z</time></trkpt><trkpt lat="40.6224217" lon="15.023235"><ele>387.59999999999997</ele><time>2026-04-13T15:08:05.874Z</time></trkpt><trkpt lat="40.6224717" lon="15.0233683"><ele>387.2</ele><time>2026-04-13T15:08:06.874Z</time></trkpt><trkpt lat="40.622515" lon="15.0234917"><ele>386.8</ele><time>2026-04-13T15:08:07.875Z</time></trkpt><trkpt lat="40.62256" lon="15.02361"><ele>386.4</ele><time>2026-04-13T15:08:08.874Z</time></trkpt><trkpt lat="40.6226067" lon="15.0237183"><ele>386.0</ele><time>2026-04-13T15:08:09.872Z</time></trkpt><trkpt lat="40.62265" lon="15.02382"><ele>386.0</ele><time>2026-04-13T15:08:10.874Z</time></trkpt><trkpt lat="40.6226867" lon="15.0239217"><ele>386.0</ele><time>2026-04-13T15:08:11.874Z</time></trkpt><trkpt lat="40.6227283" lon="15.0240183"><ele>386.0</ele><time>2026-04-13T15:08:12.875Z</time></trkpt><trkpt lat="40.6227733" lon="15.0241133"><ele>386.0</ele><time>2026-04-13T15:08:13.875Z</time></trkpt><trkpt lat="40.6228217" lon="15.0242267"><ele>386.0</ele><time>2026-04-13T15:08:14.874Z</time></trkpt><trkpt lat="40.6228733" lon="15.02435"><ele>389.20000000000005</ele><time>2026-04-13T15:08:15.875Z</time></trkpt><trkpt lat="40.6229233" lon="15.02447"><ele>392.40000000000003</ele><time>2026-04-13T15:08:16.875Z</time></trkpt><trkpt lat="40.622975" lon="15.0245883"><ele>395.6</ele><time>2026-04-13T15:08:17.874Z</time></trkpt><trkpt lat="40.6230267" lon="15.0246817"><ele>398.8</ele><time>2026-04-13T15:08:18.874Z</time></trkpt><trkpt lat="40.6230683" lon="15.024755"><ele>402.0</ele><time>2026-04-13T15:08:19.876Z</time></trkpt><trkpt lat="40.6231367" lon="15.0248233"><ele>402.0</ele><time>2026-04-13T15:08:21.875Z</time></trkpt><trkpt lat="40.6232433" lon="15.0248367"><ele>402.0</ele><time>2026-04-13T15:08:23.874Z</time></trkpt><trkpt lat="40.6233133" lon="15.0248483"><ele>402.0</ele><time>2026-04-13T15:08:25.875Z</time></trkpt><trkpt lat="40.62338" lon="15.025005"><ele>402.0</ele><time>2026-04-13T15:08:27.876Z</time></trkpt><trkpt lat="40.6234267" lon="15.02511"><ele>402.0</ele><time>2026-04-13T15:08:28.874Z</time></trkpt><trkpt lat="40.6234783" lon="15.0252217"><ele>402.1666666666667</ele><time>2026-04-13T15:08:29.874Z</time></trkpt><trkpt lat="40.6235317" lon="15.0253317"><ele>402.33333333333337</ele><time>2026-04-13T15:08:30.874Z</time></trkpt><trkpt lat="40.62358" lon="15.025445"><ele>402.5</ele><time>2026-04-13T15:08:31.876Z</time></trkpt><trkpt lat="40.6236283" lon="15.0255433"><ele>402.6666666666667</ele><time>2026-04-13T15:08:32.874Z</time></trkpt><trkpt lat="40.6236683" lon="15.0256383"><ele>402.83333333333337</ele><time>2026-04-13T15:08:33.876Z</time></trkpt><trkpt lat="40.6237117" lon="15.025725"><ele>403.0</ele><time>2026-04-13T15:08:34.872Z</time></trkpt><trkpt lat="40.6237533" lon="15.02581"><ele>402.2</ele><time>2026-04-13T15:08:35.875Z</time></trkpt><trkpt lat="40.6238033" lon="15.0258967"><ele>401.4</ele><time>2026-04-13T15:08:36.875Z</time></trkpt><trkpt lat="40.623855" lon="15.0259767"><ele>400.59999999999997</ele><time>2026-04-13T15:08:37.874Z</time></trkpt><trkpt lat="40.6239133" lon="15.0260817"><ele>399.79999999999995</ele><time>2026-04-13T15:08:38.876Z</time></trkpt><trkpt lat="40.6239733" lon="15.0261867"><ele>399.0</ele><time>2026-04-13T15:08:39.874Z</time></trkpt><trkpt lat="40.624025" lon="15.0263117"><ele>399.0</ele><time>2026-04-13T15:08:40.875Z</time></trkpt><trkpt lat="40.624075" lon="15.0264467"><ele>399.0</ele><time>2026-04-13T15:08:41.875Z</time></trkpt><trkpt lat="40.624125" lon="15.0265767"><ele>399.0</ele><time>2026-04-13T15:08:42.875Z</time></trkpt><trkpt lat="40.6241833" lon="15.0267183"><ele>399.0</ele><time>2026-04-13T15:08:43.874Z</time></trkpt><trkpt lat="40.6242317" lon="15.026855"><ele>398.6</ele><time>2026-04-13T15:08:44.873Z</time></trkpt><trkpt lat="40.6242833" lon="15.02699"><ele>398.2</ele><time>2026-04-13T15:08:45.875Z</time></trkpt><trkpt lat="40.62433" lon="15.027115"><ele>397.8</ele><time>2026-04-13T15:08:46.874Z</time></trkpt><trkpt lat="40.6243817" lon="15.027235"><ele>397.40000000000003</ele><time>2026-04-13T15:08:47.874Z</time></trkpt><trkpt lat="40.6244383" lon="15.0273367"><ele>397.0</ele><time>2026-04-13T15:08:48.872Z</time></trkpt><trkpt lat="40.6244983" lon="15.027425"><ele>395.83333333333337</ele><time>2026-04-13T15:08:49.873Z</time></trkpt><trkpt lat="40.6245617" lon="15.0275067"><ele>394.6666666666667</ele><time>2026-04-13T15:08:50.872Z</time></trkpt><trkpt lat="40.624625" lon="15.027575"><ele>393.5</ele><time>2026-04-13T15:08:51.872Z</time></trkpt><trkpt lat="40.6246883" lon="15.0276417"><ele>392.33333333333337</ele><time>2026-04-13T15:08:52.873Z</time></trkpt><trkpt lat="40.624745" lon="15.0277183"><ele>391.1666666666667</ele><time>2026-04-13T15:08:53.872Z</time></trkpt><trkpt lat="40.62479" lon="15.027805"><ele>390.0</ele><time>2026-04-13T15:08:54.873Z</time></trkpt><trkpt lat="40.6248317" lon="15.0278917"><ele>390.0</ele><time>2026-04-13T15:08:55.876Z</time></trkpt><trkpt lat="40.624875" lon="15.0279767"><ele>390.0</ele><time>2026-04-13T15:08:56.875Z</time></trkpt><trkpt lat="40.62492" lon="15.0280667"><ele>390.0</ele><time>2026-04-13T15:08:57.874Z</time></trkpt><trkpt lat="40.6249633" lon="15.0281567"><ele>390.0</ele><time>2026-04-13T15:08:58.875Z</time></trkpt><trkpt lat="40.625" lon="15.0282533"><ele>390.0</ele><time>2026-04-13T15:08:59.877Z</time></trkpt><trkpt lat="40.62503" lon="15.028355"><ele>390.0</ele><time>2026-04-13T15:09:00.874Z</time></trkpt><trkpt lat="40.6250633" lon="15.0284533"><ele>389.8333333333333</ele><time>2026-04-13T15:09:01.876Z</time></trkpt><trkpt lat="40.6251083" lon="15.02853"><ele>389.66666666666663</ele><time>2026-04-13T15:09:02.876Z</time></trkpt><trkpt lat="40.625155" lon="15.0286"><ele>389.5</ele><time>2026-04-13T15:09:03.872Z</time></trkpt><trkpt lat="40.62525" lon="15.0286933"><ele>389.3333333333333</ele><time>2026-04-13T15:09:05.873Z</time></trkpt><trkpt lat="40.625355" lon="15.0287583"><ele>389.16666666666663</ele><time>2026-04-13T15:09:07.874Z</time></trkpt><trkpt lat="40.62541" lon="15.02881"><ele>389.0</ele><time>2026-04-13T15:09:08.873Z</time></trkpt><trkpt lat="40.6254567" lon="15.0288783"><ele>387.7142857142857</ele><time>2026-04-13T15:09:09.874Z</time></trkpt><trkpt lat="40.6255067" lon="15.0289467"><ele>386.4285714285714</ele><time>2026-04-13T15:09:10.873Z</time></trkpt><trkpt lat="40.6255583" lon="15.0290083"><ele>385.1428571428571</ele><time>2026-04-13T15:09:11.874Z</time></trkpt><trkpt lat="40.62561" lon="15.02906"><ele>383.8571428571429</ele><time>2026-04-13T15:09:12.874Z</time></trkpt><trkpt lat="40.62567" lon="15.0291183"><ele>382.57142857142856</ele><time>2026-04-13T15:09:13.875Z</time></trkpt><trkpt lat="40.62573" lon="15.0291833"><ele>381.2857142857143</ele><time>2026-04-13T15:09:14.875Z</time></trkpt><trkpt lat="40.6257917" lon="15.0292567"><ele>380.0</ele><time>2026-04-13T15:09:15.874Z</time></trkpt><trkpt lat="40.6258533" lon="15.0293267"><ele>379.6666666666667</ele><time>2026-04-13T15:09:16.874Z</time></trkpt><trkpt lat="40.6259083" lon="15.0293917"><ele>379.33333333333337</ele><time>2026-04-13T15:09:17.872Z</time></trkpt><trkpt lat="40.62596" lon="15.02945"><ele>379.0</ele><time>2026-04-13T15:09:18.874Z</time></trkpt><trkpt lat="40.6260217" lon="15.0294983"><ele>378.6666666666667</ele><time>2026-04-13T15:09:19.874Z</time></trkpt><trkpt lat="40.6260967" lon="15.0295583"><ele>378.3333333333333</ele><time>2026-04-13T15:09:20.874Z</time></trkpt><trkpt lat="40.626185" lon="15.0296533"><ele>378.0</ele><time>2026-04-13T15:09:21.874Z</time></trkpt><trkpt lat="40.6262817" lon="15.0297417"><ele>376.59999999999997</ele><time>2026-04-13T15:09:22.873Z</time></trkpt><trkpt lat="40.6263783" lon="15.029815"><ele>375.2</ele><time>2026-04-13T15:09:23.874Z</time></trkpt><trkpt lat="40.6264717" lon="15.0298683"><ele>373.8</ele><time>2026-04-13T15:09:24.876Z</time></trkpt><trkpt lat="40.6265633" lon="15.0299033"><ele>372.4</ele><time>2026-04-13T15:09:25.878Z</time></trkpt><trkpt lat="40.6266533" lon="15.02992"><ele>371.0</ele><time>2026-04-13T15:09:26.875Z</time></trkpt><trkpt lat="40.6267433" lon="15.0299233"><ele>371.0</ele><time>2026-04-13T15:09:27.874Z</time></trkpt><trkpt lat="40.62683" lon="15.02992"><ele>371.0</ele><time>2026-04-13T15:09:28.872Z</time></trkpt><trkpt lat="40.6269167" lon="15.0299033"><ele>371.0</ele><time>2026-04-13T15:09:29.874Z</time></trkpt><trkpt lat="40.6270083" lon="15.0299"><ele>371.0</ele><time>2026-04-13T15:09:30.874Z</time></trkpt><trkpt lat="40.6271" lon="15.0299"><ele>371.0</ele><time>2026-04-13T15:09:31.873Z</time></trkpt><trkpt lat="40.6272067" lon="15.0298983"><ele>368.0</ele><time>2026-04-13T15:09:32.873Z</time></trkpt><trkpt lat="40.627325" lon="15.0298967"><ele>365.0</ele><time>2026-04-13T15:09:33.872Z</time></trkpt><trkpt lat="40.6274617" lon="15.02989"><ele>362.0</ele><time>2026-04-13T15:09:34.873Z</time></trkpt><trkpt lat="40.6276183" lon="15.0298867"><ele>359.0</ele><time>2026-04-13T15:09:35.872Z</time></trkpt><trkpt lat="40.6277817" lon="15.02989"><ele>358.0</ele><time>2026-04-13T15:09:36.876Z</time></trkpt><trkpt lat="40.627945" lon="15.0298867"><ele>357.0</ele><time>2026-04-13T15:09:37.874Z</time></trkpt><trkpt lat="40.628105" lon="15.0298783"><ele>356.0</ele><time>2026-04-13T15:09:38.872Z</time></trkpt><trkpt lat="40.6282617" lon="15.0298767"><ele>356.0</ele><time>2026-04-13T15:09:39.872Z</time></trkpt><trkpt lat="40.6284133" lon="15.0298733"><ele>356.0</ele><time>2026-04-13T15:09:40.872Z</time></trkpt><trkpt lat="40.6285683" lon="15.0298683"><ele>356.0</ele><time>2026-04-13T15:09:41.873Z</time></trkpt><trkpt lat="40.6287233" lon="15.0298583"><ele>355.0</ele><time>2026-04-13T15:09:42.874Z</time></trkpt><trkpt lat="40.6288633" lon="15.0298467"><ele>354.0</ele><time>2026-04-13T15:09:43.873Z</time></trkpt><trkpt lat="40.628985" lon="15.0298383"><ele>353.0</ele><time>2026-04-13T15:09:44.875Z</time></trkpt><trkpt lat="40.6291083" lon="15.0298467"><ele>352.0</ele><time>2026-04-13T15:09:45.876Z</time></trkpt><trkpt lat="40.6292433" lon="15.0298483"><ele>352.0</ele><time>2026-04-13T15:09:46.876Z</time></trkpt><trkpt lat="40.6293817" lon="15.0298567"><ele>352.0</ele><time>2026-04-13T15:09:47.874Z</time></trkpt><trkpt lat="40.6295283" lon="15.0298467"><ele>352.0</ele><time>2026-04-13T15:09:48.872Z</time></trkpt><trkpt lat="40.62967" lon="15.0298467"><ele>352.0</ele><time>2026-04-13T15:09:49.872Z</time></trkpt><trkpt lat="40.6298067" lon="15.0298417"><ele>352.20000000000005</ele><time>2026-04-13T15:09:50.873Z</time></trkpt><trkpt lat="40.6299317" lon="15.0298417"><ele>352.4</ele><time>2026-04-13T15:09:51.873Z</time></trkpt><trkpt lat="40.6300533" lon="15.0298383"><ele>352.6</ele><time>2026-04-13T15:09:52.874Z</time></trkpt><trkpt lat="40.6301617" lon="15.0298367"><ele>352.79999999999995</ele><time>2026-04-13T15:09:53.874Z</time></trkpt><trkpt lat="40.6302417" lon="15.0298833"><ele>353.0</ele><time>2026-04-13T15:09:54.876Z</time></trkpt><trkpt lat="40.6302883" lon="15.029975"><ele>354.5</ele><time>2026-04-13T15:09:55.874Z</time></trkpt><trkpt lat="40.6303083" lon="15.0301067"><ele>356.0</ele><time>2026-04-13T15:09:56.874Z</time></trkpt><trkpt lat="40.6303167" lon="15.03027"><ele>357.5</ele><time>2026-04-13T15:09:57.875Z</time></trkpt><trkpt lat="40.6303317" lon="15.0304417"><ele>359.0</ele><time>2026-04-13T15:09:58.875Z</time></trkpt><trkpt lat="40.63035" lon="15.0306283"><ele>360.25</ele><time>2026-04-13T15:09:59.874Z</time></trkpt><trkpt lat="40.6303767" lon="15.0308083"><ele>361.5</ele><time>2026-04-13T15:10:00.872Z</time></trkpt><trkpt lat="40.6304017" lon="15.0309767"><ele>362.75</ele><time>2026-04-13T15:10:01.874Z</time></trkpt><trkpt lat="40.6304233" lon="15.0311133"><ele>364.0</ele><time>2026-04-13T15:10:02.873Z</time></trkpt><trkpt lat="40.6304383" lon="15.031225"><ele>364.0</ele><time>2026-04-13T15:10:03.876Z</time></trkpt><trkpt lat="40.6304583" lon="15.03131"><ele>364.0</ele><time>2026-04-13T15:10:04.872Z</time></trkpt><trkpt lat="40.630555" lon="15.03131"><ele>364.0</ele><time>2026-04-13T15:10:06.874Z</time></trkpt><trkpt lat="40.630615" lon="15.03128"><ele>364.0</ele><time>2026-04-13T15:10:07.873Z</time></trkpt><trkpt lat="40.630695" lon="15.0312067"><ele>364.0</ele><time>2026-04-13T15:10:08.876Z</time></trkpt><trkpt lat="40.630785" lon="15.0311417"><ele>364.0</ele><time>2026-04-13T15:10:09.873Z</time></trkpt><trkpt lat="40.63088" lon="15.0310617"><ele>364.0</ele><time>2026-04-13T15:10:10.874Z</time></trkpt><trkpt lat="40.6309833" lon="15.0309783"><ele>364.0</ele><time>2026-04-13T15:10:11.874Z</time></trkpt><trkpt lat="40.631095" lon="15.0309"><ele>364.0</ele><time>2026-04-13T15:10:12.875Z</time></trkpt><trkpt lat="40.6312183" lon="15.0308233"><ele>364.0</ele><time>2026-04-13T15:10:13.875Z</time></trkpt><trkpt lat="40.6313433" lon="15.0307433"><ele>362.25</ele><time>2026-04-13T15:10:14.876Z</time></trkpt><trkpt lat="40.63147" lon="15.03067"><ele>360.5</ele><time>2026-04-13T15:10:15.876Z</time></trkpt><trkpt lat="40.6316" lon="15.03058"><ele>358.75</ele><time>2026-04-13T15:10:16.874Z</time></trkpt><trkpt lat="40.6317317" lon="15.0305017"><ele>357.0</ele><time>2026-04-13T15:10:17.872Z</time></trkpt><trkpt lat="40.63187" lon="15.0304133"><ele>355.0</ele><time>2026-04-13T15:10:18.872Z</time></trkpt><trkpt lat="40.6320067" lon="15.0303233"><ele>353.0</ele><time>2026-04-13T15:10:19.872Z</time></trkpt><trkpt lat="40.6321467" lon="15.0302383"><ele>351.0</ele><time>2026-04-13T15:10:20.873Z</time></trkpt><trkpt lat="40.6322817" lon="15.03016"><ele>351.0</ele><time>2026-04-13T15:10:21.875Z</time></trkpt><trkpt lat="40.6323967" lon="15.0300883"><ele>351.0</ele><time>2026-04-13T15:10:22.872Z</time></trkpt><trkpt lat="40.6325" lon="15.0300367"><ele>351.0</ele><time>2026-04-13T15:10:23.876Z</time></trkpt><trkpt lat="40.6326" lon="15.0299983"><ele>351.0</ele><time>2026-04-13T15:10:24.872Z</time></trkpt><trkpt lat="40.6327017" lon="15.0299617"><ele>351.0</ele><time>2026-04-13T15:10:25.873Z</time></trkpt><trkpt lat="40.632825" lon="15.0299683"><ele>350.25</ele><time>2026-04-13T15:10:26.874Z</time></trkpt><trkpt lat="40.6329567" lon="15.0300017"><ele>349.5</ele><time>2026-04-13T15:10:27.873Z</time></trkpt><trkpt lat="40.6330917" lon="15.0300417"><ele>348.75</ele><time>2026-04-13T15:10:28.872Z</time></trkpt><trkpt lat="40.6332217" lon="15.0300733"><ele>348.0</ele><time>2026-04-13T15:10:29.873Z</time></trkpt><trkpt lat="40.6333467" lon="15.0301067"><ele>348.0</ele><time>2026-04-13T15:10:30.873Z</time></trkpt><trkpt lat="40.6334667" lon="15.0301367"><ele>348.0</ele><time>2026-04-13T15:10:31.874Z</time></trkpt><trkpt lat="40.6335933" lon="15.0301633"><ele>348.0</ele><time>2026-04-13T15:10:32.872Z</time></trkpt><trkpt lat="40.6336883" lon="15.03022"><ele>348.0</ele><time>2026-04-13T15:10:33.872Z</time></trkpt><trkpt lat="40.63378" lon="15.0303083"><ele>345.25</ele><time>2026-04-13T15:10:34.874Z</time></trkpt><trkpt lat="40.6338733" lon="15.03041"><ele>342.5</ele><time>2026-04-13T15:10:35.875Z</time></trkpt><trkpt lat="40.63397" lon="15.0305083"><ele>339.75</ele><time>2026-04-13T15:10:36.874Z</time></trkpt><trkpt lat="40.6340733" lon="15.0306133"><ele>337.0</ele><time>2026-04-13T15:10:37.875Z</time></trkpt><trkpt lat="40.6341767" lon="15.0307067"><ele>338.5</ele><time>2026-04-13T15:10:38.875Z</time></trkpt><trkpt lat="40.634295" lon="15.0308183"><ele>340.0</ele><time>2026-04-13T15:10:39.874Z</time></trkpt><trkpt lat="40.6344" lon="15.0309133"><ele>341.5</ele><time>2026-04-13T15:10:40.875Z</time></trkpt><trkpt lat="40.6345033" lon="15.031025"><ele>343.0</ele><time>2026-04-13T15:10:41.874Z</time></trkpt><trkpt lat="40.6346117" lon="15.031145"><ele>340.0</ele><time>2026-04-13T15:10:42.875Z</time></trkpt><trkpt lat="40.6347033" lon="15.0312717"><ele>337.0</ele><time>2026-04-13T15:10:43.874Z</time></trkpt><trkpt lat="40.6347867" lon="15.0314017"><ele>334.0</ele><time>2026-04-13T15:10:44.874Z</time></trkpt><trkpt lat="40.6348617" lon="15.0315267"><ele>331.0</ele><time>2026-04-13T15:10:45.876Z</time></trkpt><trkpt lat="40.6349283" lon="15.0316333"><ele>331.16666666666663</ele><time>2026-04-13T15:10:46.874Z</time></trkpt><trkpt lat="40.6349933" lon="15.0317133"><ele>331.3333333333333</ele><time>2026-04-13T15:10:47.872Z</time></trkpt><trkpt lat="40.6350567" lon="15.0317817"><ele>331.5</ele><time>2026-04-13T15:10:48.873Z</time></trkpt><trkpt lat="40.6351233" lon="15.0318117"><ele>331.6666666666667</ele><time>2026-04-13T15:10:49.874Z</time></trkpt><trkpt lat="40.6351917" lon="15.03183"><ele>331.83333333333337</ele><time>2026-04-13T15:10:50.873Z</time></trkpt><trkpt lat="40.6352683" lon="15.031825"><ele>332.0</ele><time>2026-04-13T15:10:51.872Z</time></trkpt><trkpt lat="40.635325" lon="15.0317483"><ele>327.5</ele><time>2026-04-13T15:10:52.876Z</time></trkpt><trkpt lat="40.6353467" lon="15.0315933"><ele>323.0</ele><time>2026-04-13T15:10:53.873Z</time></trkpt><trkpt lat="40.6353717" lon="15.0314533"><ele>318.5</ele><time>2026-04-13T15:10:54.875Z</time></trkpt><trkpt lat="40.6353933" lon="15.0312817"><ele>314.0</ele><time>2026-04-13T15:10:55.876Z</time></trkpt><trkpt lat="40.6354183" lon="15.031095"><ele>314.0</ele><time>2026-04-13T15:10:56.875Z</time></trkpt><trkpt lat="40.635445" lon="15.0309"><ele>314.0</ele><time>2026-04-13T15:10:57.877Z</time></trkpt><trkpt lat="40.6354767" lon="15.030715"><ele>314.0</ele><time>2026-04-13T15:10:58.872Z</time></trkpt><trkpt lat="40.635495" lon="15.03053"><ele>314.0</ele><time>2026-04-13T15:10:59.873Z</time></trkpt><trkpt lat="40.6354983" lon="15.0303367"><ele>311.33333333333337</ele><time>2026-04-13T15:11:00.873Z</time></trkpt><trkpt lat="40.635495" lon="15.0301367"><ele>308.6666666666667</ele><time>2026-04-13T15:11:01.873Z</time></trkpt><trkpt lat="40.6354917" lon="15.0299367"><ele>306.0</ele><time>2026-04-13T15:11:02.873Z</time></trkpt><trkpt lat="40.6354817" lon="15.029735"><ele>304.3333333333333</ele><time>2026-04-13T15:11:03.874Z</time></trkpt><trkpt lat="40.6354717" lon="15.0295333"><ele>302.66666666666663</ele><time>2026-04-13T15:11:04.872Z</time></trkpt><trkpt lat="40.6354683" lon="15.0293367"><ele>301.0</ele><time>2026-04-13T15:11:05.874Z</time></trkpt><trkpt lat="40.63547" lon="15.02914"><ele>299.75</ele><time>2026-04-13T15:11:06.873Z</time></trkpt><trkpt lat="40.6354683" lon="15.0289417"><ele>298.5</ele><time>2026-04-13T15:11:07.872Z</time></trkpt><trkpt lat="40.6354717" lon="15.0287533"><ele>297.25</ele><time>2026-04-13T15:11:08.875Z</time></trkpt><trkpt lat="40.6354667" lon="15.0285683"><ele>296.0</ele><time>2026-04-13T15:11:09.874Z</time></trkpt><trkpt lat="40.635465" lon="15.02839"><ele>295.5</ele><time>2026-04-13T15:11:10.874Z</time></trkpt><trkpt lat="40.6354633" lon="15.02824"><ele>295.0</ele><time>2026-04-13T15:11:11.875Z</time></trkpt><trkpt lat="40.63547" lon="15.0281267"><ele>294.5</ele><time>2026-04-13T15:11:12.875Z</time></trkpt><trkpt lat="40.6354917" lon="15.02803"><ele>294.0</ele><time>2026-04-13T15:11:13.876Z</time></trkpt><trkpt lat="40.6355317" lon="15.0279483"><ele>293.5</ele><time>2026-04-13T15:11:14.875Z</time></trkpt><trkpt lat="40.635605" lon="15.02791"><ele>293.0</ele><time>2026-04-13T15:11:15.875Z</time></trkpt><trkpt lat="40.6357117" lon="15.0279217"><ele>293.0</ele><time>2026-04-13T15:11:16.875Z</time></trkpt><trkpt lat="40.6358317" lon="15.0279617"><ele>293.0</ele><time>2026-04-13T15:11:17.872Z</time></trkpt><trkpt lat="40.63596" lon="15.0280183"><ele>293.0</ele><time>2026-04-13T15:11:18.874Z</time></trkpt><trkpt lat="40.636075" lon="15.0280833"><ele>293.0</ele><time>2026-04-13T15:11:19.873Z</time></trkpt><trkpt lat="40.6361717" lon="15.0281633"><ele>291.25</ele><time>2026-04-13T15:11:20.872Z</time></trkpt><trkpt lat="40.6362567" lon="15.0282483"><ele>289.5</ele><time>2026-04-13T15:11:21.874Z</time></trkpt><trkpt lat="40.6363183" lon="15.02837"><ele>287.75</ele><time>2026-04-13T15:11:22.872Z</time></trkpt><trkpt lat="40.6363867" lon="15.0285117"><ele>286.0</ele><time>2026-04-13T15:11:23.873Z</time></trkpt><trkpt lat="40.6364517" lon="15.0286783"><ele>285.5</ele><time>2026-04-13T15:11:24.876Z</time></trkpt><trkpt lat="40.6365233" lon="15.0288417"><ele>285.0</ele><time>2026-04-13T15:11:25.875Z</time></trkpt><trkpt lat="40.6366" lon="15.0289967"><ele>284.5</ele><time>2026-04-13T15:11:26.874Z</time></trkpt><trkpt lat="40.63667" lon="15.0291583"><ele>284.0</ele><time>2026-04-13T15:11:27.875Z</time></trkpt><trkpt lat="40.6367417" lon="15.0293217"><ele>284.0</ele><time>2026-04-13T15:11:28.874Z</time></trkpt><trkpt lat="40.636815" lon="15.02947"><ele>284.0</ele><time>2026-04-13T15:11:29.876Z</time></trkpt><trkpt lat="40.63688" lon="15.0296117"><ele>284.0</ele><time>2026-04-13T15:11:30.877Z</time></trkpt><trkpt lat="40.6369383" lon="15.0297317"><ele>284.0</ele><time>2026-04-13T15:11:31.874Z</time></trkpt><trkpt lat="40.636985" lon="15.0298533"><ele>280.75</ele><time>2026-04-13T15:11:32.874Z</time></trkpt><trkpt lat="40.6370183" lon="15.0299817"><ele>277.5</ele><time>2026-04-13T15:11:33.872Z</time></trkpt><trkpt lat="40.63705" lon="15.0301283"><ele>274.25</ele><time>2026-04-13T15:11:34.876Z</time></trkpt><trkpt lat="40.637075" lon="15.0302883"><ele>271.0</ele><time>2026-04-13T15:11:35.872Z</time></trkpt><trkpt lat="40.63708" lon="15.0304533"><ele>271.0</ele><time>2026-04-13T15:11:36.873Z</time></trkpt><trkpt lat="40.6370617" lon="15.03064"><ele>271.0</ele><time>2026-04-13T15:11:37.872Z</time></trkpt><trkpt lat="40.63705" lon="15.0308333"><ele>271.0</ele><time>2026-04-13T15:11:38.873Z</time></trkpt><trkpt lat="40.6370333" lon="15.031005"><ele>271.0</ele><time>2026-04-13T15:11:39.872Z</time></trkpt><trkpt lat="40.6370033" lon="15.031165"><ele>274.2</ele><time>2026-04-13T15:11:40.874Z</time></trkpt><trkpt lat="40.6369667" lon="15.0313233"><ele>277.40000000000003</ele><time>2026-04-13T15:11:41.873Z</time></trkpt><trkpt lat="40.6369367" lon="15.0314633"><ele>280.6</ele><time>2026-04-13T15:11:42.873Z</time></trkpt><trkpt lat="40.63691" lon="15.0315917"><ele>283.8</ele><time>2026-04-13T15:11:43.872Z</time></trkpt><trkpt lat="40.6368833" lon="15.0317133"><ele>287.0</ele><time>2026-04-13T15:11:44.873Z</time></trkpt><trkpt lat="40.63686" lon="15.031835"><ele>287.0</ele><time>2026-04-13T15:11:45.873Z</time></trkpt><trkpt lat="40.6368633" lon="15.0319433"><ele>287.0</ele><time>2026-04-13T15:11:46.875Z</time></trkpt><trkpt lat="40.6368933" lon="15.0320517"><ele>287.0</ele><time>2026-04-13T15:11:47.874Z</time></trkpt><trkpt lat="40.6369417" lon="15.0321517"><ele>287.0</ele><time>2026-04-13T15:11:48.872Z</time></trkpt><trkpt lat="40.6369883" lon="15.0322183"><ele>287.0</ele><time>2026-04-13T15:11:49.874Z</time></trkpt><trkpt lat="40.637045" lon="15.0322783"><ele>287.0</ele><time>2026-04-13T15:11:51.875Z</time></trkpt><trkpt lat="40.6371533" lon="15.0322817"><ele>284.2</ele><time>2026-04-13T15:11:54.875Z</time></trkpt><trkpt lat="40.6372383" lon="15.0322717"><ele>281.4</ele><time>2026-04-13T15:11:55.875Z</time></trkpt><trkpt lat="40.6373333" lon="15.03225"><ele>278.6</ele><time>2026-04-13T15:11:56.874Z</time></trkpt><trkpt lat="40.6374383" lon="15.032185"><ele>275.8</ele><time>2026-04-13T15:11:57.875Z</time></trkpt><trkpt lat="40.6375317" lon="15.0321183"><ele>273.0</ele><time>2026-04-13T15:11:58.874Z</time></trkpt><trkpt lat="40.6376267" lon="15.0320433"><ele>273.0</ele><time>2026-04-13T15:11:59.874Z</time></trkpt><trkpt lat="40.6377" lon="15.0319767"><ele>273.0</ele><time>2026-04-13T15:12:00.875Z</time></trkpt><trkpt lat="40.637755" lon="15.031925"><ele>273.0</ele><time>2026-04-13T15:12:01.874Z</time></trkpt><trkpt lat="40.63783" lon="15.0319217"><ele>273.0</ele><time>2026-04-13T15:12:03.874Z</time></trkpt><trkpt lat="40.637845" lon="15.0320217"><ele>273.0</ele><time>2026-04-13T15:12:06.875Z</time></trkpt><trkpt lat="40.6378117" lon="15.0321"><ele>273.0</ele><time>2026-04-13T15:12:08.874Z</time></trkpt><trkpt lat="40.6377717" lon="15.0322233"><ele>273.0</ele><time>2026-04-13T15:12:10.872Z</time></trkpt><trkpt lat="40.6377283" lon="15.032385"><ele>273.0</ele><time>2026-04-13T15:12:12.874Z</time></trkpt><trkpt lat="40.6376917" lon="15.0324733"><ele>273.0</ele><time>2026-04-13T15:12:13.877Z</time></trkpt><trkpt lat="40.6376517" lon="15.0325717"><ele>273.0</ele><time>2026-04-13T15:12:14.874Z</time></trkpt><trkpt lat="40.6376083" lon="15.032665"><ele>273.0</ele><time>2026-04-13T15:12:15.874Z</time></trkpt><trkpt lat="40.6375467" lon="15.03274"><ele>274.2</ele><time>2026-04-13T15:12:16.874Z</time></trkpt><trkpt lat="40.6374767" lon="15.0328"><ele>275.4</ele><time>2026-04-13T15:12:17.875Z</time></trkpt><trkpt lat="40.6373967" lon="15.032855"><ele>276.59999999999997</ele><time>2026-04-13T15:12:18.875Z</time></trkpt><trkpt lat="40.6373317" lon="15.0329133"><ele>277.8</ele><time>2026-04-13T15:12:19.877Z</time></trkpt><trkpt lat="40.6372567" lon="15.033035"><ele>279.0</ele><time>2026-04-13T15:12:21.876Z</time></trkpt><trkpt lat="40.6372033" lon="15.0331883"><ele>279.0</ele><time>2026-04-13T15:12:23.875Z</time></trkpt><trkpt lat="40.6371783" lon="15.0332683"><ele>279.0</ele><time>2026-04-13T15:12:24.874Z</time></trkpt><trkpt lat="40.6371333" lon="15.0334083"><ele>279.0</ele><time>2026-04-13T15:12:26.874Z</time></trkpt><trkpt lat="40.6370933" lon="15.03352"><ele>279.0</ele><time>2026-04-13T15:12:28.872Z</time></trkpt><trkpt lat="40.6370633" lon="15.0336183"><ele>279.0</ele><time>2026-04-13T15:12:30.872Z</time></trkpt><trkpt lat="40.63703" lon="15.0337467"><ele>278.71428571428567</ele><time>2026-04-13T15:12:32.872Z</time></trkpt><trkpt lat="40.637" lon="15.033865"><ele>278.42857142857144</ele><time>2026-04-13T15:12:34.879Z</time></trkpt><trkpt lat="40.6369783" lon="15.033945"><ele>278.1428571428571</ele><time>2026-04-13T15:12:35.872Z</time></trkpt><trkpt lat="40.6369417" lon="15.0340267"><ele>277.85714285714283</ele><time>2026-04-13T15:12:36.872Z</time></trkpt><trkpt lat="40.6369" lon="15.0341067"><ele>277.57142857142856</ele><time>2026-04-13T15:12:37.872Z</time></trkpt><trkpt lat="40.6368667" lon="15.03419"><ele>277.2857142857143</ele><time>2026-04-13T15:12:38.872Z</time></trkpt><trkpt lat="40.636835" lon="15.0342733"><ele>277.0</ele><time>2026-04-13T15:12:39.873Z</time></trkpt><trkpt lat="40.6368117" lon="15.0343633"><ele>278.8333333333333</ele><time>2026-04-13T15:12:40.875Z</time></trkpt><trkpt lat="40.6367933" lon="15.0344633"><ele>280.66666666666663</ele><time>2026-04-13T15:12:41.875Z</time></trkpt><trkpt lat="40.6367817" lon="15.034575"><ele>282.5</ele><time>2026-04-13T15:12:42.874Z</time></trkpt><trkpt lat="40.636775" lon="15.034685"><ele>284.3333333333333</ele><time>2026-04-13T15:12:43.875Z</time></trkpt><trkpt lat="40.6367633" lon="15.034795"><ele>286.1666666666667</ele><time>2026-04-13T15:12:44.875Z</time></trkpt><trkpt lat="40.6367633" lon="15.0349133"><ele>288.0</ele><time>2026-04-13T15:12:45.874Z</time></trkpt><trkpt lat="40.6367633" lon="15.0350383"><ele>288.5</ele><time>2026-04-13T15:12:46.874Z</time></trkpt><trkpt lat="40.636755" lon="15.0351617"><ele>289.0</ele><time>2026-04-13T15:12:47.874Z</time></trkpt><trkpt lat="40.636735" lon="15.0352867"><ele>289.5</ele><time>2026-04-13T15:12:48.875Z</time></trkpt><trkpt lat="40.636725" lon="15.0354033"><ele>290.0</ele><time>2026-04-13T15:12:49.874Z</time></trkpt><trkpt lat="40.6367167" lon="15.035515"><ele>290.5</ele><time>2026-04-13T15:12:50.874Z</time></trkpt><trkpt lat="40.6367133" lon="15.035625"><ele>291.0</ele><time>2026-04-13T15:12:51.874Z</time></trkpt><trkpt lat="40.6367217" lon="15.0357483"><ele>291.40000000000003</ele><time>2026-04-13T15:12:52.876Z</time></trkpt><trkpt lat="40.6367133" lon="15.0358817"><ele>291.8</ele><time>2026-04-13T15:12:53.875Z</time></trkpt><trkpt lat="40.6367" lon="15.0360267"><ele>292.20000000000005</ele><time>2026-04-13T15:12:54.873Z</time></trkpt><trkpt lat="40.6367033" lon="15.0361767"><ele>292.6</ele><time>2026-04-13T15:12:55.873Z</time></trkpt><trkpt lat="40.6367067" lon="15.0363233"><ele>293.0</ele><time>2026-04-13T15:12:56.872Z</time></trkpt><trkpt lat="40.6367117" lon="15.036465"><ele>293.0</ele><time>2026-04-13T15:12:57.872Z</time></trkpt><trkpt lat="40.6366967" lon="15.0366017"><ele>293.0</ele><time>2026-04-13T15:12:58.872Z</time></trkpt><trkpt lat="40.6366817" lon="15.03673"><ele>293.0</ele><time>2026-04-13T15:12:59.872Z</time></trkpt><trkpt lat="40.636665" lon="15.0368633"><ele>293.0</ele><time>2026-04-13T15:13:00.874Z</time></trkpt><trkpt lat="40.63665" lon="15.0369917"><ele>293.0</ele><time>2026-04-13T15:13:01.874Z</time></trkpt><trkpt lat="40.6366367" lon="15.03713"><ele>293.2</ele><time>2026-04-13T15:13:02.875Z</time></trkpt><trkpt lat="40.63664" lon="15.0372583"><ele>293.4</ele><time>2026-04-13T15:13:03.874Z</time></trkpt><trkpt lat="40.6366283" lon="15.0373833"><ele>293.59999999999997</ele><time>2026-04-13T15:13:04.875Z</time></trkpt><trkpt lat="40.6366217" lon="15.0375017"><ele>293.8</ele><time>2026-04-13T15:13:05.874Z</time></trkpt><trkpt lat="40.6366167" lon="15.0376217"><ele>294.0</ele><time>2026-04-13T15:13:06.872Z</time></trkpt><trkpt lat="40.63661" lon="15.0377383"><ele>295.0</ele><time>2026-04-13T15:13:07.874Z</time></trkpt><trkpt lat="40.636605" lon="15.0378533"><ele>296.0</ele><time>2026-04-13T15:13:08.874Z</time></trkpt><trkpt lat="40.6366017" lon="15.0379717"><ele>297.0</ele><time>2026-04-13T15:13:09.874Z</time></trkpt><trkpt lat="40.6366017" lon="15.0381"><ele>298.0</ele><time>2026-04-13T15:13:10.878Z</time></trkpt><trkpt lat="40.6365983" lon="15.03822"><ele>299.0</ele><time>2026-04-13T15:13:11.876Z</time></trkpt><trkpt lat="40.6366" lon="15.0383333"><ele>299.5</ele><time>2026-04-13T15:13:12.874Z</time></trkpt><trkpt lat="40.636595" lon="15.0384367"><ele>300.0</ele><time>2026-04-13T15:13:13.876Z</time></trkpt><trkpt lat="40.636595" lon="15.0385383"><ele>300.5</ele><time>2026-04-13T15:13:14.874Z</time></trkpt><trkpt lat="40.6366017" lon="15.038645"><ele>301.0</ele><time>2026-04-13T15:13:15.875Z</time></trkpt><trkpt lat="40.6366017" lon="15.038745"><ele>301.5</ele><time>2026-04-13T15:13:16.874Z</time></trkpt><trkpt lat="40.6366017" lon="15.038835"><ele>302.0</ele><time>2026-04-13T15:13:17.873Z</time></trkpt><trkpt lat="40.6366067" lon="15.0389733"><ele>302.0</ele><time>2026-04-13T15:13:19.873Z</time></trkpt><trkpt lat="40.6365983" lon="15.0390733"><ele>302.0</ele><time>2026-04-13T15:13:21.873Z</time></trkpt><trkpt lat="40.6365883" lon="15.0391867"><ele>302.0</ele><time>2026-04-13T15:13:23.872Z</time></trkpt><trkpt lat="40.6366067" lon="15.039315"><ele>302.0</ele><time>2026-04-13T15:13:25.876Z</time></trkpt><trkpt lat="40.6367" lon="15.0393833"><ele>302.0</ele><time>2026-04-13T15:13:28.873Z</time></trkpt><trkpt lat="40.6367617" lon="15.039355"><ele>302.0</ele><time>2026-04-13T15:13:29.875Z</time></trkpt><trkpt lat="40.6368317" lon="15.0393267"><ele>301.4</ele><time>2026-04-13T15:13:30.875Z</time></trkpt><trkpt lat="40.6369183" lon="15.0392917"><ele>300.79999999999995</ele><time>2026-04-13T15:13:31.876Z</time></trkpt><trkpt lat="40.6370133" lon="15.0392483"><ele>300.2</ele><time>2026-04-13T15:13:32.875Z</time></trkpt><trkpt lat="40.6371283" lon="15.0392"><ele>299.59999999999997</ele><time>2026-04-13T15:13:33.874Z</time></trkpt><trkpt lat="40.6372383" lon="15.0391583"><ele>299.0</ele><time>2026-04-13T15:13:34.874Z</time></trkpt><trkpt lat="40.6373417" lon="15.03912"><ele>299.0</ele><time>2026-04-13T15:13:35.874Z</time></trkpt><trkpt lat="40.63744" lon="15.0390983"><ele>299.0</ele><time>2026-04-13T15:13:36.874Z</time></trkpt><trkpt lat="40.63754" lon="15.0390867"><ele>299.0</ele><time>2026-04-13T15:13:37.875Z</time></trkpt><trkpt lat="40.637635" lon="15.03908"><ele>299.0</ele><time>2026-04-13T15:13:38.874Z</time></trkpt><trkpt lat="40.6377217" lon="15.0390717"><ele>299.0</ele><time>2026-04-13T15:13:39.877Z</time></trkpt><trkpt lat="40.637805" lon="15.0390617"><ele>298.57142857142856</ele><time>2026-04-13T15:13:40.874Z</time></trkpt><trkpt lat="40.6378833" lon="15.039065"><ele>298.14285714285717</ele><time>2026-04-13T15:13:41.874Z</time></trkpt><trkpt lat="40.637955" lon="15.03908"><ele>297.7142857142857</ele><time>2026-04-13T15:13:42.874Z</time></trkpt><trkpt lat="40.6380183" lon="15.039115"><ele>297.2857142857143</ele><time>2026-04-13T15:13:43.875Z</time></trkpt><trkpt lat="40.6380767" lon="15.039175"><ele>296.85714285714283</ele><time>2026-04-13T15:13:44.875Z</time></trkpt><trkpt lat="40.6381317" lon="15.0392183"><ele>296.42857142857144</ele><time>2026-04-13T15:13:45.876Z</time></trkpt><trkpt lat="40.63822" lon="15.0392233"><ele>296.0</ele><time>2026-04-13T15:13:47.873Z</time></trkpt><trkpt lat="40.6383217" lon="15.03914"><ele>296.0</ele><time>2026-04-13T15:13:49.872Z</time></trkpt><trkpt lat="40.6383717" lon="15.039085"><ele>296.0</ele><time>2026-04-13T15:13:50.873Z</time></trkpt><trkpt lat="40.6384267" lon="15.0390283"><ele>296.0</ele><time>2026-04-13T15:13:51.872Z</time></trkpt><trkpt lat="40.6384867" lon="15.0389933"><ele>296.0</ele><time>2026-04-13T15:13:52.872Z</time></trkpt><trkpt lat="40.6385967" lon="15.0389733"><ele>296.0</ele><time>2026-04-13T15:13:54.876Z</time></trkpt><trkpt lat="40.6387183" lon="15.0389917"><ele>296.0</ele><time>2026-04-13T15:13:56.874Z</time></trkpt><trkpt lat="40.6387867" lon="15.0390183"><ele>297.8571428571429</ele><time>2026-04-13T15:13:57.874Z</time></trkpt><trkpt lat="40.6388483" lon="15.0390617"><ele>299.7142857142857</ele><time>2026-04-13T15:13:58.875Z</time></trkpt><trkpt lat="40.6389067" lon="15.0390967"><ele>301.57142857142856</ele><time>2026-04-13T15:13:59.874Z</time></trkpt><trkpt lat="40.6389767" lon="15.0391317"><ele>303.42857142857144</ele><time>2026-04-13T15:14:01.875Z</time></trkpt><trkpt lat="40.639015" lon="15.0390633"><ele>305.2857142857143</ele><time>2026-04-13T15:14:03.874Z</time></trkpt><trkpt lat="40.6390617" lon="15.0389467"><ele>307.14285714285717</ele><time>2026-04-13T15:14:05.873Z</time></trkpt><trkpt lat="40.6390833" lon="15.0388583"><ele>309.0</ele><time>2026-04-13T15:14:06.872Z</time></trkpt><trkpt lat="40.6391567" lon="15.0387117"><ele>309.00000000000006</ele><time>2026-04-13T15:14:08.873Z</time></trkpt><trkpt lat="40.6391933" lon="15.0386367"><ele>309.0</ele><time>2026-04-13T15:14:09.872Z</time></trkpt><trkpt lat="40.639225" lon="15.0385617"><ele>309.0</ele><time>2026-04-13T15:14:10.872Z</time></trkpt><trkpt lat="40.6392567" lon="15.0384867"><ele>309.0</ele><time>2026-04-13T15:14:11.874Z</time></trkpt><trkpt lat="40.6392867" lon="15.0384083"><ele>309.0</ele><time>2026-04-13T15:14:12.873Z</time></trkpt><trkpt lat="40.6393067" lon="15.0382917"><ele>309.00000000000006</ele><time>2026-04-13T15:14:13.874Z</time></trkpt><trkpt lat="40.6393" lon="15.0381717"><ele>309.0</ele><time>2026-04-13T15:14:14.873Z</time></trkpt><trkpt lat="40.639315" lon="15.0380733"><ele>307.0</ele><time>2026-04-13T15:14:15.872Z</time></trkpt><trkpt lat="40.6393067" lon="15.0379167"><ele>305.0</ele><time>2026-04-13T15:14:16.872Z</time></trkpt><trkpt lat="40.6393117" lon="15.0378033"><ele>303.0</ele><time>2026-04-13T15:14:17.873Z</time></trkpt><trkpt lat="40.6393017" lon="15.0376917"><ele>301.0</ele><time>2026-04-13T15:14:18.872Z</time></trkpt><trkpt lat="40.6393" lon="15.03759"><ele>299.0</ele><time>2026-04-13T15:14:19.877Z</time></trkpt><trkpt lat="40.639315" lon="15.03745"><ele>296.59999999999997</ele><time>2026-04-13T15:14:21.876Z</time></trkpt><trkpt lat="40.6394083" lon="15.0373533"><ele>294.2</ele><time>2026-04-13T15:14:23.872Z</time></trkpt><trkpt lat="40.6394883" lon="15.03731"><ele>291.79999999999995</ele><time>2026-04-13T15:14:24.874Z</time></trkpt><trkpt lat="40.6395583" lon="15.0372383"><ele>289.4</ele><time>2026-04-13T15:14:25.875Z</time></trkpt><trkpt lat="40.6396317" lon="15.0371817"><ele>287.0</ele><time>2026-04-13T15:14:26.874Z</time></trkpt><trkpt lat="40.6397117" lon="15.0371217"><ele>291.1666666666667</ele><time>2026-04-13T15:14:27.876Z</time></trkpt><trkpt lat="40.6397867" lon="15.0370317"><ele>295.33333333333337</ele><time>2026-04-13T15:14:28.874Z</time></trkpt><trkpt lat="40.6398667" lon="15.03694"><ele>299.5</ele><time>2026-04-13T15:14:29.874Z</time></trkpt><trkpt lat="40.63994" lon="15.0368667"><ele>303.6666666666667</ele><time>2026-04-13T15:14:30.876Z</time></trkpt><trkpt lat="40.63999" lon="15.0368"><ele>307.8333333333333</ele><time>2026-04-13T15:14:31.874Z</time></trkpt><trkpt lat="40.640035" lon="15.0367217"><ele>312.0</ele><time>2026-04-13T15:14:32.872Z</time></trkpt><trkpt lat="40.6400967" lon="15.036645"><ele>313.4</ele><time>2026-04-13T15:14:33.873Z</time></trkpt><trkpt lat="40.6401467" lon="15.0365667"><ele>314.79999999999995</ele><time>2026-04-13T15:14:34.872Z</time></trkpt><trkpt lat="40.640215" lon="15.03648"><ele>316.2</ele><time>2026-04-13T15:14:35.873Z</time></trkpt><trkpt lat="40.640285" lon="15.03639"><ele>317.59999999999997</ele><time>2026-04-13T15:14:36.873Z</time></trkpt><trkpt lat="40.640355" lon="15.0362983"><ele>319.0</ele><time>2026-04-13T15:14:37.874Z</time></trkpt><trkpt lat="40.6404217" lon="15.036205"><ele>319.0</ele><time>2026-04-13T15:14:38.873Z</time></trkpt><trkpt lat="40.6404983" lon="15.0361133"><ele>319.0</ele><time>2026-04-13T15:14:39.875Z</time></trkpt><trkpt lat="40.640565" lon="15.0360367"><ele>319.0</ele><time>2026-04-13T15:14:40.873Z</time></trkpt><trkpt lat="40.6406333" lon="15.035975"><ele>319.0</ele><time>2026-04-13T15:14:41.873Z</time></trkpt><trkpt lat="40.6407033" lon="15.035915"><ele>319.0</ele><time>2026-04-13T15:14:42.873Z</time></trkpt><trkpt lat="40.640765" lon="15.0358383"><ele>319.0</ele><time>2026-04-13T15:14:43.873Z</time></trkpt><trkpt lat="40.6408133" lon="15.035705"><ele>316.2</ele><time>2026-04-13T15:14:44.873Z</time></trkpt><trkpt lat="40.6408583" lon="15.035585"><ele>313.4</ele><time>2026-04-13T15:14:45.877Z</time></trkpt><trkpt lat="40.640895" lon="15.03545"><ele>310.6</ele><time>2026-04-13T15:14:46.875Z</time></trkpt><trkpt lat="40.6409333" lon="15.0353167"><ele>307.8</ele><time>2026-04-13T15:14:47.873Z</time></trkpt><trkpt lat="40.6409733" lon="15.0351867"><ele>305.0</ele><time>2026-04-13T15:14:48.872Z</time></trkpt><trkpt lat="40.64101" lon="15.0350633"><ele>303.0</ele><time>2026-04-13T15:14:49.875Z</time></trkpt><trkpt lat="40.6410383" lon="15.034935"><ele>301.0</ele><time>2026-04-13T15:14:50.873Z</time></trkpt><trkpt lat="40.641075" lon="15.034805"><ele>299.0</ele><time>2026-04-13T15:14:51.874Z</time></trkpt><trkpt lat="40.6411083" lon="15.03467"><ele>297.0</ele><time>2026-04-13T15:14:52.872Z</time></trkpt><trkpt lat="40.641155" lon="15.03454"><ele>295.0</ele><time>2026-04-13T15:14:53.872Z</time></trkpt><trkpt lat="40.6412067" lon="15.0344167"><ele>297.2</ele><time>2026-04-13T15:14:54.876Z</time></trkpt><trkpt lat="40.6412533" lon="15.0342883"><ele>299.4</ele><time>2026-04-13T15:14:55.874Z</time></trkpt><trkpt lat="40.641295" lon="15.0341617"><ele>301.6</ele><time>2026-04-13T15:14:56.874Z</time></trkpt><trkpt lat="40.6413433" lon="15.0340433"><ele>303.8</ele><time>2026-04-13T15:14:57.875Z</time></trkpt><trkpt lat="40.6414" lon="15.03393"><ele>306.0</ele><time>2026-04-13T15:14:58.874Z</time></trkpt><trkpt lat="40.6414583" lon="15.033815"><ele>306.0</ele><time>2026-04-13T15:14:59.874Z</time></trkpt><trkpt lat="40.6415133" lon="15.0337017"><ele>306.0</ele><time>2026-04-13T15:15:00.873Z</time></trkpt><trkpt lat="40.6415633" lon="15.0336033"><ele>306.0</ele><time>2026-04-13T15:15:01.872Z</time></trkpt><trkpt lat="40.6416067" lon="15.0335117"><ele>306.0</ele><time>2026-04-13T15:15:02.873Z</time></trkpt><trkpt lat="40.641675" lon="15.0334517"><ele>306.0</ele><time>2026-04-13T15:15:03.873Z</time></trkpt><trkpt lat="40.6417467" lon="15.033405"><ele>306.0</ele><time>2026-04-13T15:15:04.872Z</time></trkpt><trkpt lat="40.641825" lon="15.0333733"><ele>306.0</ele><time>2026-04-13T15:15:05.873Z</time></trkpt><trkpt lat="40.64191" lon="15.033355"><ele>306.0</ele><time>2026-04-13T15:15:06.873Z</time></trkpt><trkpt lat="40.6420083" lon="15.03336"><ele>306.0</ele><time>2026-04-13T15:15:07.874Z</time></trkpt><trkpt lat="40.6421133" lon="15.0334"><ele>306.0</ele><time>2026-04-13T15:15:08.872Z</time></trkpt><trkpt lat="40.6421967" lon="15.0334467"><ele>306.0</ele><time>2026-04-13T15:15:09.874Z</time></trkpt><trkpt lat="40.6422567" lon="15.0335083"><ele>306.0</ele><time>2026-04-13T15:15:10.872Z</time></trkpt><trkpt lat="40.642325" lon="15.033605"><ele>306.0</ele><time>2026-04-13T15:15:12.875Z</time></trkpt><trkpt lat="40.6423717" lon="15.0336833"><ele>306.0</ele><time>2026-04-13T15:15:14.875Z</time></trkpt><trkpt lat="40.6424233" lon="15.03375"><ele>306.0</ele><time>2026-04-13T15:15:16.874Z</time></trkpt><trkpt lat="40.6425017" lon="15.0338117"><ele>306.0</ele><time>2026-04-13T15:15:18.875Z</time></trkpt><trkpt lat="40.6425617" lon="15.0338533"><ele>306.0</ele><time>2026-04-13T15:15:20.872Z</time></trkpt><trkpt lat="40.64266" lon="15.0339"><ele>306.0</ele><time>2026-04-13T15:15:22.872Z</time></trkpt><trkpt lat="40.6427833" lon="15.0338633"><ele>306.0</ele><time>2026-04-13T15:15:24.876Z</time></trkpt><trkpt lat="40.6428867" lon="15.0338033"><ele>306.0</ele><time>2026-04-13T15:15:26.875Z</time></trkpt><trkpt lat="40.6429617" lon="15.0337217"><ele>306.0</ele><time>2026-04-13T15:15:28.873Z</time></trkpt><trkpt lat="40.6430333" lon="15.0336017"><ele>306.1666666666667</ele><time>2026-04-13T15:15:30.872Z</time></trkpt><trkpt lat="40.6431017" lon="15.0335217"><ele>306.3333333333333</ele><time>2026-04-13T15:15:32.875Z</time></trkpt><trkpt lat="40.643195" lon="15.0334533"><ele>306.5</ele><time>2026-04-13T15:15:34.875Z</time></trkpt><trkpt lat="40.643305" lon="15.0334367"><ele>306.66666666666663</ele><time>2026-04-13T15:15:45.875Z</time></trkpt><trkpt lat="40.6433633" lon="15.0334783"><ele>306.8333333333333</ele><time>2026-04-13T15:15:46.874Z</time></trkpt><trkpt lat="40.6434233" lon="15.0335283"><ele>307.0</ele><time>2026-04-13T15:15:47.873Z</time></trkpt><trkpt lat="40.64348" lon="15.0335917"><ele>307.0</ele><time>2026-04-13T15:15:48.872Z</time></trkpt><trkpt lat="40.643535" lon="15.0336667"><ele>307.0</ele><time>2026-04-13T15:15:49.876Z</time></trkpt><trkpt lat="40.6435767" lon="15.0337667"><ele>307.0</ele><time>2026-04-13T15:15:50.872Z</time></trkpt><trkpt lat="40.64361" lon="15.0338767"><ele>307.0</ele><time>2026-04-13T15:15:51.873Z</time></trkpt><trkpt lat="40.6436433" lon="15.033965"><ele>307.0</ele><time>2026-04-13T15:15:52.872Z</time></trkpt><trkpt lat="40.643675" lon="15.0340417"><ele>307.0</ele><time>2026-04-13T15:15:53.874Z</time></trkpt><trkpt lat="40.6437467" lon="15.0341733"><ele>307.0</ele><time>2026-04-13T15:15:55.875Z</time></trkpt><trkpt lat="40.6437983" lon="15.03425"><ele>307.0</ele><time>2026-04-13T15:15:56.876Z</time></trkpt><trkpt lat="40.643865" lon="15.0343383"><ele>307.0</ele><time>2026-04-13T15:15:57.873Z</time></trkpt><trkpt lat="40.643935" lon="15.034435"><ele>307.0</ele><time>2026-04-13T15:15:58.872Z</time></trkpt><trkpt lat="40.6440033" lon="15.0345233"><ele>307.0</ele><time>2026-04-13T15:15:59.874Z</time></trkpt><trkpt lat="40.6440717" lon="15.034605"><ele>307.0</ele><time>2026-04-13T15:16:00.873Z</time></trkpt><trkpt lat="40.6441317" lon="15.03469"><ele>307.0</ele><time>2026-04-13T15:16:01.874Z</time></trkpt><trkpt lat="40.6441883" lon="15.0347733"><ele>307.0</ele><time>2026-04-13T15:16:02.873Z</time></trkpt><trkpt lat="40.64424" lon="15.03485"><ele>307.0</ele><time>2026-04-13T15:16:03.874Z</time></trkpt><trkpt lat="40.6442933" lon="15.0349067"><ele>307.0</ele><time>2026-04-13T15:16:04.874Z</time></trkpt><trkpt lat="40.64435" lon="15.0349733"><ele>307.0</ele><time>2026-04-13T15:16:06.874Z</time></trkpt><trkpt lat="40.6444317" lon="15.0349183"><ele>307.0</ele><time>2026-04-13T15:16:08.874Z</time></trkpt><trkpt lat="40.6444317" lon="15.03471"><ele>307.0</ele><time>2026-04-13T15:16:10.875Z</time></trkpt><trkpt lat="40.6444033" lon="15.0345733"><ele>307.0</ele><time>2026-04-13T15:16:11.875Z</time></trkpt><trkpt lat="40.6443867" lon="15.0344617"><ele>307.0</ele><time>2026-04-13T15:16:12.875Z</time></trkpt><trkpt lat="40.6443833" lon="15.03436"><ele>307.0</ele><time>2026-04-13T15:16:13.874Z</time></trkpt><trkpt lat="40.6443767" lon="15.03427"><ele>303.2</ele><time>2026-04-13T15:16:14.874Z</time></trkpt><trkpt lat="40.6443433" lon="15.034115"><ele>299.4</ele><time>2026-04-13T15:16:16.877Z</time></trkpt><trkpt lat="40.6443117" lon="15.033975"><ele>295.6</ele><time>2026-04-13T15:16:18.877Z</time></trkpt><trkpt lat="40.6443267" lon="15.033865"><ele>291.8</ele><time>2026-04-13T15:16:20.875Z</time></trkpt><trkpt lat="40.644375" lon="15.0337633"><ele>288.0</ele><time>2026-04-13T15:16:22.874Z</time></trkpt><trkpt lat="40.64444" lon="15.0336917"><ele>286.5</ele><time>2026-04-13T15:16:24.876Z</time></trkpt><trkpt lat="40.644495" lon="15.0336283"><ele>285.0</ele><time>2026-04-13T15:16:26.874Z</time></trkpt><trkpt lat="40.644565" lon="15.03358"><ele>283.5</ele><time>2026-04-13T15:16:29.875Z</time></trkpt><trkpt lat="40.64463" lon="15.03355"><ele>282.0</ele><time>2026-04-13T15:16:32.872Z</time></trkpt><trkpt lat="40.64471" lon="15.0335183"><ele>280.5</ele><time>2026-04-13T15:16:35.872Z</time></trkpt><trkpt lat="40.6447783" lon="15.0335733"><ele>279.0</ele><time>2026-04-13T15:16:38.872Z</time></trkpt><trkpt lat="40.6448467" lon="15.0335867"><ele>279.0</ele><time>2026-04-13T15:16:40.872Z</time></trkpt><trkpt lat="40.6449383" lon="15.0335833"><ele>279.0</ele><time>2026-04-13T15:16:43.874Z</time></trkpt><trkpt lat="40.645" lon="15.0336083"><ele>279.0</ele><time>2026-04-13T15:16:45.874Z</time></trkpt><trkpt lat="40.6451117" lon="15.033645"><ele>279.0</ele><time>2026-04-13T15:16:47.873Z</time></trkpt><trkpt lat="40.6451967" lon="15.033695"><ele>279.0</ele><time>2026-04-13T15:16:49.872Z</time></trkpt><trkpt lat="40.6452967" lon="15.0337633"><ele>274.8</ele><time>2026-04-13T15:16:51.872Z</time></trkpt><trkpt lat="40.645405" lon="15.0338417"><ele>270.59999999999997</ele><time>2026-04-13T15:16:53.873Z</time></trkpt><trkpt lat="40.64549" lon="15.033885"><ele>266.4</ele><time>2026-04-13T15:16:55.876Z</time></trkpt><trkpt lat="40.6455383" lon="15.0339767"><ele>262.2</ele><time>2026-04-13T15:16:58.874Z</time></trkpt><trkpt lat="40.6455983" lon="15.0340667"><ele>258.0</ele><time>2026-04-13T15:17:01.877Z</time></trkpt><trkpt lat="40.6456767" lon="15.034105"><ele>258.0</ele><time>2026-04-13T15:17:03.872Z</time></trkpt><trkpt lat="40.645785" lon="15.03412"><ele>258.0</ele><time>2026-04-13T15:17:05.873Z</time></trkpt><trkpt lat="40.6459" lon="15.034115"><ele>258.0</ele><time>2026-04-13T15:17:07.874Z</time></trkpt><trkpt lat="40.6459717" lon="15.0340467"><ele>258.0</ele><time>2026-04-13T15:17:09.875Z</time></trkpt><trkpt lat="40.6460533" lon="15.0340133"><ele>258.0</ele><time>2026-04-13T15:17:11.874Z</time></trkpt><trkpt lat="40.6461317" lon="15.0340333"><ele>257.6666666666667</ele><time>2026-04-13T15:17:14.875Z</time></trkpt><trkpt lat="40.6461983" lon="15.0341117"><ele>257.3333333333333</ele><time>2026-04-13T15:17:17.872Z</time></trkpt><trkpt lat="40.646275" lon="15.0341817"><ele>257.0</ele><time>2026-04-13T15:17:20.873Z</time></trkpt><trkpt lat="40.6463433" lon="15.034205"><ele>256.66666666666663</ele><time>2026-04-13T15:17:22.872Z</time></trkpt><trkpt lat="40.6464183" lon="15.03424"><ele>256.3333333333333</ele><time>2026-04-13T15:17:24.873Z</time></trkpt><trkpt lat="40.646515" lon="15.034245"><ele>256.0</ele><time>2026-04-13T15:17:26.875Z</time></trkpt><trkpt lat="40.6466067" lon="15.034285"><ele>255.99999999999997</ele><time>2026-04-13T15:17:28.873Z</time></trkpt><trkpt lat="40.64669" lon="15.0343567"><ele>256.0</ele><time>2026-04-13T15:17:30.875Z</time></trkpt><trkpt lat="40.6467633" lon="15.0344283"><ele>256.0</ele><time>2026-04-13T15:17:32.873Z</time></trkpt><trkpt lat="40.646845" lon="15.034485"><ele>256.0</ele><time>2026-04-13T15:17:35.873Z</time></trkpt><trkpt lat="40.6469" lon="15.0345617"><ele>255.99999999999997</ele><time>2026-04-13T15:17:37.872Z</time></trkpt><trkpt lat="40.6469433" lon="15.03464"><ele>256.0</ele><time>2026-04-13T15:17:40.872Z</time></trkpt><trkpt lat="40.6469867" lon="15.0347217"><ele>256.2</ele><time>2026-04-13T15:17:59.877Z</time></trkpt><trkpt lat="40.6470217" lon="15.034805"><ele>256.40000000000003</ele><time>2026-04-13T15:18:01.872Z</time></trkpt><trkpt lat="40.6470933" lon="15.0348933"><ele>256.6</ele><time>2026-04-13T15:18:03.873Z</time></trkpt><trkpt lat="40.6471583" lon="15.035015"><ele>256.8</ele><time>2026-04-13T15:18:05.875Z</time></trkpt><trkpt lat="40.647185" lon="15.0350917"><ele>257.0</ele><time>2026-04-13T15:18:06.872Z</time></trkpt><trkpt lat="40.6472217" lon="15.0352233"><ele>257.0</ele><time>2026-04-13T15:18:08.872Z</time></trkpt><trkpt lat="40.6472517" lon="15.0353317"><ele>257.0</ele><time>2026-04-13T15:18:10.872Z</time></trkpt><trkpt lat="40.6473367" lon="15.0353417"><ele>257.0</ele><time>2026-04-13T15:18:13.873Z</time></trkpt><trkpt lat="40.6474" lon="15.0352433"><ele>257.0</ele><time>2026-04-13T15:18:16.873Z</time></trkpt><trkpt lat="40.6474517" lon="15.0350533"><ele>257.0</ele><time>2026-04-13T15:18:18.874Z</time></trkpt><trkpt lat="40.6474767" lon="15.0349367"><ele>257.0</ele><time>2026-04-13T15:18:19.872Z</time></trkpt><trkpt lat="40.6475" lon="15.0348083"><ele>257.0</ele><time>2026-04-13T15:18:20.873Z</time></trkpt><trkpt lat="40.6475233" lon="15.0346983"><ele>257.0</ele><time>2026-04-13T15:18:21.874Z</time></trkpt><trkpt lat="40.64754" lon="15.0346083"><ele>257.0</ele><time>2026-04-13T15:18:22.873Z</time></trkpt><trkpt lat="40.647555" lon="15.0345117"><ele>257.0</ele><time>2026-04-13T15:18:23.872Z</time></trkpt><trkpt lat="40.647565" lon="15.0344033"><ele>257.0</ele><time>2026-04-13T15:18:24.875Z</time></trkpt><trkpt lat="40.6475583" lon="15.034315"><ele>257.0</ele><time>2026-04-13T15:18:25.872Z</time></trkpt><trkpt lat="40.6475333" lon="15.03422"><ele>257.0</ele><time>2026-04-13T15:18:26.872Z</time></trkpt><trkpt lat="40.6475133" lon="15.034125"><ele>257.0</ele><time>2026-04-13T15:18:27.876Z</time></trkpt><trkpt lat="40.6475017" lon="15.0340383"><ele>257.0</ele><time>2026-04-13T15:18:28.876Z</time></trkpt><trkpt lat="40.64749" lon="15.0339083"><ele>257.0</ele><time>2026-04-13T15:18:30.873Z</time></trkpt><trkpt lat="40.6475067" lon="15.03378"><ele>257.0</ele><time>2026-04-13T15:18:32.874Z</time></trkpt><trkpt lat="40.6475067" lon="15.0336333"><ele>256.6</ele><time>2026-04-13T15:18:34.872Z</time></trkpt><trkpt lat="40.647545" lon="15.033515"><ele>256.2</ele><time>2026-04-13T15:18:36.876Z</time></trkpt><trkpt lat="40.647605" lon="15.033395"><ele>255.8</ele><time>2026-04-13T15:18:38.876Z</time></trkpt><trkpt lat="40.647675" lon="15.0333633"><ele>255.4</ele><time>2026-04-13T15:18:40.877Z</time></trkpt><trkpt lat="40.6477867" lon="15.033345"><ele>255.0</ele><time>2026-04-13T15:18:42.876Z</time></trkpt><trkpt lat="40.647855" lon="15.0333117"><ele>254.14285714285717</ele><time>2026-04-13T15:18:43.874Z</time></trkpt><trkpt lat="40.6479183" lon="15.0332833"><ele>253.2857142857143</ele><time>2026-04-13T15:18:44.875Z</time></trkpt><trkpt lat="40.6479767" lon="15.0332433"><ele>252.42857142857144</ele><time>2026-04-13T15:18:45.874Z</time></trkpt><trkpt lat="40.6480333" lon="15.0331933"><ele>251.57142857142856</ele><time>2026-04-13T15:18:46.878Z</time></trkpt><trkpt lat="40.6480967" lon="15.0331533"><ele>250.7142857142857</ele><time>2026-04-13T15:18:47.875Z</time></trkpt><trkpt lat="40.648165" lon="15.033125"><ele>249.85714285714283</ele><time>2026-04-13T15:18:48.874Z</time></trkpt><trkpt lat="40.6482333" lon="15.03309"><ele>249.0</ele><time>2026-04-13T15:18:49.873Z</time></trkpt><trkpt lat="40.6483" lon="15.0330567"><ele>249.0</ele><time>2026-04-13T15:18:50.872Z</time></trkpt><trkpt lat="40.6483667" lon="15.0330183"><ele>248.99999999999997</ele><time>2026-04-13T15:18:51.873Z</time></trkpt><trkpt lat="40.648435" lon="15.0329883"><ele>249.0</ele><time>2026-04-13T15:18:52.873Z</time></trkpt><trkpt lat="40.6485" lon="15.0329633"><ele>249.0</ele><time>2026-04-13T15:18:53.873Z</time></trkpt><trkpt lat="40.6485633" lon="15.0329267"><ele>248.99999999999997</ele><time>2026-04-13T15:18:54.876Z</time></trkpt><trkpt lat="40.6486367" lon="15.0328983"><ele>249.0</ele><time>2026-04-13T15:18:55.876Z</time></trkpt><trkpt lat="40.648705" lon="15.0328617"><ele>249.0</ele><time>2026-04-13T15:18:56.875Z</time></trkpt><trkpt lat="40.64878" lon="15.0328233"><ele>248.6</ele><time>2026-04-13T15:18:57.876Z</time></trkpt><trkpt lat="40.6488767" lon="15.0327267"><ele>248.2</ele><time>2026-04-13T15:18:59.874Z</time></trkpt><trkpt lat="40.64894" lon="15.0326067"><ele>247.79999999999998</ele><time>2026-04-13T15:19:01.875Z</time></trkpt><trkpt lat="40.6490183" lon="15.0324733"><ele>247.39999999999998</ele><time>2026-04-13T15:19:03.872Z</time></trkpt><trkpt lat="40.6490767" lon="15.0324233"><ele>247.0</ele><time>2026-04-13T15:19:04.875Z</time></trkpt><trkpt lat="40.6491483" lon="15.03239"><ele>246.99999999999997</ele><time>2026-04-13T15:19:05.872Z</time></trkpt><trkpt lat="40.649235" lon="15.032355"><ele>247.0</ele><time>2026-04-13T15:19:06.875Z</time></trkpt><trkpt lat="40.6493167" lon="15.03233"><ele>247.0</ele><time>2026-04-13T15:19:07.873Z</time></trkpt><trkpt lat="40.6493983" lon="15.0323133"><ele>247.0</ele><time>2026-04-13T15:19:08.873Z</time></trkpt><trkpt lat="40.6494733" lon="15.0322883"><ele>246.99999999999997</ele><time>2026-04-13T15:19:09.873Z</time></trkpt><trkpt lat="40.64955" lon="15.0322667"><ele>247.0</ele><time>2026-04-13T15:19:10.873Z</time></trkpt><trkpt lat="40.6496283" lon="15.032255"><ele>245.8</ele><time>2026-04-13T15:19:11.874Z</time></trkpt><trkpt lat="40.6496933" lon="15.0322333"><ele>244.6</ele><time>2026-04-13T15:19:12.877Z</time></trkpt><trkpt lat="40.649805" lon="15.0321667"><ele>243.40000000000003</ele><time>2026-04-13T15:19:14.873Z</time></trkpt><trkpt lat="40.6498317" lon="15.0320067"><ele>242.20000000000002</ele><time>2026-04-13T15:19:16.875Z</time></trkpt><trkpt lat="40.6498633" lon="15.0319133"><ele>241.0</ele><time>2026-04-13T15:19:18.873Z</time></trkpt><trkpt lat="40.6499133" lon="15.0320017"><ele>241.0</ele><time>2026-04-13T15:19:20.872Z</time></trkpt><trkpt lat="40.649965" lon="15.0321133"><ele>241.00000000000003</ele><time>2026-04-13T15:19:22.874Z</time></trkpt><trkpt lat="40.650075" lon="15.0321533"><ele>241.00000000000003</ele><time>2026-04-13T15:19:24.875Z</time></trkpt><trkpt lat="40.6501583" lon="15.0321583"><ele>241.0</ele><time>2026-04-13T15:19:25.874Z</time></trkpt><trkpt lat="40.6502367" lon="15.032165"><ele>241.0</ele><time>2026-04-13T15:19:26.874Z</time></trkpt><trkpt lat="40.650315" lon="15.0321867"><ele>242.0</ele><time>2026-04-13T15:19:27.876Z</time></trkpt><trkpt lat="40.65039" lon="15.0322017"><ele>243.00000000000003</ele><time>2026-04-13T15:19:28.874Z</time></trkpt><trkpt lat="40.650465" lon="15.03222"><ele>244.00000000000003</ele><time>2026-04-13T15:19:29.873Z</time></trkpt><trkpt lat="40.65053" lon="15.03225"><ele>245.0</ele><time>2026-04-13T15:19:30.876Z</time></trkpt><trkpt lat="40.6506367" lon="15.0322583"><ele>246.0</ele><time>2026-04-13T15:19:32.875Z</time></trkpt><trkpt lat="40.650755" lon="15.0321633"><ele>246.0</ele><time>2026-04-13T15:19:34.874Z</time></trkpt><trkpt lat="40.65082" lon="15.0321067"><ele>246.0</ele><time>2026-04-13T15:19:35.874Z</time></trkpt><trkpt lat="40.65089" lon="15.032075"><ele>246.0</ele><time>2026-04-13T15:19:36.875Z</time></trkpt><trkpt lat="40.6509617" lon="15.03204"><ele>246.0</ele><time>2026-04-13T15:19:37.872Z</time></trkpt><trkpt lat="40.6510383" lon="15.0320117"><ele>246.0</ele><time>2026-04-13T15:19:38.872Z</time></trkpt><trkpt lat="40.6511117" lon="15.03197"><ele>246.0</ele><time>2026-04-13T15:19:39.876Z</time></trkpt><trkpt lat="40.65118" lon="15.0319517"><ele>246.8</ele><time>2026-04-13T15:19:40.875Z</time></trkpt><trkpt lat="40.651245" lon="15.031935"><ele>247.60000000000002</ele><time>2026-04-13T15:19:41.875Z</time></trkpt><trkpt lat="40.6513533" lon="15.0318383"><ele>248.4</ele><time>2026-04-13T15:19:43.875Z</time></trkpt><trkpt lat="40.651405" lon="15.03178"><ele>249.2</ele><time>2026-04-13T15:19:44.877Z</time></trkpt><trkpt lat="40.6514517" lon="15.031715"><ele>250.0</ele><time>2026-04-13T15:19:45.875Z</time></trkpt><trkpt lat="40.6515567" lon="15.0316117"><ele>250.0</ele><time>2026-04-13T15:19:47.874Z</time></trkpt><trkpt lat="40.6516717" lon="15.031565"><ele>250.0</ele><time>2026-04-13T15:19:49.875Z</time></trkpt><trkpt lat="40.6517933" lon="15.0316117"><ele>250.0</ele><time>2026-04-13T15:19:51.873Z</time></trkpt><trkpt lat="40.6518633" lon="15.03167"><ele>250.0</ele><time>2026-04-13T15:19:52.874Z</time></trkpt><trkpt lat="40.6519183" lon="15.031715"><ele>250.0</ele><time>2026-04-13T15:19:53.875Z</time></trkpt><trkpt lat="40.6520083" lon="15.0318267"><ele>248.83333333333331</ele><time>2026-04-13T15:19:55.874Z</time></trkpt><trkpt lat="40.652055" lon="15.0318917"><ele>247.66666666666666</ele><time>2026-04-13T15:19:56.873Z</time></trkpt><trkpt lat="40.6520867" lon="15.0319867"><ele>246.5</ele><time>2026-04-13T15:19:57.876Z</time></trkpt><trkpt lat="40.6521133" lon="15.03209"><ele>245.33333333333331</ele><time>2026-04-13T15:19:59.873Z</time></trkpt><trkpt lat="40.6521983" lon="15.0321217"><ele>244.16666666666666</ele><time>2026-04-13T15:20:01.875Z</time></trkpt><trkpt lat="40.6522617" lon="15.0321067"><ele>243.0</ele><time>2026-04-13T15:20:02.873Z</time></trkpt><trkpt lat="40.6523283" lon="15.0320767"><ele>243.0</ele><time>2026-04-13T15:20:03.873Z</time></trkpt><trkpt lat="40.6524067" lon="15.0320467"><ele>243.0</ele><time>2026-04-13T15:20:04.872Z</time></trkpt><trkpt lat="40.652485" lon="15.0320283"><ele>243.0</ele><time>2026-04-13T15:20:05.872Z</time></trkpt><trkpt lat="40.6525517" lon="15.0320183"><ele>243.0</ele><time>2026-04-13T15:20:06.873Z</time></trkpt><trkpt lat="40.6526633" lon="15.03197"><ele>243.0</ele><time>2026-04-13T15:20:08.872Z</time></trkpt><trkpt lat="40.6527367" lon="15.031845"><ele>243.0</ele><time>2026-04-13T15:20:10.875Z</time></trkpt><trkpt lat="40.65277" lon="15.031765"><ele>243.0</ele><time>2026-04-13T15:20:11.875Z</time></trkpt><trkpt lat="40.65282" lon="15.0317033"><ele>243.0</ele><time>2026-04-13T15:20:12.875Z</time></trkpt><trkpt lat="40.6528833" lon="15.0316733"><ele>243.0</ele><time>2026-04-13T15:20:13.876Z</time></trkpt><trkpt lat="40.6529533" lon="15.0316667"><ele>243.0</ele><time>2026-04-13T15:20:14.875Z</time></trkpt><trkpt lat="40.6530233" lon="15.0316667"><ele>243.0</ele><time>2026-04-13T15:20:15.874Z</time></trkpt><trkpt lat="40.6531" lon="15.0316633"><ele>243.0</ele><time>2026-04-13T15:20:16.873Z</time></trkpt><trkpt lat="40.6531733" lon="15.031665"><ele>243.0</ele><time>2026-04-13T15:20:17.875Z</time></trkpt><trkpt lat="40.6532367" lon="15.0316667"><ele>243.0</ele><time>2026-04-13T15:20:18.875Z</time></trkpt><trkpt lat="40.6533017" lon="15.0316667"><ele>243.0</ele><time>2026-04-13T15:20:19.876Z</time></trkpt><trkpt lat="40.65342" lon="15.0316683"><ele>243.0</ele><time>2026-04-13T15:20:21.875Z</time></trkpt><trkpt lat="40.6535117" lon="15.0316367"><ele>243.0</ele><time>2026-04-13T15:20:23.875Z</time></trkpt><trkpt lat="40.653575" lon="15.0315533"><ele>243.0</ele><time>2026-04-13T15:20:25.872Z</time></trkpt><trkpt lat="40.6536517" lon="15.0314533"><ele>238.83333333333334</ele><time>2026-04-13T15:20:27.872Z</time></trkpt><trkpt lat="40.6537417" lon="15.0313783"><ele>234.66666666666669</ele><time>2026-04-13T15:20:29.872Z</time></trkpt><trkpt lat="40.6538033" lon="15.0313417"><ele>230.5</ele><time>2026-04-13T15:20:30.873Z</time></trkpt><trkpt lat="40.6538767" lon="15.0313067"><ele>226.33333333333334</ele><time>2026-04-13T15:20:31.872Z</time></trkpt><trkpt lat="40.6539567" lon="15.03127"><ele>222.16666666666669</ele><time>2026-04-13T15:20:32.872Z</time></trkpt><trkpt lat="40.654035" lon="15.03123"><ele>218.0</ele><time>2026-04-13T15:20:33.874Z</time></trkpt><trkpt lat="40.6541267" lon="15.03118"><ele>218.00000000000003</ele><time>2026-04-13T15:20:34.874Z</time></trkpt><trkpt lat="40.6542167" lon="15.031135"><ele>218.0</ele><time>2026-04-13T15:20:35.874Z</time></trkpt><trkpt lat="40.654295" lon="15.0310917"><ele>218.0</ele><time>2026-04-13T15:20:36.876Z</time></trkpt><trkpt lat="40.654355" lon="15.0310433"><ele>218.0</ele><time>2026-04-13T15:20:37.874Z</time></trkpt><trkpt lat="40.654415" lon="15.0310067"><ele>218.00000000000003</ele><time>2026-04-13T15:20:38.875Z</time></trkpt><trkpt lat="40.6545067" lon="15.0309083"><ele>218.0</ele><time>2026-04-13T15:20:40.874Z</time></trkpt><trkpt lat="40.6545533" lon="15.030785"><ele>212.2</ele><time>2026-04-13T15:20:42.872Z</time></trkpt><trkpt lat="40.6545883" lon="15.0306517"><ele>206.4</ele><time>2026-04-13T15:20:44.875Z</time></trkpt><trkpt lat="40.6546517" lon="15.0305433"><ele>200.6</ele><time>2026-04-13T15:20:46.872Z</time></trkpt><trkpt lat="40.6547183" lon="15.030465"><ele>194.79999999999998</ele><time>2026-04-13T15:20:48.872Z</time></trkpt><trkpt lat="40.6548283" lon="15.0305217"><ele>189.0</ele><time>2026-04-13T15:20:50.873Z</time></trkpt><trkpt lat="40.654925" lon="15.0305717"><ele>189.0</ele><time>2026-04-13T15:20:52.872Z</time></trkpt><trkpt lat="40.6549883" lon="15.03057"><ele>189.0</ele><time>2026-04-13T15:20:53.872Z</time></trkpt><trkpt lat="40.6550483" lon="15.0305417"><ele>189.0</ele><time>2026-04-13T15:20:54.873Z</time></trkpt><trkpt lat="40.6551217" lon="15.0304833"><ele>189.0</ele><time>2026-04-13T15:20:55.878Z</time></trkpt><trkpt lat="40.65519" lon="15.0303967"><ele>189.0</ele><time>2026-04-13T15:20:56.874Z</time></trkpt><trkpt lat="40.6552433" lon="15.0303217"><ele>189.0</ele><time>2026-04-13T15:20:57.876Z</time></trkpt><trkpt lat="40.6553" lon="15.03025"><ele>187.5</ele><time>2026-04-13T15:20:58.874Z</time></trkpt><trkpt lat="40.6553567" lon="15.0301817"><ele>186.0</ele><time>2026-04-13T15:20:59.876Z</time></trkpt><trkpt lat="40.6554033" lon="15.030115"><ele>184.5</ele><time>2026-04-13T15:21:00.876Z</time></trkpt><trkpt lat="40.6554483" lon="15.03004"><ele>183.0</ele><time>2026-04-13T15:21:01.875Z</time></trkpt><trkpt lat="40.6555017" lon="15.0299017"><ele>181.5</ele><time>2026-04-13T15:21:03.874Z</time></trkpt><trkpt lat="40.6554867" lon="15.02982"><ele>180.0</ele><time>2026-04-13T15:21:04.874Z</time></trkpt><trkpt lat="40.6554417" lon="15.029735"><ele>177.2</ele><time>2026-04-13T15:21:05.874Z</time></trkpt><trkpt lat="40.6553917" lon="15.02965"><ele>174.4</ele><time>2026-04-13T15:21:06.877Z</time></trkpt><trkpt lat="40.6553467" lon="15.0295817"><ele>171.60000000000002</ele><time>2026-04-13T15:21:07.877Z</time></trkpt><trkpt lat="40.6552917" lon="15.029445"><ele>168.8</ele><time>2026-04-13T15:21:09.874Z</time></trkpt><trkpt lat="40.6553367" lon="15.02928"><ele>166.0</ele><time>2026-04-13T15:21:11.874Z</time></trkpt><trkpt lat="40.6553833" lon="15.0291867"><ele>163.8</ele><time>2026-04-13T15:21:12.875Z</time></trkpt><trkpt lat="40.6554533" lon="15.02908"><ele>161.60000000000002</ele><time>2026-04-13T15:21:13.874Z</time></trkpt><trkpt lat="40.6555167" lon="15.0289717"><ele>159.4</ele><time>2026-04-13T15:21:14.879Z</time></trkpt><trkpt lat="40.655575" lon="15.0288667"><ele>157.2</ele><time>2026-04-13T15:21:15.875Z</time></trkpt><trkpt lat="40.6556283" lon="15.0287717"><ele>155.0</ele><time>2026-04-13T15:21:16.877Z</time></trkpt><trkpt lat="40.6556783" lon="15.0286833"><ele>155.0</ele><time>2026-04-13T15:21:17.872Z</time></trkpt><trkpt lat="40.6557267" lon="15.0286"><ele>155.0</ele><time>2026-04-13T15:21:18.873Z</time></trkpt><trkpt lat="40.6557783" lon="15.0285283"><ele>155.0</ele><time>2026-04-13T15:21:19.873Z</time></trkpt><trkpt lat="40.6558317" lon="15.028445"><ele>155.0</ele><time>2026-04-13T15:21:20.874Z</time></trkpt><trkpt lat="40.6558833" lon="15.0283833"><ele>155.0</ele><time>2026-04-13T15:21:21.872Z</time></trkpt><trkpt lat="40.65593" lon="15.028315"><ele>155.0</ele><time>2026-04-13T15:21:22.874Z</time></trkpt><trkpt lat="40.6560517" lon="15.0282533"><ele>154.33333333333331</ele><time>2026-04-13T15:21:24.873Z</time></trkpt><trkpt lat="40.6561233" lon="15.028215"><ele>153.66666666666666</ele><time>2026-04-13T15:21:25.873Z</time></trkpt><trkpt lat="40.656175" lon="15.0281667"><ele>153.0</ele><time>2026-04-13T15:21:26.874Z</time></trkpt><trkpt lat="40.6562233" lon="15.0280983"><ele>152.33333333333334</ele><time>2026-04-13T15:21:27.874Z</time></trkpt><trkpt lat="40.6563133" lon="15.0280017"><ele>151.66666666666669</ele><time>2026-04-13T15:21:29.872Z</time></trkpt><trkpt lat="40.6563567" lon="15.0279233"><ele>151.0</ele><time>2026-04-13T15:21:31.877Z</time></trkpt><trkpt lat="40.6564567" lon="15.0279183"><ele>151.0</ele><time>2026-04-13T15:21:33.872Z</time></trkpt><trkpt lat="40.65652" lon="15.0279533"><ele>151.0</ele><time>2026-04-13T15:21:34.874Z</time></trkpt><trkpt lat="40.656635" lon="15.02803"><ele>151.0</ele><time>2026-04-13T15:21:35.872Z</time></trkpt><trkpt lat="40.656735" lon="15.028085"><ele>151.0</ele><time>2026-04-13T15:21:36.872Z</time></trkpt><trkpt lat="40.656815" lon="15.02813"><ele>151.0</ele><time>2026-04-13T15:21:37.872Z</time></trkpt><trkpt lat="40.65689" lon="15.0281767"><ele>151.33333333333334</ele><time>2026-04-13T15:21:38.874Z</time></trkpt><trkpt lat="40.6569717" lon="15.0282233"><ele>151.66666666666669</ele><time>2026-04-13T15:21:39.873Z</time></trkpt><trkpt lat="40.65704" lon="15.028275"><ele>152.0</ele><time>2026-04-13T15:21:40.873Z</time></trkpt><trkpt lat="40.657105" lon="15.02833"><ele>152.33333333333334</ele><time>2026-04-13T15:21:41.875Z</time></trkpt><trkpt lat="40.6571833" lon="15.028395"><ele>152.66666666666666</ele><time>2026-04-13T15:21:42.875Z</time></trkpt><trkpt lat="40.6572533" lon="15.0284683"><ele>153.0</ele><time>2026-04-13T15:21:43.872Z</time></trkpt><trkpt lat="40.6573317" lon="15.0285633"><ele>153.0</ele><time>2026-04-13T15:21:44.872Z</time></trkpt><trkpt lat="40.6574183" lon="15.028655"><ele>153.0</ele><time>2026-04-13T15:21:45.873Z</time></trkpt><trkpt lat="40.6575033" lon="15.0287617"><ele>153.0</ele><time>2026-04-13T15:21:46.874Z</time></trkpt><trkpt lat="40.6575717" lon="15.028885"><ele>153.0</ele><time>2026-04-13T15:21:47.873Z</time></trkpt><trkpt lat="40.6576233" lon="15.02901"><ele>153.0</ele><time>2026-04-13T15:21:48.874Z</time></trkpt><trkpt lat="40.65767" lon="15.0291383"><ele>153.0</ele><time>2026-04-13T15:21:49.873Z</time></trkpt><trkpt lat="40.6577033" lon="15.029265"><ele>153.0</ele><time>2026-04-13T15:21:50.877Z</time></trkpt><trkpt lat="40.6576883" lon="15.0294"><ele>153.0</ele><time>2026-04-13T15:21:51.873Z</time></trkpt><trkpt lat="40.6576517" lon="15.0295433"><ele>153.0</ele><time>2026-04-13T15:21:52.875Z</time></trkpt><trkpt lat="40.657605" lon="15.029675"><ele>153.6</ele><time>2026-04-13T15:21:53.872Z</time></trkpt><trkpt lat="40.6575483" lon="15.029805"><ele>154.20000000000002</ele><time>2026-04-13T15:21:54.876Z</time></trkpt><trkpt lat="40.6575117" lon="15.0299133"><ele>154.8</ele><time>2026-04-13T15:21:55.874Z</time></trkpt><trkpt lat="40.6574833" lon="15.0300267"><ele>155.4</ele><time>2026-04-13T15:21:56.873Z</time></trkpt><trkpt lat="40.6575217" lon="15.03014"><ele>156.0</ele><time>2026-04-13T15:21:57.872Z</time></trkpt><trkpt lat="40.6575817" lon="15.0302533"><ele>156.5</ele><time>2026-04-13T15:21:58.872Z</time></trkpt><trkpt lat="40.6576683" lon="15.0303583"><ele>157.0</ele><time>2026-04-13T15:21:59.872Z</time></trkpt><trkpt lat="40.6577583" lon="15.0304517"><ele>157.5</ele><time>2026-04-13T15:22:00.874Z</time></trkpt><trkpt lat="40.65786" lon="15.0305233"><ele>158.0</ele><time>2026-04-13T15:22:01.873Z</time></trkpt><trkpt lat="40.65796" lon="15.0305783"><ele>158.0</ele><time>2026-04-13T15:22:02.873Z</time></trkpt><trkpt lat="40.658065" lon="15.0306417"><ele>158.0</ele><time>2026-04-13T15:22:03.875Z</time></trkpt><trkpt lat="40.6581567" lon="15.0307083"><ele>158.0</ele><time>2026-04-13T15:22:04.874Z</time></trkpt><trkpt lat="40.6582533" lon="15.0307767"><ele>158.0</ele><time>2026-04-13T15:22:05.873Z</time></trkpt><trkpt lat="40.6582717" lon="15.0308967"><ele>158.0</ele><time>2026-04-13T15:22:07.873Z</time></trkpt><trkpt lat="40.6582717" lon="15.03102"><ele>159.83333333333331</ele><time>2026-04-13T15:22:08.874Z</time></trkpt><trkpt lat="40.6582767" lon="15.0311433"><ele>161.66666666666666</ele><time>2026-04-13T15:22:09.873Z</time></trkpt><trkpt lat="40.6583067" lon="15.0312533"><ele>163.5</ele><time>2026-04-13T15:22:10.873Z</time></trkpt><trkpt lat="40.6583267" lon="15.03136"><ele>165.33333333333334</ele><time>2026-04-13T15:22:11.873Z</time></trkpt><trkpt lat="40.65834" lon="15.03147"><ele>167.16666666666669</ele><time>2026-04-13T15:22:12.875Z</time></trkpt><trkpt lat="40.658355" lon="15.0315817"><ele>169.0</ele><time>2026-04-13T15:22:13.877Z</time></trkpt><trkpt lat="40.6584067" lon="15.0316917"><ele>167.25</ele><time>2026-04-13T15:22:14.873Z</time></trkpt><trkpt lat="40.65852" lon="15.03179"><ele>165.5</ele><time>2026-04-13T15:22:15.873Z</time></trkpt><trkpt lat="40.658635" lon="15.0318967"><ele>163.75</ele><time>2026-04-13T15:22:16.874Z</time></trkpt><trkpt lat="40.6587467" lon="15.03199"><ele>162.0</ele><time>2026-04-13T15:22:17.875Z</time></trkpt><trkpt lat="40.658855" lon="15.0320567"><ele>162.0</ele><time>2026-04-13T15:22:18.874Z</time></trkpt><trkpt lat="40.6589667" lon="15.03211"><ele>162.0</ele><time>2026-04-13T15:22:19.876Z</time></trkpt><trkpt lat="40.6590733" lon="15.03216"><ele>162.0</ele><time>2026-04-13T15:22:20.873Z</time></trkpt><trkpt lat="40.65918" lon="15.0322117"><ele>162.0</ele><time>2026-04-13T15:22:21.873Z</time></trkpt><trkpt lat="40.6592667" lon="15.0322883"><ele>162.0</ele><time>2026-04-13T15:22:22.874Z</time></trkpt><trkpt lat="40.65935" lon="15.0323733"><ele>162.0</ele><time>2026-04-13T15:22:23.873Z</time></trkpt><trkpt lat="40.6594433" lon="15.03241"><ele>162.0</ele><time>2026-04-13T15:22:24.873Z</time></trkpt><trkpt lat="40.6595267" lon="15.0324767"><ele>162.0</ele><time>2026-04-13T15:22:25.875Z</time></trkpt><trkpt lat="40.6596167" lon="15.0325483"><ele>162.0</ele><time>2026-04-13T15:22:26.873Z</time></trkpt><trkpt lat="40.6596917" lon="15.0326217"><ele>162.5</ele><time>2026-04-13T15:22:27.874Z</time></trkpt><trkpt lat="40.6597683" lon="15.0326967"><ele>163.0</ele><time>2026-04-13T15:22:28.874Z</time></trkpt><trkpt lat="40.6598433" lon="15.0328133"><ele>163.5</ele><time>2026-04-13T15:22:29.873Z</time></trkpt><trkpt lat="40.6599133" lon="15.0329367"><ele>164.0</ele><time>2026-04-13T15:22:30.873Z</time></trkpt><trkpt lat="40.6599783" lon="15.0330783"><ele>164.0</ele><time>2026-04-13T15:22:31.875Z</time></trkpt><trkpt lat="40.660045" lon="15.0331967"><ele>164.0</ele><time>2026-04-13T15:22:32.875Z</time></trkpt><trkpt lat="40.6601" lon="15.033305"><ele>164.0</ele><time>2026-04-13T15:22:33.873Z</time></trkpt><trkpt lat="40.6601733" lon="15.0333867"><ele>164.0</ele><time>2026-04-13T15:22:34.873Z</time></trkpt><trkpt lat="40.6602433" lon="15.0334683"><ele>164.0</ele><time>2026-04-13T15:22:35.873Z</time></trkpt><trkpt lat="40.6603267" lon="15.0335683"><ele>164.79999999999998</ele><time>2026-04-13T15:22:36.873Z</time></trkpt><trkpt lat="40.660405" lon="15.0336767"><ele>165.6</ele><time>2026-04-13T15:22:37.873Z</time></trkpt><trkpt lat="40.6604867" lon="15.0337867"><ele>166.4</ele><time>2026-04-13T15:22:38.875Z</time></trkpt><trkpt lat="40.66056" lon="15.0338833"><ele>167.2</ele><time>2026-04-13T15:22:39.873Z</time></trkpt><trkpt lat="40.6606317" lon="15.0339833"><ele>168.0</ele><time>2026-04-13T15:22:40.873Z</time></trkpt><trkpt lat="40.660705" lon="15.0340633"><ele>168.8</ele><time>2026-04-13T15:22:41.875Z</time></trkpt><trkpt lat="40.66075" lon="15.034185"><ele>169.60000000000002</ele><time>2026-04-13T15:22:43.873Z</time></trkpt><trkpt lat="40.66079" lon="15.0342983"><ele>170.39999999999998</ele><time>2026-04-13T15:22:45.875Z</time></trkpt><trkpt lat="40.6607533" lon="15.034415"><ele>171.2</ele><time>2026-04-13T15:22:47.873Z</time></trkpt><trkpt lat="40.660665" lon="15.03455"><ele>172.0</ele><time>2026-04-13T15:22:49.873Z</time></trkpt><trkpt lat="40.6606967" lon="15.0346717"><ele>172.0</ele><time>2026-04-13T15:22:51.873Z</time></trkpt><trkpt lat="40.6606583" lon="15.0347683"><ele>172.0</ele><time>2026-04-13T15:22:53.873Z</time></trkpt><trkpt lat="40.66062" lon="15.0348417"><ele>172.0</ele><time>2026-04-13T15:22:56.873Z</time></trkpt><trkpt lat="40.6605467" lon="15.0349017"><ele>172.0</ele><time>2026-04-13T15:22:58.873Z</time></trkpt><trkpt lat="40.6605117" lon="15.0349733"><ele>172.0</ele><time>2026-04-13T15:23:00.873Z</time></trkpt><trkpt lat="40.6604567" lon="15.0350667"><ele>172.0</ele><time>2026-04-13T15:23:02.873Z</time></trkpt><trkpt lat="40.660405" lon="15.03514"><ele>174.14285714285717</ele><time>2026-04-13T15:23:04.873Z</time></trkpt><trkpt lat="40.6603717" lon="15.0352217"><ele>176.28571428571428</ele><time>2026-04-13T15:23:05.873Z</time></trkpt><trkpt lat="40.6603417" lon="15.0353317"><ele>178.42857142857144</ele><time>2026-04-13T15:23:07.874Z</time></trkpt><trkpt lat="40.660375" lon="15.0354167"><ele>180.57142857142858</ele><time>2026-04-13T15:23:09.873Z</time></trkpt><trkpt lat="40.66039" lon="15.0355017"><ele>182.71428571428572</ele><time>2026-04-13T15:23:11.873Z</time></trkpt><trkpt lat="40.6604133" lon="15.0355833"><ele>184.85714285714286</ele><time>2026-04-13T15:23:13.873Z</time></trkpt><trkpt lat="40.6604367" lon="15.0356817"><ele>187.0</ele><time>2026-04-13T15:23:15.874Z</time></trkpt><trkpt lat="40.6604267" lon="15.035765"><ele>187.0</ele><time>2026-04-13T15:23:17.874Z</time></trkpt><trkpt lat="40.6604" lon="15.0358633"><ele>187.0</ele><time>2026-04-13T15:23:19.873Z</time></trkpt><trkpt lat="40.6603283" lon="15.0359267"><ele>187.0</ele><time>2026-04-13T15:23:22.873Z</time></trkpt><trkpt lat="40.660405" lon="15.035855"><ele>187.0</ele><time>2026-04-13T15:23:27.873Z</time></trkpt><trkpt lat="40.6604883" lon="15.0357817"><ele>187.0</ele><time>2026-04-13T15:23:29.873Z</time></trkpt><trkpt lat="40.66051" lon="15.0356683"><ele>187.0</ele><time>2026-04-13T15:23:31.873Z</time></trkpt><trkpt lat="40.6605283" lon="15.0355533"><ele>187.0</ele><time>2026-04-13T15:23:33.873Z</time></trkpt><trkpt lat="40.660495" lon="15.0354567"><ele>187.0</ele><time>2026-04-13T15:23:35.873Z</time></trkpt><trkpt lat="40.660445" lon="15.0353583"><ele>187.0</ele><time>2026-04-13T15:23:37.874Z</time></trkpt><trkpt lat="40.6604517" lon="15.0352433"><ele>187.0</ele><time>2026-04-13T15:23:39.879Z</time></trkpt><trkpt lat="40.6604983" lon="15.03513"><ele>187.0</ele><time>2026-04-13T15:23:41.874Z</time></trkpt><trkpt lat="40.66055" lon="15.035035"><ele>187.0</ele><time>2026-04-13T15:23:43.877Z</time></trkpt><trkpt lat="40.6605967" lon="15.0348867"><ele>183.25</ele><time>2026-04-13T15:23:46.874Z</time></trkpt><trkpt lat="40.6606533" lon="15.0347933"><ele>179.5</ele><time>2026-04-13T15:23:49.873Z</time></trkpt><trkpt lat="40.6607283" lon="15.034765"><ele>175.75</ele><time>2026-04-13T15:23:50.873Z</time></trkpt><trkpt lat="40.660935" lon="15.0348683"><ele>172.0</ele><time>2026-04-13T15:24:15.872Z</time></trkpt><trkpt lat="40.6610217" lon="15.03497"><ele>173.2857142857143</ele><time>2026-04-13T15:24:17.875Z</time></trkpt><trkpt lat="40.6610683" lon="15.0350317"><ele>174.57142857142858</ele><time>2026-04-13T15:24:18.874Z</time></trkpt><trkpt lat="40.6611183" lon="15.035095"><ele>175.85714285714286</ele><time>2026-04-13T15:24:19.872Z</time></trkpt><trkpt lat="40.6611717" lon="15.0351467"><ele>177.14285714285717</ele><time>2026-04-13T15:24:20.872Z</time></trkpt><trkpt lat="40.661225" lon="15.03521"><ele>178.42857142857142</ele><time>2026-04-13T15:24:21.872Z</time></trkpt><trkpt lat="40.6612683" lon="15.0352883"><ele>179.71428571428572</ele><time>2026-04-13T15:24:22.873Z</time></trkpt><trkpt lat="40.66132" lon="15.0353517"><ele>181.0</ele><time>2026-04-13T15:24:23.873Z</time></trkpt><trkpt lat="40.6613817" lon="15.0354"><ele>181.0</ele><time>2026-04-13T15:24:24.873Z</time></trkpt><trkpt lat="40.6614567" lon="15.035445"><ele>181.0</ele><time>2026-04-13T15:24:25.873Z</time></trkpt><trkpt lat="40.6615533" lon="15.0354733"><ele>181.0</ele><time>2026-04-13T15:24:26.872Z</time></trkpt><trkpt lat="40.6616517" lon="15.0354983"><ele>181.0</ele><time>2026-04-13T15:24:27.872Z</time></trkpt><trkpt lat="40.6617467" lon="15.0355167"><ele>181.0</ele><time>2026-04-13T15:24:28.872Z</time></trkpt><trkpt lat="40.66184" lon="15.03552"><ele>181.0</ele><time>2026-04-13T15:24:29.872Z</time></trkpt><trkpt lat="40.6619183" lon="15.0355167"><ele>181.0</ele><time>2026-04-13T15:24:30.872Z</time></trkpt><trkpt lat="40.6619967" lon="15.03551"><ele>181.0</ele><time>2026-04-13T15:24:31.873Z</time></trkpt><trkpt lat="40.66207" lon="15.035515"><ele>181.0</ele><time>2026-04-13T15:24:32.873Z</time></trkpt><trkpt lat="40.6621867" lon="15.0355233"><ele>181.0</ele><time>2026-04-13T15:24:34.872Z</time></trkpt><trkpt lat="40.6623067" lon="15.0355417"><ele>180.4</ele><time>2026-04-13T15:24:36.873Z</time></trkpt><trkpt lat="40.6624117" lon="15.03561"><ele>179.8</ele><time>2026-04-13T15:24:38.873Z</time></trkpt><trkpt lat="40.662505" lon="15.03567"><ele>179.20000000000002</ele><time>2026-04-13T15:24:40.875Z</time></trkpt><trkpt lat="40.6626117" lon="15.0356983"><ele>178.60000000000002</ele><time>2026-04-13T15:24:42.873Z</time></trkpt><trkpt lat="40.6626767" lon="15.035705"><ele>178.0</ele><time>2026-04-13T15:24:43.874Z</time></trkpt><trkpt lat="40.6627783" lon="15.03571"><ele>179.0</ele><time>2026-04-13T15:24:45.875Z</time></trkpt><trkpt lat="40.66286" lon="15.0357233"><ele>180.0</ele><time>2026-04-13T15:24:47.873Z</time></trkpt><trkpt lat="40.6629717" lon="15.03578"><ele>181.0</ele><time>2026-04-13T15:24:49.874Z</time></trkpt><trkpt lat="40.66303" lon="15.035825"><ele>182.0</ele><time>2026-04-13T15:24:50.872Z</time></trkpt><trkpt lat="40.6630867" lon="15.0358633"><ele>183.0</ele><time>2026-04-13T15:24:51.872Z</time></trkpt><trkpt lat="40.6631283" lon="15.0359283"><ele>184.0</ele><time>2026-04-13T15:24:52.872Z</time></trkpt><trkpt lat="40.6631317" lon="15.036035"><ele>185.0</ele><time>2026-04-13T15:24:53.873Z</time></trkpt><trkpt lat="40.66312" lon="15.0361417"><ele>186.0</ele><time>2026-04-13T15:24:54.873Z</time></trkpt><trkpt lat="40.6631267" lon="15.036235"><ele>187.0</ele><time>2026-04-13T15:24:55.874Z</time></trkpt><trkpt lat="40.663135" lon="15.036325"><ele>188.0</ele><time>2026-04-13T15:24:56.872Z</time></trkpt><trkpt lat="40.663165" lon="15.036475"><ele>189.0</ele><time>2026-04-13T15:24:58.873Z</time></trkpt><trkpt lat="40.6631933" lon="15.0365767"><ele>190.0</ele><time>2026-04-13T15:25:00.873Z</time></trkpt><trkpt lat="40.6632633" lon="15.0366083"><ele>190.0</ele><time>2026-04-13T15:25:02.876Z</time></trkpt><trkpt lat="40.6633233" lon="15.03654"><ele>190.0</ele><time>2026-04-13T15:25:04.873Z</time></trkpt><trkpt lat="40.6633817" lon="15.0364583"><ele>190.0</ele><time>2026-04-13T15:25:05.873Z</time></trkpt><trkpt lat="40.6634283" lon="15.0363717"><ele>190.0</ele><time>2026-04-13T15:25:06.872Z</time></trkpt><trkpt lat="40.663475" lon="15.0362867"><ele>190.0</ele><time>2026-04-13T15:25:07.873Z</time></trkpt><trkpt lat="40.6635133" lon="15.03621"><ele>190.0</ele><time>2026-04-13T15:25:08.872Z</time></trkpt><trkpt lat="40.6635683" lon="15.036145"><ele>191.16666666666669</ele><time>2026-04-13T15:25:09.872Z</time></trkpt><trkpt lat="40.6636217" lon="15.0360967"><ele>192.33333333333334</ele><time>2026-04-13T15:25:10.873Z</time></trkpt><trkpt lat="40.6636867" lon="15.0360767"><ele>193.5</ele><time>2026-04-13T15:25:11.873Z</time></trkpt><trkpt lat="40.6638217" lon="15.036065"><ele>194.66666666666669</ele><time>2026-04-13T15:25:13.872Z</time></trkpt><trkpt lat="40.66391" lon="15.0360867"><ele>195.83333333333334</ele><time>2026-04-13T15:25:14.873Z</time></trkpt><trkpt lat="40.6639967" lon="15.036125"><ele>197.0</ele><time>2026-04-13T15:25:15.873Z</time></trkpt><trkpt lat="40.6640817" lon="15.036185"><ele>197.00000000000003</ele><time>2026-04-13T15:25:16.873Z</time></trkpt><trkpt lat="40.66415" lon="15.0362383"><ele>197.0</ele><time>2026-04-13T15:25:17.873Z</time></trkpt><trkpt lat="40.664235" lon="15.0362917"><ele>197.0</ele><time>2026-04-13T15:25:18.872Z</time></trkpt><trkpt lat="40.66431" lon="15.03635"><ele>197.0</ele><time>2026-04-13T15:25:19.873Z</time></trkpt><trkpt lat="40.6643567" lon="15.03641"><ele>197.00000000000003</ele><time>2026-04-13T15:25:20.873Z</time></trkpt><trkpt lat="40.6644017" lon="15.0365433"><ele>197.0</ele><time>2026-04-13T15:25:22.874Z</time></trkpt><trkpt lat="40.6644717" lon="15.0366333"><ele>198.2</ele><time>2026-04-13T15:25:24.872Z</time></trkpt><trkpt lat="40.6645617" lon="15.03659"><ele>199.39999999999998</ele><time>2026-04-13T15:25:27.872Z</time></trkpt><trkpt lat="40.66466" lon="15.0365217"><ele>200.60000000000002</ele><time>2026-04-13T15:25:29.873Z</time></trkpt><trkpt lat="40.66472" lon="15.036485"><ele>201.8</ele><time>2026-04-13T15:25:30.872Z</time></trkpt><trkpt lat="40.664785" lon="15.0364633"><ele>203.0</ele><time>2026-04-13T15:25:31.873Z</time></trkpt><trkpt lat="40.6648983" lon="15.0364533"><ele>203.0</ele><time>2026-04-13T15:25:33.872Z</time></trkpt><trkpt lat="40.6649633" lon="15.0365117"><ele>203.0</ele><time>2026-04-13T15:25:35.872Z</time></trkpt><trkpt lat="40.6650317" lon="15.0365917"><ele>203.0</ele><time>2026-04-13T15:25:37.873Z</time></trkpt><trkpt lat="40.66511" lon="15.0366733"><ele>203.0</ele><time>2026-04-13T15:25:39.873Z</time></trkpt><trkpt lat="40.6652067" lon="15.036785"><ele>203.0</ele><time>2026-04-13T15:25:41.873Z</time></trkpt><trkpt lat="40.665255" lon="15.0368467"><ele>204.66666666666669</ele><time>2026-04-13T15:25:42.873Z</time></trkpt><trkpt lat="40.6653217" lon="15.0369567"><ele>206.33333333333334</ele><time>2026-04-13T15:25:44.874Z</time></trkpt><trkpt lat="40.6654" lon="15.037065"><ele>208.0</ele><time>2026-04-13T15:25:46.873Z</time></trkpt><trkpt lat="40.66544" lon="15.037135"><ele>209.66666666666669</ele><time>2026-04-13T15:25:48.877Z</time></trkpt><trkpt lat="40.6654233" lon="15.0372267"><ele>211.33333333333334</ele><time>2026-04-13T15:25:51.872Z</time></trkpt><trkpt lat="40.6653567" lon="15.0371733"><ele>213.0</ele><time>2026-04-13T15:25:54.874Z</time></trkpt><trkpt lat="40.6652483" lon="15.03714"><ele>218.4</ele><time>2026-04-13T15:25:56.872Z</time></trkpt><trkpt lat="40.6651583" lon="15.0370917"><ele>223.8</ele><time>2026-04-13T15:25:58.872Z</time></trkpt><trkpt lat="40.66505" lon="15.0371167"><ele>229.2</ele><time>2026-04-13T15:26:00.873Z</time></trkpt><trkpt lat="40.6651333" lon="15.03716"><ele>234.6</ele><time>2026-04-13T15:26:07.873Z</time></trkpt><trkpt lat="40.6651933" lon="15.03719"><ele>240.0</ele><time>2026-04-13T15:26:08.873Z</time></trkpt><trkpt lat="40.6652783" lon="15.0372683"><ele>243.2</ele><time>2026-04-13T15:26:10.872Z</time></trkpt><trkpt lat="40.6653667" lon="15.0373633"><ele>246.4</ele><time>2026-04-13T15:26:12.872Z</time></trkpt><trkpt lat="40.6654083" lon="15.0374783"><ele>249.60000000000002</ele><time>2026-04-13T15:26:14.873Z</time></trkpt><trkpt lat="40.6654867" lon="15.0375533"><ele>252.8</ele><time>2026-04-13T15:26:16.878Z</time></trkpt><trkpt lat="40.6655833" lon="15.0375917"><ele>256.0</ele><time>2026-04-13T15:26:18.873Z</time></trkpt><trkpt lat="40.6656567" lon="15.0376417"><ele>255.99999999999997</ele><time>2026-04-13T15:26:20.872Z</time></trkpt><trkpt lat="40.66565" lon="15.037755"><ele>256.0</ele><time>2026-04-13T15:26:22.873Z</time></trkpt><trkpt lat="40.6655833" lon="15.03787"><ele>256.0</ele><time>2026-04-13T15:26:25.873Z</time></trkpt><trkpt lat="40.665545" lon="15.0379567"><ele>256.0</ele><time>2026-04-13T15:26:27.872Z</time></trkpt><trkpt lat="40.6655433" lon="15.0380583"><ele>255.99999999999997</ele><time>2026-04-13T15:26:30.872Z</time></trkpt><trkpt lat="40.6656083" lon="15.0380917"><ele>256.0</ele><time>2026-04-13T15:26:31.873Z</time></trkpt><trkpt lat="40.6656683" lon="15.03817"><ele>256.0</ele><time>2026-04-13T15:26:33.872Z</time></trkpt><trkpt lat="40.6656933" lon="15.0382667"><ele>256.0</ele><time>2026-04-13T15:26:35.873Z</time></trkpt><trkpt lat="40.6657233" lon="15.0383917"><ele>256.0</ele><time>2026-04-13T15:26:37.872Z</time></trkpt><trkpt lat="40.6657233" lon="15.0384967"><ele>256.0</ele><time>2026-04-13T15:26:40.873Z</time></trkpt><trkpt lat="40.66573" lon="15.03862"><ele>256.0</ele><time>2026-04-13T15:26:42.873Z</time></trkpt><trkpt lat="40.6657217" lon="15.0387833"><ele>259.6</ele><time>2026-04-13T15:26:44.872Z</time></trkpt><trkpt lat="40.6658283" lon="15.0388983"><ele>263.20000000000005</ele><time>2026-04-13T15:26:45.872Z</time></trkpt><trkpt lat="40.6658883" lon="15.0389533"><ele>266.79999999999995</ele><time>2026-04-13T15:26:46.872Z</time></trkpt><trkpt lat="40.666" lon="15.03903"><ele>270.4</ele><time>2026-04-13T15:26:48.872Z</time></trkpt><trkpt lat="40.6660633" lon="15.0390983"><ele>274.0</ele><time>2026-04-13T15:26:50.872Z</time></trkpt><trkpt lat="40.6661267" lon="15.0391317"><ele>274.0</ele><time>2026-04-13T15:26:51.872Z</time></trkpt><trkpt lat="40.6662117" lon="15.0391383"><ele>274.0</ele><time>2026-04-13T15:26:52.873Z</time></trkpt><trkpt lat="40.6662867" lon="15.03914"><ele>274.0</ele><time>2026-04-13T15:26:53.872Z</time></trkpt><trkpt lat="40.6663683" lon="15.039135"><ele>274.0</ele><time>2026-04-13T15:26:54.873Z</time></trkpt><trkpt lat="40.6664417" lon="15.0391233"><ele>274.0</ele><time>2026-04-13T15:26:55.872Z</time></trkpt><trkpt lat="40.66651" lon="15.0391167"><ele>274.0</ele><time>2026-04-13T15:26:56.872Z</time></trkpt><trkpt lat="40.6665983" lon="15.0390883"><ele>274.0</ele><time>2026-04-13T15:26:58.874Z</time></trkpt><trkpt lat="40.6666867" lon="15.0390983"><ele>274.0</ele><time>2026-04-13T15:27:00.873Z</time></trkpt><trkpt lat="40.666725" lon="15.0391817"><ele>274.0</ele><time>2026-04-13T15:27:02.872Z</time></trkpt><trkpt lat="40.66677" lon="15.03929"><ele>274.0</ele><time>2026-04-13T15:27:04.873Z</time></trkpt><trkpt lat="40.66678" lon="15.0394283"><ele>274.0</ele><time>2026-04-13T15:27:06.873Z</time></trkpt><trkpt lat="40.6667767" lon="15.0395467"><ele>280.8</ele><time>2026-04-13T15:27:08.873Z</time></trkpt><trkpt lat="40.6667933" lon="15.0396833"><ele>287.59999999999997</ele><time>2026-04-13T15:27:10.872Z</time></trkpt><trkpt lat="40.6667567" lon="15.0398133"><ele>294.4</ele><time>2026-04-13T15:27:12.874Z</time></trkpt><trkpt lat="40.6667133" lon="15.0399233"><ele>301.2</ele><time>2026-04-13T15:27:14.872Z</time></trkpt><trkpt lat="40.6666667" lon="15.0400167"><ele>308.0</ele><time>2026-04-13T15:27:16.872Z</time></trkpt><trkpt lat="40.6667217" lon="15.0401333"><ele>308.83333333333337</ele><time>2026-04-13T15:27:19.873Z</time></trkpt><trkpt lat="40.666775" lon="15.0401933"><ele>309.6666666666667</ele><time>2026-04-13T15:27:21.874Z</time></trkpt><trkpt lat="40.66685" lon="15.0402383"><ele>310.5</ele><time>2026-04-13T15:27:22.872Z</time></trkpt><trkpt lat="40.666905" lon="15.0402833"><ele>311.3333333333333</ele><time>2026-04-13T15:27:24.872Z</time></trkpt><trkpt lat="40.666985" lon="15.0403117"><ele>312.16666666666663</ele><time>2026-04-13T15:27:26.872Z</time></trkpt><trkpt lat="40.6670217" lon="15.04038"><ele>313.0</ele><time>2026-04-13T15:27:28.875Z</time></trkpt><trkpt lat="40.6670667" lon="15.0404967"><ele>313.0</ele><time>2026-04-13T15:27:30.873Z</time></trkpt><trkpt lat="40.667115" lon="15.04056"><ele>313.0</ele><time>2026-04-13T15:27:31.874Z</time></trkpt><trkpt lat="40.667185" lon="15.0407067"><ele>313.0</ele><time>2026-04-13T15:27:33.872Z</time></trkpt><trkpt lat="40.667285" lon="15.040785"><ele>313.0</ele><time>2026-04-13T15:27:35.874Z</time></trkpt><trkpt lat="40.6673883" lon="15.0408067"><ele>313.0</ele><time>2026-04-13T15:27:37.872Z</time></trkpt><trkpt lat="40.667495" lon="15.04083"><ele>319.8333333333333</ele><time>2026-04-13T15:27:39.872Z</time></trkpt><trkpt lat="40.6675717" lon="15.0408767"><ele>326.66666666666663</ele><time>2026-04-13T15:27:41.873Z</time></trkpt><trkpt lat="40.6676417" lon="15.0409567"><ele>333.5</ele><time>2026-04-13T15:27:43.872Z</time></trkpt><trkpt lat="40.6677183" lon="15.0410083"><ele>340.3333333333333</ele><time>2026-04-13T15:27:45.872Z</time></trkpt><trkpt lat="40.6678" lon="15.04101"><ele>347.1666666666667</ele><time>2026-04-13T15:27:47.873Z</time></trkpt><trkpt lat="40.66786" lon="15.0409767"><ele>354.0</ele><time>2026-04-13T15:27:48.873Z</time></trkpt><trkpt lat="40.6679233" lon="15.040945"><ele>354.6</ele><time>2026-04-13T15:27:49.873Z</time></trkpt><trkpt lat="40.6680367" lon="15.0409033"><ele>355.2</ele><time>2026-04-13T15:27:51.873Z</time></trkpt><trkpt lat="40.6680933" lon="15.0408417"><ele>355.8</ele><time>2026-04-13T15:27:52.873Z</time></trkpt><trkpt lat="40.6681633" lon="15.040745"><ele>356.40000000000003</ele><time>2026-04-13T15:27:54.872Z</time></trkpt><trkpt lat="40.66824" lon="15.0406567"><ele>357.0</ele><time>2026-04-13T15:27:56.875Z</time></trkpt><trkpt lat="40.6683033" lon="15.04064"><ele>357.0</ele><time>2026-04-13T15:27:58.875Z</time></trkpt><trkpt lat="40.6683683" lon="15.0406817"><ele>357.0</ele><time>2026-04-13T15:28:00.875Z</time></trkpt><trkpt lat="40.6684367" lon="15.0407533"><ele>357.0</ele><time>2026-04-13T15:28:02.873Z</time></trkpt><trkpt lat="40.6684883" lon="15.040885"><ele>357.0</ele><time>2026-04-13T15:28:04.872Z</time></trkpt><trkpt lat="40.6685633" lon="15.0409533"><ele>357.0</ele><time>2026-04-13T15:28:06.873Z</time></trkpt><trkpt lat="40.6686233" lon="15.0410467"><ele>354.20000000000005</ele><time>2026-04-13T15:28:08.872Z</time></trkpt><trkpt lat="40.6687517" lon="15.041145"><ele>351.4</ele><time>2026-04-13T15:28:10.872Z</time></trkpt><trkpt lat="40.668815" lon="15.0412767"><ele>348.6</ele><time>2026-04-13T15:28:12.872Z</time></trkpt><trkpt lat="40.6688567" lon="15.0413517"><ele>345.79999999999995</ele><time>2026-04-13T15:28:13.874Z</time></trkpt><trkpt lat="40.6689267" lon="15.041465"><ele>343.0</ele><time>2026-04-13T15:28:15.877Z</time></trkpt><trkpt lat="40.6689883" lon="15.04159"><ele>348.5</ele><time>2026-04-13T15:28:17.874Z</time></trkpt><trkpt lat="40.6690333" lon="15.0416517"><ele>354.0</ele><time>2026-04-13T15:28:18.876Z</time></trkpt><trkpt lat="40.669105" lon="15.0417117"><ele>359.5</ele><time>2026-04-13T15:28:19.872Z</time></trkpt><trkpt lat="40.6691733" lon="15.0417867"><ele>365.0</ele><time>2026-04-13T15:28:20.873Z</time></trkpt><trkpt lat="40.6692167" lon="15.0418533"><ele>370.5</ele><time>2026-04-13T15:28:21.873Z</time></trkpt><trkpt lat="40.6692483" lon="15.0419383"><ele>376.0</ele><time>2026-04-13T15:28:22.874Z</time></trkpt><trkpt lat="40.6693117" lon="15.0420117"><ele>376.0</ele><time>2026-04-13T15:28:24.873Z</time></trkpt><trkpt lat="40.66938" lon="15.0420917"><ele>376.0</ele><time>2026-04-13T15:28:27.874Z</time></trkpt><trkpt lat="40.66929" lon="15.04207"><ele>376.0</ele><time>2026-04-13T15:28:28.874Z</time></trkpt><trkpt lat="40.66918" lon="15.0420417"><ele>376.0</ele><time>2026-04-13T15:28:31.874Z</time></trkpt><trkpt lat="40.6690767" lon="15.04203"><ele>376.0</ele><time>2026-04-13T15:28:34.872Z</time></trkpt><trkpt lat="40.6689967" lon="15.0419567"><ele>376.0</ele><time>2026-04-13T15:28:36.873Z</time></trkpt><trkpt lat="40.668935" lon="15.0419217"><ele>376.0</ele><time>2026-04-13T15:28:38.874Z</time></trkpt><trkpt lat="40.66887" lon="15.0419867"><ele>376.0</ele><time>2026-04-13T15:28:41.873Z</time></trkpt><trkpt lat="40.6689033" lon="15.0421033"><ele>376.0</ele><time>2026-04-13T15:28:43.873Z</time></trkpt><trkpt lat="40.66896" lon="15.0422467"><ele>376.0</ele><time>2026-04-13T15:28:45.872Z</time></trkpt><trkpt lat="40.6690283" lon="15.042395"><ele>384.6</ele><time>2026-04-13T15:28:47.873Z</time></trkpt><trkpt lat="40.669075" lon="15.042545"><ele>393.20000000000005</ele><time>2026-04-13T15:28:49.873Z</time></trkpt><trkpt lat="40.6691733" lon="15.0425817"><ele>401.79999999999995</ele><time>2026-04-13T15:28:50.874Z</time></trkpt><trkpt lat="40.6693" lon="15.0425083"><ele>410.4</ele><time>2026-04-13T15:28:52.872Z</time></trkpt><trkpt lat="40.669385" lon="15.0424983"><ele>419.0</ele><time>2026-04-13T15:28:53.875Z</time></trkpt><trkpt lat="40.669465" lon="15.0424967"><ele>418.99999999999994</ele><time>2026-04-13T15:28:54.873Z</time></trkpt><trkpt lat="40.66953" lon="15.0424733"><ele>419.0</ele><time>2026-04-13T15:28:57.873Z</time></trkpt><trkpt lat="40.6694567" lon="15.042515"><ele>419.0</ele><time>2026-04-13T15:29:02.873Z</time></trkpt><trkpt lat="40.6693933" lon="15.0425217"><ele>419.0</ele><time>2026-04-13T15:29:03.872Z</time></trkpt><trkpt lat="40.6692967" lon="15.042515"><ele>418.99999999999994</ele><time>2026-04-13T15:29:05.872Z</time></trkpt><trkpt lat="40.6692017" lon="15.04255"><ele>419.0</ele><time>2026-04-13T15:29:07.872Z</time></trkpt><trkpt lat="40.66911" lon="15.0425917"><ele>420.6</ele><time>2026-04-13T15:29:09.874Z</time></trkpt><trkpt lat="40.668995" lon="15.0426333"><ele>422.2</ele><time>2026-04-13T15:29:11.872Z</time></trkpt><trkpt lat="40.66891" lon="15.04263"><ele>423.80000000000007</ele><time>2026-04-13T15:29:12.874Z</time></trkpt><trkpt lat="40.66884" lon="15.042645"><ele>425.40000000000003</ele><time>2026-04-13T15:29:13.874Z</time></trkpt><trkpt lat="40.668715" lon="15.0426667"><ele>427.0</ele><time>2026-04-13T15:29:15.872Z</time></trkpt><trkpt lat="40.6686167" lon="15.042675"><ele>428.50000000000006</ele><time>2026-04-13T15:29:17.874Z</time></trkpt><trkpt lat="40.668545" lon="15.0426433"><ele>430.0</ele><time>2026-04-13T15:29:19.873Z</time></trkpt><trkpt lat="40.6684917" lon="15.0425467"><ele>431.5</ele><time>2026-04-13T15:29:21.874Z</time></trkpt><trkpt lat="40.6684317" lon="15.0425017"><ele>433.0</ele><time>2026-04-13T15:29:23.872Z</time></trkpt><trkpt lat="40.6684017" lon="15.0425967"><ele>434.50000000000006</ele><time>2026-04-13T15:29:27.872Z</time></trkpt><trkpt lat="40.668415" lon="15.0427067"><ele>436.0</ele><time>2026-04-13T15:29:30.873Z</time></trkpt><trkpt lat="40.668465" lon="15.0427833"><ele>436.00000000000006</ele><time>2026-04-13T15:29:33.873Z</time></trkpt><trkpt lat="40.6684117" lon="15.04286"><ele>436.0</ele><time>2026-04-13T15:29:40.872Z</time></trkpt><trkpt lat="40.6683683" lon="15.0429417"><ele>436.0</ele><time>2026-04-13T15:29:50.877Z</time></trkpt><trkpt lat="40.6683617" lon="15.0430867"><ele>436.0</ele><time>2026-04-13T15:30:08.875Z</time></trkpt><trkpt lat="40.6683033" lon="15.0430367"><ele>436.00000000000006</ele><time>2026-04-13T15:30:16.878Z</time></trkpt><trkpt lat="40.668245" lon="15.042995"><ele>436.0</ele><time>2026-04-13T15:30:20.873Z</time></trkpt><trkpt lat="40.6682383" lon="15.04288"><ele>436.00000000000006</ele><time>2026-04-13T15:30:24.873Z</time></trkpt><trkpt lat="40.66822" lon="15.0427983"><ele>436.0</ele><time>2026-04-13T15:30:26.872Z</time></trkpt><trkpt lat="40.66828" lon="15.04275"><ele>436.0</ele><time>2026-04-13T15:30:30.872Z</time></trkpt><trkpt lat="40.668365" lon="15.04282"><ele>436.0</ele><time>2026-04-13T15:30:32.874Z</time></trkpt><trkpt lat="40.6684417" lon="15.0429083"><ele>436.00000000000006</ele><time>2026-04-13T15:30:34.873Z</time></trkpt><trkpt lat="40.6685383" lon="15.04295"><ele>436.0</ele><time>2026-04-13T15:30:36.872Z</time></trkpt><trkpt lat="40.6686" lon="15.0428033"><ele>434.50000000000006</ele><time>2026-04-13T15:30:38.872Z</time></trkpt><trkpt lat="40.66867" lon="15.04279"><ele>433.0</ele><time>2026-04-13T15:30:40.872Z</time></trkpt><trkpt lat="40.6687633" lon="15.04278"><ele>431.5</ele><time>2026-04-13T15:30:42.873Z</time></trkpt><trkpt lat="40.668835" lon="15.0428"><ele>430.0</ele><time>2026-04-13T15:30:44.872Z</time></trkpt><trkpt lat="40.668905" lon="15.0428483"><ele>428.50000000000006</ele><time>2026-04-13T15:30:46.873Z</time></trkpt><trkpt lat="40.669025" lon="15.0428233"><ele>427.0</ele><time>2026-04-13T15:30:47.874Z</time></trkpt><trkpt lat="40.6690967" lon="15.0428083"><ele>427.0</ele><time>2026-04-13T15:30:48.873Z</time></trkpt><trkpt lat="40.6691933" lon="15.0427967"><ele>427.0</ele><time>2026-04-13T15:30:49.875Z</time></trkpt><trkpt lat="40.6692383" lon="15.0426467"><ele>427.0</ele><time>2026-04-13T15:30:50.876Z</time></trkpt><trkpt lat="40.669385" lon="15.042585"><ele>427.0</ele><time>2026-04-13T15:30:52.874Z</time></trkpt><trkpt lat="40.6695233" lon="15.042525"><ele>427.0</ele><time>2026-04-13T15:30:54.874Z</time></trkpt><trkpt lat="40.6696217" lon="15.0425067"><ele>427.00000000000006</ele><time>2026-04-13T15:30:56.873Z</time></trkpt><trkpt lat="40.6694883" lon="15.04249"><ele>427.00000000000006</ele><time>2026-04-13T15:31:01.874Z</time></trkpt><trkpt lat="40.66938" lon="15.0424833"><ele>427.0</ele><time>2026-04-13T15:31:03.874Z</time></trkpt><trkpt lat="40.66931" lon="15.04242"><ele>427.0</ele><time>2026-04-13T15:31:04.874Z</time></trkpt><trkpt lat="40.6692483" lon="15.0423983"><ele>416.8</ele><time>2026-04-13T15:31:05.875Z</time></trkpt><trkpt lat="40.6691717" lon="15.0423267"><ele>406.6</ele><time>2026-04-13T15:31:07.873Z</time></trkpt><trkpt lat="40.6690967" lon="15.0422417"><ele>396.40000000000003</ele><time>2026-04-13T15:31:09.873Z</time></trkpt><trkpt lat="40.6690517" lon="15.0421633"><ele>386.20000000000005</ele><time>2026-04-13T15:31:10.874Z</time></trkpt><trkpt lat="40.668985" lon="15.0420817"><ele>376.0</ele><time>2026-04-13T15:31:12.874Z</time></trkpt><trkpt lat="40.668975" lon="15.0419467"><ele>376.0</ele><time>2026-04-13T15:31:14.874Z</time></trkpt><trkpt lat="40.6690317" lon="15.0419083"><ele>376.0</ele><time>2026-04-13T15:31:17.875Z</time></trkpt><trkpt lat="40.6691067" lon="15.0418817"><ele>376.0</ele><time>2026-04-13T15:31:20.873Z</time></trkpt><trkpt lat="40.6691833" lon="15.04191"><ele>376.0</ele><time>2026-04-13T15:31:23.873Z</time></trkpt><trkpt lat="40.6692883" lon="15.041895"><ele>376.0</ele><time>2026-04-13T15:31:25.874Z</time></trkpt><trkpt lat="40.6693967" lon="15.041835"><ele>376.0</ele><time>2026-04-13T15:31:27.878Z</time></trkpt><trkpt lat="40.6694683" lon="15.0417283"><ele>376.0</ele><time>2026-04-13T15:31:29.874Z</time></trkpt><trkpt lat="40.66938" lon="15.041655"><ele>376.0</ele><time>2026-04-13T15:31:32.874Z</time></trkpt><trkpt lat="40.6693067" lon="15.0416267"><ele>376.0</ele><time>2026-04-13T15:31:33.874Z</time></trkpt><trkpt lat="40.6691967" lon="15.0415133"><ele>376.0</ele><time>2026-04-13T15:31:35.873Z</time></trkpt><trkpt lat="40.6691467" lon="15.0414567"><ele>376.0</ele><time>2026-04-13T15:31:36.874Z</time></trkpt><trkpt lat="40.6690767" lon="15.0414067"><ele>369.4</ele><time>2026-04-13T15:31:37.873Z</time></trkpt><trkpt lat="40.6689917" lon="15.0413667"><ele>362.8</ele><time>2026-04-13T15:31:38.873Z</time></trkpt><trkpt lat="40.6689167" lon="15.041245"><ele>356.2</ele><time>2026-04-13T15:31:40.874Z</time></trkpt><trkpt lat="40.6688733" lon="15.0411633"><ele>349.59999999999997</ele><time>2026-04-13T15:31:41.873Z</time></trkpt><trkpt lat="40.6687867" lon="15.0409917"><ele>343.0</ele><time>2026-04-13T15:31:43.875Z</time></trkpt><trkpt lat="40.6686967" lon="15.0408617"><ele>343.0</ele><time>2026-04-13T15:31:45.876Z</time></trkpt><trkpt lat="40.668645" lon="15.04081"><ele>343.0</ele><time>2026-04-13T15:31:46.873Z</time></trkpt><trkpt lat="40.66854" lon="15.040785"><ele>343.0</ele><time>2026-04-13T15:31:48.874Z</time></trkpt><trkpt lat="40.6684383" lon="15.0407433"><ele>343.0</ele><time>2026-04-13T15:31:50.873Z</time></trkpt><trkpt lat="40.6684483" lon="15.04062"><ele>343.0</ele><time>2026-04-13T15:31:52.874Z</time></trkpt><trkpt lat="40.66843" lon="15.0405317"><ele>343.0</ele><time>2026-04-13T15:31:54.874Z</time></trkpt><trkpt lat="40.668355" lon="15.0405717"><ele>345.79999999999995</ele><time>2026-04-13T15:31:57.874Z</time></trkpt><trkpt lat="40.668265" lon="15.04062"><ele>348.6</ele><time>2026-04-13T15:31:59.874Z</time></trkpt><trkpt lat="40.6681917" lon="15.0406317"><ele>351.4</ele><time>2026-04-13T15:32:00.875Z</time></trkpt><trkpt lat="40.6681" lon="15.0407367"><ele>354.20000000000005</ele><time>2026-04-13T15:32:02.875Z</time></trkpt><trkpt lat="40.6680033" lon="15.0408233"><ele>357.0</ele><time>2026-04-13T15:32:04.873Z</time></trkpt><trkpt lat="40.66794" lon="15.0408567"><ele>357.0</ele><time>2026-04-13T15:32:05.873Z</time></trkpt><trkpt lat="40.667835" lon="15.0408667"><ele>357.0</ele><time>2026-04-13T15:32:07.873Z</time></trkpt><trkpt lat="40.6677717" lon="15.0407717"><ele>357.0</ele><time>2026-04-13T15:32:10.873Z</time></trkpt><trkpt lat="40.6676917" lon="15.0407167"><ele>357.0</ele><time>2026-04-13T15:32:12.874Z</time></trkpt><trkpt lat="40.6676017" lon="15.0406767"><ele>357.0</ele><time>2026-04-13T15:32:14.873Z</time></trkpt><trkpt lat="40.667525" lon="15.0406733"><ele>348.20000000000005</ele><time>2026-04-13T15:32:16.874Z</time></trkpt><trkpt lat="40.6674317" lon="15.04067"><ele>339.40000000000003</ele><time>2026-04-13T15:32:18.873Z</time></trkpt><trkpt lat="40.6673433" lon="15.0405933"><ele>330.6</ele><time>2026-04-13T15:32:20.873Z</time></trkpt><trkpt lat="40.6672717" lon="15.040485"><ele>321.8</ele><time>2026-04-13T15:32:22.874Z</time></trkpt><trkpt lat="40.6672767" lon="15.0403617"><ele>313.0</ele><time>2026-04-13T15:32:24.874Z</time></trkpt><trkpt lat="40.6672267" lon="15.0402633"><ele>313.0</ele><time>2026-04-13T15:32:26.874Z</time></trkpt><trkpt lat="40.667165" lon="15.0401933"><ele>313.0</ele><time>2026-04-13T15:32:28.873Z</time></trkpt><trkpt lat="40.6670417" lon="15.0400983"><ele>313.0</ele><time>2026-04-13T15:32:30.873Z</time></trkpt><trkpt lat="40.6669817" lon="15.0400583"><ele>313.0</ele><time>2026-04-13T15:32:31.874Z</time></trkpt><trkpt lat="40.6669233" lon="15.0400167"><ele>313.0</ele><time>2026-04-13T15:32:32.876Z</time></trkpt><trkpt lat="40.6668517" lon="15.0399"><ele>312.0</ele><time>2026-04-13T15:32:34.874Z</time></trkpt><trkpt lat="40.6668567" lon="15.0397417"><ele>311.0</ele><time>2026-04-13T15:32:36.876Z</time></trkpt><trkpt lat="40.6668517" lon="15.0396167"><ele>310.0</ele><time>2026-04-13T15:32:38.874Z</time></trkpt><trkpt lat="40.6668233" lon="15.0394983"><ele>309.0</ele><time>2026-04-13T15:32:40.874Z</time></trkpt><trkpt lat="40.66681" lon="15.0394017"><ele>308.0</ele><time>2026-04-13T15:32:41.873Z</time></trkpt><trkpt lat="40.6667867" lon="15.0392967"><ele>308.0</ele><time>2026-04-13T15:32:42.873Z</time></trkpt><trkpt lat="40.6667767" lon="15.0392067"><ele>308.0</ele><time>2026-04-13T15:32:43.873Z</time></trkpt><trkpt lat="40.6668017" lon="15.039075"><ele>308.0</ele><time>2026-04-13T15:32:45.874Z</time></trkpt><trkpt lat="40.66676" lon="15.0390117"><ele>308.0</ele><time>2026-04-13T15:32:46.874Z</time></trkpt><trkpt lat="40.666715" lon="15.038935"><ele>308.0</ele><time>2026-04-13T15:32:47.874Z</time></trkpt><trkpt lat="40.66663" lon="15.0388817"><ele>308.0</ele><time>2026-04-13T15:32:50.873Z</time></trkpt><trkpt lat="40.6665367" lon="15.0388533"><ele>306.5</ele><time>2026-04-13T15:32:52.874Z</time></trkpt><trkpt lat="40.6664483" lon="15.0388717"><ele>305.0</ele><time>2026-04-13T15:32:54.874Z</time></trkpt><trkpt lat="40.6663817" lon="15.0389117"><ele>303.5</ele><time>2026-04-13T15:32:56.873Z</time></trkpt><trkpt lat="40.6663" lon="15.03891"><ele>302.0</ele><time>2026-04-13T15:32:59.873Z</time></trkpt><trkpt lat="40.6662333" lon="15.038895"><ele>300.5</ele><time>2026-04-13T15:33:01.873Z</time></trkpt><trkpt lat="40.66617" lon="15.0388683"><ele>299.0</ele><time>2026-04-13T15:33:03.875Z</time></trkpt><trkpt lat="40.6660833" lon="15.0387717"><ele>299.0</ele><time>2026-04-13T15:33:05.873Z</time></trkpt><trkpt lat="40.6660283" lon="15.0386433"><ele>299.0</ele><time>2026-04-13T15:33:07.875Z</time></trkpt><trkpt lat="40.6659683" lon="15.0385217"><ele>299.0</ele><time>2026-04-13T15:33:09.873Z</time></trkpt><trkpt lat="40.66593" lon="15.0384417"><ele>299.0</ele><time>2026-04-13T15:33:10.873Z</time></trkpt><trkpt lat="40.6658917" lon="15.038285"><ele>299.0</ele><time>2026-04-13T15:33:12.874Z</time></trkpt><trkpt lat="40.6658383" lon="15.0381733"><ele>291.83333333333337</ele><time>2026-04-13T15:33:14.873Z</time></trkpt><trkpt lat="40.6657917" lon="15.0381067"><ele>284.6666666666667</ele><time>2026-04-13T15:33:15.873Z</time></trkpt><trkpt lat="40.66573" lon="15.0380633"><ele>277.5</ele><time>2026-04-13T15:33:16.873Z</time></trkpt><trkpt lat="40.6656433" lon="15.03799"><ele>270.3333333333333</ele><time>2026-04-13T15:33:18.874Z</time></trkpt><trkpt lat="40.66558" lon="15.0379417"><ele>263.16666666666663</ele><time>2026-04-13T15:33:19.877Z</time></trkpt><trkpt lat="40.6655283" lon="15.03789"><ele>256.0</ele><time>2026-04-13T15:33:20.875Z</time></trkpt><trkpt lat="40.665475" lon="15.037765"><ele>256.0</ele><time>2026-04-13T15:33:22.873Z</time></trkpt><trkpt lat="40.6654367" lon="15.03757"><ele>256.0</ele><time>2026-04-13T15:33:24.873Z</time></trkpt><trkpt lat="40.6654733" lon="15.0375"><ele>256.0</ele><time>2026-04-13T15:33:25.873Z</time></trkpt><trkpt lat="40.66544" lon="15.0374233"><ele>256.0</ele><time>2026-04-13T15:33:27.873Z</time></trkpt><trkpt lat="40.66538" lon="15.037345"><ele>256.0</ele><time>2026-04-13T15:33:29.875Z</time></trkpt><trkpt lat="40.6653183" lon="15.0372517"><ele>253.7142857142857</ele><time>2026-04-13T15:33:31.873Z</time></trkpt><trkpt lat="40.66526" lon="15.0371733"><ele>251.4285714285714</ele><time>2026-04-13T15:33:33.873Z</time></trkpt><trkpt lat="40.6652017" lon="15.037105"><ele>249.14285714285714</ele><time>2026-04-13T15:33:35.874Z</time></trkpt><trkpt lat="40.665145" lon="15.0370683"><ele>246.85714285714283</ele><time>2026-04-13T15:33:38.874Z</time></trkpt><trkpt lat="40.6650733" lon="15.037045"><ele>244.57142857142856</ele><time>2026-04-13T15:33:40.874Z</time></trkpt><trkpt lat="40.6651317" lon="15.0370083"><ele>242.28571428571428</ele><time>2026-04-13T15:33:45.874Z</time></trkpt><trkpt lat="40.6651967" lon="15.0370117"><ele>240.0</ele><time>2026-04-13T15:33:47.873Z</time></trkpt><trkpt lat="40.6652683" lon="15.0370283"><ele>235.5</ele><time>2026-04-13T15:33:49.874Z</time></trkpt><trkpt lat="40.665345" lon="15.03707"><ele>231.0</ele><time>2026-04-13T15:33:51.873Z</time></trkpt><trkpt lat="40.665415" lon="15.0370967"><ele>226.5</ele><time>2026-04-13T15:33:53.874Z</time></trkpt><trkpt lat="40.665485" lon="15.0371183"><ele>222.0</ele><time>2026-04-13T15:33:56.874Z</time></trkpt><trkpt lat="40.6654683" lon="15.0370083"><ele>217.5</ele><time>2026-04-13T15:33:59.873Z</time></trkpt><trkpt lat="40.665375" lon="15.0369083"><ele>213.0</ele><time>2026-04-13T15:34:01.874Z</time></trkpt><trkpt lat="40.6653233" lon="15.03686"><ele>211.0</ele><time>2026-04-13T15:34:02.873Z</time></trkpt><trkpt lat="40.6652433" lon="15.03674"><ele>209.0</ele><time>2026-04-13T15:34:04.876Z</time></trkpt><trkpt lat="40.6651567" lon="15.0366283"><ele>207.0</ele><time>2026-04-13T15:34:06.873Z</time></trkpt><trkpt lat="40.665065" lon="15.0365133"><ele>205.0</ele><time>2026-04-13T15:34:08.873Z</time></trkpt><trkpt lat="40.665" lon="15.0364533"><ele>203.0</ele><time>2026-04-13T15:34:10.874Z</time></trkpt><trkpt lat="40.6650783" lon="15.03646"><ele>203.0</ele><time>2026-04-13T15:34:17.873Z</time></trkpt><trkpt lat="40.6652033" lon="15.0365083"><ele>203.0</ele><time>2026-04-13T15:34:19.873Z</time></trkpt><trkpt lat="40.6652767" lon="15.0365367"><ele>203.0</ele><time>2026-04-13T15:34:20.874Z</time></trkpt><trkpt lat="40.6653583" lon="15.03657"><ele>203.0</ele><time>2026-04-13T15:34:21.874Z</time></trkpt><trkpt lat="40.665475" lon="15.0366383"><ele>203.0</ele><time>2026-04-13T15:34:23.874Z</time></trkpt><trkpt lat="40.66553" lon="15.03668"><ele>205.0</ele><time>2026-04-13T15:34:24.873Z</time></trkpt><trkpt lat="40.6656267" lon="15.0367667"><ele>207.0</ele><time>2026-04-13T15:34:26.875Z</time></trkpt><trkpt lat="40.665745" lon="15.0368033"><ele>209.0</ele><time>2026-04-13T15:34:28.873Z</time></trkpt><trkpt lat="40.6658" lon="15.0369"><ele>211.0</ele><time>2026-04-13T15:34:30.873Z</time></trkpt><trkpt lat="40.6658833" lon="15.036965"><ele>213.0</ele><time>2026-04-13T15:34:32.873Z</time></trkpt><trkpt lat="40.6659717" lon="15.0369883"><ele>213.0</ele><time>2026-04-13T15:34:34.874Z</time></trkpt><trkpt lat="40.6660483" lon="15.0369767"><ele>213.0</ele><time>2026-04-13T15:34:35.873Z</time></trkpt><trkpt lat="40.6661133" lon="15.036965"><ele>213.0</ele><time>2026-04-13T15:34:36.875Z</time></trkpt><trkpt lat="40.66621" lon="15.0369867"><ele>213.0</ele><time>2026-04-13T15:34:38.877Z</time></trkpt><trkpt lat="40.6662667" lon="15.0370717"><ele>213.0</ele><time>2026-04-13T15:34:40.874Z</time></trkpt><trkpt lat="40.6662617" lon="15.03719"><ele>213.0</ele><time>2026-04-13T15:34:42.877Z</time></trkpt><trkpt lat="40.666255" lon="15.0373083"><ele>210.5</ele><time>2026-04-13T15:34:44.874Z</time></trkpt><trkpt lat="40.6662683" lon="15.0374083"><ele>208.0</ele><time>2026-04-13T15:34:46.874Z</time></trkpt><trkpt lat="40.666365" lon="15.0374517"><ele>205.5</ele><time>2026-04-13T15:34:48.873Z</time></trkpt><trkpt lat="40.6664267" lon="15.03742"><ele>203.0</ele><time>2026-04-13T15:34:49.873Z</time></trkpt><trkpt lat="40.66649" lon="15.0373783"><ele>200.5</ele><time>2026-04-13T15:34:50.873Z</time></trkpt><trkpt lat="40.666555" lon="15.0373483"><ele>198.0</ele><time>2026-04-13T15:34:51.873Z</time></trkpt><trkpt lat="40.66668" lon="15.0373017"><ele>198.0</ele><time>2026-04-13T15:34:53.874Z</time></trkpt><trkpt lat="40.6667467" lon="15.0372767"><ele>198.0</ele><time>2026-04-13T15:34:54.876Z</time></trkpt><trkpt lat="40.6668183" lon="15.0372633"><ele>198.0</ele><time>2026-04-13T15:34:55.874Z</time></trkpt><trkpt lat="40.6668917" lon="15.0372567"><ele>198.0</ele><time>2026-04-13T15:34:56.874Z</time></trkpt><trkpt lat="40.6669767" lon="15.0372567"><ele>198.0</ele><time>2026-04-13T15:34:57.875Z</time></trkpt><trkpt lat="40.6670533" lon="15.0372633"><ele>198.0</ele><time>2026-04-13T15:34:58.873Z</time></trkpt><trkpt lat="40.6671283" lon="15.037265"><ele>199.0</ele><time>2026-04-13T15:34:59.873Z</time></trkpt><trkpt lat="40.6671933" lon="15.0372767"><ele>200.0</ele><time>2026-04-13T15:35:00.874Z</time></trkpt><trkpt lat="40.667315" lon="15.0373167"><ele>201.0</ele><time>2026-04-13T15:35:02.875Z</time></trkpt><trkpt lat="40.667395" lon="15.037375"><ele>202.0</ele><time>2026-04-13T15:35:04.875Z</time></trkpt><trkpt lat="40.6675" lon="15.0374633"><ele>203.0</ele><time>2026-04-13T15:35:06.874Z</time></trkpt><trkpt lat="40.66754" lon="15.037535"><ele>203.60000000000002</ele><time>2026-04-13T15:35:07.874Z</time></trkpt><trkpt lat="40.6676033" lon="15.0376367"><ele>204.20000000000002</ele><time>2026-04-13T15:35:09.874Z</time></trkpt><trkpt lat="40.667705" lon="15.0376783"><ele>204.8</ele><time>2026-04-13T15:35:11.875Z</time></trkpt><trkpt lat="40.6678183" lon="15.0376583"><ele>205.4</ele><time>2026-04-13T15:35:13.874Z</time></trkpt><trkpt lat="40.667895" lon="15.03767"><ele>206.0</ele><time>2026-04-13T15:35:14.874Z</time></trkpt><trkpt lat="40.667985" lon="15.037685"><ele>206.00000000000003</ele><time>2026-04-13T15:35:15.874Z</time></trkpt><trkpt lat="40.66807" lon="15.0376867"><ele>206.0</ele><time>2026-04-13T15:35:16.874Z</time></trkpt><trkpt lat="40.6681467" lon="15.0377017"><ele>206.0</ele><time>2026-04-13T15:35:17.878Z</time></trkpt><trkpt lat="40.668225" lon="15.03769"><ele>206.0</ele><time>2026-04-13T15:35:18.874Z</time></trkpt><trkpt lat="40.6683017" lon="15.03768"><ele>206.00000000000003</ele><time>2026-04-13T15:35:19.876Z</time></trkpt><trkpt lat="40.66837" lon="15.0376733"><ele>206.0</ele><time>2026-04-13T15:35:20.877Z</time></trkpt><trkpt lat="40.66845" lon="15.037695"><ele>206.00000000000003</ele><time>2026-04-13T15:35:21.874Z</time></trkpt><trkpt lat="40.6685233" lon="15.0377217"><ele>206.0</ele><time>2026-04-13T15:35:22.874Z</time></trkpt><trkpt lat="40.6686" lon="15.037765"><ele>206.0</ele><time>2026-04-13T15:35:23.876Z</time></trkpt><trkpt lat="40.66865" lon="15.037845"><ele>206.0</ele><time>2026-04-13T15:35:24.874Z</time></trkpt><trkpt lat="40.6687167" lon="15.0379017"><ele>206.00000000000003</ele><time>2026-04-13T15:35:25.874Z</time></trkpt><trkpt lat="40.6687483" lon="15.0380233"><ele>206.0</ele><time>2026-04-13T15:35:26.874Z</time></trkpt><trkpt lat="40.6687733" lon="15.038125"><ele>206.4</ele><time>2026-04-13T15:35:27.877Z</time></trkpt><trkpt lat="40.6687767" lon="15.0382633"><ele>206.8</ele><time>2026-04-13T15:35:28.874Z</time></trkpt><trkpt lat="40.668895" lon="15.0383417"><ele>207.20000000000002</ele><time>2026-04-13T15:35:30.874Z</time></trkpt><trkpt lat="40.66897" lon="15.0383333"><ele>207.60000000000002</ele><time>2026-04-13T15:35:31.874Z</time></trkpt><trkpt lat="40.6690533" lon="15.03832"><ele>208.0</ele><time>2026-04-13T15:35:32.874Z</time></trkpt><trkpt lat="40.6691433" lon="15.0383133"><ele>211.99999999999997</ele><time>2026-04-13T15:35:33.874Z</time></trkpt><trkpt lat="40.6692167" lon="15.03831"><ele>216.0</ele><time>2026-04-13T15:35:34.875Z</time></trkpt><trkpt lat="40.6692817" lon="15.0383217"><ele>220.0</ele><time>2026-04-13T15:35:35.874Z</time></trkpt><trkpt lat="40.6693567" lon="15.0383383"><ele>224.0</ele><time>2026-04-13T15:35:36.876Z</time></trkpt><trkpt lat="40.6694533" lon="15.0383683"><ele>227.99999999999997</ele><time>2026-04-13T15:35:37.876Z</time></trkpt><trkpt lat="40.6695417" lon="15.0383833"><ele>232.0</ele><time>2026-04-13T15:35:38.874Z</time></trkpt><trkpt lat="40.6696233" lon="15.0383867"><ele>231.99999999999997</ele><time>2026-04-13T15:35:39.874Z</time></trkpt><trkpt lat="40.6697083" lon="15.03838"><ele>232.0</ele><time>2026-04-13T15:35:40.878Z</time></trkpt><trkpt lat="40.6697767" lon="15.0383767"><ele>232.0</ele><time>2026-04-13T15:35:41.874Z</time></trkpt><trkpt lat="40.6698433" lon="15.0383783"><ele>232.0</ele><time>2026-04-13T15:35:42.875Z</time></trkpt><trkpt lat="40.6699033" lon="15.0384083"><ele>231.99999999999997</ele><time>2026-04-13T15:35:43.874Z</time></trkpt><trkpt lat="40.6700183" lon="15.0384567"><ele>232.0</ele><time>2026-04-13T15:35:45.875Z</time></trkpt><trkpt lat="40.670075" lon="15.0385117"><ele>231.99999999999997</ele><time>2026-04-13T15:35:46.876Z</time></trkpt><trkpt lat="40.670115" lon="15.0385867"><ele>232.0</ele><time>2026-04-13T15:35:47.875Z</time></trkpt><trkpt lat="40.67014" lon="15.0386683"><ele>232.0</ele><time>2026-04-13T15:35:48.874Z</time></trkpt><trkpt lat="40.6701617" lon="15.0387483"><ele>232.0</ele><time>2026-04-13T15:35:49.875Z</time></trkpt><trkpt lat="40.6702083" lon="15.038835"><ele>231.99999999999997</ele><time>2026-04-13T15:35:50.874Z</time></trkpt><trkpt lat="40.6702533" lon="15.038945"><ele>232.0</ele><time>2026-04-13T15:35:51.875Z</time></trkpt><trkpt lat="40.6702883" lon="15.039045"><ele>232.2</ele><time>2026-04-13T15:35:52.875Z</time></trkpt><trkpt lat="40.67028" lon="15.039195"><ele>232.39999999999998</ele><time>2026-04-13T15:35:54.875Z</time></trkpt><trkpt lat="40.6703083" lon="15.0393367"><ele>232.60000000000002</ele><time>2026-04-13T15:35:56.875Z</time></trkpt><trkpt lat="40.6704017" lon="15.0393783"><ele>232.8</ele><time>2026-04-13T15:35:59.874Z</time></trkpt><trkpt lat="40.6704883" lon="15.0393667"><ele>233.0</ele><time>2026-04-13T15:36:01.875Z</time></trkpt><trkpt lat="40.6705683" lon="15.03934"><ele>233.0</ele><time>2026-04-13T15:36:02.876Z</time></trkpt><trkpt lat="40.67067" lon="15.03934"><ele>233.0</ele><time>2026-04-13T15:36:03.876Z</time></trkpt><trkpt lat="40.670785" lon="15.0393283"><ele>233.0</ele><time>2026-04-13T15:36:04.877Z</time></trkpt><trkpt lat="40.67088" lon="15.0393067"><ele>233.0</ele><time>2026-04-13T15:36:05.874Z</time></trkpt><trkpt lat="40.6709733" lon="15.0392867"><ele>233.0</ele><time>2026-04-13T15:36:06.875Z</time></trkpt><trkpt lat="40.6710833" lon="15.0392383"><ele>233.60000000000002</ele><time>2026-04-13T15:36:07.879Z</time></trkpt><trkpt lat="40.67119" lon="15.03921"><ele>234.20000000000002</ele><time>2026-04-13T15:36:08.874Z</time></trkpt><trkpt lat="40.6713" lon="15.0391733"><ele>234.8</ele><time>2026-04-13T15:36:09.876Z</time></trkpt><trkpt lat="40.67139" lon="15.0391433"><ele>235.4</ele><time>2026-04-13T15:36:10.875Z</time></trkpt><trkpt lat="40.6714817" lon="15.03912"><ele>236.0</ele><time>2026-04-13T15:36:11.874Z</time></trkpt><trkpt lat="40.671575" lon="15.03909"><ele>232.50000000000003</ele><time>2026-04-13T15:36:12.874Z</time></trkpt><trkpt lat="40.6716467" lon="15.0390533"><ele>229.0</ele><time>2026-04-13T15:36:13.875Z</time></trkpt><trkpt lat="40.6717267" lon="15.0390467"><ele>225.5</ele><time>2026-04-13T15:36:14.874Z</time></trkpt><trkpt lat="40.67179" lon="15.0390417"><ele>222.0</ele><time>2026-04-13T15:36:15.874Z</time></trkpt><trkpt lat="40.671865" lon="15.03905"><ele>218.50000000000003</ele><time>2026-04-13T15:36:16.874Z</time></trkpt><trkpt lat="40.6719383" lon="15.0390717"><ele>215.0</ele><time>2026-04-13T15:36:17.874Z</time></trkpt><trkpt lat="40.67202" lon="15.0390783"><ele>215.00000000000003</ele><time>2026-04-13T15:36:18.874Z</time></trkpt><trkpt lat="40.6721" lon="15.0391267"><ele>215.0</ele><time>2026-04-13T15:36:19.874Z</time></trkpt><trkpt lat="40.6721817" lon="15.0391583"><ele>215.0</ele><time>2026-04-13T15:36:20.874Z</time></trkpt><trkpt lat="40.6722417" lon="15.03922"><ele>215.0</ele><time>2026-04-13T15:36:21.874Z</time></trkpt><trkpt lat="40.6723017" lon="15.0393233"><ele>215.00000000000003</ele><time>2026-04-13T15:36:22.874Z</time></trkpt><trkpt lat="40.67238" lon="15.0394083"><ele>215.0</ele><time>2026-04-13T15:36:23.876Z</time></trkpt><trkpt lat="40.6724417" lon="15.0394783"><ele>216.16666666666669</ele><time>2026-04-13T15:36:24.874Z</time></trkpt><trkpt lat="40.6725217" lon="15.0395183"><ele>217.33333333333334</ele><time>2026-04-13T15:36:25.874Z</time></trkpt><trkpt lat="40.67261" lon="15.039555"><ele>218.5</ele><time>2026-04-13T15:36:26.877Z</time></trkpt><trkpt lat="40.6726917" lon="15.0396"><ele>219.66666666666669</ele><time>2026-04-13T15:36:27.874Z</time></trkpt><trkpt lat="40.6727767" lon="15.0396433"><ele>220.83333333333334</ele><time>2026-04-13T15:36:28.875Z</time></trkpt><trkpt lat="40.6728517" lon="15.0396817"><ele>222.0</ele><time>2026-04-13T15:36:29.874Z</time></trkpt><trkpt lat="40.6729" lon="15.0397467"><ele>222.0</ele><time>2026-04-13T15:36:30.875Z</time></trkpt><trkpt lat="40.6729567" lon="15.0398383"><ele>222.0</ele><time>2026-04-13T15:36:31.875Z</time></trkpt><trkpt lat="40.673005" lon="15.0399283"><ele>222.0</ele><time>2026-04-13T15:36:32.874Z</time></trkpt><trkpt lat="40.6730367" lon="15.0400233"><ele>222.0</ele><time>2026-04-13T15:36:33.875Z</time></trkpt><trkpt lat="40.6730933" lon="15.04009"><ele>222.0</ele><time>2026-04-13T15:36:34.876Z</time></trkpt><trkpt lat="40.6731433" lon="15.0401483"><ele>222.0</ele><time>2026-04-13T15:36:35.874Z</time></trkpt><trkpt lat="40.6731933" lon="15.0402033"><ele>223.33333333333334</ele><time>2026-04-13T15:36:36.874Z</time></trkpt><trkpt lat="40.6732533" lon="15.0402483"><ele>224.66666666666669</ele><time>2026-04-13T15:36:37.876Z</time></trkpt><trkpt lat="40.6733233" lon="15.0402917"><ele>226.0</ele><time>2026-04-13T15:36:38.875Z</time></trkpt><trkpt lat="40.6733917" lon="15.0403633"><ele>227.33333333333334</ele><time>2026-04-13T15:36:39.875Z</time></trkpt><trkpt lat="40.6734483" lon="15.040435"><ele>228.66666666666669</ele><time>2026-04-13T15:36:40.874Z</time></trkpt><trkpt lat="40.6734883" lon="15.04052"><ele>230.0</ele><time>2026-04-13T15:36:41.874Z</time></trkpt><trkpt lat="40.67356" lon="15.0406"><ele>229.2</ele><time>2026-04-13T15:36:42.876Z</time></trkpt><trkpt lat="40.6736133" lon="15.0406983"><ele>228.4</ele><time>2026-04-13T15:36:43.875Z</time></trkpt><trkpt lat="40.6736867" lon="15.0407867"><ele>227.60000000000002</ele><time>2026-04-13T15:36:44.874Z</time></trkpt><trkpt lat="40.67377" lon="15.0409"><ele>226.8</ele><time>2026-04-13T15:36:45.875Z</time></trkpt><trkpt lat="40.6738617" lon="15.0409383"><ele>226.0</ele><time>2026-04-13T15:36:46.874Z</time></trkpt><trkpt lat="40.6739267" lon="15.04103"><ele>225.66666666666666</ele><time>2026-04-13T15:36:48.874Z</time></trkpt><trkpt lat="40.673925" lon="15.041125"><ele>225.33333333333331</ele><time>2026-04-13T15:36:50.874Z</time></trkpt><trkpt lat="40.6739" lon="15.0412233"><ele>225.0</ele><time>2026-04-13T15:36:53.874Z</time></trkpt><trkpt lat="40.6738167" lon="15.0412783"><ele>224.66666666666669</ele><time>2026-04-13T15:36:55.875Z</time></trkpt><trkpt lat="40.6738" lon="15.0413767"><ele>224.33333333333334</ele><time>2026-04-13T15:36:57.874Z</time></trkpt><trkpt lat="40.6737833" lon="15.0415233"><ele>224.0</ele><time>2026-04-13T15:36:59.874Z</time></trkpt><trkpt lat="40.6737583" lon="15.0414233"><ele>224.00000000000003</ele><time>2026-04-13T15:37:06.875Z</time></trkpt><trkpt lat="40.673755" lon="15.0413"><ele>224.0</ele><time>2026-04-13T15:37:08.874Z</time></trkpt><trkpt lat="40.6737717" lon="15.0412067"><ele>224.0</ele><time>2026-04-13T15:37:10.874Z</time></trkpt><trkpt lat="40.6738833" lon="15.041165"><ele>224.0</ele><time>2026-04-13T15:37:31.874Z</time></trkpt><trkpt lat="40.6739483" lon="15.0412267"><ele>224.00000000000003</ele><time>2026-04-13T15:37:36.875Z</time></trkpt><trkpt lat="40.674005" lon="15.0412883"><ele>224.0</ele><time>2026-04-13T15:37:38.874Z</time></trkpt><trkpt lat="40.6740683" lon="15.0413283"><ele>224.0</ele><time>2026-04-13T15:37:40.874Z</time></trkpt><trkpt lat="40.6741467" lon="15.0413183"><ele>223.99999999999997</ele><time>2026-04-13T15:37:43.874Z</time></trkpt><trkpt lat="40.6742183" lon="15.041315"><ele>223.99999999999997</ele><time>2026-04-13T15:37:46.874Z</time></trkpt><trkpt lat="40.67431" lon="15.0413633"><ele>224.0</ele><time>2026-04-13T15:37:50.875Z</time></trkpt><trkpt lat="40.674415" lon="15.0414167"><ele>224.0</ele><time>2026-04-13T15:37:52.875Z</time></trkpt><trkpt lat="40.67453" lon="15.0414717"><ele>225.85714285714286</ele><time>2026-04-13T15:37:54.874Z</time></trkpt><trkpt lat="40.674605" lon="15.0414617"><ele>227.71428571428572</ele><time>2026-04-13T15:37:56.876Z</time></trkpt><trkpt lat="40.6746767" lon="15.0414767"><ele>229.57142857142856</ele><time>2026-04-13T15:37:59.875Z</time></trkpt><trkpt lat="40.6747533" lon="15.0414983"><ele>231.42857142857142</ele><time>2026-04-13T15:38:02.874Z</time></trkpt><trkpt lat="40.6748233" lon="15.0414867"><ele>233.28571428571428</ele><time>2026-04-13T15:38:06.874Z</time></trkpt><trkpt lat="40.67489" lon="15.041515"><ele>235.1428571428571</ele><time>2026-04-13T15:38:09.876Z</time></trkpt><trkpt lat="40.674945" lon="15.04156"><ele>236.99999999999997</ele><time>2026-04-13T15:38:11.874Z</time></trkpt><trkpt lat="40.6750033" lon="15.041595"><ele>237.0</ele><time>2026-04-13T15:38:13.875Z</time></trkpt><trkpt lat="40.6750833" lon="15.0416033"><ele>237.0</ele><time>2026-04-13T15:38:16.874Z</time></trkpt><trkpt lat="40.67511" lon="15.041515"><ele>237.0</ele><time>2026-04-13T15:38:18.875Z</time></trkpt><trkpt lat="40.6750633" lon="15.0414133"><ele>237.0</ele><time>2026-04-13T15:38:20.874Z</time></trkpt><trkpt lat="40.67502" lon="15.0413483"><ele>237.0</ele><time>2026-04-13T15:38:22.873Z</time></trkpt><trkpt lat="40.674945" lon="15.0412933"><ele>237.0</ele><time>2026-04-13T15:38:24.874Z</time></trkpt><trkpt lat="40.67488" lon="15.04119"><ele>237.0</ele><time>2026-04-13T15:38:27.873Z</time></trkpt><trkpt lat="40.6749167" lon="15.04106"><ele>237.0</ele><time>2026-04-13T15:38:30.874Z</time></trkpt><trkpt lat="40.6749067" lon="15.0409767"><ele>237.0</ele><time>2026-04-13T15:38:37.874Z</time></trkpt><trkpt lat="40.674855" lon="15.0409067"><ele>237.0</ele><time>2026-04-13T15:38:44.873Z</time></trkpt><trkpt lat="40.67491" lon="15.0409617"><ele>237.0</ele><time>2026-04-13T15:38:53.873Z</time></trkpt><trkpt lat="40.6748467" lon="15.0410333"><ele>237.0</ele><time>2026-04-13T15:39:03.874Z</time></trkpt><trkpt lat="40.674755" lon="15.0410183"><ele>237.0</ele><time>2026-04-13T15:39:06.873Z</time></trkpt><trkpt lat="40.6746717" lon="15.0410017"><ele>237.0</ele><time>2026-04-13T15:39:08.874Z</time></trkpt><trkpt lat="40.6745883" lon="15.0410233"><ele>237.0</ele><time>2026-04-13T15:39:10.873Z</time></trkpt><trkpt lat="40.67452" lon="15.0410267"><ele>237.0</ele><time>2026-04-13T15:39:13.874Z</time></trkpt><trkpt lat="40.6744683" lon="15.04094"><ele>237.0</ele><time>2026-04-13T15:39:22.873Z</time></trkpt><trkpt lat="40.6744017" lon="15.04093"><ele>237.0</ele><time>2026-04-13T15:39:30.875Z</time></trkpt><trkpt lat="40.6537405" lon="14.9806432"><ele>137.0</ele><time>2026-04-13T15:53:31.815Z</time></trkpt></trkseg><trkseg><trkpt lat="40.6672483" lon="15.0242033"><ele>572.0</ele><time>2026-04-13T15:54:32.879Z</time></trkpt><trkpt lat="40.66728" lon="15.02407"><ele>572.0</ele><time>2026-04-13T15:54:45.873Z</time></trkpt><trkpt lat="40.66728" lon="15.0241667"><ele>572.0</ele><time>2026-04-13T15:54:49.874Z</time></trkpt><trkpt lat="40.66728" lon="15.0242717"><ele>572.0</ele><time>2026-04-13T15:54:50.875Z</time></trkpt><trkpt lat="40.6672933" lon="15.0244433"><ele>572.0</ele><time>2026-04-13T15:54:52.873Z</time></trkpt><trkpt lat="40.6673417" lon="15.0245533"><ele>572.0</ele><time>2026-04-13T15:54:54.875Z</time></trkpt><trkpt lat="40.6673767" lon="15.02466"><ele>572.0</ele><time>2026-04-13T15:54:56.874Z</time></trkpt><trkpt lat="40.6674067" lon="15.024735"><ele>572.0</ele><time>2026-04-13T15:54:58.873Z</time></trkpt><trkpt lat="40.6674517" lon="15.0247933"><ele>572.0</ele><time>2026-04-13T15:55:00.873Z</time></trkpt><trkpt lat="40.6674533" lon="15.024885"><ele>572.0</ele><time>2026-04-13T15:55:03.874Z</time></trkpt><trkpt lat="40.6674317" lon="15.0249967"><ele>572.0</ele><time>2026-04-13T15:55:05.874Z</time></trkpt><trkpt lat="40.667355" lon="15.02501"><ele>572.0</ele><time>2026-04-13T15:55:08.875Z</time></trkpt><trkpt lat="40.6672983" lon="15.0249383"><ele>572.0</ele><time>2026-04-13T15:55:10.874Z</time></trkpt><trkpt lat="40.6672267" lon="15.0248617"><ele>572.0</ele><time>2026-04-13T15:55:12.873Z</time></trkpt><trkpt lat="40.6671633" lon="15.0247717"><ele>572.0</ele><time>2026-04-13T15:55:14.874Z</time></trkpt><trkpt lat="40.6670717" lon="15.0246667"><ele>572.0</ele><time>2026-04-13T15:55:16.873Z</time></trkpt><trkpt lat="40.6669967" lon="15.0245967"><ele>574.1666666666666</ele><time>2026-04-13T15:55:18.88Z</time></trkpt><trkpt lat="40.6669033" lon="15.0245583"><ele>576.3333333333333</ele><time>2026-04-13T15:55:20.877Z</time></trkpt><trkpt lat="40.6668017" lon="15.02451"><ele>578.5</ele><time>2026-04-13T15:55:22.874Z</time></trkpt><trkpt lat="40.6667283" lon="15.0245617"><ele>580.6666666666666</ele><time>2026-04-13T15:55:25.876Z</time></trkpt><trkpt lat="40.6667117" lon="15.024685"><ele>582.8333333333334</ele><time>2026-04-13T15:55:28.873Z</time></trkpt><trkpt lat="40.6667083" lon="15.02477"><ele>585.0</ele><time>2026-04-13T15:55:30.873Z</time></trkpt><trkpt lat="40.6666617" lon="15.0248383"><ele>585.0</ele><time>2026-04-13T15:55:35.873Z</time></trkpt><trkpt lat="40.6665983" lon="15.0248483"><ele>585.0</ele><time>2026-04-13T15:55:42.874Z</time></trkpt><trkpt lat="40.6665433" lon="15.0249183"><ele>585.0</ele><time>2026-04-13T15:55:45.873Z</time></trkpt><trkpt lat="40.666495" lon="15.0250167"><ele>585.0</ele><time>2026-04-13T15:55:48.873Z</time></trkpt><trkpt lat="40.66649" lon="15.0249"><ele>585.0</ele><time>2026-04-13T15:55:54.875Z</time></trkpt><trkpt lat="40.6665633" lon="15.02484"><ele>585.0</ele><time>2026-04-13T15:55:57.873Z</time></trkpt><trkpt lat="40.6666283" lon="15.0247917"><ele>585.0</ele><time>2026-04-13T15:55:59.874Z</time></trkpt><trkpt lat="40.666645" lon="15.0247017"><ele>585.0</ele><time>2026-04-13T15:56:02.873Z</time></trkpt><trkpt lat="40.6665883" lon="15.02462"><ele>585.0</ele><time>2026-04-13T15:56:05.873Z</time></trkpt><trkpt lat="40.6665167" lon="15.0245467"><ele>585.0</ele><time>2026-04-13T15:56:08.873Z</time></trkpt><trkpt lat="40.666405" lon="15.02454"><ele>585.0</ele><time>2026-04-13T15:56:11.874Z</time></trkpt><trkpt lat="40.666375" lon="15.024455"><ele>585.0</ele><time>2026-04-13T15:56:15.874Z</time></trkpt><trkpt lat="40.6664517" lon="15.02445"><ele>585.0</ele><time>2026-04-13T15:56:20.874Z</time></trkpt><trkpt lat="40.6665367" lon="15.0244767"><ele>585.0</ele><time>2026-04-13T15:56:23.873Z</time></trkpt><trkpt lat="40.6666033" lon="15.0244867"><ele>585.0</ele><time>2026-04-13T15:56:24.873Z</time></trkpt><trkpt lat="40.66672" lon="15.0244983"><ele>585.0</ele><time>2026-04-13T15:56:26.875Z</time></trkpt><trkpt lat="40.666795" lon="15.024535"><ele>585.0</ele><time>2026-04-13T15:56:28.873Z</time></trkpt><trkpt lat="40.6668617" lon="15.0245767"><ele>585.0</ele><time>2026-04-13T15:56:30.873Z</time></trkpt><trkpt lat="40.6669417" lon="15.0246333"><ele>582.4</ele><time>2026-04-13T15:56:32.875Z</time></trkpt><trkpt lat="40.667015" lon="15.0247083"><ele>579.8</ele><time>2026-04-13T15:56:34.875Z</time></trkpt><trkpt lat="40.6670967" lon="15.0248033"><ele>577.2</ele><time>2026-04-13T15:56:36.874Z</time></trkpt><trkpt lat="40.6671767" lon="15.0249"><ele>574.6</ele><time>2026-04-13T15:56:38.876Z</time></trkpt><trkpt lat="40.6672517" lon="15.024985"><ele>572.0</ele><time>2026-04-13T15:56:40.873Z</time></trkpt><trkpt lat="40.667315" lon="15.0250533"><ele>572.0</ele><time>2026-04-13T15:56:42.874Z</time></trkpt><trkpt lat="40.6673817" lon="15.0250417"><ele>572.0</ele><time>2026-04-13T15:56:44.874Z</time></trkpt><trkpt lat="40.6674283" lon="15.024975"><ele>572.0</ele><time>2026-04-13T15:56:46.873Z</time></trkpt><trkpt lat="40.6674317" lon="15.024875"><ele>572.0</ele><time>2026-04-13T15:56:48.873Z</time></trkpt><trkpt lat="40.6674017" lon="15.0247517"><ele>572.0</ele><time>2026-04-13T15:56:50.876Z</time></trkpt><trkpt lat="40.6673683" lon="15.024645"><ele>572.0</ele><time>2026-04-13T15:56:52.876Z</time></trkpt><trkpt lat="40.6673367" lon="15.0245517"><ele>572.0</ele><time>2026-04-13T15:56:54.874Z</time></trkpt><trkpt lat="40.6673017" lon="15.0244317"><ele>572.0</ele><time>2026-04-13T15:56:56.873Z</time></trkpt><trkpt lat="40.6673017" lon="15.0243167"><ele>572.0</ele><time>2026-04-13T15:56:58.873Z</time></trkpt><trkpt lat="40.667365" lon="15.0243133"><ele>572.0</ele><time>2026-04-13T15:57:01.874Z</time></trkpt><trkpt lat="40.667475" lon="15.0243317"><ele>572.0</ele><time>2026-04-13T15:57:03.875Z</time></trkpt><trkpt lat="40.66754" lon="15.0243417"><ele>572.0</ele><time>2026-04-13T15:57:04.873Z</time></trkpt><trkpt lat="40.6676217" lon="15.0243517"><ele>572.0</ele><time>2026-04-13T15:57:05.879Z</time></trkpt><trkpt lat="40.6677133" lon="15.02437"><ele>572.0</ele><time>2026-04-13T15:57:06.873Z</time></trkpt><trkpt lat="40.6678033" lon="15.0243883"><ele>572.0</ele><time>2026-04-13T15:57:07.875Z</time></trkpt><trkpt lat="40.6678917" lon="15.0243917"><ele>572.0</ele><time>2026-04-13T15:57:08.874Z</time></trkpt><trkpt lat="40.6679783" lon="15.024405"><ele>572.0</ele><time>2026-04-13T15:57:09.874Z</time></trkpt><trkpt lat="40.6680583" lon="15.02442"><ele>572.0</ele><time>2026-04-13T15:57:10.875Z</time></trkpt><trkpt lat="40.6681433" lon="15.0244233"><ele>567.5</ele><time>2026-04-13T15:57:11.874Z</time></trkpt><trkpt lat="40.6682267" lon="15.0244383"><ele>563.0</ele><time>2026-04-13T15:57:12.875Z</time></trkpt><trkpt lat="40.6682967" lon="15.024465"><ele>558.5</ele><time>2026-04-13T15:57:13.874Z</time></trkpt><trkpt lat="40.6683617" lon="15.0245267"><ele>554.0</ele><time>2026-04-13T15:57:14.873Z</time></trkpt><trkpt lat="40.6684333" lon="15.02466"><ele>549.5</ele><time>2026-04-13T15:57:16.873Z</time></trkpt><trkpt lat="40.668475" lon="15.0247317"><ele>545.0</ele><time>2026-04-13T15:57:17.876Z</time></trkpt><trkpt lat="40.6685783" lon="15.0248167"><ele>544.5</ele><time>2026-04-13T15:57:19.873Z</time></trkpt><trkpt lat="40.668655" lon="15.024865"><ele>544.0</ele><time>2026-04-13T15:57:20.873Z</time></trkpt><trkpt lat="40.668725" lon="15.0249317"><ele>543.5</ele><time>2026-04-13T15:57:21.873Z</time></trkpt><trkpt lat="40.6688" lon="15.0250017"><ele>543.0</ele><time>2026-04-13T15:57:22.873Z</time></trkpt><trkpt lat="40.668875" lon="15.0250767"><ele>542.5</ele><time>2026-04-13T15:57:23.877Z</time></trkpt><trkpt lat="40.66893" lon="15.0251467"><ele>542.0</ele><time>2026-04-13T15:57:24.874Z</time></trkpt><trkpt lat="40.6689967" lon="15.0251967"><ele>542.0</ele><time>2026-04-13T15:57:25.873Z</time></trkpt><trkpt lat="40.6690583" lon="15.0252267"><ele>542.0</ele><time>2026-04-13T15:57:26.873Z</time></trkpt><trkpt lat="40.6691333" lon="15.0252467"><ele>542.0</ele><time>2026-04-13T15:57:27.874Z</time></trkpt><trkpt lat="40.6691983" lon="15.025275"><ele>542.0</ele><time>2026-04-13T15:57:28.874Z</time></trkpt><trkpt lat="40.669295" lon="15.0253633"><ele>542.0</ele><time>2026-04-13T15:57:30.873Z</time></trkpt><trkpt lat="40.6693517" lon="15.02544"><ele>542.0</ele><time>2026-04-13T15:57:32.873Z</time></trkpt><trkpt lat="40.6694567" lon="15.0254267"><ele>538.6666666666666</ele><time>2026-04-13T15:57:34.874Z</time></trkpt><trkpt lat="40.669535" lon="15.0254033"><ele>535.3333333333333</ele><time>2026-04-13T15:57:35.874Z</time></trkpt><trkpt lat="40.6696133" lon="15.0253883"><ele>532.0</ele><time>2026-04-13T15:57:36.874Z</time></trkpt><trkpt lat="40.6697033" lon="15.0253583"><ele>528.6666666666666</ele><time>2026-04-13T15:57:37.875Z</time></trkpt><trkpt lat="40.6697917" lon="15.0253067"><ele>525.3333333333334</ele><time>2026-04-13T15:57:38.873Z</time></trkpt><trkpt lat="40.6698733" lon="15.025285"><ele>522.0</ele><time>2026-04-13T15:57:39.873Z</time></trkpt><trkpt lat="40.6699733" lon="15.02529"><ele>522.0</ele><time>2026-04-13T15:57:40.875Z</time></trkpt><trkpt lat="40.67005" lon="15.0252667"><ele>522.0</ele><time>2026-04-13T15:57:41.875Z</time></trkpt><trkpt lat="40.6701483" lon="15.025305"><ele>522.0</ele><time>2026-04-13T15:57:42.874Z</time></trkpt><trkpt lat="40.6702617" lon="15.0253783"><ele>522.0</ele><time>2026-04-13T15:57:43.873Z</time></trkpt><trkpt lat="40.6703717" lon="15.02546"><ele>522.0</ele><time>2026-04-13T15:57:44.873Z</time></trkpt><trkpt lat="40.6704733" lon="15.02553"><ele>520.0</ele><time>2026-04-13T15:57:45.873Z</time></trkpt><trkpt lat="40.670565" lon="15.0256017"><ele>518.0</ele><time>2026-04-13T15:57:46.873Z</time></trkpt><trkpt lat="40.670645" lon="15.0256317"><ele>516.0</ele><time>2026-04-13T15:57:47.873Z</time></trkpt><trkpt lat="40.6707283" lon="15.0256367"><ele>514.0</ele><time>2026-04-13T15:57:48.873Z</time></trkpt><trkpt lat="40.6708083" lon="15.025635"><ele>512.0</ele><time>2026-04-13T15:57:49.873Z</time></trkpt><trkpt lat="40.67089" lon="15.0256417"><ele>510.0</ele><time>2026-04-13T15:57:50.874Z</time></trkpt><trkpt lat="40.670955" lon="15.025665"><ele>510.0</ele><time>2026-04-13T15:57:51.873Z</time></trkpt><trkpt lat="40.6710283" lon="15.02568"><ele>510.0</ele><time>2026-04-13T15:57:52.873Z</time></trkpt><trkpt lat="40.671095" lon="15.0257"><ele>510.0</ele><time>2026-04-13T15:57:53.873Z</time></trkpt><trkpt lat="40.6711733" lon="15.025715"><ele>510.0</ele><time>2026-04-13T15:57:54.876Z</time></trkpt><trkpt lat="40.67124" lon="15.0257517"><ele>510.0</ele><time>2026-04-13T15:57:55.873Z</time></trkpt><trkpt lat="40.6713117" lon="15.0257933"><ele>510.0</ele><time>2026-04-13T15:57:56.873Z</time></trkpt><trkpt lat="40.6713867" lon="15.025835"><ele>512.8333333333334</ele><time>2026-04-13T15:57:57.873Z</time></trkpt><trkpt lat="40.6714617" lon="15.0258667"><ele>515.6666666666666</ele><time>2026-04-13T15:57:58.873Z</time></trkpt><trkpt lat="40.6715383" lon="15.02589"><ele>518.5</ele><time>2026-04-13T15:57:59.873Z</time></trkpt><trkpt lat="40.6716667" lon="15.0258917"><ele>521.3333333333333</ele><time>2026-04-13T15:58:01.873Z</time></trkpt><trkpt lat="40.6717317" lon="15.0259017"><ele>524.1666666666666</ele><time>2026-04-13T15:58:02.873Z</time></trkpt><trkpt lat="40.67181" lon="15.02591"><ele>527.0</ele><time>2026-04-13T15:58:03.875Z</time></trkpt><trkpt lat="40.6718833" lon="15.0259117"><ele>522.3333333333333</ele><time>2026-04-13T15:58:04.873Z</time></trkpt><trkpt lat="40.6719583" lon="15.0259217"><ele>517.6666666666666</ele><time>2026-04-13T15:58:05.877Z</time></trkpt><trkpt lat="40.672045" lon="15.0259517"><ele>513.0</ele><time>2026-04-13T15:58:06.873Z</time></trkpt><trkpt lat="40.672115" lon="15.0259867"><ele>508.33333333333337</ele><time>2026-04-13T15:58:07.873Z</time></trkpt><trkpt lat="40.672195" lon="15.0260183"><ele>503.6666666666667</ele><time>2026-04-13T15:58:08.873Z</time></trkpt><trkpt lat="40.6722633" lon="15.0260467"><ele>499.0</ele><time>2026-04-13T15:58:09.873Z</time></trkpt><trkpt lat="40.6723433" lon="15.0260983"><ele>499.0</ele><time>2026-04-13T15:58:10.873Z</time></trkpt><trkpt lat="40.6724167" lon="15.0261583"><ele>499.0</ele><time>2026-04-13T15:58:11.873Z</time></trkpt><trkpt lat="40.6724917" lon="15.02622"><ele>499.0</ele><time>2026-04-13T15:58:12.873Z</time></trkpt><trkpt lat="40.6725717" lon="15.0262983"><ele>499.0</ele><time>2026-04-13T15:58:13.873Z</time></trkpt><trkpt lat="40.6726533" lon="15.02638"><ele>499.0</ele><time>2026-04-13T15:58:14.873Z</time></trkpt><trkpt lat="40.6727467" lon="15.02648"><ele>498.0</ele><time>2026-04-13T15:58:15.876Z</time></trkpt><trkpt lat="40.67283" lon="15.0265617"><ele>497.0</ele><time>2026-04-13T15:58:16.874Z</time></trkpt><trkpt lat="40.6729067" lon="15.02664"><ele>496.0</ele><time>2026-04-13T15:58:17.874Z</time></trkpt><trkpt lat="40.6729967" lon="15.02676"><ele>495.0</ele><time>2026-04-13T15:58:18.873Z</time></trkpt><trkpt lat="40.6730867" lon="15.0268483"><ele>494.0</ele><time>2026-04-13T15:58:19.873Z</time></trkpt><trkpt lat="40.6731717" lon="15.0269467"><ele>493.99999999999994</ele><time>2026-04-13T15:58:20.873Z</time></trkpt><trkpt lat="40.6732617" lon="15.0270267"><ele>494.0</ele><time>2026-04-13T15:58:21.874Z</time></trkpt><trkpt lat="40.6733283" lon="15.0271033"><ele>494.0</ele><time>2026-04-13T15:58:22.874Z</time></trkpt><trkpt lat="40.6733983" lon="15.0271567"><ele>494.0</ele><time>2026-04-13T15:58:23.873Z</time></trkpt><trkpt lat="40.6734783" lon="15.02724"><ele>493.99999999999994</ele><time>2026-04-13T15:58:25.873Z</time></trkpt><trkpt lat="40.673545" lon="15.0272533"><ele>494.0</ele><time>2026-04-13T15:58:27.873Z</time></trkpt><trkpt lat="40.6736533" lon="15.0272667"><ele>493.6</ele><time>2026-04-13T15:58:29.876Z</time></trkpt><trkpt lat="40.6737367" lon="15.0273033"><ele>493.2</ele><time>2026-04-13T15:58:30.876Z</time></trkpt><trkpt lat="40.6738167" lon="15.0273533"><ele>492.80000000000007</ele><time>2026-04-13T15:58:31.876Z</time></trkpt><trkpt lat="40.6738967" lon="15.0274217"><ele>492.40000000000003</ele><time>2026-04-13T15:58:32.873Z</time></trkpt><trkpt lat="40.673975" lon="15.0274883"><ele>492.0</ele><time>2026-04-13T15:58:33.873Z</time></trkpt><trkpt lat="40.674055" lon="15.0275433"><ele>492.0</ele><time>2026-04-13T15:58:34.873Z</time></trkpt><trkpt lat="40.6741367" lon="15.027585"><ele>492.0</ele><time>2026-04-13T15:58:35.874Z</time></trkpt><trkpt lat="40.6741983" lon="15.027645"><ele>492.0</ele><time>2026-04-13T15:58:36.874Z</time></trkpt><trkpt lat="40.6742667" lon="15.02766"><ele>492.0</ele><time>2026-04-13T15:58:37.873Z</time></trkpt><trkpt lat="40.67432" lon="15.0277083"><ele>492.0</ele><time>2026-04-13T15:58:38.874Z</time></trkpt><trkpt lat="40.6743733" lon="15.0277633"><ele>492.0</ele><time>2026-04-13T15:58:39.874Z</time></trkpt><trkpt lat="40.674465" lon="15.0278683"><ele>487.0</ele><time>2026-04-13T15:58:41.874Z</time></trkpt><trkpt lat="40.6745217" lon="15.0279867"><ele>482.0</ele><time>2026-04-13T15:58:43.873Z</time></trkpt><trkpt lat="40.67464" lon="15.02804"><ele>477.0</ele><time>2026-04-13T15:58:45.873Z</time></trkpt><trkpt lat="40.6747567" lon="15.028095"><ele>472.0</ele><time>2026-04-13T15:58:47.873Z</time></trkpt><trkpt lat="40.67486" lon="15.0280567"><ele>472.0</ele><time>2026-04-13T15:58:49.873Z</time></trkpt><trkpt lat="40.6749917" lon="15.028015"><ele>472.00000000000006</ele><time>2026-04-13T15:58:51.875Z</time></trkpt><trkpt lat="40.6750683" lon="15.02804"><ele>472.00000000000006</ele><time>2026-04-13T15:58:52.873Z</time></trkpt><trkpt lat="40.6751217" lon="15.02809"><ele>472.0</ele><time>2026-04-13T15:58:54.876Z</time></trkpt><trkpt lat="40.6750967" lon="15.0282267"><ele>472.0</ele><time>2026-04-13T15:58:56.875Z</time></trkpt><trkpt lat="40.675055" lon="15.0283333"><ele>472.6</ele><time>2026-04-13T15:58:58.876Z</time></trkpt><trkpt lat="40.6751483" lon="15.02834"><ele>473.20000000000005</ele><time>2026-04-13T15:59:02.874Z</time></trkpt><trkpt lat="40.6752417" lon="15.028315"><ele>473.8</ele><time>2026-04-13T15:59:04.874Z</time></trkpt><trkpt lat="40.67534" lon="15.0282867"><ele>474.4</ele><time>2026-04-13T15:59:06.874Z</time></trkpt><trkpt lat="40.6753983" lon="15.0282033"><ele>475.0</ele><time>2026-04-13T15:59:08.874Z</time></trkpt><trkpt lat="40.6754333" lon="15.028095"><ele>475.0</ele><time>2026-04-13T15:59:10.876Z</time></trkpt><trkpt lat="40.6754167" lon="15.02794"><ele>475.0</ele><time>2026-04-13T15:59:12.875Z</time></trkpt><trkpt lat="40.6753717" lon="15.0278433"><ele>475.0</ele><time>2026-04-13T15:59:13.875Z</time></trkpt><trkpt lat="40.6753167" lon="15.0277383"><ele>475.0</ele><time>2026-04-13T15:59:14.876Z</time></trkpt><trkpt lat="40.6752567" lon="15.0276467"><ele>475.0</ele><time>2026-04-13T15:59:15.875Z</time></trkpt><trkpt lat="40.6751917" lon="15.0275683"><ele>474.50000000000006</ele><time>2026-04-13T15:59:16.875Z</time></trkpt><trkpt lat="40.6751233" lon="15.0275"><ele>474.0</ele><time>2026-04-13T15:59:17.875Z</time></trkpt><trkpt lat="40.67505" lon="15.027435"><ele>473.5</ele><time>2026-04-13T15:59:18.875Z</time></trkpt><trkpt lat="40.6749867" lon="15.02737"><ele>473.0</ele><time>2026-04-13T15:59:19.875Z</time></trkpt><trkpt lat="40.67492" lon="15.027305"><ele>472.50000000000006</ele><time>2026-04-13T15:59:20.874Z</time></trkpt><trkpt lat="40.6748583" lon="15.027235"><ele>472.0</ele><time>2026-04-13T15:59:21.874Z</time></trkpt><trkpt lat="40.674815" lon="15.02715"><ele>469.50000000000006</ele><time>2026-04-13T15:59:22.874Z</time></trkpt><trkpt lat="40.67477" lon="15.02706"><ele>467.0</ele><time>2026-04-13T15:59:23.874Z</time></trkpt><trkpt lat="40.67473" lon="15.0269483"><ele>464.5</ele><time>2026-04-13T15:59:24.874Z</time></trkpt><trkpt lat="40.674675" lon="15.0268567"><ele>462.0</ele><time>2026-04-13T15:59:25.875Z</time></trkpt><trkpt lat="40.67462" lon="15.0267667"><ele>459.50000000000006</ele><time>2026-04-13T15:59:26.873Z</time></trkpt><trkpt lat="40.6745583" lon="15.0266917"><ele>457.0</ele><time>2026-04-13T15:59:27.874Z</time></trkpt><trkpt lat="40.674495" lon="15.0266183"><ele>455.83333333333337</ele><time>2026-04-13T15:59:28.874Z</time></trkpt><trkpt lat="40.6744267" lon="15.0265383"><ele>454.6666666666667</ele><time>2026-04-13T15:59:29.873Z</time></trkpt><trkpt lat="40.67438" lon="15.0264617"><ele>453.5</ele><time>2026-04-13T15:59:30.876Z</time></trkpt><trkpt lat="40.6744067" lon="15.0263667"><ele>452.33333333333337</ele><time>2026-04-13T15:59:33.873Z</time></trkpt><trkpt lat="40.67442" lon="15.0262783"><ele>451.1666666666667</ele><time>2026-04-13T15:59:34.875Z</time></trkpt><trkpt lat="40.6744217" lon="15.0261817"><ele>450.0</ele><time>2026-04-13T15:59:35.873Z</time></trkpt><trkpt lat="40.6744233" lon="15.02607"><ele>450.0</ele><time>2026-04-13T15:59:36.873Z</time></trkpt><trkpt lat="40.674425" lon="15.025945"><ele>450.0</ele><time>2026-04-13T15:59:37.875Z</time></trkpt><trkpt lat="40.6744233" lon="15.0258083"><ele>450.0</ele><time>2026-04-13T15:59:38.874Z</time></trkpt><trkpt lat="40.6744083" lon="15.0256883"><ele>450.0</ele><time>2026-04-13T15:59:39.873Z</time></trkpt><trkpt lat="40.6744" lon="15.025565"><ele>450.0</ele><time>2026-04-13T15:59:40.873Z</time></trkpt><trkpt lat="40.6743917" lon="15.0254417"><ele>446.1666666666667</ele><time>2026-04-13T15:59:41.873Z</time></trkpt><trkpt lat="40.674365" lon="15.0253283"><ele>442.33333333333337</ele><time>2026-04-13T15:59:42.873Z</time></trkpt><trkpt lat="40.6743267" lon="15.0252467"><ele>438.5</ele><time>2026-04-13T15:59:43.875Z</time></trkpt><trkpt lat="40.6743017" lon="15.02512"><ele>434.6666666666667</ele><time>2026-04-13T15:59:45.873Z</time></trkpt><trkpt lat="40.6743283" lon="15.02504"><ele>430.83333333333337</ele><time>2026-04-13T15:59:46.874Z</time></trkpt><trkpt lat="40.6743917" lon="15.0249867"><ele>427.0</ele><time>2026-04-13T15:59:47.873Z</time></trkpt><trkpt lat="40.6744817" lon="15.02505"><ele>423.25</ele><time>2026-04-13T15:59:48.876Z</time></trkpt><trkpt lat="40.6745567" lon="15.0251433"><ele>419.5</ele><time>2026-04-13T15:59:49.873Z</time></trkpt><trkpt lat="40.674635" lon="15.0252583"><ele>415.75</ele><time>2026-04-13T15:59:50.876Z</time></trkpt><trkpt lat="40.674685" lon="15.0254033"><ele>412.0</ele><time>2026-04-13T15:59:51.875Z</time></trkpt><trkpt lat="40.67473" lon="15.0255433"><ele>412.00000000000006</ele><time>2026-04-13T15:59:52.873Z</time></trkpt><trkpt lat="40.67478" lon="15.0256717"><ele>412.0</ele><time>2026-04-13T15:59:53.875Z</time></trkpt><trkpt lat="40.6748433" lon="15.0256817"><ele>412.0</ele><time>2026-04-13T15:59:55.876Z</time></trkpt><trkpt lat="40.6748817" lon="15.02558"><ele>412.0</ele><time>2026-04-13T15:59:57.873Z</time></trkpt><trkpt lat="40.6748467" lon="15.02551"><ele>412.00000000000006</ele><time>2026-04-13T15:59:58.873Z</time></trkpt><trkpt lat="40.6748133" lon="15.0254333"><ele>412.0</ele><time>2026-04-13T15:59:59.874Z</time></trkpt><trkpt lat="40.674785" lon="15.0253533"><ele>412.00000000000006</ele><time>2026-04-13T16:00:00.877Z</time></trkpt><trkpt lat="40.6747717" lon="15.0252717"><ele>412.0</ele><time>2026-04-13T16:00:01.873Z</time></trkpt><trkpt lat="40.6747617" lon="15.0251717"><ele>412.0</ele><time>2026-04-13T16:00:02.873Z</time></trkpt><trkpt lat="40.6747433" lon="15.0250567"><ele>412.0</ele><time>2026-04-13T16:00:03.876Z</time></trkpt><trkpt lat="40.6747167" lon="15.024955"><ele>412.00000000000006</ele><time>2026-04-13T16:00:04.875Z</time></trkpt><trkpt lat="40.67464" lon="15.0248467"><ele>412.0</ele><time>2026-04-13T16:00:05.873Z</time></trkpt><trkpt lat="40.6745683" lon="15.024745"><ele>409.33333333333337</ele><time>2026-04-13T16:00:06.873Z</time></trkpt><trkpt lat="40.6745067" lon="15.02466"><ele>406.6666666666667</ele><time>2026-04-13T16:00:07.873Z</time></trkpt><trkpt lat="40.6744683" lon="15.0245867"><ele>404.0</ele><time>2026-04-13T16:00:09.873Z</time></trkpt><trkpt lat="40.67456" lon="15.02458"><ele>401.33333333333337</ele><time>2026-04-13T16:00:11.873Z</time></trkpt><trkpt lat="40.6746017" lon="15.0246583"><ele>398.6666666666667</ele><time>2026-04-13T16:00:12.876Z</time></trkpt><trkpt lat="40.6746517" lon="15.0247283"><ele>396.0</ele><time>2026-04-13T16:00:14.873Z</time></trkpt><trkpt lat="40.6746" lon="15.0246783"><ele>396.0</ele><time>2026-04-13T16:00:16.873Z</time></trkpt><trkpt lat="40.6745517" lon="15.024595"><ele>396.0</ele><time>2026-04-13T16:00:17.873Z</time></trkpt><trkpt lat="40.6745067" lon="15.0245183"><ele>396.0</ele><time>2026-04-13T16:00:18.874Z</time></trkpt><trkpt lat="40.67446" lon="15.0244367"><ele>396.0</ele><time>2026-04-13T16:00:19.873Z</time></trkpt><trkpt lat="40.6744133" lon="15.0243183"><ele>396.0</ele><time>2026-04-13T16:00:20.873Z</time></trkpt><trkpt lat="40.6743667" lon="15.0242183"><ele>396.0</ele><time>2026-04-13T16:00:21.875Z</time></trkpt><trkpt lat="40.6743267" lon="15.02411"><ele>394.5</ele><time>2026-04-13T16:00:22.875Z</time></trkpt><trkpt lat="40.6742983" lon="15.0239983"><ele>393.0</ele><time>2026-04-13T16:00:23.875Z</time></trkpt><trkpt lat="40.6742783" lon="15.023885"><ele>391.5</ele><time>2026-04-13T16:00:24.875Z</time></trkpt><trkpt lat="40.674255" lon="15.023775"><ele>390.0</ele><time>2026-04-13T16:00:25.873Z</time></trkpt><trkpt lat="40.674245" lon="15.0236817"><ele>388.5</ele><time>2026-04-13T16:00:26.873Z</time></trkpt><trkpt lat="40.67424" lon="15.0235417"><ele>387.0</ele><time>2026-04-13T16:00:28.874Z</time></trkpt><trkpt lat="40.6741733" lon="15.0235"><ele>387.0</ele><time>2026-04-13T16:00:29.873Z</time></trkpt><trkpt lat="40.6740533" lon="15.023455"><ele>387.0</ele><time>2026-04-13T16:00:31.872Z</time></trkpt><trkpt lat="40.6739867" lon="15.02344"><ele>387.0</ele><time>2026-04-13T16:00:32.873Z</time></trkpt><trkpt lat="40.6739133" lon="15.02342"><ele>387.0</ele><time>2026-04-13T16:00:33.873Z</time></trkpt><trkpt lat="40.6737783" lon="15.0234033"><ele>387.0</ele><time>2026-04-13T16:00:35.873Z</time></trkpt><trkpt lat="40.673715" lon="15.0233917"><ele>387.0</ele><time>2026-04-13T16:00:36.875Z</time></trkpt><trkpt lat="40.67363" lon="15.0233983"><ele>387.0</ele><time>2026-04-13T16:00:37.874Z</time></trkpt><trkpt lat="40.67352" lon="15.0233533"><ele>387.0</ele><time>2026-04-13T16:00:39.874Z</time></trkpt><trkpt lat="40.6734017" lon="15.0233267"><ele>387.0</ele><time>2026-04-13T16:00:41.873Z</time></trkpt><trkpt lat="40.6733417" lon="15.0232633"><ele>387.0</ele><time>2026-04-13T16:00:42.873Z</time></trkpt><trkpt lat="40.6732233" lon="15.0232583"><ele>385.6</ele><time>2026-04-13T16:00:44.876Z</time></trkpt><trkpt lat="40.6731533" lon="15.0232567"><ele>384.20000000000005</ele><time>2026-04-13T16:00:45.873Z</time></trkpt><trkpt lat="40.67305" lon="15.0231983"><ele>382.8</ele><time>2026-04-13T16:00:47.873Z</time></trkpt><trkpt lat="40.67292" lon="15.0231233"><ele>381.4</ele><time>2026-04-13T16:00:49.873Z</time></trkpt><trkpt lat="40.672845" lon="15.02305"><ele>380.0</ele><time>2026-04-13T16:00:50.877Z</time></trkpt><trkpt lat="40.6727717" lon="15.0229733"><ele>382.8</ele><time>2026-04-13T16:00:51.874Z</time></trkpt><trkpt lat="40.6727017" lon="15.0228883"><ele>385.6</ele><time>2026-04-13T16:00:52.873Z</time></trkpt><trkpt lat="40.6726333" lon="15.0228167"><ele>388.4</ele><time>2026-04-13T16:00:53.874Z</time></trkpt><trkpt lat="40.6725633" lon="15.0227383"><ele>391.2</ele><time>2026-04-13T16:00:54.873Z</time></trkpt><trkpt lat="40.6724867" lon="15.02266"><ele>394.0</ele><time>2026-04-13T16:00:55.875Z</time></trkpt><trkpt lat="40.67242" lon="15.0225833"><ele>394.00000000000006</ele><time>2026-04-13T16:00:56.873Z</time></trkpt><trkpt lat="40.6723617" lon="15.022515"><ele>394.0</ele><time>2026-04-13T16:00:57.875Z</time></trkpt><trkpt lat="40.6723017" lon="15.0224533"><ele>394.0</ele><time>2026-04-13T16:00:59.873Z</time></trkpt><trkpt lat="40.6722117" lon="15.0224"><ele>394.0</ele><time>2026-04-13T16:01:01.874Z</time></trkpt><trkpt lat="40.672135" lon="15.02238"><ele>394.00000000000006</ele><time>2026-04-13T16:01:02.874Z</time></trkpt><trkpt lat="40.6720533" lon="15.02236"><ele>394.0</ele><time>2026-04-13T16:01:03.873Z</time></trkpt><trkpt lat="40.6719817" lon="15.0223417"><ele>392.4</ele><time>2026-04-13T16:01:04.873Z</time></trkpt><trkpt lat="40.6719167" lon="15.022335"><ele>390.79999999999995</ele><time>2026-04-13T16:01:05.874Z</time></trkpt><trkpt lat="40.6717983" lon="15.0223183"><ele>389.20000000000005</ele><time>2026-04-13T16:01:07.873Z</time></trkpt><trkpt lat="40.6716883" lon="15.02234"><ele>387.6</ele><time>2026-04-13T16:01:09.873Z</time></trkpt><trkpt lat="40.6716133" lon="15.022325"><ele>386.0</ele><time>2026-04-13T16:01:10.873Z</time></trkpt><trkpt lat="40.6714783" lon="15.02223"><ele>385.99999999999994</ele><time>2026-04-13T16:01:12.873Z</time></trkpt><trkpt lat="40.6714117" lon="15.0221933"><ele>386.0</ele><time>2026-04-13T16:01:13.873Z</time></trkpt><trkpt lat="40.6713467" lon="15.0221833"><ele>386.0</ele><time>2026-04-13T16:01:14.873Z</time></trkpt><trkpt lat="40.6712417" lon="15.0221517"><ele>386.0</ele><time>2026-04-13T16:01:16.873Z</time></trkpt><trkpt lat="40.6711717" lon="15.0221117"><ele>385.99999999999994</ele><time>2026-04-13T16:01:18.874Z</time></trkpt><trkpt lat="40.6710817" lon="15.02211"><ele>386.0</ele><time>2026-04-13T16:01:20.876Z</time></trkpt><trkpt lat="40.6709583" lon="15.02208"><ele>388.0</ele><time>2026-04-13T16:01:22.873Z</time></trkpt><trkpt lat="40.6708567" lon="15.0220367"><ele>390.0</ele><time>2026-04-13T16:01:24.875Z</time></trkpt><trkpt lat="40.670765" lon="15.0219333"><ele>392.0</ele><time>2026-04-13T16:01:26.873Z</time></trkpt><trkpt lat="40.670725" lon="15.0218667"><ele>394.0</ele><time>2026-04-13T16:01:27.873Z</time></trkpt><trkpt lat="40.6705967" lon="15.0218083"><ele>396.0</ele><time>2026-04-13T16:01:28.873Z</time></trkpt><trkpt lat="40.67052" lon="15.0217867"><ele>396.0</ele><time>2026-04-13T16:01:30.873Z</time></trkpt><trkpt lat="40.6703717" lon="15.0218117"><ele>396.0</ele><time>2026-04-13T16:01:32.875Z</time></trkpt><trkpt lat="40.670235" lon="15.0219067"><ele>396.0</ele><time>2026-04-13T16:01:33.873Z</time></trkpt><trkpt lat="40.6700967" lon="15.0219483"><ele>396.0</ele><time>2026-04-13T16:01:34.873Z</time></trkpt><trkpt lat="40.6700267" lon="15.02198"><ele>398.20000000000005</ele><time>2026-04-13T16:01:35.873Z</time></trkpt><trkpt lat="40.6699283" lon="15.022005"><ele>400.40000000000003</ele><time>2026-04-13T16:01:36.873Z</time></trkpt><trkpt lat="40.669825" lon="15.02203"><ele>402.6</ele><time>2026-04-13T16:01:37.874Z</time></trkpt><trkpt lat="40.6697417" lon="15.0220683"><ele>404.8</ele><time>2026-04-13T16:01:38.874Z</time></trkpt><trkpt lat="40.669665" lon="15.022085"><ele>407.0</ele><time>2026-04-13T16:01:39.876Z</time></trkpt><trkpt lat="40.6695817" lon="15.0220833"><ele>406.99999999999994</ele><time>2026-04-13T16:01:40.875Z</time></trkpt><trkpt lat="40.6695017" lon="15.0220567"><ele>407.0</ele><time>2026-04-13T16:01:41.873Z</time></trkpt><trkpt lat="40.6694233" lon="15.0220417"><ele>407.0</ele><time>2026-04-13T16:01:42.876Z</time></trkpt><trkpt lat="40.6693483" lon="15.02204"><ele>407.0</ele><time>2026-04-13T16:01:43.873Z</time></trkpt><trkpt lat="40.6692683" lon="15.0220333"><ele>406.99999999999994</ele><time>2026-04-13T16:01:44.873Z</time></trkpt><trkpt lat="40.6691767" lon="15.0220167"><ele>407.0</ele><time>2026-04-13T16:01:45.873Z</time></trkpt><trkpt lat="40.669095" lon="15.0220217"><ele>407.49999999999994</ele><time>2026-04-13T16:01:46.873Z</time></trkpt><trkpt lat="40.66902" lon="15.0220133"><ele>408.0</ele><time>2026-04-13T16:01:47.873Z</time></trkpt><trkpt lat="40.66894" lon="15.0219967"><ele>408.5</ele><time>2026-04-13T16:01:48.873Z</time></trkpt><trkpt lat="40.66894" lon="15.02188"><ele>409.0</ele><time>2026-04-13T16:01:50.873Z</time></trkpt><trkpt lat="40.66899" lon="15.0217317"><ele>409.49999999999994</ele><time>2026-04-13T16:01:52.873Z</time></trkpt><trkpt lat="40.6689933" lon="15.0216467"><ele>410.0</ele><time>2026-04-13T16:01:53.873Z</time></trkpt><trkpt lat="40.6689517" lon="15.0215267"><ele>407.3333333333333</ele><time>2026-04-13T16:01:54.876Z</time></trkpt><trkpt lat="40.6689067" lon="15.0214033"><ele>404.66666666666663</ele><time>2026-04-13T16:01:55.873Z</time></trkpt><trkpt lat="40.66887" lon="15.0212883"><ele>402.0</ele><time>2026-04-13T16:01:56.876Z</time></trkpt><trkpt lat="40.668845" lon="15.0211967"><ele>399.33333333333337</ele><time>2026-04-13T16:01:57.875Z</time></trkpt><trkpt lat="40.6688517" lon="15.0210983"><ele>396.6666666666667</ele><time>2026-04-13T16:01:58.876Z</time></trkpt><trkpt lat="40.6688717" lon="15.0210017"><ele>394.0</ele><time>2026-04-13T16:01:59.874Z</time></trkpt><trkpt lat="40.6689117" lon="15.0209"><ele>391.79999999999995</ele><time>2026-04-13T16:02:00.874Z</time></trkpt><trkpt lat="40.6689567" lon="15.0208033"><ele>389.59999999999997</ele><time>2026-04-13T16:02:01.873Z</time></trkpt><trkpt lat="40.6690017" lon="15.0207167"><ele>387.4</ele><time>2026-04-13T16:02:02.873Z</time></trkpt><trkpt lat="40.66907" lon="15.0206133"><ele>385.2</ele><time>2026-04-13T16:02:03.874Z</time></trkpt><trkpt lat="40.6691567" lon="15.0205233"><ele>383.0</ele><time>2026-04-13T16:02:04.875Z</time></trkpt><trkpt lat="40.669235" lon="15.020445"><ele>383.0</ele><time>2026-04-13T16:02:05.873Z</time></trkpt><trkpt lat="40.6693083" lon="15.020365"><ele>383.0</ele><time>2026-04-13T16:02:06.874Z</time></trkpt><trkpt lat="40.6693917" lon="15.02029"><ele>383.0</ele><time>2026-04-13T16:02:07.873Z</time></trkpt><trkpt lat="40.6694633" lon="15.0202483"><ele>383.0</ele><time>2026-04-13T16:02:08.873Z</time></trkpt><trkpt lat="40.6694917" lon="15.0201467"><ele>383.0</ele><time>2026-04-13T16:02:09.873Z</time></trkpt><trkpt lat="40.6694133" lon="15.0200467"><ele>381.2</ele><time>2026-04-13T16:02:10.873Z</time></trkpt><trkpt lat="40.6693767" lon="15.0199167"><ele>379.4</ele><time>2026-04-13T16:02:11.874Z</time></trkpt><trkpt lat="40.6693533" lon="15.0198133"><ele>377.59999999999997</ele><time>2026-04-13T16:02:12.873Z</time></trkpt><trkpt lat="40.669325" lon="15.0196933"><ele>375.79999999999995</ele><time>2026-04-13T16:02:13.874Z</time></trkpt><trkpt lat="40.6692833" lon="15.019545"><ele>374.0</ele><time>2026-04-13T16:02:14.874Z</time></trkpt><trkpt lat="40.6692683" lon="15.0194183"><ele>374.0</ele><time>2026-04-13T16:02:15.874Z</time></trkpt><trkpt lat="40.6692567" lon="15.01933"><ele>374.0</ele><time>2026-04-13T16:02:16.873Z</time></trkpt><trkpt lat="40.6692417" lon="15.0192333"><ele>374.0</ele><time>2026-04-13T16:02:17.875Z</time></trkpt><trkpt lat="40.6693267" lon="15.019105"><ele>374.0</ele><time>2026-04-13T16:02:19.875Z</time></trkpt><trkpt lat="40.669435" lon="15.0190583"><ele>374.0</ele><time>2026-04-13T16:02:21.876Z</time></trkpt><trkpt lat="40.6695167" lon="15.0190967"><ele>371.0</ele><time>2026-04-13T16:02:22.874Z</time></trkpt><trkpt lat="40.6695883" lon="15.0191967"><ele>368.0</ele><time>2026-04-13T16:02:23.873Z</time></trkpt><trkpt lat="40.66964" lon="15.01932"><ele>365.0</ele><time>2026-04-13T16:02:24.874Z</time></trkpt><trkpt lat="40.66969" lon="15.019425"><ele>362.0</ele><time>2026-04-13T16:02:25.873Z</time></trkpt><trkpt lat="40.669745" lon="15.0195183"><ele>359.0</ele><time>2026-04-13T16:02:26.874Z</time></trkpt><trkpt lat="40.669815" lon="15.0196017"><ele>359.0</ele><time>2026-04-13T16:02:27.874Z</time></trkpt><trkpt lat="40.6698983" lon="15.0196717"><ele>359.0</ele><time>2026-04-13T16:02:28.873Z</time></trkpt><trkpt lat="40.6699883" lon="15.0197467"><ele>359.0</ele><time>2026-04-13T16:02:29.873Z</time></trkpt><trkpt lat="40.6700733" lon="15.0198167"><ele>359.0</ele><time>2026-04-13T16:02:30.873Z</time></trkpt><trkpt lat="40.6701533" lon="15.0198517"><ele>359.0</ele><time>2026-04-13T16:02:31.876Z</time></trkpt><trkpt lat="40.67024" lon="15.0198733"><ele>357.33333333333337</ele><time>2026-04-13T16:02:32.874Z</time></trkpt><trkpt lat="40.6703233" lon="15.019885"><ele>355.6666666666667</ele><time>2026-04-13T16:02:33.873Z</time></trkpt><trkpt lat="40.6704267" lon="15.0198833"><ele>354.0</ele><time>2026-04-13T16:02:34.873Z</time></trkpt><trkpt lat="40.6705183" lon="15.0199"><ele>352.3333333333333</ele><time>2026-04-13T16:02:35.872Z</time></trkpt><trkpt lat="40.6706133" lon="15.0198967"><ele>350.66666666666663</ele><time>2026-04-13T16:02:36.873Z</time></trkpt><trkpt lat="40.670685" lon="15.0198983"><ele>349.0</ele><time>2026-04-13T16:02:37.873Z</time></trkpt><trkpt lat="40.67079" lon="15.01986"><ele>349.0</ele><time>2026-04-13T16:02:39.874Z</time></trkpt><trkpt lat="40.6707383" lon="15.01977"><ele>349.0</ele><time>2026-04-13T16:02:41.874Z</time></trkpt><trkpt lat="40.670635" lon="15.0197433"><ele>349.0</ele><time>2026-04-13T16:02:42.877Z</time></trkpt><trkpt lat="40.6705317" lon="15.0197383"><ele>349.0</ele><time>2026-04-13T16:02:43.875Z</time></trkpt><trkpt lat="40.6704133" lon="15.0197167"><ele>349.0</ele><time>2026-04-13T16:02:44.873Z</time></trkpt><trkpt lat="40.6703067" lon="15.019635"><ele>351.5</ele><time>2026-04-13T16:02:45.873Z</time></trkpt><trkpt lat="40.6702117" lon="15.01955"><ele>354.0</ele><time>2026-04-13T16:02:46.874Z</time></trkpt><trkpt lat="40.670125" lon="15.0194267"><ele>356.5</ele><time>2026-04-13T16:02:47.874Z</time></trkpt><trkpt lat="40.6700433" lon="15.0193133"><ele>359.0</ele><time>2026-04-13T16:02:48.873Z</time></trkpt><trkpt lat="40.669985" lon="15.0191883"><ele>355.79999999999995</ele><time>2026-04-13T16:02:49.873Z</time></trkpt><trkpt lat="40.669925" lon="15.0190483"><ele>352.59999999999997</ele><time>2026-04-13T16:02:50.873Z</time></trkpt><trkpt lat="40.6698783" lon="15.01894"><ele>349.4</ele><time>2026-04-13T16:02:51.873Z</time></trkpt><trkpt lat="40.6698283" lon="15.0188617"><ele>346.2</ele><time>2026-04-13T16:02:52.873Z</time></trkpt><trkpt lat="40.6698317" lon="15.0187567"><ele>343.0</ele><time>2026-04-13T16:02:54.873Z</time></trkpt><trkpt lat="40.6699533" lon="15.0188183"><ele>343.0</ele><time>2026-04-13T16:02:56.873Z</time></trkpt><trkpt lat="40.6700017" lon="15.0188717"><ele>343.0</ele><time>2026-04-13T16:02:57.873Z</time></trkpt><trkpt lat="40.6700817" lon="15.0189183"><ele>343.0</ele><time>2026-04-13T16:02:58.874Z</time></trkpt><trkpt lat="40.67021" lon="15.018915"><ele>343.0</ele><time>2026-04-13T16:02:59.874Z</time></trkpt><trkpt lat="40.6703217" lon="15.0188933"><ele>343.0</ele><time>2026-04-13T16:03:00.873Z</time></trkpt><trkpt lat="40.6704267" lon="15.0188667"><ele>341.8333333333333</ele><time>2026-04-13T16:03:01.873Z</time></trkpt><trkpt lat="40.670505" lon="15.0188367"><ele>340.66666666666663</ele><time>2026-04-13T16:03:02.874Z</time></trkpt><trkpt lat="40.6705717" lon="15.0188"><ele>339.5</ele><time>2026-04-13T16:03:03.873Z</time></trkpt><trkpt lat="40.6706567" lon="15.0187467"><ele>338.3333333333333</ele><time>2026-04-13T16:03:05.873Z</time></trkpt><trkpt lat="40.6706217" lon="15.0186367"><ele>337.1666666666667</ele><time>2026-04-13T16:03:11.872Z</time></trkpt><trkpt lat="40.67055" lon="15.0185433"><ele>336.0</ele><time>2026-04-13T16:03:12.876Z</time></trkpt><trkpt lat="40.6704817" lon="15.0184517"><ele>336.0</ele><time>2026-04-13T16:03:13.875Z</time></trkpt><trkpt lat="40.6704117" lon="15.0183467"><ele>336.0</ele><time>2026-04-13T16:03:14.873Z</time></trkpt><trkpt lat="40.6703333" lon="15.018235"><ele>336.0</ele><time>2026-04-13T16:03:15.873Z</time></trkpt><trkpt lat="40.67025" lon="15.0181267"><ele>336.0</ele><time>2026-04-13T16:03:16.875Z</time></trkpt><trkpt lat="40.6701483" lon="15.0180383"><ele>333.0</ele><time>2026-04-13T16:03:17.872Z</time></trkpt><trkpt lat="40.670035" lon="15.0179583"><ele>330.0</ele><time>2026-04-13T16:03:18.873Z</time></trkpt><trkpt lat="40.6699067" lon="15.0179"><ele>327.0</ele><time>2026-04-13T16:03:19.874Z</time></trkpt><trkpt lat="40.6697617" lon="15.01786"><ele>324.0</ele><time>2026-04-13T16:03:20.873Z</time></trkpt><trkpt lat="40.6696117" lon="15.0178233"><ele>324.0</ele><time>2026-04-13T16:03:21.872Z</time></trkpt><trkpt lat="40.6694683" lon="15.0177933"><ele>324.0</ele><time>2026-04-13T16:03:22.874Z</time></trkpt><trkpt lat="40.6693367" lon="15.01777"><ele>324.0</ele><time>2026-04-13T16:03:23.874Z</time></trkpt><trkpt lat="40.6692083" lon="15.017775"><ele>324.0</ele><time>2026-04-13T16:03:24.876Z</time></trkpt><trkpt lat="40.6690833" lon="15.0178083"><ele>324.5</ele><time>2026-04-13T16:03:25.876Z</time></trkpt><trkpt lat="40.6689583" lon="15.0178767"><ele>325.0</ele><time>2026-04-13T16:03:26.875Z</time></trkpt><trkpt lat="40.6688567" lon="15.0179617"><ele>325.5</ele><time>2026-04-13T16:03:27.876Z</time></trkpt><trkpt lat="40.6687633" lon="15.01803"><ele>326.0</ele><time>2026-04-13T16:03:28.875Z</time></trkpt><trkpt lat="40.6686667" lon="15.018065"><ele>325.20000000000005</ele><time>2026-04-13T16:03:29.875Z</time></trkpt><trkpt lat="40.66857" lon="15.0180533"><ele>324.40000000000003</ele><time>2026-04-13T16:03:30.876Z</time></trkpt><trkpt lat="40.6684883" lon="15.01799"><ele>323.6</ele><time>2026-04-13T16:03:31.875Z</time></trkpt><trkpt lat="40.6684167" lon="15.0178917"><ele>322.8</ele><time>2026-04-13T16:03:32.875Z</time></trkpt><trkpt lat="40.6683367" lon="15.0178133"><ele>322.0</ele><time>2026-04-13T16:03:33.873Z</time></trkpt><trkpt lat="40.6682483" lon="15.0177483"><ele>322.0</ele><time>2026-04-13T16:03:34.875Z</time></trkpt><trkpt lat="40.6681417" lon="15.0177183"><ele>322.0</ele><time>2026-04-13T16:03:35.875Z</time></trkpt><trkpt lat="40.6680233" lon="15.01771"><ele>322.0</ele><time>2026-04-13T16:03:36.875Z</time></trkpt><trkpt lat="40.6679033" lon="15.0177133"><ele>322.0</ele><time>2026-04-13T16:03:37.873Z</time></trkpt><trkpt lat="40.6677917" lon="15.01772"><ele>322.25</ele><time>2026-04-13T16:03:38.874Z</time></trkpt><trkpt lat="40.6676717" lon="15.0176733"><ele>322.5</ele><time>2026-04-13T16:03:39.875Z</time></trkpt><trkpt lat="40.667545" lon="15.0176"><ele>322.75</ele><time>2026-04-13T16:03:40.875Z</time></trkpt><trkpt lat="40.66741" lon="15.01753"><ele>323.0</ele><time>2026-04-13T16:03:41.876Z</time></trkpt><trkpt lat="40.6672983" lon="15.0174683"><ele>319.25</ele><time>2026-04-13T16:03:42.875Z</time></trkpt><trkpt lat="40.6672033" lon="15.017395"><ele>315.5</ele><time>2026-04-13T16:03:43.877Z</time></trkpt><trkpt lat="40.6671267" lon="15.0172817"><ele>311.75</ele><time>2026-04-13T16:03:44.875Z</time></trkpt><trkpt lat="40.6670533" lon="15.0171317"><ele>308.0</ele><time>2026-04-13T16:03:45.873Z</time></trkpt><trkpt lat="40.6669867" lon="15.0169667"><ele>308.0</ele><time>2026-04-13T16:03:46.873Z</time></trkpt><trkpt lat="40.666945" lon="15.0168167"><ele>308.0</ele><time>2026-04-13T16:03:47.873Z</time></trkpt><trkpt lat="40.6669333" lon="15.016735"><ele>308.0</ele><time>2026-04-13T16:03:48.873Z</time></trkpt><trkpt lat="40.6669867" lon="15.0168633"><ele>308.0</ele><time>2026-04-13T16:04:01.873Z</time></trkpt><trkpt lat="40.6670317" lon="15.0167667"><ele>308.0</ele><time>2026-04-13T16:04:08.874Z</time></trkpt><trkpt lat="40.6670217" lon="15.01665"><ele>307.6666666666667</ele><time>2026-04-13T16:04:10.873Z</time></trkpt><trkpt lat="40.66702" lon="15.0165517"><ele>307.33333333333337</ele><time>2026-04-13T16:04:12.873Z</time></trkpt><trkpt lat="40.6670067" lon="15.0164583"><ele>307.0</ele><time>2026-04-13T16:04:15.873Z</time></trkpt><trkpt lat="40.66698" lon="15.016365"><ele>306.6666666666667</ele><time>2026-04-13T16:04:17.874Z</time></trkpt><trkpt lat="40.6669483" lon="15.0162183"><ele>306.3333333333333</ele><time>2026-04-13T16:04:19.873Z</time></trkpt><trkpt lat="40.66691" lon="15.0160817"><ele>306.0</ele><time>2026-04-13T16:04:21.874Z</time></trkpt><trkpt lat="40.6668567" lon="15.0159483"><ele>306.0</ele><time>2026-04-13T16:04:23.874Z</time></trkpt><trkpt lat="40.6668517" lon="15.01585"><ele>306.0</ele><time>2026-04-13T16:04:25.873Z</time></trkpt><trkpt lat="40.6669033" lon="15.0157817"><ele>306.0</ele><time>2026-04-13T16:04:27.875Z</time></trkpt><trkpt lat="40.6669583" lon="15.0156983"><ele>306.0</ele><time>2026-04-13T16:04:30.876Z</time></trkpt><trkpt lat="40.666895" lon="15.0156517"><ele>306.0</ele><time>2026-04-13T16:04:32.873Z</time></trkpt><trkpt lat="40.66678" lon="15.01563"><ele>306.0</ele><time>2026-04-13T16:04:34.873Z</time></trkpt><trkpt lat="40.666715" lon="15.0156183"><ele>302.0</ele><time>2026-04-13T16:04:35.873Z</time></trkpt><trkpt lat="40.6666667" lon="15.0155567"><ele>298.0</ele><time>2026-04-13T16:04:36.874Z</time></trkpt><trkpt lat="40.6666183" lon="15.0154767"><ele>294.0</ele><time>2026-04-13T16:04:37.873Z</time></trkpt><trkpt lat="40.6665633" lon="15.0154"><ele>290.0</ele><time>2026-04-13T16:04:38.874Z</time></trkpt><trkpt lat="40.6664967" lon="15.0153467"><ele>286.0</ele><time>2026-04-13T16:04:39.875Z</time></trkpt><trkpt lat="40.666435" lon="15.0152617"><ele>282.0</ele><time>2026-04-13T16:04:40.873Z</time></trkpt><trkpt lat="40.66638" lon="15.01517"><ele>282.0</ele><time>2026-04-13T16:04:41.874Z</time></trkpt><trkpt lat="40.66634" lon="15.0150883"><ele>282.0</ele><time>2026-04-13T16:04:42.873Z</time></trkpt><trkpt lat="40.66629" lon="15.015"><ele>282.0</ele><time>2026-04-13T16:04:43.873Z</time></trkpt><trkpt lat="40.6662483" lon="15.0149"><ele>282.0</ele><time>2026-04-13T16:04:44.875Z</time></trkpt><trkpt lat="40.66613" lon="15.014825"><ele>282.0</ele><time>2026-04-13T16:04:46.873Z</time></trkpt><trkpt lat="40.6660617" lon="15.0148067"><ele>282.0</ele><time>2026-04-13T16:04:47.876Z</time></trkpt><trkpt lat="40.665965" lon="15.0147917"><ele>278.6</ele><time>2026-04-13T16:04:48.874Z</time></trkpt><trkpt lat="40.66589" lon="15.0147683"><ele>275.2</ele><time>2026-04-13T16:04:49.873Z</time></trkpt><trkpt lat="40.6657917" lon="15.0147467"><ele>271.8</ele><time>2026-04-13T16:04:50.873Z</time></trkpt><trkpt lat="40.6656867" lon="15.0147233"><ele>268.4</ele><time>2026-04-13T16:04:51.874Z</time></trkpt><trkpt lat="40.66559" lon="15.01471"><ele>265.0</ele><time>2026-04-13T16:04:52.873Z</time></trkpt><trkpt lat="40.6654917" lon="15.014675"><ele>265.0</ele><time>2026-04-13T16:04:54.873Z</time></trkpt><trkpt lat="40.665435" lon="15.0145483"><ele>265.0</ele><time>2026-04-13T16:04:56.873Z</time></trkpt><trkpt lat="40.6654333" lon="15.0144"><ele>265.0</ele><time>2026-04-13T16:04:58.873Z</time></trkpt><trkpt lat="40.665385" lon="15.0142883"><ele>265.0</ele><time>2026-04-13T16:05:00.873Z</time></trkpt><trkpt lat="40.6652883" lon="15.01421"><ele>265.0</ele><time>2026-04-13T16:05:02.874Z</time></trkpt><trkpt lat="40.665215" lon="15.014145"><ele>261.0</ele><time>2026-04-13T16:05:03.874Z</time></trkpt><trkpt lat="40.6651333" lon="15.014085"><ele>257.0</ele><time>2026-04-13T16:05:04.873Z</time></trkpt><trkpt lat="40.6650517" lon="15.0140083"><ele>253.0</ele><time>2026-04-13T16:05:05.874Z</time></trkpt><trkpt lat="40.664965" lon="15.0139517"><ele>249.0</ele><time>2026-04-13T16:05:06.873Z</time></trkpt><trkpt lat="40.6648717" lon="15.0139217"><ele>245.0</ele><time>2026-04-13T16:05:07.872Z</time></trkpt><trkpt lat="40.6647767" lon="15.0139017"><ele>245.0</ele><time>2026-04-13T16:05:08.874Z</time></trkpt><trkpt lat="40.664685" lon="15.0138667"><ele>245.0</ele><time>2026-04-13T16:05:09.875Z</time></trkpt><trkpt lat="40.6646033" lon="15.0138083"><ele>245.0</ele><time>2026-04-13T16:05:10.873Z</time></trkpt><trkpt lat="40.6645317" lon="15.0137433"><ele>245.0</ele><time>2026-04-13T16:05:11.874Z</time></trkpt><trkpt lat="40.66445" lon="15.0136633"><ele>245.0</ele><time>2026-04-13T16:05:12.873Z</time></trkpt><trkpt lat="40.6643733" lon="15.0136067"><ele>246.33333333333334</ele><time>2026-04-13T16:05:13.875Z</time></trkpt><trkpt lat="40.6643083" lon="15.0135467"><ele>247.66666666666669</ele><time>2026-04-13T16:05:14.873Z</time></trkpt><trkpt lat="40.66425" lon="15.0134717"><ele>249.0</ele><time>2026-04-13T16:05:15.873Z</time></trkpt><trkpt lat="40.6642" lon="15.0133933"><ele>250.33333333333331</ele><time>2026-04-13T16:05:16.873Z</time></trkpt><trkpt lat="40.664165" lon="15.0132917"><ele>251.66666666666666</ele><time>2026-04-13T16:05:17.874Z</time></trkpt><trkpt lat="40.6641417" lon="15.0131833"><ele>253.0</ele><time>2026-04-13T16:05:18.874Z</time></trkpt><trkpt lat="40.6641183" lon="15.013075"><ele>249.83333333333331</ele><time>2026-04-13T16:05:19.873Z</time></trkpt><trkpt lat="40.6640833" lon="15.0129517"><ele>246.66666666666666</ele><time>2026-04-13T16:05:20.873Z</time></trkpt><trkpt lat="40.6640683" lon="15.0128217"><ele>243.5</ele><time>2026-04-13T16:05:21.874Z</time></trkpt><trkpt lat="40.66407" lon="15.0127217"><ele>240.33333333333331</ele><time>2026-04-13T16:05:22.873Z</time></trkpt><trkpt lat="40.664075" lon="15.0126283"><ele>237.16666666666666</ele><time>2026-04-13T16:05:23.874Z</time></trkpt><trkpt lat="40.6641017" lon="15.012545"><ele>234.0</ele><time>2026-04-13T16:05:24.873Z</time></trkpt><trkpt lat="40.6641067" lon="15.0124383"><ele>232.0</ele><time>2026-04-13T16:05:25.874Z</time></trkpt><trkpt lat="40.6641267" lon="15.0123167"><ele>230.0</ele><time>2026-04-13T16:05:26.873Z</time></trkpt><trkpt lat="40.66417" lon="15.01221"><ele>228.0</ele><time>2026-04-13T16:05:27.876Z</time></trkpt><trkpt lat="40.6641917" lon="15.012115"><ele>226.0</ele><time>2026-04-13T16:05:28.873Z</time></trkpt><trkpt lat="40.6642067" lon="15.012015"><ele>224.0</ele><time>2026-04-13T16:05:29.873Z</time></trkpt><trkpt lat="40.6642183" lon="15.0119317"><ele>222.0</ele><time>2026-04-13T16:05:30.873Z</time></trkpt><trkpt lat="40.664185" lon="15.0118"><ele>222.0</ele><time>2026-04-13T16:05:32.874Z</time></trkpt><trkpt lat="40.6641417" lon="15.0117233"><ele>222.0</ele><time>2026-04-13T16:05:33.872Z</time></trkpt><trkpt lat="40.6640867" lon="15.0116433"><ele>222.0</ele><time>2026-04-13T16:05:34.875Z</time></trkpt><trkpt lat="40.66403" lon="15.0115617"><ele>222.0</ele><time>2026-04-13T16:05:35.873Z</time></trkpt><trkpt lat="40.6639733" lon="15.0114667"><ele>222.0</ele><time>2026-04-13T16:05:36.873Z</time></trkpt><trkpt lat="40.6639233" lon="15.0113667"><ele>222.0</ele><time>2026-04-13T16:05:37.873Z</time></trkpt><trkpt lat="40.6638767" lon="15.01126"><ele>219.6</ele><time>2026-04-13T16:05:38.874Z</time></trkpt><trkpt lat="40.66383" lon="15.0111583"><ele>217.2</ele><time>2026-04-13T16:05:39.873Z</time></trkpt><trkpt lat="40.6637783" lon="15.0110583"><ele>214.8</ele><time>2026-04-13T16:05:40.874Z</time></trkpt><trkpt lat="40.66373" lon="15.01095"><ele>212.4</ele><time>2026-04-13T16:05:41.873Z</time></trkpt><trkpt lat="40.6636783" lon="15.0108483"><ele>210.0</ele><time>2026-04-13T16:05:42.874Z</time></trkpt><trkpt lat="40.6636067" lon="15.01074"><ele>208.33333333333334</ele><time>2026-04-13T16:05:43.877Z</time></trkpt><trkpt lat="40.6635467" lon="15.0106333"><ele>206.66666666666669</ele><time>2026-04-13T16:05:44.874Z</time></trkpt><trkpt lat="40.6634883" lon="15.0105333"><ele>205.0</ele><time>2026-04-13T16:05:45.878Z</time></trkpt><trkpt lat="40.6634267" lon="15.0104483"><ele>203.33333333333334</ele><time>2026-04-13T16:05:46.873Z</time></trkpt><trkpt lat="40.6633633" lon="15.0103717"><ele>201.66666666666669</ele><time>2026-04-13T16:05:47.873Z</time></trkpt><trkpt lat="40.6633183" lon="15.0103083"><ele>200.0</ele><time>2026-04-13T16:05:48.873Z</time></trkpt><trkpt lat="40.6631983" lon="15.0102733"><ele>200.00000000000003</ele><time>2026-04-13T16:05:50.873Z</time></trkpt><trkpt lat="40.6631183" lon="15.010305"><ele>200.0</ele><time>2026-04-13T16:05:51.873Z</time></trkpt><trkpt lat="40.663035" lon="15.0103433"><ele>200.0</ele><time>2026-04-13T16:05:52.874Z</time></trkpt><trkpt lat="40.6629467" lon="15.0103583"><ele>200.0</ele><time>2026-04-13T16:05:53.873Z</time></trkpt><trkpt lat="40.662865" lon="15.01037"><ele>200.00000000000003</ele><time>2026-04-13T16:05:54.876Z</time></trkpt><trkpt lat="40.6627817" lon="15.010405"><ele>200.0</ele><time>2026-04-13T16:05:55.875Z</time></trkpt><trkpt lat="40.6626867" lon="15.0104367"><ele>199.50000000000003</ele><time>2026-04-13T16:05:56.876Z</time></trkpt><trkpt lat="40.662595" lon="15.0104567"><ele>199.0</ele><time>2026-04-13T16:05:57.877Z</time></trkpt><trkpt lat="40.6625133" lon="15.0104967"><ele>198.5</ele><time>2026-04-13T16:05:58.873Z</time></trkpt><trkpt lat="40.6624283" lon="15.0105333"><ele>198.0</ele><time>2026-04-13T16:05:59.874Z</time></trkpt><trkpt lat="40.66235" lon="15.010525"><ele>197.50000000000003</ele><time>2026-04-13T16:06:01.873Z</time></trkpt><trkpt lat="40.662285" lon="15.0104367"><ele>197.0</ele><time>2026-04-13T16:06:03.873Z</time></trkpt><trkpt lat="40.662165" lon="15.010365"><ele>197.0</ele><time>2026-04-13T16:06:05.873Z</time></trkpt><trkpt lat="40.6620933" lon="15.0103483"><ele>197.0</ele><time>2026-04-13T16:06:06.877Z</time></trkpt><trkpt lat="40.66202" lon="15.0103367"><ele>197.0</ele><time>2026-04-13T16:06:07.876Z</time></trkpt><trkpt lat="40.6619417" lon="15.0103533"><ele>197.0</ele><time>2026-04-13T16:06:08.873Z</time></trkpt><trkpt lat="40.6618717" lon="15.0103933"><ele>197.0</ele><time>2026-04-13T16:06:09.873Z</time></trkpt><trkpt lat="40.661805" lon="15.01043"><ele>197.0</ele><time>2026-04-13T16:06:10.873Z</time></trkpt><trkpt lat="40.661745" lon="15.0104683"><ele>197.0</ele><time>2026-04-13T16:06:11.873Z</time></trkpt><trkpt lat="40.6616667" lon="15.0104483"><ele>195.39999999999998</ele><time>2026-04-13T16:06:13.874Z</time></trkpt><trkpt lat="40.6616017" lon="15.0103383"><ele>193.79999999999998</ele><time>2026-04-13T16:06:15.873Z</time></trkpt><trkpt lat="40.6615717" lon="15.010245"><ele>192.2</ele><time>2026-04-13T16:06:16.873Z</time></trkpt><trkpt lat="40.6615333" lon="15.010155"><ele>190.6</ele><time>2026-04-13T16:06:17.873Z</time></trkpt><trkpt lat="40.6614933" lon="15.0100433"><ele>189.0</ele><time>2026-04-13T16:06:18.873Z</time></trkpt><trkpt lat="40.6614533" lon="15.0099267"><ele>187.5</ele><time>2026-04-13T16:06:19.874Z</time></trkpt><trkpt lat="40.66141" lon="15.0098117"><ele>186.0</ele><time>2026-04-13T16:06:20.873Z</time></trkpt><trkpt lat="40.6613667" lon="15.0097067"><ele>184.5</ele><time>2026-04-13T16:06:21.873Z</time></trkpt><trkpt lat="40.6613267" lon="15.0095983"><ele>183.0</ele><time>2026-04-13T16:06:22.873Z</time></trkpt><trkpt lat="40.6612883" lon="15.0095017"><ele>181.5</ele><time>2026-04-13T16:06:23.874Z</time></trkpt><trkpt lat="40.6612483" lon="15.009415"><ele>180.0</ele><time>2026-04-13T16:06:24.873Z</time></trkpt><trkpt lat="40.6612083" lon="15.0093467"><ele>180.0</ele><time>2026-04-13T16:06:25.873Z</time></trkpt><trkpt lat="40.6611683" lon="15.00928"><ele>180.0</ele><time>2026-04-13T16:06:26.873Z</time></trkpt><trkpt lat="40.6611183" lon="15.0091917"><ele>180.0</ele><time>2026-04-13T16:06:28.873Z</time></trkpt><trkpt lat="40.6610783" lon="15.0091117"><ele>180.0</ele><time>2026-04-13T16:06:30.874Z</time></trkpt><trkpt lat="40.66104" lon="15.0090167"><ele>180.0</ele><time>2026-04-13T16:06:33.873Z</time></trkpt><trkpt lat="40.6609933" lon="15.00889"><ele>180.0</ele><time>2026-04-13T16:06:35.875Z</time></trkpt><trkpt lat="40.6609567" lon="15.0088217"><ele>176.6</ele><time>2026-04-13T16:06:36.874Z</time></trkpt><trkpt lat="40.6608967" lon="15.0087217"><ele>173.2</ele><time>2026-04-13T16:06:38.873Z</time></trkpt><trkpt lat="40.660795" lon="15.0086717"><ele>169.8</ele><time>2026-04-13T16:06:40.873Z</time></trkpt><trkpt lat="40.6606867" lon="15.0086283"><ele>166.4</ele><time>2026-04-13T16:06:42.873Z</time></trkpt><trkpt lat="40.6605767" lon="15.00859"><ele>163.0</ele><time>2026-04-13T16:06:44.875Z</time></trkpt><trkpt lat="40.6605183" lon="15.0085517"><ele>163.0</ele><time>2026-04-13T16:06:46.872Z</time></trkpt><trkpt lat="40.6605467" lon="15.0084367"><ele>163.0</ele><time>2026-04-13T16:06:49.873Z</time></trkpt><trkpt lat="40.6605817" lon="15.0083467"><ele>163.0</ele><time>2026-04-13T16:06:50.875Z</time></trkpt><trkpt lat="40.6606367" lon="15.0082267"><ele>163.0</ele><time>2026-04-13T16:06:51.874Z</time></trkpt><trkpt lat="40.66069" lon="15.008105"><ele>163.0</ele><time>2026-04-13T16:06:52.872Z</time></trkpt><trkpt lat="40.6607183" lon="15.00799"><ele>162.83333333333334</ele><time>2026-04-13T16:06:53.873Z</time></trkpt><trkpt lat="40.6607333" lon="15.0078833"><ele>162.66666666666669</ele><time>2026-04-13T16:06:54.877Z</time></trkpt><trkpt lat="40.660725" lon="15.0077683"><ele>162.5</ele><time>2026-04-13T16:06:55.873Z</time></trkpt><trkpt lat="40.660715" lon="15.007645"><ele>162.33333333333334</ele><time>2026-04-13T16:06:56.873Z</time></trkpt><trkpt lat="40.6607" lon="15.0075217"><ele>162.16666666666666</ele><time>2026-04-13T16:06:57.873Z</time></trkpt><trkpt lat="40.6607" lon="15.0074167"><ele>162.0</ele><time>2026-04-13T16:06:58.875Z</time></trkpt><trkpt lat="40.660705" lon="15.00731"><ele>162.0</ele><time>2026-04-13T16:06:59.874Z</time></trkpt><trkpt lat="40.6607133" lon="15.00722"><ele>162.0</ele><time>2026-04-13T16:07:00.876Z</time></trkpt><trkpt lat="40.6607217" lon="15.0071283"><ele>162.0</ele><time>2026-04-13T16:07:01.877Z</time></trkpt><trkpt lat="40.6607517" lon="15.0069983"><ele>162.0</ele><time>2026-04-13T16:07:03.873Z</time></trkpt><trkpt lat="40.6607717" lon="15.0069133"><ele>162.0</ele><time>2026-04-13T16:07:05.873Z</time></trkpt><trkpt lat="40.660785" lon="15.00682"><ele>162.0</ele><time>2026-04-13T16:07:08.874Z</time></trkpt><trkpt lat="40.6608667" lon="15.0067267"><ele>161.6</ele><time>2026-04-13T16:07:58.876Z</time></trkpt><trkpt lat="40.6608967" lon="15.0066367"><ele>161.2</ele><time>2026-04-13T16:07:59.874Z</time></trkpt><trkpt lat="40.660935" lon="15.006495"><ele>160.8</ele><time>2026-04-13T16:08:00.873Z</time></trkpt><trkpt lat="40.660975" lon="15.0063267"><ele>160.4</ele><time>2026-04-13T16:08:01.873Z</time></trkpt><trkpt lat="40.6610067" lon="15.0061833"><ele>160.0</ele><time>2026-04-13T16:08:02.873Z</time></trkpt><trkpt lat="40.6610383" lon="15.0060433"><ele>160.0</ele><time>2026-04-13T16:08:03.873Z</time></trkpt><trkpt lat="40.6610767" lon="15.0058933"><ele>160.0</ele><time>2026-04-13T16:08:04.875Z</time></trkpt><trkpt lat="40.6611067" lon="15.0057817"><ele>160.0</ele><time>2026-04-13T16:08:05.873Z</time></trkpt><trkpt lat="40.661135" lon="15.005685"><ele>160.0</ele><time>2026-04-13T16:08:06.873Z</time></trkpt><trkpt lat="40.6611717" lon="15.0055883"><ele>160.0</ele><time>2026-04-13T16:08:07.873Z</time></trkpt><trkpt lat="40.6612283" lon="15.0055"><ele>160.83333333333334</ele><time>2026-04-13T16:08:08.876Z</time></trkpt><trkpt lat="40.6612917" lon="15.0054167"><ele>161.66666666666669</ele><time>2026-04-13T16:08:09.873Z</time></trkpt><trkpt lat="40.6613533" lon="15.0053433"><ele>162.5</ele><time>2026-04-13T16:08:10.873Z</time></trkpt><trkpt lat="40.661405" lon="15.0052867"><ele>163.33333333333334</ele><time>2026-04-13T16:08:11.874Z</time></trkpt><trkpt lat="40.6614533" lon="15.0052283"><ele>164.16666666666666</ele><time>2026-04-13T16:08:12.875Z</time></trkpt><trkpt lat="40.6615233" lon="15.0051433"><ele>165.0</ele><time>2026-04-13T16:08:14.873Z</time></trkpt><trkpt lat="40.6615167" lon="15.0050383"><ele>164.6</ele><time>2026-04-13T16:08:16.875Z</time></trkpt><trkpt lat="40.6614667" lon="15.0049667"><ele>164.2</ele><time>2026-04-13T16:08:17.875Z</time></trkpt><trkpt lat="40.6614017" lon="15.004875"><ele>163.8</ele><time>2026-04-13T16:08:18.875Z</time></trkpt><trkpt lat="40.6613283" lon="15.0047617"><ele>163.4</ele><time>2026-04-13T16:08:19.875Z</time></trkpt><trkpt lat="40.6612533" lon="15.0046317"><ele>163.0</ele><time>2026-04-13T16:08:20.877Z</time></trkpt><trkpt lat="40.6611583" lon="15.0045"><ele>161.5</ele><time>2026-04-13T16:08:21.875Z</time></trkpt><trkpt lat="40.66105" lon="15.0043767"><ele>160.0</ele><time>2026-04-13T16:08:22.878Z</time></trkpt><trkpt lat="40.660945" lon="15.0042567"><ele>158.5</ele><time>2026-04-13T16:08:23.875Z</time></trkpt><trkpt lat="40.6608417" lon="15.004135"><ele>157.0</ele><time>2026-04-13T16:08:24.873Z</time></trkpt><trkpt lat="40.6607433" lon="15.004025"><ele>156.75</ele><time>2026-04-13T16:08:25.875Z</time></trkpt><trkpt lat="40.6606417" lon="15.00391"><ele>156.5</ele><time>2026-04-13T16:08:26.875Z</time></trkpt><trkpt lat="40.6605367" lon="15.0038033"><ele>156.25</ele><time>2026-04-13T16:08:27.876Z</time></trkpt><trkpt lat="40.6604283" lon="15.0037017"><ele>156.0</ele><time>2026-04-13T16:08:28.873Z</time></trkpt><trkpt lat="40.66032" lon="15.00361"><ele>154.75</ele><time>2026-04-13T16:08:29.873Z</time></trkpt><trkpt lat="40.6602067" lon="15.00352"><ele>153.5</ele><time>2026-04-13T16:08:30.873Z</time></trkpt><trkpt lat="40.66009" lon="15.003435"><ele>152.25</ele><time>2026-04-13T16:08:31.873Z</time></trkpt><trkpt lat="40.65996" lon="15.0033517"><ele>151.0</ele><time>2026-04-13T16:08:32.876Z</time></trkpt><trkpt lat="40.6598283" lon="15.003255"><ele>149.66666666666669</ele><time>2026-04-13T16:08:33.876Z</time></trkpt><trkpt lat="40.659685" lon="15.0031583"><ele>148.33333333333334</ele><time>2026-04-13T16:08:34.874Z</time></trkpt><trkpt lat="40.659545" lon="15.003055"><ele>147.0</ele><time>2026-04-13T16:08:35.877Z</time></trkpt><trkpt lat="40.659415" lon="15.002965"><ele>146.75</ele><time>2026-04-13T16:08:36.875Z</time></trkpt><trkpt lat="40.6592917" lon="15.0029033"><ele>146.5</ele><time>2026-04-13T16:08:37.874Z</time></trkpt><trkpt lat="40.6591633" lon="15.0028733"><ele>146.25</ele><time>2026-04-13T16:08:38.873Z</time></trkpt><trkpt lat="40.6590333" lon="15.00287"><ele>146.0</ele><time>2026-04-13T16:08:39.873Z</time></trkpt><trkpt lat="40.6588967" lon="15.0028917"><ele>146.0</ele><time>2026-04-13T16:08:40.875Z</time></trkpt><trkpt lat="40.6587533" lon="15.0029267"><ele>146.0</ele><time>2026-04-13T16:08:41.873Z</time></trkpt><trkpt lat="40.65861" lon="15.0029583"><ele>146.0</ele><time>2026-04-13T16:08:42.873Z</time></trkpt><trkpt lat="40.6584667" lon="15.0029967"><ele>146.0</ele><time>2026-04-13T16:08:43.874Z</time></trkpt><trkpt lat="40.6583317" lon="15.0030317"><ele>145.5</ele><time>2026-04-13T16:08:44.872Z</time></trkpt><trkpt lat="40.6582033" lon="15.003075"><ele>145.0</ele><time>2026-04-13T16:08:45.872Z</time></trkpt><trkpt lat="40.6580767" lon="15.0031167"><ele>144.5</ele><time>2026-04-13T16:08:46.872Z</time></trkpt><trkpt lat="40.657945" lon="15.003145"><ele>144.0</ele><time>2026-04-13T16:08:47.874Z</time></trkpt><trkpt lat="40.65782" lon="15.0031617"><ele>143.25</ele><time>2026-04-13T16:08:48.873Z</time></trkpt><trkpt lat="40.6576983" lon="15.0031817"><ele>142.5</ele><time>2026-04-13T16:08:49.873Z</time></trkpt><trkpt lat="40.657585" lon="15.0032067"><ele>141.75</ele><time>2026-04-13T16:08:50.873Z</time></trkpt><trkpt lat="40.6574617" lon="15.003225"><ele>141.0</ele><time>2026-04-13T16:08:51.873Z</time></trkpt><trkpt lat="40.6573267" lon="15.0032333"><ele>141.0</ele><time>2026-04-13T16:08:52.873Z</time></trkpt><trkpt lat="40.6571967" lon="15.0032117"><ele>141.0</ele><time>2026-04-13T16:08:53.874Z</time></trkpt><trkpt lat="40.6570517" lon="15.003185"><ele>141.0</ele><time>2026-04-13T16:08:54.876Z</time></trkpt><trkpt lat="40.65691" lon="15.003165"><ele>141.0</ele><time>2026-04-13T16:08:55.873Z</time></trkpt><trkpt lat="40.6567717" lon="15.0031367"><ele>140.25</ele><time>2026-04-13T16:08:56.878Z</time></trkpt><trkpt lat="40.65663" lon="15.0031083"><ele>139.5</ele><time>2026-04-13T16:08:57.875Z</time></trkpt><trkpt lat="40.65649" lon="15.0030867"><ele>138.75</ele><time>2026-04-13T16:08:58.873Z</time></trkpt><trkpt lat="40.65635" lon="15.0030767"><ele>138.0</ele><time>2026-04-13T16:08:59.873Z</time></trkpt><trkpt lat="40.65621" lon="15.0030683"><ele>137.25</ele><time>2026-04-13T16:09:00.874Z</time></trkpt><trkpt lat="40.6560683" lon="15.00306"><ele>136.5</ele><time>2026-04-13T16:09:01.873Z</time></trkpt><trkpt lat="40.6559317" lon="15.0030433"><ele>135.75</ele><time>2026-04-13T16:09:02.873Z</time></trkpt><trkpt lat="40.6558" lon="15.0030233"><ele>135.0</ele><time>2026-04-13T16:09:03.874Z</time></trkpt><trkpt lat="40.6556683" lon="15.003"><ele>135.0</ele><time>2026-04-13T16:09:04.873Z</time></trkpt><trkpt lat="40.6555433" lon="15.002975"><ele>135.0</ele><time>2026-04-13T16:09:05.873Z</time></trkpt><trkpt lat="40.6554267" lon="15.0029633"><ele>135.0</ele><time>2026-04-13T16:09:06.873Z</time></trkpt><trkpt lat="40.6553217" lon="15.0029817"><ele>135.0</ele><time>2026-04-13T16:09:07.874Z</time></trkpt><trkpt lat="40.655215" lon="15.003045"><ele>134.5</ele><time>2026-04-13T16:09:08.872Z</time></trkpt><trkpt lat="40.6551067" lon="15.0031383"><ele>134.0</ele><time>2026-04-13T16:09:09.873Z</time></trkpt><trkpt lat="40.6549983" lon="15.0032283"><ele>133.5</ele><time>2026-04-13T16:09:10.874Z</time></trkpt><trkpt lat="40.654895" lon="15.003305"><ele>133.0</ele><time>2026-04-13T16:09:11.875Z</time></trkpt><trkpt lat="40.6547917" lon="15.0033633"><ele>133.0</ele><time>2026-04-13T16:09:12.875Z</time></trkpt><trkpt lat="40.6546783" lon="15.0034"><ele>133.0</ele><time>2026-04-13T16:09:13.875Z</time></trkpt><trkpt lat="40.6545617" lon="15.0034183"><ele>133.0</ele><time>2026-04-13T16:09:14.876Z</time></trkpt><trkpt lat="40.6544633" lon="15.0034533"><ele>133.0</ele><time>2026-04-13T16:09:15.876Z</time></trkpt><trkpt lat="40.6543767" lon="15.0034983"><ele>133.0</ele><time>2026-04-13T16:09:16.875Z</time></trkpt><trkpt lat="40.65431" lon="15.00354"><ele>133.0</ele><time>2026-04-13T16:09:17.873Z</time></trkpt><trkpt lat="40.6542117" lon="15.0035917"><ele>133.0</ele><time>2026-04-13T16:09:19.873Z</time></trkpt><trkpt lat="40.6541367" lon="15.0036867"><ele>133.0</ele><time>2026-04-13T16:09:21.873Z</time></trkpt><trkpt lat="40.6540833" lon="15.003785"><ele>133.0</ele><time>2026-04-13T16:09:22.873Z</time></trkpt><trkpt lat="40.6540133" lon="15.003905"><ele>133.0</ele><time>2026-04-13T16:09:23.873Z</time></trkpt><trkpt lat="40.653935" lon="15.004055"><ele>132.75</ele><time>2026-04-13T16:09:24.876Z</time></trkpt><trkpt lat="40.6538617" lon="15.004215"><ele>132.5</ele><time>2026-04-13T16:09:25.875Z</time></trkpt><trkpt lat="40.6537983" lon="15.0043867"><ele>132.25</ele><time>2026-04-13T16:09:26.875Z</time></trkpt><trkpt lat="40.6537533" lon="15.0045733"><ele>132.0</ele><time>2026-04-13T16:09:27.876Z</time></trkpt><trkpt lat="40.653715" lon="15.0047583"><ele>132.0</ele><time>2026-04-13T16:09:28.876Z</time></trkpt><trkpt lat="40.65367" lon="15.0049433"><ele>132.0</ele><time>2026-04-13T16:09:29.875Z</time></trkpt><trkpt lat="40.6536317" lon="15.0051017"><ele>132.0</ele><time>2026-04-13T16:09:30.875Z</time></trkpt><trkpt lat="40.6535883" lon="15.0052533"><ele>132.0</ele><time>2026-04-13T16:09:31.875Z</time></trkpt><trkpt lat="40.65355" lon="15.0054067"><ele>132.0</ele><time>2026-04-13T16:09:32.874Z</time></trkpt><trkpt lat="40.6535133" lon="15.0055717"><ele>132.0</ele><time>2026-04-13T16:09:33.872Z</time></trkpt><trkpt lat="40.6534733" lon="15.00574"><ele>132.0</ele><time>2026-04-13T16:09:34.873Z</time></trkpt><trkpt lat="40.6534367" lon="15.0059117"><ele>132.0</ele><time>2026-04-13T16:09:35.873Z</time></trkpt><trkpt lat="40.653395" lon="15.0060767"><ele>132.0</ele><time>2026-04-13T16:09:36.873Z</time></trkpt><trkpt lat="40.65336" lon="15.0062317"><ele>132.0</ele><time>2026-04-13T16:09:37.875Z</time></trkpt><trkpt lat="40.6533433" lon="15.0063967"><ele>132.0</ele><time>2026-04-13T16:09:38.875Z</time></trkpt><trkpt lat="40.65333" lon="15.0065517"><ele>132.0</ele><time>2026-04-13T16:09:39.873Z</time></trkpt><trkpt lat="40.653295" lon="15.006685"><ele>132.25</ele><time>2026-04-13T16:09:40.874Z</time></trkpt><trkpt lat="40.6532483" lon="15.0068133"><ele>132.5</ele><time>2026-04-13T16:09:41.873Z</time></trkpt><trkpt lat="40.6531667" lon="15.0069317"><ele>132.75</ele><time>2026-04-13T16:09:42.875Z</time></trkpt><trkpt lat="40.6530633" lon="15.007035"><ele>133.0</ele><time>2026-04-13T16:09:43.875Z</time></trkpt><trkpt lat="40.6529417" lon="15.00713"><ele>133.0</ele><time>2026-04-13T16:09:44.876Z</time></trkpt><trkpt lat="40.6528067" lon="15.0072217"><ele>133.0</ele><time>2026-04-13T16:09:45.875Z</time></trkpt><trkpt lat="40.6526717" lon="15.007295"><ele>133.0</ele><time>2026-04-13T16:09:46.875Z</time></trkpt><trkpt lat="40.6525317" lon="15.007365"><ele>133.0</ele><time>2026-04-13T16:09:47.874Z</time></trkpt><trkpt lat="40.6523933" lon="15.0074283"><ele>132.25</ele><time>2026-04-13T16:09:48.873Z</time></trkpt><trkpt lat="40.652255" lon="15.0074917"><ele>131.5</ele><time>2026-04-13T16:09:49.874Z</time></trkpt><trkpt lat="40.6521167" lon="15.0075583"><ele>130.75</ele><time>2026-04-13T16:09:50.873Z</time></trkpt><trkpt lat="40.65199" lon="15.0076217"><ele>130.0</ele><time>2026-04-13T16:09:51.874Z</time></trkpt><trkpt lat="40.65188" lon="15.007695"><ele>129.75</ele><time>2026-04-13T16:09:52.873Z</time></trkpt><trkpt lat="40.65178" lon="15.0077833"><ele>129.5</ele><time>2026-04-13T16:09:53.874Z</time></trkpt><trkpt lat="40.6516933" lon="15.0078933"><ele>129.25</ele><time>2026-04-13T16:09:54.873Z</time></trkpt><trkpt lat="40.6516367" lon="15.008025"><ele>129.0</ele><time>2026-04-13T16:09:55.873Z</time></trkpt><trkpt lat="40.6515933" lon="15.0081783"><ele>128.75</ele><time>2026-04-13T16:09:56.872Z</time></trkpt><trkpt lat="40.65156" lon="15.0083417"><ele>128.5</ele><time>2026-04-13T16:09:57.873Z</time></trkpt><trkpt lat="40.65155" lon="15.0085183"><ele>128.25</ele><time>2026-04-13T16:09:58.875Z</time></trkpt><trkpt lat="40.65154" lon="15.0087017"><ele>128.0</ele><time>2026-04-13T16:09:59.876Z</time></trkpt><trkpt lat="40.65153" lon="15.0088833"><ele>128.0</ele><time>2026-04-13T16:10:00.876Z</time></trkpt><trkpt lat="40.65152" lon="15.0090667"><ele>128.0</ele><time>2026-04-13T16:10:01.873Z</time></trkpt><trkpt lat="40.6514933" lon="15.0092517"><ele>128.0</ele><time>2026-04-13T16:10:02.873Z</time></trkpt><trkpt lat="40.6514517" lon="15.00944"><ele>128.0</ele><time>2026-04-13T16:10:03.874Z</time></trkpt><trkpt lat="40.6514117" lon="15.00963"><ele>128.66666666666666</ele><time>2026-04-13T16:10:04.876Z</time></trkpt><trkpt lat="40.651385" lon="15.0098217"><ele>129.33333333333334</ele><time>2026-04-13T16:10:05.873Z</time></trkpt><trkpt lat="40.6513533" lon="15.0100167"><ele>130.0</ele><time>2026-04-13T16:10:06.876Z</time></trkpt><trkpt lat="40.6513117" lon="15.01022"><ele>130.0</ele><time>2026-04-13T16:10:07.873Z</time></trkpt><trkpt lat="40.6512633" lon="15.010415"><ele>130.0</ele><time>2026-04-13T16:10:08.872Z</time></trkpt><trkpt lat="40.6512017" lon="15.0106133"><ele>130.0</ele><time>2026-04-13T16:10:09.875Z</time></trkpt><trkpt lat="40.651135" lon="15.01081"><ele>130.66666666666669</ele><time>2026-04-13T16:10:10.874Z</time></trkpt><trkpt lat="40.65108" lon="15.010995"><ele>131.33333333333334</ele><time>2026-04-13T16:10:11.876Z</time></trkpt><trkpt lat="40.6510117" lon="15.011175"><ele>132.0</ele><time>2026-04-13T16:10:12.878Z</time></trkpt><trkpt lat="40.65095" lon="15.01136"><ele>132.0</ele><time>2026-04-13T16:10:13.875Z</time></trkpt><trkpt lat="40.6508933" lon="15.011555"><ele>132.0</ele><time>2026-04-13T16:10:14.873Z</time></trkpt><trkpt lat="40.65083" lon="15.0117333"><ele>132.0</ele><time>2026-04-13T16:10:15.873Z</time></trkpt><trkpt lat="40.6507617" lon="15.0119133"><ele>132.5</ele><time>2026-04-13T16:10:16.876Z</time></trkpt><trkpt lat="40.6506967" lon="15.0120767"><ele>133.0</ele><time>2026-04-13T16:10:17.874Z</time></trkpt><trkpt lat="40.6506333" lon="15.012235"><ele>133.5</ele><time>2026-04-13T16:10:18.874Z</time></trkpt><trkpt lat="40.6505733" lon="15.0123967"><ele>134.0</ele><time>2026-04-13T16:10:19.874Z</time></trkpt><trkpt lat="40.650515" lon="15.0125533"><ele>134.25</ele><time>2026-04-13T16:10:20.873Z</time></trkpt><trkpt lat="40.6504517" lon="15.0126983"><ele>134.5</ele><time>2026-04-13T16:10:21.873Z</time></trkpt><trkpt lat="40.650395" lon="15.0128317"><ele>134.75</ele><time>2026-04-13T16:10:22.873Z</time></trkpt><trkpt lat="40.6503233" lon="15.0129583"><ele>135.0</ele><time>2026-04-13T16:10:23.873Z</time></trkpt><trkpt lat="40.6502533" lon="15.0130967"><ele>135.0</ele><time>2026-04-13T16:10:24.873Z</time></trkpt><trkpt lat="40.6501783" lon="15.013245"><ele>135.0</ele><time>2026-04-13T16:10:25.877Z</time></trkpt><trkpt lat="40.6500967" lon="15.0134033"><ele>135.0</ele><time>2026-04-13T16:10:26.873Z</time></trkpt><trkpt lat="40.6500083" lon="15.0135517"><ele>135.0</ele><time>2026-04-13T16:10:27.875Z</time></trkpt><trkpt lat="40.6499233" lon="15.0136917"><ele>135.25</ele><time>2026-04-13T16:10:28.875Z</time></trkpt><trkpt lat="40.6498483" lon="15.0138333"><ele>135.5</ele><time>2026-04-13T16:10:29.872Z</time></trkpt><trkpt lat="40.6497717" lon="15.0139767"><ele>135.75</ele><time>2026-04-13T16:10:30.876Z</time></trkpt><trkpt lat="40.64968" lon="15.0141"><ele>136.0</ele><time>2026-04-13T16:10:31.875Z</time></trkpt><trkpt lat="40.64959" lon="15.0142133"><ele>136.25</ele><time>2026-04-13T16:10:32.877Z</time></trkpt><trkpt lat="40.6495083" lon="15.014325"><ele>136.5</ele><time>2026-04-13T16:10:33.877Z</time></trkpt><trkpt lat="40.649425" lon="15.014435"><ele>136.75</ele><time>2026-04-13T16:10:34.873Z</time></trkpt><trkpt lat="40.64934" lon="15.0145367"><ele>137.0</ele><time>2026-04-13T16:10:35.874Z</time></trkpt><trkpt lat="40.649255" lon="15.014625"><ele>136.6</ele><time>2026-04-13T16:10:36.873Z</time></trkpt><trkpt lat="40.649175" lon="15.0147083"><ele>136.2</ele><time>2026-04-13T16:10:37.873Z</time></trkpt><trkpt lat="40.6491133" lon="15.0147983"><ele>135.8</ele><time>2026-04-13T16:10:38.874Z</time></trkpt><trkpt lat="40.6490583" lon="15.014875"><ele>135.4</ele><time>2026-04-13T16:10:39.874Z</time></trkpt><trkpt lat="40.6490283" lon="15.014995"><ele>135.0</ele><time>2026-04-13T16:10:40.872Z</time></trkpt><trkpt lat="40.6489933" lon="15.0151333"><ele>135.0</ele><time>2026-04-13T16:10:41.873Z</time></trkpt><trkpt lat="40.648985" lon="15.0152817"><ele>135.0</ele><time>2026-04-13T16:10:42.876Z</time></trkpt><trkpt lat="40.64897" lon="15.0154367"><ele>135.0</ele><time>2026-04-13T16:10:43.875Z</time></trkpt><trkpt lat="40.6489567" lon="15.0156033"><ele>135.0</ele><time>2026-04-13T16:10:44.874Z</time></trkpt><trkpt lat="40.6489517" lon="15.0157833"><ele>135.5</ele><time>2026-04-13T16:10:45.875Z</time></trkpt><trkpt lat="40.648945" lon="15.0159617"><ele>136.0</ele><time>2026-04-13T16:10:46.876Z</time></trkpt><trkpt lat="40.64895" lon="15.01614"><ele>136.5</ele><time>2026-04-13T16:10:47.873Z</time></trkpt><trkpt lat="40.6489517" lon="15.0163233"><ele>137.0</ele><time>2026-04-13T16:10:48.872Z</time></trkpt><trkpt lat="40.6489317" lon="15.0164983"><ele>137.25</ele><time>2026-04-13T16:10:49.872Z</time></trkpt><trkpt lat="40.6489083" lon="15.0166767"><ele>137.5</ele><time>2026-04-13T16:10:50.873Z</time></trkpt><trkpt lat="40.648885" lon="15.0168417"><ele>137.75</ele><time>2026-04-13T16:10:51.874Z</time></trkpt><trkpt lat="40.6488667" lon="15.016985"><ele>138.0</ele><time>2026-04-13T16:10:52.873Z</time></trkpt><trkpt lat="40.6488683" lon="15.0171133"><ele>138.0</ele><time>2026-04-13T16:10:53.874Z</time></trkpt><trkpt lat="40.6488883" lon="15.0172317"><ele>138.0</ele><time>2026-04-13T16:10:54.876Z</time></trkpt><trkpt lat="40.64892" lon="15.0173333"><ele>138.0</ele><time>2026-04-13T16:10:55.875Z</time></trkpt><trkpt lat="40.64895" lon="15.0174217"><ele>138.0</ele><time>2026-04-13T16:10:56.875Z</time></trkpt><trkpt lat="40.6489767" lon="15.0175"><ele>138.0</ele><time>2026-04-13T16:10:57.874Z</time></trkpt><trkpt lat="40.6490067" lon="15.0175767"><ele>138.0</ele><time>2026-04-13T16:10:58.873Z</time></trkpt><trkpt lat="40.64904" lon="15.0177"><ele>138.4</ele><time>2026-04-13T16:11:00.876Z</time></trkpt><trkpt lat="40.649055" lon="15.017795"><ele>138.8</ele><time>2026-04-13T16:11:02.873Z</time></trkpt><trkpt lat="40.6490233" lon="15.0178783"><ele>139.2</ele><time>2026-04-13T16:11:04.872Z</time></trkpt><trkpt lat="40.64894" lon="15.0178767"><ele>139.6</ele><time>2026-04-13T16:11:06.873Z</time></trkpt><trkpt lat="40.6488433" lon="15.0177783"><ele>140.0</ele><time>2026-04-13T16:11:07.875Z</time></trkpt><trkpt lat="40.64875" lon="15.0176833"><ele>140.0</ele><time>2026-04-13T16:11:08.873Z</time></trkpt><trkpt lat="40.6486517" lon="15.01757"><ele>140.0</ele><time>2026-04-13T16:11:09.873Z</time></trkpt><trkpt lat="40.6485467" lon="15.01747"><ele>140.0</ele><time>2026-04-13T16:11:10.872Z</time></trkpt><trkpt lat="40.6484133" lon="15.0173633"><ele>140.0</ele><time>2026-04-13T16:11:11.874Z</time></trkpt><trkpt lat="40.6482733" lon="15.0172467"><ele>136.33333333333331</ele><time>2026-04-13T16:11:12.874Z</time></trkpt><trkpt lat="40.6481367" lon="15.0171117"><ele>132.66666666666666</ele><time>2026-04-13T16:11:13.875Z</time></trkpt><trkpt lat="40.647995" lon="15.0169717"><ele>129.0</ele><time>2026-04-13T16:11:14.874Z</time></trkpt><trkpt lat="40.647855" lon="15.0168217"><ele>127.33333333333334</ele><time>2026-04-13T16:11:15.874Z</time></trkpt><trkpt lat="40.6477133" lon="15.016675"><ele>125.66666666666667</ele><time>2026-04-13T16:11:16.875Z</time></trkpt><trkpt lat="40.6475733" lon="15.0165317"><ele>124.0</ele><time>2026-04-13T16:11:17.873Z</time></trkpt><trkpt lat="40.6474267" lon="15.016395"><ele>123.33333333333334</ele><time>2026-04-13T16:11:18.873Z</time></trkpt><trkpt lat="40.6472783" lon="15.0162567"><ele>122.66666666666666</ele><time>2026-04-13T16:11:19.873Z</time></trkpt><trkpt lat="40.6471367" lon="15.0161167"><ele>122.0</ele><time>2026-04-13T16:11:20.873Z</time></trkpt><trkpt lat="40.6470017" lon="15.01598"><ele>121.66666666666666</ele><time>2026-04-13T16:11:21.873Z</time></trkpt><trkpt lat="40.6468683" lon="15.015855"><ele>121.33333333333334</ele><time>2026-04-13T16:11:22.872Z</time></trkpt><trkpt lat="40.64673" lon="15.0157483"><ele>121.0</ele><time>2026-04-13T16:11:23.874Z</time></trkpt><trkpt lat="40.6465967" lon="15.01563"><ele>121.0</ele><time>2026-04-13T16:11:24.876Z</time></trkpt><trkpt lat="40.64647" lon="15.015505"><ele>121.0</ele><time>2026-04-13T16:11:25.874Z</time></trkpt><trkpt lat="40.646335" lon="15.0153833"><ele>121.0</ele><time>2026-04-13T16:11:26.874Z</time></trkpt><trkpt lat="40.646195" lon="15.015265"><ele>120.33333333333334</ele><time>2026-04-13T16:11:27.874Z</time></trkpt><trkpt lat="40.6460583" lon="15.0151417"><ele>119.66666666666666</ele><time>2026-04-13T16:11:28.873Z</time></trkpt><trkpt lat="40.6459233" lon="15.015015"><ele>119.0</ele><time>2026-04-13T16:11:29.873Z</time></trkpt><trkpt lat="40.6457867" lon="15.0148883"><ele>119.0</ele><time>2026-04-13T16:11:30.873Z</time></trkpt><trkpt lat="40.6456417" lon="15.0147667"><ele>119.0</ele><time>2026-04-13T16:11:31.874Z</time></trkpt><trkpt lat="40.6455" lon="15.01464"><ele>119.0</ele><time>2026-04-13T16:11:32.872Z</time></trkpt><trkpt lat="40.6453733" lon="15.0145117"><ele>120.0</ele><time>2026-04-13T16:11:33.873Z</time></trkpt><trkpt lat="40.645235" lon="15.0143917"><ele>121.0</ele><time>2026-04-13T16:11:34.873Z</time></trkpt><trkpt lat="40.6450933" lon="15.0142733"><ele>122.0</ele><time>2026-04-13T16:11:35.874Z</time></trkpt><trkpt lat="40.6449617" lon="15.0141583"><ele>120.75</ele><time>2026-04-13T16:11:36.874Z</time></trkpt><trkpt lat="40.6448383" lon="15.0140467"><ele>119.5</ele><time>2026-04-13T16:11:37.873Z</time></trkpt><trkpt lat="40.6447233" lon="15.0139267"><ele>118.25</ele><time>2026-04-13T16:11:38.875Z</time></trkpt><trkpt lat="40.6446033" lon="15.0138067"><ele>117.0</ele><time>2026-04-13T16:11:39.874Z</time></trkpt><trkpt lat="40.64448" lon="15.013675"><ele>118.0</ele><time>2026-04-13T16:11:40.873Z</time></trkpt><trkpt lat="40.644415" lon="15.0135"><ele>119.0</ele><time>2026-04-13T16:11:41.873Z</time></trkpt><trkpt lat="40.644355" lon="15.0133183"><ele>120.0</ele><time>2026-04-13T16:11:42.876Z</time></trkpt><trkpt lat="40.6442933" lon="15.0131367"><ele>121.0</ele><time>2026-04-13T16:11:43.873Z</time></trkpt><trkpt lat="40.6442267" lon="15.01296"><ele>121.0</ele><time>2026-04-13T16:11:44.874Z</time></trkpt><trkpt lat="40.6441567" lon="15.0127817"><ele>121.0</ele><time>2026-04-13T16:11:45.873Z</time></trkpt><trkpt lat="40.6440917" lon="15.0126083"><ele>121.0</ele><time>2026-04-13T16:11:46.874Z</time></trkpt><trkpt lat="40.6440267" lon="15.012435"><ele>121.0</ele><time>2026-04-13T16:11:47.874Z</time></trkpt><trkpt lat="40.643965" lon="15.0122583"><ele>120.0</ele><time>2026-04-13T16:11:48.873Z</time></trkpt><trkpt lat="40.6439067" lon="15.0120883"><ele>119.0</ele><time>2026-04-13T16:11:49.875Z</time></trkpt><trkpt lat="40.6438467" lon="15.011915"><ele>118.0</ele><time>2026-04-13T16:11:50.872Z</time></trkpt><trkpt lat="40.6437817" lon="15.0117417"><ele>117.0</ele><time>2026-04-13T16:11:51.873Z</time></trkpt><trkpt lat="40.6437133" lon="15.011565"><ele>117.0</ele><time>2026-04-13T16:11:52.873Z</time></trkpt><trkpt lat="40.643645" lon="15.0113817"><ele>117.0</ele><time>2026-04-13T16:11:53.873Z</time></trkpt><trkpt lat="40.6435767" lon="15.011195"><ele>117.0</ele><time>2026-04-13T16:11:54.873Z</time></trkpt><trkpt lat="40.6435117" lon="15.0110117"><ele>117.0</ele><time>2026-04-13T16:11:55.876Z</time></trkpt><trkpt lat="40.6434533" lon="15.010835"><ele>117.0</ele><time>2026-04-13T16:11:56.874Z</time></trkpt><trkpt lat="40.6434017" lon="15.010675"><ele>117.0</ele><time>2026-04-13T16:11:57.874Z</time></trkpt><trkpt lat="40.6433517" lon="15.01054"><ele>117.0</ele><time>2026-04-13T16:11:58.873Z</time></trkpt><trkpt lat="40.6433017" lon="15.0104083"><ele>116.25</ele><time>2026-04-13T16:11:59.873Z</time></trkpt><trkpt lat="40.6432433" lon="15.010275"><ele>115.5</ele><time>2026-04-13T16:12:00.873Z</time></trkpt><trkpt lat="40.6431817" lon="15.0101283"><ele>114.75</ele><time>2026-04-13T16:12:01.873Z</time></trkpt><trkpt lat="40.6431183" lon="15.0099733"><ele>114.0</ele><time>2026-04-13T16:12:02.874Z</time></trkpt><trkpt lat="40.6430517" lon="15.0098017"><ele>113.33333333333334</ele><time>2026-04-13T16:12:03.873Z</time></trkpt><trkpt lat="40.642985" lon="15.0096217"><ele>112.66666666666667</ele><time>2026-04-13T16:12:04.875Z</time></trkpt><trkpt lat="40.642915" lon="15.009435"><ele>112.0</ele><time>2026-04-13T16:12:05.873Z</time></trkpt><trkpt lat="40.6428417" lon="15.00924"><ele>111.66666666666667</ele><time>2026-04-13T16:12:06.873Z</time></trkpt><trkpt lat="40.6427667" lon="15.00904"><ele>111.33333333333334</ele><time>2026-04-13T16:12:07.873Z</time></trkpt><trkpt lat="40.6426967" lon="15.0088383"><ele>111.0</ele><time>2026-04-13T16:12:08.873Z</time></trkpt><trkpt lat="40.64262" lon="15.0086317"><ele>111.0</ele><time>2026-04-13T16:12:09.873Z</time></trkpt><trkpt lat="40.642535" lon="15.0084267"><ele>111.0</ele><time>2026-04-13T16:12:10.874Z</time></trkpt><trkpt lat="40.642455" lon="15.0082167"><ele>111.0</ele><time>2026-04-13T16:12:11.873Z</time></trkpt><trkpt lat="40.6423767" lon="15.0080083"><ele>110.33333333333334</ele><time>2026-04-13T16:12:12.873Z</time></trkpt><trkpt lat="40.6423" lon="15.007795"><ele>109.66666666666667</ele><time>2026-04-13T16:12:13.872Z</time></trkpt><trkpt lat="40.6422117" lon="15.0076017"><ele>109.0</ele><time>2026-04-13T16:12:14.876Z</time></trkpt><trkpt lat="40.64212" lon="15.0074017"><ele>108.66666666666667</ele><time>2026-04-13T16:12:15.876Z</time></trkpt><trkpt lat="40.64202" lon="15.0072017"><ele>108.33333333333334</ele><time>2026-04-13T16:12:16.873Z</time></trkpt><trkpt lat="40.641915" lon="15.0070017"><ele>108.0</ele><time>2026-04-13T16:12:17.873Z</time></trkpt><trkpt lat="40.6418033" lon="15.0068033"><ele>107.66666666666666</ele><time>2026-04-13T16:12:18.876Z</time></trkpt><trkpt lat="40.641675" lon="15.00662"><ele>107.33333333333333</ele><time>2026-04-13T16:12:19.876Z</time></trkpt><trkpt lat="40.6415433" lon="15.0064333"><ele>107.0</ele><time>2026-04-13T16:12:20.876Z</time></trkpt><trkpt lat="40.6414083" lon="15.006265"><ele>107.0</ele><time>2026-04-13T16:12:21.875Z</time></trkpt><trkpt lat="40.641275" lon="15.0061"><ele>107.0</ele><time>2026-04-13T16:12:22.876Z</time></trkpt><trkpt lat="40.6411333" lon="15.0059467"><ele>107.0</ele><time>2026-04-13T16:12:23.876Z</time></trkpt><trkpt lat="40.6409883" lon="15.0058"><ele>106.33333333333333</ele><time>2026-04-13T16:12:24.875Z</time></trkpt><trkpt lat="40.6408333" lon="15.00566"><ele>105.66666666666666</ele><time>2026-04-13T16:12:25.874Z</time></trkpt><trkpt lat="40.6406733" lon="15.0055333"><ele>105.0</ele><time>2026-04-13T16:12:26.873Z</time></trkpt><trkpt lat="40.6405083" lon="15.0054083"><ele>105.0</ele><time>2026-04-13T16:12:27.873Z</time></trkpt><trkpt lat="40.640345" lon="15.0052933"><ele>105.0</ele><time>2026-04-13T16:12:28.875Z</time></trkpt><trkpt lat="40.6401817" lon="15.00517"><ele>105.0</ele><time>2026-04-13T16:12:29.874Z</time></trkpt><trkpt lat="40.640015" lon="15.0050483"><ele>104.66666666666666</ele><time>2026-04-13T16:12:30.873Z</time></trkpt><trkpt lat="40.639845" lon="15.0049367"><ele>104.33333333333333</ele><time>2026-04-13T16:12:31.873Z</time></trkpt><trkpt lat="40.6396817" lon="15.0048233"><ele>104.0</ele><time>2026-04-13T16:12:32.873Z</time></trkpt><trkpt lat="40.6395233" lon="15.0047233"><ele>104.33333333333333</ele><time>2026-04-13T16:12:33.874Z</time></trkpt><trkpt lat="40.639365" lon="15.0046283"><ele>104.66666666666666</ele><time>2026-04-13T16:12:34.872Z</time></trkpt><trkpt lat="40.6392117" lon="15.0045317"><ele>105.0</ele><time>2026-04-13T16:12:35.875Z</time></trkpt><trkpt lat="40.63908" lon="15.0043817"><ele>105.0</ele><time>2026-04-13T16:12:36.873Z</time></trkpt><trkpt lat="40.6389517" lon="15.004215"><ele>105.0</ele><time>2026-04-13T16:12:37.874Z</time></trkpt><trkpt lat="40.638825" lon="15.0040417"><ele>105.0</ele><time>2026-04-13T16:12:38.872Z</time></trkpt><trkpt lat="40.6386967" lon="15.003875"><ele>105.0</ele><time>2026-04-13T16:12:39.873Z</time></trkpt><trkpt lat="40.6385767" lon="15.0037"><ele>105.0</ele><time>2026-04-13T16:12:40.873Z</time></trkpt><trkpt lat="40.6384533" lon="15.00353"><ele>105.0</ele><time>2026-04-13T16:12:41.875Z</time></trkpt><trkpt lat="40.63833" lon="15.0033567"><ele>103.66666666666666</ele><time>2026-04-13T16:12:42.875Z</time></trkpt><trkpt lat="40.6382017" lon="15.0031883"><ele>102.33333333333333</ele><time>2026-04-13T16:12:43.876Z</time></trkpt><trkpt lat="40.6380683" lon="15.0030283"><ele>101.0</ele><time>2026-04-13T16:12:44.875Z</time></trkpt><trkpt lat="40.6379333" lon="15.0028633"><ele>101.0</ele><time>2026-04-13T16:12:45.875Z</time></trkpt><trkpt lat="40.6378" lon="15.0027"><ele>101.0</ele><time>2026-04-13T16:12:46.876Z</time></trkpt><trkpt lat="40.6376667" lon="15.0025333"><ele>101.0</ele><time>2026-04-13T16:12:47.873Z</time></trkpt><trkpt lat="40.63754" lon="15.0023667"><ele>101.0</ele><time>2026-04-13T16:12:48.875Z</time></trkpt><trkpt lat="40.6374267" lon="15.0022167"><ele>101.0</ele><time>2026-04-13T16:12:49.877Z</time></trkpt><trkpt lat="40.6373167" lon="15.0020967"><ele>101.0</ele><time>2026-04-13T16:12:50.875Z</time></trkpt><trkpt lat="40.6372083" lon="15.001955"><ele>101.0</ele><time>2026-04-13T16:12:51.876Z</time></trkpt><trkpt lat="40.6370933" lon="15.0018067"><ele>101.0</ele><time>2026-04-13T16:12:52.875Z</time></trkpt><trkpt lat="40.6369717" lon="15.00165"><ele>101.0</ele><time>2026-04-13T16:12:53.875Z</time></trkpt><trkpt lat="40.6368483" lon="15.0014933"><ele>100.0</ele><time>2026-04-13T16:12:54.873Z</time></trkpt><trkpt lat="40.6367233" lon="15.0013417"><ele>99.0</ele><time>2026-04-13T16:12:55.872Z</time></trkpt><trkpt lat="40.6365983" lon="15.0011917"><ele>98.0</ele><time>2026-04-13T16:12:56.875Z</time></trkpt><trkpt lat="40.63647" lon="15.0010333"><ele>98.0</ele><time>2026-04-13T16:12:57.877Z</time></trkpt><trkpt lat="40.63634" lon="15.000875"><ele>98.0</ele><time>2026-04-13T16:12:58.875Z</time></trkpt><trkpt lat="40.6362117" lon="15.0007033"><ele>98.0</ele><time>2026-04-13T16:12:59.875Z</time></trkpt><trkpt lat="40.6360767" lon="15.0005417"><ele>97.66666666666666</ele><time>2026-04-13T16:13:00.876Z</time></trkpt><trkpt lat="40.6359467" lon="15.0003767"><ele>97.33333333333334</ele><time>2026-04-13T16:13:01.876Z</time></trkpt><trkpt lat="40.6358183" lon="15.0002167"><ele>97.0</ele><time>2026-04-13T16:13:02.875Z</time></trkpt><trkpt lat="40.6357083" lon="15.00006"><ele>97.0</ele><time>2026-04-13T16:13:03.875Z</time></trkpt><trkpt lat="40.6355883" lon="14.9999067"><ele>97.0</ele><time>2026-04-13T16:13:04.875Z</time></trkpt><trkpt lat="40.6354767" lon="14.999765"><ele>97.0</ele><time>2026-04-13T16:13:05.873Z</time></trkpt><trkpt lat="40.63536" lon="14.99963"><ele>97.0</ele><time>2026-04-13T16:13:06.876Z</time></trkpt><trkpt lat="40.6352417" lon="14.999495"><ele>97.0</ele><time>2026-04-13T16:13:07.875Z</time></trkpt><trkpt lat="40.6351183" lon="14.9993683"><ele>97.0</ele><time>2026-04-13T16:13:08.875Z</time></trkpt><trkpt lat="40.6349883" lon="14.9992483"><ele>96.75</ele><time>2026-04-13T16:13:09.873Z</time></trkpt><trkpt lat="40.634865" lon="14.9991333"><ele>96.5</ele><time>2026-04-13T16:13:10.876Z</time></trkpt><trkpt lat="40.63475" lon="14.9990183"><ele>96.25</ele><time>2026-04-13T16:13:11.875Z</time></trkpt><trkpt lat="40.6346267" lon="14.99892"><ele>96.0</ele><time>2026-04-13T16:13:12.875Z</time></trkpt><trkpt lat="40.6344967" lon="14.9988233"><ele>98.25</ele><time>2026-04-13T16:13:13.874Z</time></trkpt><trkpt lat="40.6343617" lon="14.9987333"><ele>100.5</ele><time>2026-04-13T16:13:14.873Z</time></trkpt><trkpt lat="40.6342267" lon="14.9986633"><ele>102.75</ele><time>2026-04-13T16:13:15.873Z</time></trkpt><trkpt lat="40.6340933" lon="14.9985967"><ele>105.0</ele><time>2026-04-13T16:13:16.881Z</time></trkpt><trkpt lat="40.6339467" lon="14.9985333"><ele>105.0</ele><time>2026-04-13T16:13:17.873Z</time></trkpt><trkpt lat="40.6337883" lon="14.9984833"><ele>105.0</ele><time>2026-04-13T16:13:18.873Z</time></trkpt><trkpt lat="40.6336217" lon="14.9984417"><ele>105.0</ele><time>2026-04-13T16:13:19.873Z</time></trkpt><trkpt lat="40.6334467" lon="14.9984083"><ele>103.33333333333334</ele><time>2026-04-13T16:13:20.873Z</time></trkpt><trkpt lat="40.633265" lon="14.99837"><ele>101.66666666666667</ele><time>2026-04-13T16:13:21.873Z</time></trkpt><trkpt lat="40.6330767" lon="14.9983267"><ele>100.0</ele><time>2026-04-13T16:13:22.874Z</time></trkpt><trkpt lat="40.6328833" lon="14.998275"><ele>102.33333333333334</ele><time>2026-04-13T16:13:23.873Z</time></trkpt><trkpt lat="40.63269" lon="14.9982183"><ele>104.66666666666666</ele><time>2026-04-13T16:13:24.876Z</time></trkpt><trkpt lat="40.6324867" lon="14.9981717"><ele>107.0</ele><time>2026-04-13T16:13:25.874Z</time></trkpt><trkpt lat="40.632285" lon="14.9981267"><ele>107.0</ele><time>2026-04-13T16:13:26.876Z</time></trkpt><trkpt lat="40.6320833" lon="14.9980783"><ele>107.0</ele><time>2026-04-13T16:13:27.873Z</time></trkpt><trkpt lat="40.6318767" lon="14.9980383"><ele>107.0</ele><time>2026-04-13T16:13:28.873Z</time></trkpt><trkpt lat="40.6316667" lon="14.99801"><ele>107.33333333333333</ele><time>2026-04-13T16:13:29.873Z</time></trkpt><trkpt lat="40.6314633" lon="14.998005"><ele>107.66666666666666</ele><time>2026-04-13T16:13:30.875Z</time></trkpt><trkpt lat="40.631255" lon="14.9980133"><ele>108.0</ele><time>2026-04-13T16:13:31.877Z</time></trkpt><trkpt lat="40.6310533" lon="14.9980133"><ele>108.0</ele><time>2026-04-13T16:13:32.875Z</time></trkpt><trkpt lat="40.630865" lon="14.9980117"><ele>108.0</ele><time>2026-04-13T16:13:33.875Z</time></trkpt><trkpt lat="40.6306767" lon="14.9980183"><ele>108.0</ele><time>2026-04-13T16:13:34.874Z</time></trkpt><trkpt lat="40.630495" lon="14.9980283"><ele>108.0</ele><time>2026-04-13T16:13:35.878Z</time></trkpt><trkpt lat="40.6303317" lon="14.9980317"><ele>108.0</ele><time>2026-04-13T16:13:36.875Z</time></trkpt><trkpt lat="40.6301717" lon="14.9980267"><ele>108.0</ele><time>2026-04-13T16:13:37.873Z</time></trkpt><trkpt lat="40.630005" lon="14.998"><ele>107.33333333333334</ele><time>2026-04-13T16:13:38.876Z</time></trkpt><trkpt lat="40.6298367" lon="14.9979433"><ele>106.66666666666667</ele><time>2026-04-13T16:13:39.878Z</time></trkpt><trkpt lat="40.62967" lon="14.9978633"><ele>106.0</ele><time>2026-04-13T16:13:40.873Z</time></trkpt><trkpt lat="40.629505" lon="14.9977733"><ele>103.33333333333334</ele><time>2026-04-13T16:13:41.873Z</time></trkpt><trkpt lat="40.62934" lon="14.9976817"><ele>100.66666666666666</ele><time>2026-04-13T16:13:42.877Z</time></trkpt><trkpt lat="40.629175" lon="14.9975867"><ele>98.0</ele><time>2026-04-13T16:13:43.875Z</time></trkpt><trkpt lat="40.6290033" lon="14.9974933"><ele>97.66666666666666</ele><time>2026-04-13T16:13:44.873Z</time></trkpt><trkpt lat="40.62883" lon="14.9974083"><ele>97.33333333333334</ele><time>2026-04-13T16:13:45.873Z</time></trkpt><trkpt lat="40.62865" lon="14.9973283"><ele>97.0</ele><time>2026-04-13T16:13:46.875Z</time></trkpt><trkpt lat="40.62847" lon="14.9972483"><ele>97.0</ele><time>2026-04-13T16:13:47.873Z</time></trkpt><trkpt lat="40.62829" lon="14.9971617"><ele>97.0</ele><time>2026-04-13T16:13:48.873Z</time></trkpt><trkpt lat="40.62811" lon="14.9970783"><ele>97.0</ele><time>2026-04-13T16:13:49.874Z</time></trkpt><trkpt lat="40.6279317" lon="14.9969883"><ele>99.66666666666667</ele><time>2026-04-13T16:13:50.874Z</time></trkpt><trkpt lat="40.6277567" lon="14.996895"><ele>102.33333333333334</ele><time>2026-04-13T16:13:51.875Z</time></trkpt><trkpt lat="40.62758" lon="14.9967983"><ele>105.0</ele><time>2026-04-13T16:13:52.873Z</time></trkpt><trkpt lat="40.6274033" lon="14.996695"><ele>101.66666666666667</ele><time>2026-04-13T16:13:53.873Z</time></trkpt><trkpt lat="40.62723" lon="14.9965867"><ele>98.33333333333334</ele><time>2026-04-13T16:13:54.875Z</time></trkpt><trkpt lat="40.627065" lon="14.9964733"><ele>95.0</ele><time>2026-04-13T16:13:55.875Z</time></trkpt><trkpt lat="40.6269067" lon="14.9963383"><ele>101.66666666666667</ele><time>2026-04-13T16:13:56.875Z</time></trkpt><trkpt lat="40.6267617" lon="14.9961883"><ele>108.33333333333334</ele><time>2026-04-13T16:13:57.875Z</time></trkpt><trkpt lat="40.626625" lon="14.99602"><ele>115.0</ele><time>2026-04-13T16:13:58.874Z</time></trkpt><trkpt lat="40.62649" lon="14.9958417"><ele>117.33333333333334</ele><time>2026-04-13T16:13:59.874Z</time></trkpt><trkpt lat="40.6263567" lon="14.9956633"><ele>119.66666666666666</ele><time>2026-04-13T16:14:00.873Z</time></trkpt><trkpt lat="40.62623" lon="14.9954833"><ele>122.0</ele><time>2026-04-13T16:14:01.873Z</time></trkpt><trkpt lat="40.6261017" lon="14.9953133"><ele>122.0</ele><time>2026-04-13T16:14:02.873Z</time></trkpt><trkpt lat="40.6259717" lon="14.9951367"><ele>122.0</ele><time>2026-04-13T16:14:03.874Z</time></trkpt><trkpt lat="40.625835" lon="14.9949617"><ele>122.0</ele><time>2026-04-13T16:14:04.873Z</time></trkpt><trkpt lat="40.6256983" lon="14.9947883"><ele>113.33333333333333</ele><time>2026-04-13T16:14:05.873Z</time></trkpt><trkpt lat="40.62557" lon="14.9946133"><ele>104.66666666666666</ele><time>2026-04-13T16:14:06.873Z</time></trkpt><trkpt lat="40.6254367" lon="14.9944417"><ele>96.0</ele><time>2026-04-13T16:14:07.874Z</time></trkpt><trkpt lat="40.625315" lon="14.9942767"><ele>95.33333333333333</ele><time>2026-04-13T16:14:08.872Z</time></trkpt><trkpt lat="40.6252033" lon="14.9941233"><ele>94.66666666666666</ele><time>2026-04-13T16:14:09.873Z</time></trkpt><trkpt lat="40.6250867" lon="14.9939833"><ele>94.0</ele><time>2026-04-13T16:14:10.873Z</time></trkpt><trkpt lat="40.6249717" lon="14.9938717"><ele>94.0</ele><time>2026-04-13T16:14:11.873Z</time></trkpt><trkpt lat="40.6248583" lon="14.99377"><ele>94.0</ele><time>2026-04-13T16:14:12.873Z</time></trkpt><trkpt lat="40.62474" lon="14.9936883"><ele>94.0</ele><time>2026-04-13T16:14:13.873Z</time></trkpt><trkpt lat="40.6245933" lon="14.9936533"><ele>94.0</ele><time>2026-04-13T16:14:14.872Z</time></trkpt><trkpt lat="40.62444" lon="14.9936017"><ele>99.0</ele><time>2026-04-13T16:14:15.874Z</time></trkpt><trkpt lat="40.6242817" lon="14.9935433"><ele>104.0</ele><time>2026-04-13T16:14:16.874Z</time></trkpt><trkpt lat="40.6241167" lon="14.9934883"><ele>109.0</ele><time>2026-04-13T16:14:17.873Z</time></trkpt><trkpt lat="40.6239483" lon="14.9934317"><ele>109.0</ele><time>2026-04-13T16:14:18.874Z</time></trkpt><trkpt lat="40.62378" lon="14.993375"><ele>109.0</ele><time>2026-04-13T16:14:19.875Z</time></trkpt><trkpt lat="40.6236117" lon="14.99331"><ele>109.0</ele><time>2026-04-13T16:14:20.875Z</time></trkpt><trkpt lat="40.6234483" lon="14.993245"><ele>102.66666666666667</ele><time>2026-04-13T16:14:21.875Z</time></trkpt><trkpt lat="40.6232867" lon="14.9931567"><ele>96.33333333333334</ele><time>2026-04-13T16:14:22.874Z</time></trkpt><trkpt lat="40.62313" lon="14.99304"><ele>90.0</ele><time>2026-04-13T16:14:23.875Z</time></trkpt><trkpt lat="40.62298" lon="14.9929083"><ele>90.0</ele><time>2026-04-13T16:14:24.874Z</time></trkpt><trkpt lat="40.6228333" lon="14.9927617"><ele>90.0</ele><time>2026-04-13T16:14:25.874Z</time></trkpt><trkpt lat="40.6226867" lon="14.992615"><ele>90.0</ele><time>2026-04-13T16:14:26.874Z</time></trkpt><trkpt lat="40.6225517" lon="14.9924483"><ele>89.66666666666667</ele><time>2026-04-13T16:14:27.873Z</time></trkpt><trkpt lat="40.6224183" lon="14.9922633"><ele>89.33333333333334</ele><time>2026-04-13T16:14:28.874Z</time></trkpt><trkpt lat="40.622285" lon="14.9920817"><ele>89.0</ele><time>2026-04-13T16:14:29.873Z</time></trkpt><trkpt lat="40.6221567" lon="14.9919067"><ele>89.0</ele><time>2026-04-13T16:14:30.872Z</time></trkpt><trkpt lat="40.6220317" lon="14.991745"><ele>89.0</ele><time>2026-04-13T16:14:31.873Z</time></trkpt><trkpt lat="40.6219133" lon="14.9915933"><ele>89.0</ele><time>2026-04-13T16:14:32.873Z</time></trkpt><trkpt lat="40.6218" lon="14.991455"><ele>89.66666666666667</ele><time>2026-04-13T16:14:33.873Z</time></trkpt><trkpt lat="40.6216767" lon="14.9913317"><ele>90.33333333333333</ele><time>2026-04-13T16:14:34.873Z</time></trkpt><trkpt lat="40.6215367" lon="14.9912283"><ele>91.0</ele><time>2026-04-13T16:14:35.873Z</time></trkpt><trkpt lat="40.6213833" lon="14.991155"><ele>91.0</ele><time>2026-04-13T16:14:36.873Z</time></trkpt><trkpt lat="40.6212233" lon="14.9910933"><ele>91.0</ele><time>2026-04-13T16:14:37.874Z</time></trkpt><trkpt lat="40.6210633" lon="14.9910317"><ele>91.0</ele><time>2026-04-13T16:14:38.873Z</time></trkpt><trkpt lat="40.6209083" lon="14.9909817"><ele>89.25</ele><time>2026-04-13T16:14:39.875Z</time></trkpt><trkpt lat="40.6207683" lon="14.99093"><ele>87.5</ele><time>2026-04-13T16:14:40.876Z</time></trkpt><trkpt lat="40.6206267" lon="14.9908683"><ele>85.75</ele><time>2026-04-13T16:14:41.875Z</time></trkpt><trkpt lat="40.6204933" lon="14.9908133"><ele>84.0</ele><time>2026-04-13T16:14:42.876Z</time></trkpt><trkpt lat="40.6203583" lon="14.99076"><ele>85.0</ele><time>2026-04-13T16:14:43.873Z</time></trkpt><trkpt lat="40.62022" lon="14.9907033"><ele>86.0</ele><time>2026-04-13T16:14:44.875Z</time></trkpt><trkpt lat="40.6200817" lon="14.9906467"><ele>87.0</ele><time>2026-04-13T16:14:45.878Z</time></trkpt><trkpt lat="40.61994" lon="14.99059"><ele>88.0</ele><time>2026-04-13T16:14:46.873Z</time></trkpt><trkpt lat="40.6198017" lon="14.9905367"><ele>88.0</ele><time>2026-04-13T16:14:47.872Z</time></trkpt><trkpt lat="40.61968" lon="14.9904917"><ele>88.0</ele><time>2026-04-13T16:14:48.874Z</time></trkpt><trkpt lat="40.6195617" lon="14.9904333"><ele>88.0</ele><time>2026-04-13T16:14:49.874Z</time></trkpt><trkpt lat="40.6194433" lon="14.9903783"><ele>88.0</ele><time>2026-04-13T16:14:50.873Z</time></trkpt><trkpt lat="40.6193367" lon="14.9903233"><ele>88.0</ele><time>2026-04-13T16:14:51.873Z</time></trkpt><trkpt lat="40.6192317" lon="14.9902617"><ele>88.0</ele><time>2026-04-13T16:14:52.873Z</time></trkpt><trkpt lat="40.6191283" lon="14.9901817"><ele>88.0</ele><time>2026-04-13T16:14:53.873Z</time></trkpt><trkpt lat="40.6190367" lon="14.990075"><ele>88.0</ele><time>2026-04-13T16:14:54.873Z</time></trkpt><trkpt lat="40.6189717" lon="14.9899367"><ele>86.0</ele><time>2026-04-13T16:14:55.873Z</time></trkpt><trkpt lat="40.6189233" lon="14.989785"><ele>84.0</ele><time>2026-04-13T16:14:56.874Z</time></trkpt><trkpt lat="40.618875" lon="14.9896183"><ele>82.0</ele><time>2026-04-13T16:14:57.874Z</time></trkpt><trkpt lat="40.6188233" lon="14.98946"><ele>80.0</ele><time>2026-04-13T16:14:58.873Z</time></trkpt><trkpt lat="40.6187633" lon="14.9892983"><ele>78.75</ele><time>2026-04-13T16:14:59.873Z</time></trkpt><trkpt lat="40.6187017" lon="14.9891433"><ele>77.5</ele><time>2026-04-13T16:15:00.874Z</time></trkpt><trkpt lat="40.61862" lon="14.989015"><ele>76.25</ele><time>2026-04-13T16:15:01.874Z</time></trkpt><trkpt lat="40.618535" lon="14.9888717"><ele>75.0</ele><time>2026-04-13T16:15:02.873Z</time></trkpt><trkpt lat="40.6184317" lon="14.988765"><ele>78.66666666666667</ele><time>2026-04-13T16:15:03.873Z</time></trkpt><trkpt lat="40.6183117" lon="14.9886467"><ele>82.33333333333334</ele><time>2026-04-13T16:15:04.873Z</time></trkpt><trkpt lat="40.6181917" lon="14.9885283"><ele>86.0</ele><time>2026-04-13T16:15:05.873Z</time></trkpt><trkpt lat="40.61807" lon="14.9884117"><ele>82.66666666666667</ele><time>2026-04-13T16:15:06.873Z</time></trkpt><trkpt lat="40.617945" lon="14.9882967"><ele>79.33333333333333</ele><time>2026-04-13T16:15:07.873Z</time></trkpt><trkpt lat="40.61781" lon="14.9882067"><ele>76.0</ele><time>2026-04-13T16:15:08.873Z</time></trkpt><trkpt lat="40.6176683" lon="14.988125"><ele>76.0</ele><time>2026-04-13T16:15:09.873Z</time></trkpt><trkpt lat="40.61752" lon="14.9880617"><ele>76.0</ele><time>2026-04-13T16:15:10.872Z</time></trkpt><trkpt lat="40.61737" lon="14.9879983"><ele>76.0</ele><time>2026-04-13T16:15:11.876Z</time></trkpt><trkpt lat="40.6172167" lon="14.9879367"><ele>76.0</ele><time>2026-04-13T16:15:12.876Z</time></trkpt><trkpt lat="40.6170567" lon="14.9879033"><ele>76.0</ele><time>2026-04-13T16:15:13.873Z</time></trkpt><trkpt lat="40.6168917" lon="14.9878783"><ele>76.0</ele><time>2026-04-13T16:15:14.875Z</time></trkpt><trkpt lat="40.6167317" lon="14.9878667"><ele>77.33333333333333</ele><time>2026-04-13T16:15:15.875Z</time></trkpt><trkpt lat="40.6165783" lon="14.987855"><ele>78.66666666666667</ele><time>2026-04-13T16:15:16.876Z</time></trkpt><trkpt lat="40.6164267" lon="14.98784"><ele>80.0</ele><time>2026-04-13T16:15:17.874Z</time></trkpt><trkpt lat="40.6161733" lon="14.9878417"><ele>79.4</ele><time>2026-04-13T16:15:19.873Z</time></trkpt><trkpt lat="40.6160683" lon="14.9878617"><ele>78.8</ele><time>2026-04-13T16:15:20.875Z</time></trkpt><trkpt lat="40.6159633" lon="14.9878683"><ele>78.2</ele><time>2026-04-13T16:15:21.873Z</time></trkpt><trkpt lat="40.6158633" lon="14.9878733"><ele>77.6</ele><time>2026-04-13T16:15:22.873Z</time></trkpt><trkpt lat="40.6157667" lon="14.9878817"><ele>77.0</ele><time>2026-04-13T16:15:23.874Z</time></trkpt><trkpt lat="40.615675" lon="14.9878933"><ele>77.0</ele><time>2026-04-13T16:15:24.874Z</time></trkpt><trkpt lat="40.6155917" lon="14.987895"><ele>77.0</ele><time>2026-04-13T16:15:25.872Z</time></trkpt><trkpt lat="40.61551" lon="14.9879117"><ele>77.0</ele><time>2026-04-13T16:15:26.872Z</time></trkpt><trkpt lat="40.61544" lon="14.9879267"><ele>77.0</ele><time>2026-04-13T16:15:27.874Z</time></trkpt><trkpt lat="40.6153717" lon="14.9879433"><ele>77.0</ele><time>2026-04-13T16:15:28.874Z</time></trkpt><trkpt lat="40.6153017" lon="14.9879633"><ele>77.0</ele><time>2026-04-13T16:15:29.873Z</time></trkpt><trkpt lat="40.6151883" lon="14.9879717"><ele>77.0</ele><time>2026-04-13T16:15:31.875Z</time></trkpt><trkpt lat="40.6151217" lon="14.9879817"><ele>77.0</ele><time>2026-04-13T16:15:32.876Z</time></trkpt><trkpt lat="40.61504" lon="14.9879817"><ele>77.0</ele><time>2026-04-13T16:15:33.873Z</time></trkpt><trkpt lat="40.6149333" lon="14.98799"><ele>77.0</ele><time>2026-04-13T16:15:34.872Z</time></trkpt><trkpt lat="40.6148233" lon="14.9879967"><ele>77.0</ele><time>2026-04-13T16:15:35.872Z</time></trkpt><trkpt lat="40.6147033" lon="14.9880033"><ele>77.0</ele><time>2026-04-13T16:15:36.874Z</time></trkpt><trkpt lat="40.6145867" lon="14.9880083"><ele>77.0</ele><time>2026-04-13T16:15:37.873Z</time></trkpt><trkpt lat="40.6144833" lon="14.9880233"><ele>77.0</ele><time>2026-04-13T16:15:38.872Z</time></trkpt><trkpt lat="40.614385" lon="14.9880433"><ele>77.0</ele><time>2026-04-13T16:15:39.873Z</time></trkpt><trkpt lat="40.6142833" lon="14.9880583"><ele>77.0</ele><time>2026-04-13T16:15:40.874Z</time></trkpt><trkpt lat="40.6141883" lon="14.98808"><ele>77.33333333333334</ele><time>2026-04-13T16:15:41.877Z</time></trkpt><trkpt lat="40.6140983" lon="14.988105"><ele>77.66666666666667</ele><time>2026-04-13T16:15:42.873Z</time></trkpt><trkpt lat="40.614015" lon="14.9881367"><ele>78.0</ele><time>2026-04-13T16:15:43.874Z</time></trkpt><trkpt lat="40.61394" lon="14.98816"><ele>78.33333333333333</ele><time>2026-04-13T16:15:44.874Z</time></trkpt><trkpt lat="40.6138717" lon="14.98818"><ele>78.66666666666666</ele><time>2026-04-13T16:15:45.874Z</time></trkpt><trkpt lat="40.61381" lon="14.9882"><ele>79.0</ele><time>2026-04-13T16:15:46.874Z</time></trkpt><trkpt lat="40.6137" lon="14.9882517"><ele>78.60000000000001</ele><time>2026-04-13T16:15:48.873Z</time></trkpt><trkpt lat="40.6136333" lon="14.9882817"><ele>78.2</ele><time>2026-04-13T16:15:49.874Z</time></trkpt><trkpt lat="40.6135467" lon="14.988325"><ele>77.80000000000001</ele><time>2026-04-13T16:15:50.872Z</time></trkpt><trkpt lat="40.613455" lon="14.9883583"><ele>77.4</ele><time>2026-04-13T16:15:51.872Z</time></trkpt><trkpt lat="40.6133433" lon="14.9884"><ele>77.0</ele><time>2026-04-13T16:15:52.872Z</time></trkpt><trkpt lat="40.6132233" lon="14.9884333"><ele>77.0</ele><time>2026-04-13T16:15:53.873Z</time></trkpt><trkpt lat="40.6131" lon="14.9884733"><ele>77.0</ele><time>2026-04-13T16:15:54.876Z</time></trkpt><trkpt lat="40.6129767" lon="14.9885167"><ele>77.0</ele><time>2026-04-13T16:15:55.874Z</time></trkpt><trkpt lat="40.6128683" lon="14.98856"><ele>77.0</ele><time>2026-04-13T16:15:56.875Z</time></trkpt><trkpt lat="40.612755" lon="14.98861"><ele>77.0</ele><time>2026-04-13T16:15:57.874Z</time></trkpt><trkpt lat="40.6126483" lon="14.98865"><ele>77.0</ele><time>2026-04-13T16:15:58.874Z</time></trkpt><trkpt lat="40.6125417" lon="14.9887033"><ele>77.0</ele><time>2026-04-13T16:15:59.874Z</time></trkpt><trkpt lat="40.6124417" lon="14.98876"><ele>77.0</ele><time>2026-04-13T16:16:00.874Z</time></trkpt><trkpt lat="40.6123433" lon="14.9888117"><ele>77.0</ele><time>2026-04-13T16:16:01.875Z</time></trkpt><trkpt lat="40.6122383" lon="14.9888483"><ele>77.0</ele><time>2026-04-13T16:16:02.874Z</time></trkpt><trkpt lat="40.6121283" lon="14.9888617"><ele>77.0</ele><time>2026-04-13T16:16:03.874Z</time></trkpt><trkpt lat="40.6120183" lon="14.9888367"><ele>77.0</ele><time>2026-04-13T16:16:04.874Z</time></trkpt><trkpt lat="40.6119083" lon="14.9887767"><ele>77.0</ele><time>2026-04-13T16:16:05.877Z</time></trkpt><trkpt lat="40.611805" lon="14.988695"><ele>76.6</ele><time>2026-04-13T16:16:06.874Z</time></trkpt><trkpt lat="40.6117167" lon="14.98862"><ele>76.2</ele><time>2026-04-13T16:16:07.872Z</time></trkpt><trkpt lat="40.6116383" lon="14.988545"><ele>75.8</ele><time>2026-04-13T16:16:08.872Z</time></trkpt><trkpt lat="40.611575" lon="14.9885017"><ele>75.4</ele><time>2026-04-13T16:16:09.873Z</time></trkpt><trkpt lat="40.6114433" lon="14.9885383"><ele>75.0</ele><time>2026-04-13T16:16:11.873Z</time></trkpt><trkpt lat="40.6113767" lon="14.98861"><ele>75.0</ele><time>2026-04-13T16:16:12.873Z</time></trkpt><trkpt lat="40.61131" lon="14.98871"><ele>75.0</ele><time>2026-04-13T16:16:13.872Z</time></trkpt><trkpt lat="40.61124" lon="14.9888117"><ele>75.0</ele><time>2026-04-13T16:16:14.874Z</time></trkpt><trkpt lat="40.61117" lon="14.9889083"><ele>75.0</ele><time>2026-04-13T16:16:15.874Z</time></trkpt><trkpt lat="40.6111033" lon="14.9890433"><ele>75.0</ele><time>2026-04-13T16:16:16.873Z</time></trkpt><trkpt lat="40.61106" lon="14.989155"><ele>75.2</ele><time>2026-04-13T16:16:17.874Z</time></trkpt><trkpt lat="40.61103" lon="14.9892567"><ele>75.4</ele><time>2026-04-13T16:16:18.873Z</time></trkpt><trkpt lat="40.61102" lon="14.9893833"><ele>75.6</ele><time>2026-04-13T16:16:19.874Z</time></trkpt><trkpt lat="40.611035" lon="14.989545"><ele>75.8</ele><time>2026-04-13T16:16:20.873Z</time></trkpt><trkpt lat="40.6110467" lon="14.9897183"><ele>76.0</ele><time>2026-04-13T16:16:21.876Z</time></trkpt><trkpt lat="40.61105" lon="14.989885"><ele>76.0</ele><time>2026-04-13T16:16:22.875Z</time></trkpt><trkpt lat="40.6110383" lon="14.990045"><ele>76.0</ele><time>2026-04-13T16:16:23.876Z</time></trkpt><trkpt lat="40.6110167" lon="14.9902133"><ele>76.0</ele><time>2026-04-13T16:16:24.875Z</time></trkpt><trkpt lat="40.6109983" lon="14.9903867"><ele>76.0</ele><time>2026-04-13T16:16:25.874Z</time></trkpt><trkpt lat="40.6109833" lon="14.9905633"><ele>76.0</ele><time>2026-04-13T16:16:26.875Z</time></trkpt><trkpt lat="40.6109633" lon="14.9907367"><ele>76.0</ele><time>2026-04-13T16:16:27.875Z</time></trkpt><trkpt lat="40.6109367" lon="14.9909117"><ele>76.0</ele><time>2026-04-13T16:16:28.875Z</time></trkpt><trkpt lat="40.6108933" lon="14.99107"><ele>76.0</ele><time>2026-04-13T16:16:29.874Z</time></trkpt><trkpt lat="40.610835" lon="14.9912067"><ele>76.25</ele><time>2026-04-13T16:16:30.875Z</time></trkpt><trkpt lat="40.6107683" lon="14.9913267"><ele>76.5</ele><time>2026-04-13T16:16:31.873Z</time></trkpt><trkpt lat="40.6106967" lon="14.991445"><ele>76.75</ele><time>2026-04-13T16:16:32.873Z</time></trkpt><trkpt lat="40.610615" lon="14.99154"><ele>77.0</ele><time>2026-04-13T16:16:33.873Z</time></trkpt><trkpt lat="40.6105267" lon="14.9916417"><ele>77.0</ele><time>2026-04-13T16:16:34.872Z</time></trkpt><trkpt lat="40.61043" lon="14.9917467"><ele>77.0</ele><time>2026-04-13T16:16:35.873Z</time></trkpt><trkpt lat="40.6103317" lon="14.9918483"><ele>77.0</ele><time>2026-04-13T16:16:36.873Z</time></trkpt><trkpt lat="40.6102333" lon="14.9919933"><ele>77.0</ele><time>2026-04-13T16:16:37.874Z</time></trkpt><trkpt lat="40.61013" lon="14.99213"><ele>76.75</ele><time>2026-04-13T16:16:38.874Z</time></trkpt><trkpt lat="40.610005" lon="14.99226"><ele>76.5</ele><time>2026-04-13T16:16:39.872Z</time></trkpt><trkpt lat="40.6099017" lon="14.9923767"><ele>76.25</ele><time>2026-04-13T16:16:40.873Z</time></trkpt><trkpt lat="40.6098083" lon="14.992505"><ele>76.0</ele><time>2026-04-13T16:16:41.876Z</time></trkpt><trkpt lat="40.6096983" lon="14.9926333"><ele>76.0</ele><time>2026-04-13T16:16:42.875Z</time></trkpt><trkpt lat="40.6095933" lon="14.9927633"><ele>76.0</ele><time>2026-04-13T16:16:43.875Z</time></trkpt><trkpt lat="40.6094933" lon="14.992895"><ele>76.0</ele><time>2026-04-13T16:16:44.873Z</time></trkpt><trkpt lat="40.609395" lon="14.9930333"><ele>76.0</ele><time>2026-04-13T16:16:45.874Z</time></trkpt><trkpt lat="40.60929" lon="14.9931717"><ele>75.66666666666666</ele><time>2026-04-13T16:16:46.874Z</time></trkpt><trkpt lat="40.609175" lon="14.9933033"><ele>75.33333333333333</ele><time>2026-04-13T16:16:47.874Z</time></trkpt><trkpt lat="40.609065" lon="14.993435"><ele>75.0</ele><time>2026-04-13T16:16:48.874Z</time></trkpt><trkpt lat="40.608955" lon="14.99357"><ele>74.75</ele><time>2026-04-13T16:16:49.872Z</time></trkpt><trkpt lat="40.6088533" lon="14.9937117"><ele>74.5</ele><time>2026-04-13T16:16:50.873Z</time></trkpt><trkpt lat="40.6087417" lon="14.9938433"><ele>74.25</ele><time>2026-04-13T16:16:51.873Z</time></trkpt><trkpt lat="40.608635" lon="14.9939833"><ele>74.0</ele><time>2026-04-13T16:16:52.873Z</time></trkpt><trkpt lat="40.6085133" lon="14.994105"><ele>74.25</ele><time>2026-04-13T16:16:53.873Z</time></trkpt><trkpt lat="40.6083917" lon="14.9942233"><ele>74.5</ele><time>2026-04-13T16:16:54.874Z</time></trkpt><trkpt lat="40.6082783" lon="14.9943467"><ele>74.75</ele><time>2026-04-13T16:16:55.873Z</time></trkpt><trkpt lat="40.6081717" lon="14.994475"><ele>75.0</ele><time>2026-04-13T16:16:56.873Z</time></trkpt><trkpt lat="40.60807" lon="14.9946083"><ele>75.0</ele><time>2026-04-13T16:16:57.873Z</time></trkpt><trkpt lat="40.607965" lon="14.9947433"><ele>75.0</ele><time>2026-04-13T16:16:58.873Z</time></trkpt><trkpt lat="40.6078567" lon="14.994865"><ele>75.0</ele><time>2026-04-13T16:16:59.872Z</time></trkpt><trkpt lat="40.60775" lon="14.994985"><ele>75.0</ele><time>2026-04-13T16:17:00.874Z</time></trkpt><trkpt lat="40.6076367" lon="14.9950933"><ele>76.0</ele><time>2026-04-13T16:17:01.873Z</time></trkpt><trkpt lat="40.6075217" lon="14.9951867"><ele>77.0</ele><time>2026-04-13T16:17:02.875Z</time></trkpt><trkpt lat="40.6074083" lon="14.995275"><ele>78.0</ele><time>2026-04-13T16:17:03.874Z</time></trkpt><trkpt lat="40.6072967" lon="14.995345"><ele>79.0</ele><time>2026-04-13T16:17:04.873Z</time></trkpt><trkpt lat="40.6071917" lon="14.9954117"><ele>79.0</ele><time>2026-04-13T16:17:05.875Z</time></trkpt><trkpt lat="40.6070817" lon="14.9954817"><ele>79.0</ele><time>2026-04-13T16:17:06.872Z</time></trkpt><trkpt lat="40.6069717" lon="14.9955433"><ele>79.0</ele><time>2026-04-13T16:17:07.875Z</time></trkpt><trkpt lat="40.60686" lon="14.9956033"><ele>79.0</ele><time>2026-04-13T16:17:08.873Z</time></trkpt><trkpt lat="40.60674" lon="14.9956617"><ele>78.5</ele><time>2026-04-13T16:17:09.874Z</time></trkpt><trkpt lat="40.6066217" lon="14.9957267"><ele>78.0</ele><time>2026-04-13T16:17:10.873Z</time></trkpt><trkpt lat="40.606505" lon="14.995785"><ele>77.5</ele><time>2026-04-13T16:17:11.873Z</time></trkpt><trkpt lat="40.6063883" lon="14.9958467"><ele>77.0</ele><time>2026-04-13T16:17:12.874Z</time></trkpt><trkpt lat="40.606275" lon="14.99592"><ele>77.0</ele><time>2026-04-13T16:17:13.875Z</time></trkpt><trkpt lat="40.60616" lon="14.9959933"><ele>77.0</ele><time>2026-04-13T16:17:14.874Z</time></trkpt><trkpt lat="40.6060433" lon="14.99607"><ele>77.0</ele><time>2026-04-13T16:17:15.876Z</time></trkpt><trkpt lat="40.605925" lon="14.99614"><ele>77.0</ele><time>2026-04-13T16:17:16.875Z</time></trkpt><trkpt lat="40.6058083" lon="14.9962083"><ele>77.0</ele><time>2026-04-13T16:17:17.874Z</time></trkpt><trkpt lat="40.6056917" lon="14.9962767"><ele>77.0</ele><time>2026-04-13T16:17:18.873Z</time></trkpt><trkpt lat="40.6055717" lon="14.9963433"><ele>77.0</ele><time>2026-04-13T16:17:19.872Z</time></trkpt><trkpt lat="40.60546" lon="14.9964067"><ele>77.0</ele><time>2026-04-13T16:17:20.873Z</time></trkpt><trkpt lat="40.60535" lon="14.99646"><ele>76.6</ele><time>2026-04-13T16:17:21.873Z</time></trkpt><trkpt lat="40.6052417" lon="14.9965083"><ele>76.2</ele><time>2026-04-13T16:17:22.873Z</time></trkpt><trkpt lat="40.6051417" lon="14.996555"><ele>75.8</ele><time>2026-04-13T16:17:23.873Z</time></trkpt><trkpt lat="40.6050533" lon="14.9965967"><ele>75.4</ele><time>2026-04-13T16:17:24.876Z</time></trkpt><trkpt lat="40.6049733" lon="14.9966383"><ele>75.0</ele><time>2026-04-13T16:17:25.875Z</time></trkpt><trkpt lat="40.60486" lon="14.9966867"><ele>75.0</ele><time>2026-04-13T16:17:27.875Z</time></trkpt><trkpt lat="40.6047467" lon="14.9966917"><ele>75.0</ele><time>2026-04-13T16:17:29.875Z</time></trkpt><trkpt lat="40.6046417" lon="14.9968017"><ele>75.0</ele><time>2026-04-13T16:17:31.876Z</time></trkpt><trkpt lat="40.6046017" lon="14.996895"><ele>75.0</ele><time>2026-04-13T16:17:32.873Z</time></trkpt><trkpt lat="40.60457" lon="14.9970083"><ele>75.0</ele><time>2026-04-13T16:17:33.873Z</time></trkpt><trkpt lat="40.604545" lon="14.9971417"><ele>75.0</ele><time>2026-04-13T16:17:34.875Z</time></trkpt><trkpt lat="40.60451" lon="14.9972817"><ele>75.0</ele><time>2026-04-13T16:17:35.873Z</time></trkpt><trkpt lat="40.6044733" lon="14.9974183"><ele>75.0</ele><time>2026-04-13T16:17:36.873Z</time></trkpt><trkpt lat="40.604445" lon="14.9975617"><ele>75.0</ele><time>2026-04-13T16:17:37.872Z</time></trkpt><trkpt lat="40.6044033" lon="14.9977"><ele>75.0</ele><time>2026-04-13T16:17:38.873Z</time></trkpt><trkpt lat="40.6043633" lon="14.9978433"><ele>75.0</ele><time>2026-04-13T16:17:39.873Z</time></trkpt><trkpt lat="40.6043283" lon="14.9979883"><ele>75.0</ele><time>2026-04-13T16:17:40.875Z</time></trkpt><trkpt lat="40.6042867" lon="14.998125"><ele>75.0</ele><time>2026-04-13T16:17:41.873Z</time></trkpt><trkpt lat="40.6042467" lon="14.9982633"><ele>75.0</ele><time>2026-04-13T16:17:42.88Z</time></trkpt><trkpt lat="40.6042033" lon="14.998405"><ele>76.0</ele><time>2026-04-13T16:17:43.874Z</time></trkpt><trkpt lat="40.604165" lon="14.998555"><ele>77.0</ele><time>2026-04-13T16:17:44.875Z</time></trkpt><trkpt lat="40.6041267" lon="14.9986917"><ele>78.0</ele><time>2026-04-13T16:17:45.875Z</time></trkpt><trkpt lat="40.6040917" lon="14.998815"><ele>79.0</ele><time>2026-04-13T16:17:46.877Z</time></trkpt><trkpt lat="40.604055" lon="14.998925"><ele>80.0</ele><time>2026-04-13T16:17:47.873Z</time></trkpt><trkpt lat="40.6040183" lon="14.9990233"><ele>80.0</ele><time>2026-04-13T16:17:48.874Z</time></trkpt><trkpt lat="40.6039817" lon="14.9991167"><ele>80.0</ele><time>2026-04-13T16:17:49.873Z</time></trkpt><trkpt lat="40.6039433" lon="14.9992167"><ele>80.0</ele><time>2026-04-13T16:17:50.874Z</time></trkpt><trkpt lat="40.6039067" lon="14.9993283"><ele>80.0</ele><time>2026-04-13T16:17:51.873Z</time></trkpt><trkpt lat="40.6038683" lon="14.99945"><ele>80.0</ele><time>2026-04-13T16:17:52.874Z</time></trkpt><trkpt lat="40.6038333" lon="14.9995783"><ele>80.0</ele><time>2026-04-13T16:17:53.872Z</time></trkpt><trkpt lat="40.6037983" lon="14.9997117"><ele>80.0</ele><time>2026-04-13T16:17:54.876Z</time></trkpt><trkpt lat="40.603765" lon="14.9998483"><ele>80.0</ele><time>2026-04-13T16:17:55.873Z</time></trkpt><trkpt lat="40.6037267" lon="14.9999733"><ele>80.0</ele><time>2026-04-13T16:17:56.875Z</time></trkpt><trkpt lat="40.6036917" lon="15.00009"><ele>80.0</ele><time>2026-04-13T16:17:57.875Z</time></trkpt><trkpt lat="40.60367" lon="15.000185"><ele>79.16666666666667</ele><time>2026-04-13T16:17:58.873Z</time></trkpt><trkpt lat="40.6036467" lon="15.0002783"><ele>78.33333333333334</ele><time>2026-04-13T16:17:59.875Z</time></trkpt><trkpt lat="40.6036283" lon="15.0003833"><ele>77.5</ele><time>2026-04-13T16:18:00.875Z</time></trkpt><trkpt lat="40.603605" lon="15.0005017"><ele>76.66666666666667</ele><time>2026-04-13T16:18:01.877Z</time></trkpt><trkpt lat="40.6035717" lon="15.0006117"><ele>75.83333333333333</ele><time>2026-04-13T16:18:02.875Z</time></trkpt><trkpt lat="40.603545" lon="15.0007217"><ele>75.0</ele><time>2026-04-13T16:18:03.876Z</time></trkpt><trkpt lat="40.6035117" lon="15.0008367"><ele>75.0</ele><time>2026-04-13T16:18:04.874Z</time></trkpt><trkpt lat="40.6034667" lon="15.000955"><ele>75.0</ele><time>2026-04-13T16:18:05.873Z</time></trkpt><trkpt lat="40.6034167" lon="15.0010717"><ele>75.0</ele><time>2026-04-13T16:18:06.875Z</time></trkpt><trkpt lat="40.6033733" lon="15.0011883"><ele>75.0</ele><time>2026-04-13T16:18:07.874Z</time></trkpt><trkpt lat="40.6033167" lon="15.001285"><ele>75.0</ele><time>2026-04-13T16:18:08.874Z</time></trkpt><trkpt lat="40.60325" lon="15.001375"><ele>75.0</ele><time>2026-04-13T16:18:09.875Z</time></trkpt><trkpt lat="40.6031733" lon="15.00145"><ele>75.0</ele><time>2026-04-13T16:18:10.874Z</time></trkpt><trkpt lat="40.6030883" lon="15.0015083"><ele>75.0</ele><time>2026-04-13T16:18:11.875Z</time></trkpt><trkpt lat="40.6029917" lon="15.0015383"><ele>75.0</ele><time>2026-04-13T16:18:12.873Z</time></trkpt><trkpt lat="40.602895" lon="15.0015467"><ele>75.0</ele><time>2026-04-13T16:18:13.875Z</time></trkpt><trkpt lat="40.6027983" lon="15.0015383"><ele>74.4</ele><time>2026-04-13T16:18:14.874Z</time></trkpt><trkpt lat="40.6026933" lon="15.001515"><ele>73.8</ele><time>2026-04-13T16:18:15.873Z</time></trkpt><trkpt lat="40.6025867" lon="15.0014983"><ele>73.2</ele><time>2026-04-13T16:18:16.875Z</time></trkpt><trkpt lat="40.6024833" lon="15.0014833"><ele>72.6</ele><time>2026-04-13T16:18:17.876Z</time></trkpt><trkpt lat="40.6023733" lon="15.001465"><ele>72.0</ele><time>2026-04-13T16:18:18.875Z</time></trkpt><trkpt lat="40.60227" lon="15.0014417"><ele>72.0</ele><time>2026-04-13T16:18:19.874Z</time></trkpt><trkpt lat="40.60217" lon="15.0014217"><ele>72.0</ele><time>2026-04-13T16:18:20.877Z</time></trkpt><trkpt lat="40.6020683" lon="15.0014"><ele>72.0</ele><time>2026-04-13T16:18:21.876Z</time></trkpt><trkpt lat="40.6019683" lon="15.0013717"><ele>72.0</ele><time>2026-04-13T16:18:22.875Z</time></trkpt><trkpt lat="40.60187" lon="15.0013433"><ele>72.0</ele><time>2026-04-13T16:18:23.875Z</time></trkpt><trkpt lat="40.6017667" lon="15.0013117"><ele>71.4</ele><time>2026-04-13T16:18:24.876Z</time></trkpt><trkpt lat="40.601665" lon="15.0012767"><ele>70.80000000000001</ele><time>2026-04-13T16:18:25.876Z</time></trkpt><trkpt lat="40.6015633" lon="15.0012383"><ele>70.2</ele><time>2026-04-13T16:18:26.876Z</time></trkpt><trkpt lat="40.60146" lon="15.0011967"><ele>69.60000000000001</ele><time>2026-04-13T16:18:27.875Z</time></trkpt><trkpt lat="40.6013533" lon="15.0011533"><ele>69.0</ele><time>2026-04-13T16:18:28.875Z</time></trkpt><trkpt lat="40.6012483" lon="15.0011067"><ele>68.8</ele><time>2026-04-13T16:18:29.877Z</time></trkpt><trkpt lat="40.6011433" lon="15.0010567"><ele>68.60000000000001</ele><time>2026-04-13T16:18:30.875Z</time></trkpt><trkpt lat="40.6010417" lon="15.001005"><ele>68.4</ele><time>2026-04-13T16:18:31.876Z</time></trkpt><trkpt lat="40.6009417" lon="15.0009483"><ele>68.2</ele><time>2026-04-13T16:18:32.876Z</time></trkpt><trkpt lat="40.6008383" lon="15.0008917"><ele>68.0</ele><time>2026-04-13T16:18:33.875Z</time></trkpt><trkpt lat="40.6007367" lon="15.0008267"><ele>67.75</ele><time>2026-04-13T16:18:34.875Z</time></trkpt><trkpt lat="40.60063" lon="15.000765"><ele>67.5</ele><time>2026-04-13T16:18:35.877Z</time></trkpt><trkpt lat="40.600525" lon="15.0007017"><ele>67.25</ele><time>2026-04-13T16:18:36.875Z</time></trkpt><trkpt lat="40.6004167" lon="15.000645"><ele>67.0</ele><time>2026-04-13T16:18:37.874Z</time></trkpt><trkpt lat="40.6003067" lon="15.0006033"><ele>67.0</ele><time>2026-04-13T16:18:38.875Z</time></trkpt><trkpt lat="40.60021" lon="15.0005467"><ele>67.0</ele><time>2026-04-13T16:18:39.875Z</time></trkpt><trkpt lat="40.6001067" lon="15.00049"><ele>67.0</ele><time>2026-04-13T16:18:40.875Z</time></trkpt><trkpt lat="40.5999967" lon="15.0004283"><ele>67.0</ele><time>2026-04-13T16:18:41.873Z</time></trkpt><trkpt lat="40.59989" lon="15.0003817"><ele>67.0</ele><time>2026-04-13T16:18:42.877Z</time></trkpt><trkpt lat="40.5997867" lon="15.00033"><ele>67.0</ele><time>2026-04-13T16:18:43.874Z</time></trkpt><trkpt lat="40.5996817" lon="15.0002783"><ele>67.0</ele><time>2026-04-13T16:18:44.876Z</time></trkpt><trkpt lat="40.599575" lon="15.0002317"><ele>67.0</ele><time>2026-04-13T16:18:45.875Z</time></trkpt><trkpt lat="40.5994733" lon="15.0001917"><ele>67.0</ele><time>2026-04-13T16:18:46.875Z</time></trkpt><trkpt lat="40.59939" lon="15.0001533"><ele>66.6</ele><time>2026-04-13T16:18:47.873Z</time></trkpt><trkpt lat="40.59932" lon="15.0001217"><ele>66.2</ele><time>2026-04-13T16:18:48.873Z</time></trkpt><trkpt lat="40.5992017" lon="15.0000633"><ele>65.8</ele><time>2026-04-13T16:18:50.874Z</time></trkpt><trkpt lat="40.5991417" lon="15.0000283"><ele>65.4</ele><time>2026-04-13T16:18:51.872Z</time></trkpt><trkpt lat="40.5990233" lon="15.00003"><ele>65.0</ele><time>2026-04-13T16:18:53.874Z</time></trkpt><trkpt lat="40.598945" lon="15.0001633"><ele>65.0</ele><time>2026-04-13T16:18:55.875Z</time></trkpt><trkpt lat="40.5989417" lon="15.0002733"><ele>65.0</ele><time>2026-04-13T16:18:56.877Z</time></trkpt><trkpt lat="40.5989583" lon="15.000385"><ele>65.0</ele><time>2026-04-13T16:18:57.876Z</time></trkpt><trkpt lat="40.59898" lon="15.0004967"><ele>65.0</ele><time>2026-04-13T16:18:58.875Z</time></trkpt><trkpt lat="40.599005" lon="15.0006133"><ele>65.0</ele><time>2026-04-13T16:18:59.876Z</time></trkpt><trkpt lat="40.5990267" lon="15.0007367"><ele>65.0</ele><time>2026-04-13T16:19:00.873Z</time></trkpt><trkpt lat="40.599055" lon="15.000865"><ele>64.8</ele><time>2026-04-13T16:19:01.873Z</time></trkpt><trkpt lat="40.5990833" lon="15.0009917"><ele>64.6</ele><time>2026-04-13T16:19:02.873Z</time></trkpt><trkpt lat="40.599115" lon="15.0011233"><ele>64.4</ele><time>2026-04-13T16:19:03.873Z</time></trkpt><trkpt lat="40.5991417" lon="15.001255"><ele>64.2</ele><time>2026-04-13T16:19:04.874Z</time></trkpt><trkpt lat="40.5991667" lon="15.00139"><ele>64.0</ele><time>2026-04-13T16:19:05.874Z</time></trkpt><trkpt lat="40.5991883" lon="15.0015283"><ele>63.800000000000004</ele><time>2026-04-13T16:19:06.878Z</time></trkpt><trkpt lat="40.5992083" lon="15.00167"><ele>63.60000000000001</ele><time>2026-04-13T16:19:07.873Z</time></trkpt><trkpt lat="40.5992233" lon="15.001815"><ele>63.4</ele><time>2026-04-13T16:19:08.873Z</time></trkpt><trkpt lat="40.59924" lon="15.0019583"><ele>63.2</ele><time>2026-04-13T16:19:09.873Z</time></trkpt><trkpt lat="40.599255" lon="15.002105"><ele>63.0</ele><time>2026-04-13T16:19:10.873Z</time></trkpt><trkpt lat="40.599265" lon="15.0022517"><ele>63.0</ele><time>2026-04-13T16:19:11.873Z</time></trkpt><trkpt lat="40.5992717" lon="15.0024"><ele>63.0</ele><time>2026-04-13T16:19:12.874Z</time></trkpt><trkpt lat="40.5992817" lon="15.0025517"><ele>63.0</ele><time>2026-04-13T16:19:13.873Z</time></trkpt><trkpt lat="40.5993133" lon="15.0035683"><ele>62.25</ele><time>2026-04-13T16:19:20.874Z</time></trkpt><trkpt lat="40.599315" lon="15.003715"><ele>61.5</ele><time>2026-04-13T16:19:21.874Z</time></trkpt><trkpt lat="40.5993183" lon="15.0038583"><ele>60.75</ele><time>2026-04-13T16:19:22.873Z</time></trkpt><trkpt lat="40.599325" lon="15.0041467"><ele>60.0</ele><time>2026-04-13T16:19:24.876Z</time></trkpt><trkpt lat="40.59933" lon="15.004295"><ele>59.8</ele><time>2026-04-13T16:19:25.876Z</time></trkpt><trkpt lat="40.5993417" lon="15.0044417"><ele>59.6</ele><time>2026-04-13T16:19:26.875Z</time></trkpt><trkpt lat="40.5993483" lon="15.0045883"><ele>59.400000000000006</ele><time>2026-04-13T16:19:27.875Z</time></trkpt><trkpt lat="40.5993533" lon="15.0047367"><ele>59.2</ele><time>2026-04-13T16:19:28.873Z</time></trkpt><trkpt lat="40.59936" lon="15.0048833"><ele>59.0</ele><time>2026-04-13T16:19:29.874Z</time></trkpt><trkpt lat="40.5993633" lon="15.0050283"><ele>59.6</ele><time>2026-04-13T16:19:30.876Z</time></trkpt><trkpt lat="40.5993633" lon="15.0051717"><ele>60.2</ele><time>2026-04-13T16:19:31.874Z</time></trkpt><trkpt lat="40.599365" lon="15.0053183"><ele>60.800000000000004</ele><time>2026-04-13T16:19:32.873Z</time></trkpt><trkpt lat="40.5993667" lon="15.005465"><ele>61.400000000000006</ele><time>2026-04-13T16:19:33.873Z</time></trkpt><trkpt lat="40.5993733" lon="15.0056133"><ele>62.0</ele><time>2026-04-13T16:19:34.874Z</time></trkpt><trkpt lat="40.59938" lon="15.0057617"><ele>62.0</ele><time>2026-04-13T16:19:35.873Z</time></trkpt><trkpt lat="40.5993883" lon="15.0059083"><ele>62.0</ele><time>2026-04-13T16:19:36.873Z</time></trkpt><trkpt lat="40.599395" lon="15.006055"><ele>62.0</ele><time>2026-04-13T16:19:37.873Z</time></trkpt><trkpt lat="40.5994033" lon="15.006205"><ele>62.0</ele><time>2026-04-13T16:19:38.873Z</time></trkpt><trkpt lat="40.5994067" lon="15.0063533"><ele>62.0</ele><time>2026-04-13T16:19:39.873Z</time></trkpt><trkpt lat="40.5994133" lon="15.0065033"><ele>62.0</ele><time>2026-04-13T16:19:40.873Z</time></trkpt><trkpt lat="40.5994217" lon="15.006655"><ele>62.0</ele><time>2026-04-13T16:19:41.873Z</time></trkpt><trkpt lat="40.59943" lon="15.0068067"><ele>62.0</ele><time>2026-04-13T16:19:42.874Z</time></trkpt><trkpt lat="40.599435" lon="15.00696"><ele>61.75</ele><time>2026-04-13T16:19:43.872Z</time></trkpt><trkpt lat="40.5994383" lon="15.00711"><ele>61.5</ele><time>2026-04-13T16:19:44.874Z</time></trkpt><trkpt lat="40.5994483" lon="15.0072617"><ele>61.25</ele><time>2026-04-13T16:19:45.873Z</time></trkpt><trkpt lat="40.5994517" lon="15.0074133"><ele>61.0</ele><time>2026-04-13T16:19:46.873Z</time></trkpt><trkpt lat="40.599445" lon="15.0075633"><ele>60.5</ele><time>2026-04-13T16:19:47.873Z</time></trkpt><trkpt lat="40.5994417" lon="15.0077133"><ele>60.0</ele><time>2026-04-13T16:19:48.876Z</time></trkpt><trkpt lat="40.5994383" lon="15.0078667"><ele>59.5</ele><time>2026-04-13T16:19:49.875Z</time></trkpt><trkpt lat="40.5994333" lon="15.0080183"><ele>59.0</ele><time>2026-04-13T16:19:50.877Z</time></trkpt><trkpt lat="40.5994283" lon="15.0081767"><ele>59.5</ele><time>2026-04-13T16:19:51.875Z</time></trkpt><trkpt lat="40.5994083" lon="15.0083267"><ele>60.0</ele><time>2026-04-13T16:19:52.875Z</time></trkpt><trkpt lat="40.5993933" lon="15.0084783"><ele>60.5</ele><time>2026-04-13T16:19:53.875Z</time></trkpt><trkpt lat="40.5993767" lon="15.008635"><ele>61.0</ele><time>2026-04-13T16:19:54.875Z</time></trkpt><trkpt lat="40.599355" lon="15.0087883"><ele>61.0</ele><time>2026-04-13T16:19:55.875Z</time></trkpt><trkpt lat="40.5993183" lon="15.0089333"><ele>61.0</ele><time>2026-04-13T16:19:56.876Z</time></trkpt><trkpt lat="40.5992683" lon="15.00907"><ele>61.0</ele><time>2026-04-13T16:19:57.876Z</time></trkpt><trkpt lat="40.5992" lon="15.009185"><ele>61.0</ele><time>2026-04-13T16:19:58.876Z</time></trkpt><trkpt lat="40.599115" lon="15.009275"><ele>60.8</ele><time>2026-04-13T16:19:59.875Z</time></trkpt><trkpt lat="40.59902" lon="15.00934"><ele>60.599999999999994</ele><time>2026-04-13T16:20:00.875Z</time></trkpt><trkpt lat="40.5989233" lon="15.0093917"><ele>60.4</ele><time>2026-04-13T16:20:01.874Z</time></trkpt><trkpt lat="40.59883" lon="15.00943"><ele>60.2</ele><time>2026-04-13T16:20:02.874Z</time></trkpt><trkpt lat="40.5987367" lon="15.0094567"><ele>60.0</ele><time>2026-04-13T16:20:03.873Z</time></trkpt><trkpt lat="40.5986467" lon="15.0094833"><ele>59.666666666666664</ele><time>2026-04-13T16:20:04.873Z</time></trkpt><trkpt lat="40.5985633" lon="15.0095117"><ele>59.33333333333333</ele><time>2026-04-13T16:20:05.874Z</time></trkpt><trkpt lat="40.5984767" lon="15.0095467"><ele>59.0</ele><time>2026-04-13T16:20:06.873Z</time></trkpt><trkpt lat="40.5983967" lon="15.0095717"><ele>58.666666666666664</ele><time>2026-04-13T16:20:07.872Z</time></trkpt><trkpt lat="40.598325" lon="15.0095933"><ele>58.33333333333333</ele><time>2026-04-13T16:20:08.873Z</time></trkpt><trkpt lat="40.598255" lon="15.009625"><ele>58.0</ele><time>2026-04-13T16:20:09.877Z</time></trkpt><trkpt lat="40.5981817" lon="15.00965"><ele>58.0</ele><time>2026-04-13T16:20:10.873Z</time></trkpt><trkpt lat="40.598115" lon="15.009635"><ele>58.0</ele><time>2026-04-13T16:20:11.873Z</time></trkpt><trkpt lat="40.59803" lon="15.0095217"><ele>58.0</ele><time>2026-04-13T16:20:13.873Z</time></trkpt><trkpt lat="40.598005" lon="15.0093817"><ele>58.0</ele><time>2026-04-13T16:20:15.874Z</time></trkpt><trkpt lat="40.5980017" lon="15.0092533"><ele>58.0</ele><time>2026-04-13T16:20:17.876Z</time></trkpt><trkpt lat="40.59799" lon="15.00915"><ele>58.0</ele><time>2026-04-13T16:20:19.876Z</time></trkpt></trkseg></trk></gpx>